<?xml version='1.0' encoding='UTF-8'?><gpx version="1.1" creator="JPX - https://github.com/jenetics/jpx" xmlns="http://www.topografix.com/GPX/1/1"><trk><trkseg><trkpt lat="44.1849689" lon="12.1150064"><ele>28.833333333333332</ele><time>2026-03-28T13:02:31.746Z</time></trkpt><trkpt lat="44.1849427" lon="12.114884"><ele>28.666666666666664</ele><time>2026-03-28T13:03:28.766Z</time></trkpt><trkpt lat="44.1849096" lon="12.1147995"><ele>28.5</ele><time>2026-03-28T13:03:32.733Z</time></trkpt><trkpt lat="44.1849833" lon="12.1147183"><ele>28.333333333333336</ele><time>2026-03-28T13:03:36.644Z</time></trkpt><trkpt lat="44.18502" lon="12.1145983"><ele>28.166666666666668</ele><time>2026-03-28T13:03:39.644Z</time></trkpt><trkpt lat="44.18505" lon="12.1145033"><ele>28.0</ele><time>2026-03-28T13:03:42.645Z</time></trkpt><trkpt lat="44.1850433" lon="12.1144083"><ele>28.0</ele><time>2026-03-28T13:03:45.644Z</time></trkpt><trkpt lat="44.1850617" lon="12.1142983"><ele>28.0</ele><time>2026-03-28T13:03:48.644Z</time></trkpt><trkpt lat="44.1850717" lon="12.1142083"><ele>28.0</ele><time>2026-03-28T13:03:50.645Z</time></trkpt><trkpt lat="44.18509" lon="12.1140967"><ele>28.0</ele><time>2026-03-28T13:03:53.644Z</time></trkpt><trkpt lat="44.18508" lon="12.1139933"><ele>28.0</ele><time>2026-03-28T13:03:58.644Z</time></trkpt><trkpt lat="44.1850383" lon="12.1139067"><ele>28.0</ele><time>2026-03-28T13:04:02.645Z</time></trkpt><trkpt lat="44.1849867" lon="12.1138533"><ele>28.0</ele><time>2026-03-28T13:04:04.644Z</time></trkpt><trkpt lat="44.184915" lon="12.1137767"><ele>27.833333333333336</ele><time>2026-03-28T13:04:07.645Z</time></trkpt><trkpt lat="44.1848533" lon="12.1137217"><ele>27.666666666666668</ele><time>2026-03-28T13:04:09.644Z</time></trkpt><trkpt lat="44.1847883" lon="12.1136633"><ele>27.5</ele><time>2026-03-28T13:04:11.644Z</time></trkpt><trkpt lat="44.1847283" lon="12.1135883"><ele>27.333333333333336</ele><time>2026-03-28T13:04:13.644Z</time></trkpt><trkpt lat="44.18466" lon="12.113515"><ele>27.166666666666668</ele><time>2026-03-28T13:04:15.644Z</time></trkpt><trkpt lat="44.1845967" lon="12.1134417"><ele>27.0</ele><time>2026-03-28T13:04:17.644Z</time></trkpt><trkpt lat="44.1845367" lon="12.11337"><ele>27.0</ele><time>2026-03-28T13:04:19.644Z</time></trkpt><trkpt lat="44.1844717" lon="12.1133117"><ele>27.0</ele><time>2026-03-28T13:04:21.644Z</time></trkpt><trkpt lat="44.1843817" lon="12.1132467"><ele>27.0</ele><time>2026-03-28T13:04:23.644Z</time></trkpt><trkpt lat="44.1842867" lon="12.1131833"><ele>27.0</ele><time>2026-03-28T13:04:26.644Z</time></trkpt><trkpt lat="44.1842217" lon="12.1131283"><ele>27.0</ele><time>2026-03-28T13:04:28.644Z</time></trkpt><trkpt lat="44.1841733" lon="12.113055"><ele>27.0</ele><time>2026-03-28T13:04:30.645Z</time></trkpt><trkpt lat="44.18411" lon="12.113005"><ele>27.0</ele><time>2026-03-28T13:04:32.644Z</time></trkpt><trkpt lat="44.184045" lon="12.112955"><ele>27.0</ele><time>2026-03-28T13:04:34.644Z</time></trkpt><trkpt lat="44.1839733" lon="12.1129017"><ele>27.0</ele><time>2026-03-28T13:04:37.645Z</time></trkpt><trkpt lat="44.1840217" lon="12.112965"><ele>27.0</ele><time>2026-03-28T13:04:45.645Z</time></trkpt><trkpt lat="44.1840867" lon="12.1130117"><ele>27.0</ele><time>2026-03-28T13:04:48.644Z</time></trkpt><trkpt lat="44.1841467" lon="12.1130583"><ele>27.0</ele><time>2026-03-28T13:04:50.645Z</time></trkpt><trkpt lat="44.18421" lon="12.113025"><ele>27.0</ele><time>2026-03-28T13:04:53.644Z</time></trkpt><trkpt lat="44.1842717" lon="12.1129267"><ele>27.0</ele><time>2026-03-28T13:04:56.644Z</time></trkpt><trkpt lat="44.1843183" lon="12.1128567"><ele>27.0</ele><time>2026-03-28T13:04:58.645Z</time></trkpt><trkpt lat="44.1843717" lon="12.112775"><ele>27.0</ele><time>2026-03-28T13:05:00.644Z</time></trkpt><trkpt lat="44.18443" lon="12.1126917"><ele>27.0</ele><time>2026-03-28T13:05:02.645Z</time></trkpt><trkpt lat="44.18448" lon="12.1125833"><ele>27.0</ele><time>2026-03-28T13:05:04.644Z</time></trkpt><trkpt lat="44.1845283" lon="12.11246"><ele>27.0</ele><time>2026-03-28T13:05:06.644Z</time></trkpt><trkpt lat="44.1845767" lon="12.1123317"><ele>27.0</ele><time>2026-03-28T13:05:08.644Z</time></trkpt><trkpt lat="44.18463" lon="12.1122033"><ele>27.000000000000004</ele><time>2026-03-28T13:05:10.645Z</time></trkpt><trkpt lat="44.1846833" lon="12.1120767"><ele>27.000000000000004</ele><time>2026-03-28T13:05:12.644Z</time></trkpt><trkpt lat="44.1847567" lon="12.1119517"><ele>27.0</ele><time>2026-03-28T13:05:14.645Z</time></trkpt><trkpt lat="44.1848233" lon="12.1118217"><ele>27.0</ele><time>2026-03-28T13:05:16.645Z</time></trkpt><trkpt lat="44.1848517" lon="12.11168"><ele>27.0</ele><time>2026-03-28T13:05:18.644Z</time></trkpt><trkpt lat="44.1848817" lon="12.1115967"><ele>27.0</ele><time>2026-03-28T13:05:19.644Z</time></trkpt><trkpt lat="44.1849083" lon="12.1115167"><ele>27.0</ele><time>2026-03-28T13:05:20.644Z</time></trkpt><trkpt lat="44.1849483" lon="12.1114033"><ele>27.0</ele><time>2026-03-28T13:05:22.644Z</time></trkpt><trkpt lat="44.184985" lon="12.11131"><ele>27.0</ele><time>2026-03-28T13:05:24.645Z</time></trkpt><trkpt lat="44.1850217" lon="12.11122"><ele>27.0</ele><time>2026-03-28T13:05:26.645Z</time></trkpt><trkpt lat="44.1850517" lon="12.1111417"><ele>27.0</ele><time>2026-03-28T13:05:28.644Z</time></trkpt><trkpt lat="44.1850933" lon="12.1110467"><ele>27.0</ele><time>2026-03-28T13:05:30.644Z</time></trkpt><trkpt lat="44.1851333" lon="12.110955"><ele>27.0</ele><time>2026-03-28T13:05:32.644Z</time></trkpt><trkpt lat="44.1851833" lon="12.110855"><ele>27.0</ele><time>2026-03-28T13:05:35.645Z</time></trkpt><trkpt lat="44.1852217" lon="12.1107767"><ele>27.0</ele><time>2026-03-28T13:05:37.645Z</time></trkpt><trkpt lat="44.185265" lon="12.1106917"><ele>27.0</ele><time>2026-03-28T13:05:39.644Z</time></trkpt><trkpt lat="44.1853133" lon="12.1106033"><ele>27.0</ele><time>2026-03-28T13:05:41.644Z</time></trkpt><trkpt lat="44.1853533" lon="12.1105133"><ele>27.0</ele><time>2026-03-28T13:05:43.644Z</time></trkpt><trkpt lat="44.1853917" lon="12.1104117"><ele>27.000000000000004</ele><time>2026-03-28T13:05:45.645Z</time></trkpt><trkpt lat="44.1854433" lon="12.110305"><ele>27.000000000000004</ele><time>2026-03-28T13:05:47.644Z</time></trkpt><trkpt lat="44.185505" lon="12.1102017"><ele>27.0</ele><time>2026-03-28T13:05:49.644Z</time></trkpt><trkpt lat="44.1855683" lon="12.11011"><ele>27.0</ele><time>2026-03-28T13:05:51.644Z</time></trkpt><trkpt lat="44.1856367" lon="12.1100233"><ele>27.200000000000003</ele><time>2026-03-28T13:05:53.644Z</time></trkpt><trkpt lat="44.18571" lon="12.1099317"><ele>27.400000000000002</ele><time>2026-03-28T13:05:55.644Z</time></trkpt><trkpt lat="44.1857833" lon="12.1098317"><ele>27.599999999999998</ele><time>2026-03-28T13:05:57.644Z</time></trkpt><trkpt lat="44.18585" lon="12.1097267"><ele>27.799999999999997</ele><time>2026-03-28T13:05:59.645Z</time></trkpt><trkpt lat="44.18592" lon="12.109595"><ele>28.0</ele><time>2026-03-28T13:06:01.645Z</time></trkpt><trkpt lat="44.185955" lon="12.1095217"><ele>28.0</ele><time>2026-03-28T13:06:02.644Z</time></trkpt><trkpt lat="44.18599" lon="12.109445"><ele>27.999999999999996</ele><time>2026-03-28T13:06:03.644Z</time></trkpt><trkpt lat="44.1860467" lon="12.1093133"><ele>27.999999999999996</ele><time>2026-03-28T13:06:05.644Z</time></trkpt><trkpt lat="44.1860933" lon="12.109205"><ele>28.0</ele><time>2026-03-28T13:06:07.644Z</time></trkpt><trkpt lat="44.186135" lon="12.1090833"><ele>28.0</ele><time>2026-03-28T13:06:09.644Z</time></trkpt><trkpt lat="44.1862017" lon="12.10896"><ele>28.0</ele><time>2026-03-28T13:06:11.645Z</time></trkpt><trkpt lat="44.1862633" lon="12.1088333"><ele>28.0</ele><time>2026-03-28T13:06:13.644Z</time></trkpt><trkpt lat="44.1863283" lon="12.108705"><ele>28.0</ele><time>2026-03-28T13:06:15.644Z</time></trkpt><trkpt lat="44.186395" lon="12.1085733"><ele>28.0</ele><time>2026-03-28T13:06:17.644Z</time></trkpt><trkpt lat="44.1864583" lon="12.1084417"><ele>27.799999999999997</ele><time>2026-03-28T13:06:19.644Z</time></trkpt><trkpt lat="44.18652" lon="12.10831"><ele>27.599999999999998</ele><time>2026-03-28T13:06:21.644Z</time></trkpt><trkpt lat="44.1865783" lon="12.1081917"><ele>27.400000000000002</ele><time>2026-03-28T13:06:23.644Z</time></trkpt><trkpt lat="44.1866333" lon="12.1080833"><ele>27.200000000000003</ele><time>2026-03-28T13:06:25.645Z</time></trkpt><trkpt lat="44.186685" lon="12.1079567"><ele>27.0</ele><time>2026-03-28T13:06:27.644Z</time></trkpt><trkpt lat="44.1867417" lon="12.1078317"><ele>27.0</ele><time>2026-03-28T13:06:29.644Z</time></trkpt><trkpt lat="44.1868" lon="12.1077017"><ele>27.000000000000004</ele><time>2026-03-28T13:06:31.644Z</time></trkpt><trkpt lat="44.1868583" lon="12.1075767"><ele>27.000000000000004</ele><time>2026-03-28T13:06:33.644Z</time></trkpt><trkpt lat="44.1869117" lon="12.107445"><ele>27.0</ele><time>2026-03-28T13:06:35.644Z</time></trkpt><trkpt lat="44.186965" lon="12.10731"><ele>27.0</ele><time>2026-03-28T13:06:37.644Z</time></trkpt><trkpt lat="44.1870167" lon="12.1071917"><ele>27.0</ele><time>2026-03-28T13:06:39.644Z</time></trkpt><trkpt lat="44.1870683" lon="12.1070683"><ele>27.000000000000004</ele><time>2026-03-28T13:06:41.644Z</time></trkpt><trkpt lat="44.1871167" lon="12.1069517"><ele>27.000000000000004</ele><time>2026-03-28T13:06:43.644Z</time></trkpt><trkpt lat="44.18717" lon="12.1068317"><ele>27.0</ele><time>2026-03-28T13:06:45.644Z</time></trkpt><trkpt lat="44.187225" lon="12.1067067"><ele>27.0</ele><time>2026-03-28T13:06:47.644Z</time></trkpt><trkpt lat="44.1872733" lon="12.10659"><ele>27.0</ele><time>2026-03-28T13:06:49.644Z</time></trkpt><trkpt lat="44.18732" lon="12.1064717"><ele>27.0</ele><time>2026-03-28T13:06:51.644Z</time></trkpt><trkpt lat="44.1873767" lon="12.1063783"><ele>27.0</ele><time>2026-03-28T13:06:53.644Z</time></trkpt><trkpt lat="44.18744" lon="12.1063467"><ele>27.0</ele><time>2026-03-28T13:06:55.645Z</time></trkpt><trkpt lat="44.1875233" lon="12.1064083"><ele>27.0</ele><time>2026-03-28T13:06:58.644Z</time></trkpt><trkpt lat="44.18759" lon="12.1064717"><ele>27.0</ele><time>2026-03-28T13:07:00.644Z</time></trkpt><trkpt lat="44.187675" lon="12.1065267"><ele>27.200000000000003</ele><time>2026-03-28T13:07:02.644Z</time></trkpt><trkpt lat="44.1877583" lon="12.1066117"><ele>27.400000000000002</ele><time>2026-03-28T13:07:04.644Z</time></trkpt><trkpt lat="44.1878183" lon="12.106645"><ele>27.599999999999998</ele><time>2026-03-28T13:07:05.644Z</time></trkpt><trkpt lat="44.18793" lon="12.1067133"><ele>27.799999999999997</ele><time>2026-03-28T13:07:07.644Z</time></trkpt><trkpt lat="44.1880383" lon="12.106785"><ele>28.0</ele><time>2026-03-28T13:07:09.644Z</time></trkpt><trkpt lat="44.1881467" lon="12.1068567"><ele>27.75</ele><time>2026-03-28T13:07:11.644Z</time></trkpt><trkpt lat="44.188255" lon="12.1069333"><ele>27.5</ele><time>2026-03-28T13:07:13.644Z</time></trkpt><trkpt lat="44.1883583" lon="12.1070117"><ele>27.25</ele><time>2026-03-28T13:07:15.644Z</time></trkpt><trkpt lat="44.18846" lon="12.107085"><ele>27.0</ele><time>2026-03-28T13:07:17.644Z</time></trkpt><trkpt lat="44.1885567" lon="12.1071567"><ele>27.0</ele><time>2026-03-28T13:07:19.645Z</time></trkpt><trkpt lat="44.1886567" lon="12.107245"><ele>27.0</ele><time>2026-03-28T13:07:21.644Z</time></trkpt><trkpt lat="44.1887533" lon="12.1073267"><ele>27.0</ele><time>2026-03-28T13:07:23.644Z</time></trkpt><trkpt lat="44.18885" lon="12.1074017"><ele>27.0</ele><time>2026-03-28T13:07:25.644Z</time></trkpt><trkpt lat="44.1889467" lon="12.1074683"><ele>27.200000000000003</ele><time>2026-03-28T13:07:27.645Z</time></trkpt><trkpt lat="44.1890383" lon="12.1075367"><ele>27.400000000000002</ele><time>2026-03-28T13:07:29.644Z</time></trkpt><trkpt lat="44.1891283" lon="12.1075933"><ele>27.599999999999998</ele><time>2026-03-28T13:07:31.645Z</time></trkpt><trkpt lat="44.1892183" lon="12.1076217"><ele>27.799999999999997</ele><time>2026-03-28T13:07:33.644Z</time></trkpt><trkpt lat="44.1893067" lon="12.1076067"><ele>28.0</ele><time>2026-03-28T13:07:35.644Z</time></trkpt><trkpt lat="44.1893833" lon="12.1075433"><ele>28.000000000000004</ele><time>2026-03-28T13:07:37.645Z</time></trkpt><trkpt lat="44.1894467" lon="12.1074583"><ele>28.0</ele><time>2026-03-28T13:07:39.645Z</time></trkpt><trkpt lat="44.1895117" lon="12.1073883"><ele>28.0</ele><time>2026-03-28T13:07:41.644Z</time></trkpt><trkpt lat="44.189575" lon="12.1073683"><ele>28.0</ele><time>2026-03-28T13:07:43.644Z</time></trkpt><trkpt lat="44.1896633" lon="12.1074017"><ele>28.000000000000004</ele><time>2026-03-28T13:07:45.645Z</time></trkpt><trkpt lat="44.1897683" lon="12.1074583"><ele>28.0</ele><time>2026-03-28T13:07:47.644Z</time></trkpt><trkpt lat="44.189875" lon="12.1075267"><ele>28.0</ele><time>2026-03-28T13:07:49.644Z</time></trkpt><trkpt lat="44.1899333" lon="12.1075633"><ele>27.999999999999996</ele><time>2026-03-28T13:07:50.645Z</time></trkpt><trkpt lat="44.1899917" lon="12.1076"><ele>27.999999999999996</ele><time>2026-03-28T13:07:51.644Z</time></trkpt><trkpt lat="44.1900983" lon="12.1076683"><ele>28.0</ele><time>2026-03-28T13:07:53.644Z</time></trkpt><trkpt lat="44.1902017" lon="12.10774"><ele>28.0</ele><time>2026-03-28T13:07:55.644Z</time></trkpt><trkpt lat="44.1903067" lon="12.1078117"><ele>28.0</ele><time>2026-03-28T13:07:57.644Z</time></trkpt><trkpt lat="44.1904133" lon="12.107885"><ele>28.0</ele><time>2026-03-28T13:07:59.644Z</time></trkpt><trkpt lat="44.1905183" lon="12.107955"><ele>28.0</ele><time>2026-03-28T13:08:01.644Z</time></trkpt><trkpt lat="44.19062" lon="12.1080233"><ele>28.0</ele><time>2026-03-28T13:08:03.644Z</time></trkpt><trkpt lat="44.1907183" lon="12.10809"><ele>28.0</ele><time>2026-03-28T13:08:05.644Z</time></trkpt><trkpt lat="44.1908183" lon="12.108155"><ele>27.999999999999996</ele><time>2026-03-28T13:08:07.644Z</time></trkpt><trkpt lat="44.1909217" lon="12.1082117"><ele>27.999999999999996</ele><time>2026-03-28T13:08:09.644Z</time></trkpt><trkpt lat="44.1910167" lon="12.1082767"><ele>28.0</ele><time>2026-03-28T13:08:11.644Z</time></trkpt><trkpt lat="44.1911" lon="12.1083467"><ele>28.0</ele><time>2026-03-28T13:08:13.644Z</time></trkpt><trkpt lat="44.191175" lon="12.1084233"><ele>27.799999999999997</ele><time>2026-03-28T13:08:15.645Z</time></trkpt><trkpt lat="44.1912583" lon="12.1085"><ele>27.599999999999998</ele><time>2026-03-28T13:08:17.644Z</time></trkpt><trkpt lat="44.191355" lon="12.10857"><ele>27.400000000000002</ele><time>2026-03-28T13:08:19.644Z</time></trkpt><trkpt lat="44.1914483" lon="12.1086333"><ele>27.200000000000003</ele><time>2026-03-28T13:08:21.645Z</time></trkpt><trkpt lat="44.19154" lon="12.1086983"><ele>27.0</ele><time>2026-03-28T13:08:23.645Z</time></trkpt><trkpt lat="44.1916333" lon="12.1087633"><ele>26.8</ele><time>2026-03-28T13:08:25.644Z</time></trkpt><trkpt lat="44.19174" lon="12.108825"><ele>26.6</ele><time>2026-03-28T13:08:27.644Z</time></trkpt><trkpt lat="44.191845" lon="12.1088967"><ele>26.400000000000002</ele><time>2026-03-28T13:08:29.645Z</time></trkpt><trkpt lat="44.1919383" lon="12.10896"><ele>26.200000000000003</ele><time>2026-03-28T13:08:31.644Z</time></trkpt><trkpt lat="44.1920283" lon="12.10903"><ele>26.0</ele><time>2026-03-28T13:08:33.644Z</time></trkpt><trkpt lat="44.1921217" lon="12.1091"><ele>26.0</ele><time>2026-03-28T13:08:35.644Z</time></trkpt><trkpt lat="44.1922083" lon="12.1091633"><ele>26.0</ele><time>2026-03-28T13:08:37.644Z</time></trkpt><trkpt lat="44.1922983" lon="12.1092317"><ele>26.0</ele><time>2026-03-28T13:08:39.644Z</time></trkpt><trkpt lat="44.1923833" lon="12.109305"><ele>26.0</ele><time>2026-03-28T13:08:41.644Z</time></trkpt><trkpt lat="44.1924583" lon="12.1093783"><ele>26.0</ele><time>2026-03-28T13:08:43.644Z</time></trkpt><trkpt lat="44.19252" lon="12.109445"><ele>25.999999999999996</ele><time>2026-03-28T13:08:45.644Z</time></trkpt><trkpt lat="44.1925933" lon="12.1095017"><ele>26.0</ele><time>2026-03-28T13:08:47.644Z</time></trkpt><trkpt lat="44.1926733" lon="12.1095683"><ele>26.0</ele><time>2026-03-28T13:08:49.644Z</time></trkpt><trkpt lat="44.1927467" lon="12.1096317"><ele>26.0</ele><time>2026-03-28T13:08:51.644Z</time></trkpt><trkpt lat="44.1928217" lon="12.109685"><ele>25.999999999999996</ele><time>2026-03-28T13:08:53.644Z</time></trkpt><trkpt lat="44.19289" lon="12.1097433"><ele>26.0</ele><time>2026-03-28T13:08:55.644Z</time></trkpt><trkpt lat="44.19296" lon="12.1097917"><ele>25.999999999999996</ele><time>2026-03-28T13:08:57.644Z</time></trkpt><trkpt lat="44.1930367" lon="12.1098383"><ele>26.0</ele><time>2026-03-28T13:08:59.645Z</time></trkpt><trkpt lat="44.1930983" lon="12.10988"><ele>26.0</ele><time>2026-03-28T13:09:01.644Z</time></trkpt><trkpt lat="44.1931683" lon="12.1099333"><ele>26.0</ele><time>2026-03-28T13:09:04.645Z</time></trkpt><trkpt lat="44.1932333" lon="12.1099717"><ele>25.999999999999996</ele><time>2026-03-28T13:09:08.644Z</time></trkpt><trkpt lat="44.193355" lon="12.1099667"><ele>26.0</ele><time>2026-03-28T13:09:29.644Z</time></trkpt><trkpt lat="44.1934233" lon="12.1099033"><ele>25.999999999999996</ele><time>2026-03-28T13:09:33.644Z</time></trkpt><trkpt lat="44.1934817" lon="12.1098417"><ele>26.0</ele><time>2026-03-28T13:09:36.644Z</time></trkpt><trkpt lat="44.1935283" lon="12.1097817"><ele>26.0</ele><time>2026-03-28T13:09:38.644Z</time></trkpt><trkpt lat="44.1935833" lon="12.10971"><ele>26.0</ele><time>2026-03-28T13:09:40.645Z</time></trkpt><trkpt lat="44.1936267" lon="12.10962"><ele>25.999999999999996</ele><time>2026-03-28T13:09:42.644Z</time></trkpt><trkpt lat="44.193675" lon="12.10951"><ele>26.0</ele><time>2026-03-28T13:09:44.644Z</time></trkpt><trkpt lat="44.1937217" lon="12.109385"><ele>26.0</ele><time>2026-03-28T13:09:46.645Z</time></trkpt><trkpt lat="44.1937683" lon="12.1092667"><ele>26.0</ele><time>2026-03-28T13:09:48.645Z</time></trkpt><trkpt lat="44.19382" lon="12.109145"><ele>26.0</ele><time>2026-03-28T13:09:50.644Z</time></trkpt><trkpt lat="44.19388" lon="12.1090183"><ele>26.0</ele><time>2026-03-28T13:09:52.644Z</time></trkpt><trkpt lat="44.1939267" lon="12.1089033"><ele>26.0</ele><time>2026-03-28T13:09:54.644Z</time></trkpt><trkpt lat="44.193975" lon="12.108785"><ele>26.200000000000003</ele><time>2026-03-28T13:09:56.644Z</time></trkpt><trkpt lat="44.19402" lon="12.10866"><ele>26.400000000000002</ele><time>2026-03-28T13:09:58.644Z</time></trkpt><trkpt lat="44.1940883" lon="12.108535"><ele>26.6</ele><time>2026-03-28T13:10:00.645Z</time></trkpt><trkpt lat="44.1941417" lon="12.1083983"><ele>26.8</ele><time>2026-03-28T13:10:02.644Z</time></trkpt><trkpt lat="44.1941933" lon="12.1082767"><ele>27.0</ele><time>2026-03-28T13:10:04.644Z</time></trkpt><trkpt lat="44.1942317" lon="12.1081683"><ele>27.0</ele><time>2026-03-28T13:10:06.644Z</time></trkpt><trkpt lat="44.1942783" lon="12.1080717"><ele>27.000000000000004</ele><time>2026-03-28T13:10:08.644Z</time></trkpt><trkpt lat="44.1943267" lon="12.1079617"><ele>27.000000000000004</ele><time>2026-03-28T13:10:10.644Z</time></trkpt><trkpt lat="44.1943783" lon="12.1078367"><ele>27.0</ele><time>2026-03-28T13:10:12.645Z</time></trkpt><trkpt lat="44.194425" lon="12.107715"><ele>27.0</ele><time>2026-03-28T13:10:14.645Z</time></trkpt><trkpt lat="44.194465" lon="12.1075933"><ele>27.0</ele><time>2026-03-28T13:10:16.645Z</time></trkpt><trkpt lat="44.1945017" lon="12.1074667"><ele>27.000000000000004</ele><time>2026-03-28T13:10:18.644Z</time></trkpt><trkpt lat="44.19455" lon="12.1073367"><ele>27.000000000000004</ele><time>2026-03-28T13:10:20.644Z</time></trkpt><trkpt lat="44.1945983" lon="12.1072133"><ele>27.0</ele><time>2026-03-28T13:10:22.645Z</time></trkpt><trkpt lat="44.1946483" lon="12.10709"><ele>27.0</ele><time>2026-03-28T13:10:24.645Z</time></trkpt><trkpt lat="44.1946917" lon="12.1069683"><ele>27.0</ele><time>2026-03-28T13:10:26.644Z</time></trkpt><trkpt lat="44.1947383" lon="12.10685"><ele>27.000000000000004</ele><time>2026-03-28T13:10:28.644Z</time></trkpt><trkpt lat="44.1947883" lon="12.1067367"><ele>27.000000000000004</ele><time>2026-03-28T13:10:30.645Z</time></trkpt><trkpt lat="44.1948367" lon="12.1066217"><ele>27.0</ele><time>2026-03-28T13:10:32.644Z</time></trkpt><trkpt lat="44.19489" lon="12.1065"><ele>27.0</ele><time>2026-03-28T13:10:34.644Z</time></trkpt><trkpt lat="44.194945" lon="12.106365"><ele>26.8</ele><time>2026-03-28T13:10:36.644Z</time></trkpt><trkpt lat="44.195" lon="12.1062417"><ele>26.6</ele><time>2026-03-28T13:10:38.644Z</time></trkpt><trkpt lat="44.19505" lon="12.1061267"><ele>26.400000000000002</ele><time>2026-03-28T13:10:40.644Z</time></trkpt><trkpt lat="44.1950967" lon="12.106015"><ele>26.200000000000003</ele><time>2026-03-28T13:10:42.644Z</time></trkpt><trkpt lat="44.1951467" lon="12.1059117"><ele>26.0</ele><time>2026-03-28T13:10:44.644Z</time></trkpt><trkpt lat="44.1951917" lon="12.1057983"><ele>26.200000000000003</ele><time>2026-03-28T13:10:46.644Z</time></trkpt><trkpt lat="44.19524" lon="12.105685"><ele>26.400000000000002</ele><time>2026-03-28T13:10:48.644Z</time></trkpt><trkpt lat="44.195285" lon="12.1055667"><ele>26.6</ele><time>2026-03-28T13:10:50.644Z</time></trkpt><trkpt lat="44.195325" lon="12.1054617"><ele>26.8</ele><time>2026-03-28T13:10:52.644Z</time></trkpt><trkpt lat="44.1953683" lon="12.10535"><ele>27.0</ele><time>2026-03-28T13:10:54.644Z</time></trkpt><trkpt lat="44.1954167" lon="12.1052333"><ele>27.0</ele><time>2026-03-28T13:10:56.646Z</time></trkpt><trkpt lat="44.19547" lon="12.10512"><ele>27.0</ele><time>2026-03-28T13:10:58.645Z</time></trkpt><trkpt lat="44.1955167" lon="12.10501"><ele>27.0</ele><time>2026-03-28T13:11:00.645Z</time></trkpt><trkpt lat="44.1955617" lon="12.1049"><ele>27.0</ele><time>2026-03-28T13:11:02.645Z</time></trkpt><trkpt lat="44.1956" lon="12.1047983"><ele>27.0</ele><time>2026-03-28T13:11:04.645Z</time></trkpt><trkpt lat="44.195635" lon="12.1047017"><ele>27.0</ele><time>2026-03-28T13:11:06.645Z</time></trkpt><trkpt lat="44.1956683" lon="12.1046067"><ele>27.0</ele><time>2026-03-28T13:11:08.645Z</time></trkpt><trkpt lat="44.195715" lon="12.1044917"><ele>27.0</ele><time>2026-03-28T13:11:10.645Z</time></trkpt><trkpt lat="44.1957567" lon="12.104375"><ele>27.0</ele><time>2026-03-28T13:11:12.645Z</time></trkpt><trkpt lat="44.1957967" lon="12.1042633"><ele>27.0</ele><time>2026-03-28T13:11:14.645Z</time></trkpt><trkpt lat="44.1958383" lon="12.1041617"><ele>27.0</ele><time>2026-03-28T13:11:16.645Z</time></trkpt><trkpt lat="44.19588" lon="12.1040717"><ele>27.0</ele><time>2026-03-28T13:11:18.645Z</time></trkpt><trkpt lat="44.195915" lon="12.1039817"><ele>27.0</ele><time>2026-03-28T13:11:20.645Z</time></trkpt><trkpt lat="44.1959583" lon="12.1038833"><ele>27.0</ele><time>2026-03-28T13:11:22.646Z</time></trkpt><trkpt lat="44.196005" lon="12.1037833"><ele>27.0</ele><time>2026-03-28T13:11:24.645Z</time></trkpt><trkpt lat="44.1960517" lon="12.1036767"><ele>27.0</ele><time>2026-03-28T13:11:26.645Z</time></trkpt><trkpt lat="44.196105" lon="12.103575"><ele>27.0</ele><time>2026-03-28T13:11:28.645Z</time></trkpt><trkpt lat="44.1961517" lon="12.103465"><ele>27.0</ele><time>2026-03-28T13:11:30.645Z</time></trkpt><trkpt lat="44.1962017" lon="12.1033583"><ele>27.0</ele><time>2026-03-28T13:11:32.645Z</time></trkpt><trkpt lat="44.1962533" lon="12.1032533"><ele>27.000000000000004</ele><time>2026-03-28T13:11:34.645Z</time></trkpt><trkpt lat="44.196305" lon="12.1031417"><ele>27.000000000000004</ele><time>2026-03-28T13:11:36.645Z</time></trkpt><trkpt lat="44.1963517" lon="12.1030133"><ele>27.0</ele><time>2026-03-28T13:11:38.645Z</time></trkpt><trkpt lat="44.1963933" lon="12.102885"><ele>27.0</ele><time>2026-03-28T13:11:40.645Z</time></trkpt><trkpt lat="44.1964333" lon="12.1027583"><ele>27.0</ele><time>2026-03-28T13:11:42.646Z</time></trkpt><trkpt lat="44.1964717" lon="12.1026383"><ele>27.0</ele><time>2026-03-28T13:11:44.646Z</time></trkpt><trkpt lat="44.196505" lon="12.1025317"><ele>27.0</ele><time>2026-03-28T13:11:46.645Z</time></trkpt><trkpt lat="44.19654" lon="12.10243"><ele>27.0</ele><time>2026-03-28T13:11:48.645Z</time></trkpt><trkpt lat="44.1965733" lon="12.1023333"><ele>27.0</ele><time>2026-03-28T13:11:50.645Z</time></trkpt><trkpt lat="44.196625" lon="12.10222"><ele>27.0</ele><time>2026-03-28T13:11:52.645Z</time></trkpt><trkpt lat="44.1966717" lon="12.1021183"><ele>27.0</ele><time>2026-03-28T13:11:54.645Z</time></trkpt><trkpt lat="44.1967083" lon="12.1019833"><ele>27.000000000000004</ele><time>2026-03-28T13:11:56.645Z</time></trkpt><trkpt lat="44.1967533" lon="12.1018433"><ele>27.000000000000004</ele><time>2026-03-28T13:11:58.645Z</time></trkpt><trkpt lat="44.1968017" lon="12.1017083"><ele>27.0</ele><time>2026-03-28T13:12:00.645Z</time></trkpt><trkpt lat="44.19685" lon="12.1015733"><ele>27.0</ele><time>2026-03-28T13:12:02.645Z</time></trkpt><trkpt lat="44.1969033" lon="12.10144"><ele>27.0</ele><time>2026-03-28T13:12:04.645Z</time></trkpt><trkpt lat="44.1969567" lon="12.1013167"><ele>27.000000000000004</ele><time>2026-03-28T13:12:06.645Z</time></trkpt><trkpt lat="44.1970067" lon="12.1011883"><ele>27.000000000000004</ele><time>2026-03-28T13:12:08.645Z</time></trkpt><trkpt lat="44.1970583" lon="12.1010567"><ele>27.0</ele><time>2026-03-28T13:12:10.646Z</time></trkpt><trkpt lat="44.1971183" lon="12.1009167"><ele>27.0</ele><time>2026-03-28T13:12:12.645Z</time></trkpt><trkpt lat="44.1971683" lon="12.10079"><ele>27.0</ele><time>2026-03-28T13:12:14.645Z</time></trkpt><trkpt lat="44.1972183" lon="12.1006617"><ele>27.000000000000004</ele><time>2026-03-28T13:12:16.645Z</time></trkpt><trkpt lat="44.1972717" lon="12.1005367"><ele>27.000000000000004</ele><time>2026-03-28T13:12:18.645Z</time></trkpt><trkpt lat="44.1973283" lon="12.1004367"><ele>27.0</ele><time>2026-03-28T13:12:20.645Z</time></trkpt><trkpt lat="44.1973983" lon="12.1003333"><ele>27.0</ele><time>2026-03-28T13:12:22.646Z</time></trkpt><trkpt lat="44.197465" lon="12.10022"><ele>27.0</ele><time>2026-03-28T13:12:24.645Z</time></trkpt><trkpt lat="44.1975167" lon="12.1000917"><ele>27.000000000000004</ele><time>2026-03-28T13:12:26.645Z</time></trkpt><trkpt lat="44.1975667" lon="12.0999683"><ele>27.000000000000004</ele><time>2026-03-28T13:12:28.645Z</time></trkpt><trkpt lat="44.1976167" lon="12.0998417"><ele>27.0</ele><time>2026-03-28T13:12:30.645Z</time></trkpt><trkpt lat="44.1976717" lon="12.0997083"><ele>27.0</ele><time>2026-03-28T13:12:32.646Z</time></trkpt><trkpt lat="44.1977383" lon="12.0995767"><ele>26.8</ele><time>2026-03-28T13:12:34.645Z</time></trkpt><trkpt lat="44.197805" lon="12.09944"><ele>26.6</ele><time>2026-03-28T13:12:36.645Z</time></trkpt><trkpt lat="44.1978533" lon="12.0993033"><ele>26.400000000000002</ele><time>2026-03-28T13:12:38.645Z</time></trkpt><trkpt lat="44.1978917" lon="12.09917"><ele>26.200000000000003</ele><time>2026-03-28T13:12:40.645Z</time></trkpt><trkpt lat="44.1979267" lon="12.0990433"><ele>26.0</ele><time>2026-03-28T13:12:42.645Z</time></trkpt><trkpt lat="44.197975" lon="12.09893"><ele>26.0</ele><time>2026-03-28T13:12:44.646Z</time></trkpt><trkpt lat="44.1980217" lon="12.09883"><ele>26.0</ele><time>2026-03-28T13:12:46.645Z</time></trkpt><trkpt lat="44.1980683" lon="12.0987233"><ele>26.0</ele><time>2026-03-28T13:12:48.645Z</time></trkpt><trkpt lat="44.1981083" lon="12.098605"><ele>26.0</ele><time>2026-03-28T13:12:50.645Z</time></trkpt><trkpt lat="44.1981517" lon="12.0984917"><ele>26.0</ele><time>2026-03-28T13:12:52.645Z</time></trkpt><trkpt lat="44.1981933" lon="12.09838"><ele>26.0</ele><time>2026-03-28T13:12:54.645Z</time></trkpt><trkpt lat="44.1982433" lon="12.0982583"><ele>26.0</ele><time>2026-03-28T13:12:56.645Z</time></trkpt><trkpt lat="44.1982933" lon="12.09815"><ele>26.0</ele><time>2026-03-28T13:12:58.645Z</time></trkpt><trkpt lat="44.19835" lon="12.0980483"><ele>26.0</ele><time>2026-03-28T13:13:00.645Z</time></trkpt><trkpt lat="44.1984" lon="12.0979367"><ele>26.0</ele><time>2026-03-28T13:13:02.645Z</time></trkpt><trkpt lat="44.1984467" lon="12.0978167"><ele>26.0</ele><time>2026-03-28T13:13:04.645Z</time></trkpt><trkpt lat="44.1985017" lon="12.09769"><ele>26.0</ele><time>2026-03-28T13:13:06.645Z</time></trkpt><trkpt lat="44.1985533" lon="12.097575"><ele>26.0</ele><time>2026-03-28T13:13:08.645Z</time></trkpt><trkpt lat="44.1986067" lon="12.0974567"><ele>26.0</ele><time>2026-03-28T13:13:10.646Z</time></trkpt><trkpt lat="44.1986633" lon="12.0973367"><ele>26.0</ele><time>2026-03-28T13:13:12.646Z</time></trkpt><trkpt lat="44.1987167" lon="12.0972167"><ele>25.8</ele><time>2026-03-28T13:13:14.645Z</time></trkpt><trkpt lat="44.198765" lon="12.0970967"><ele>25.6</ele><time>2026-03-28T13:13:16.646Z</time></trkpt><trkpt lat="44.1988133" lon="12.09698"><ele>25.4</ele><time>2026-03-28T13:13:18.645Z</time></trkpt><trkpt lat="44.1988583" lon="12.096865"><ele>25.2</ele><time>2026-03-28T13:13:20.645Z</time></trkpt><trkpt lat="44.1988983" lon="12.09676"><ele>25.0</ele><time>2026-03-28T13:13:22.646Z</time></trkpt><trkpt lat="44.1989333" lon="12.0966517"><ele>24.8</ele><time>2026-03-28T13:13:24.646Z</time></trkpt><trkpt lat="44.1989633" lon="12.0965433"><ele>24.6</ele><time>2026-03-28T13:13:26.645Z</time></trkpt><trkpt lat="44.1990117" lon="12.096435"><ele>24.4</ele><time>2026-03-28T13:13:28.645Z</time></trkpt><trkpt lat="44.1990667" lon="12.09632"><ele>24.2</ele><time>2026-03-28T13:13:30.645Z</time></trkpt><trkpt lat="44.1991183" lon="12.0961983"><ele>24.0</ele><time>2026-03-28T13:13:32.645Z</time></trkpt><trkpt lat="44.1991633" lon="12.0960733"><ele>24.0</ele><time>2026-03-28T13:13:34.645Z</time></trkpt><trkpt lat="44.1992067" lon="12.0959483"><ele>24.0</ele><time>2026-03-28T13:13:36.646Z</time></trkpt><trkpt lat="44.1992683" lon="12.0958183"><ele>24.0</ele><time>2026-03-28T13:13:38.645Z</time></trkpt><trkpt lat="44.199345" lon="12.0957"><ele>24.0</ele><time>2026-03-28T13:13:40.645Z</time></trkpt><trkpt lat="44.19943" lon="12.0955933"><ele>24.0</ele><time>2026-03-28T13:13:42.645Z</time></trkpt><trkpt lat="44.1995233" lon="12.0955067"><ele>24.2</ele><time>2026-03-28T13:13:44.645Z</time></trkpt><trkpt lat="44.1996233" lon="12.0954483"><ele>24.4</ele><time>2026-03-28T13:13:46.646Z</time></trkpt><trkpt lat="44.1997217" lon="12.0954283"><ele>24.6</ele><time>2026-03-28T13:13:48.645Z</time></trkpt><trkpt lat="44.1998167" lon="12.0954233"><ele>24.8</ele><time>2026-03-28T13:13:50.646Z</time></trkpt><trkpt lat="44.1999017" lon="12.0954033"><ele>25.0</ele><time>2026-03-28T13:13:52.645Z</time></trkpt><trkpt lat="44.1999883" lon="12.0953583"><ele>25.000000000000004</ele><time>2026-03-28T13:13:54.645Z</time></trkpt><trkpt lat="44.2000767" lon="12.0953317"><ele>25.0</ele><time>2026-03-28T13:13:56.646Z</time></trkpt><trkpt lat="44.2001617" lon="12.095345"><ele>25.0</ele><time>2026-03-28T13:13:58.646Z</time></trkpt><trkpt lat="44.200235" lon="12.0953617"><ele>25.0</ele><time>2026-03-28T13:14:00.645Z</time></trkpt><trkpt lat="44.2002967" lon="12.095385"><ele>25.000000000000004</ele><time>2026-03-28T13:14:02.645Z</time></trkpt><trkpt lat="44.2003533" lon="12.0954433"><ele>25.0</ele><time>2026-03-28T13:14:04.645Z</time></trkpt><trkpt lat="44.2004217" lon="12.0954983"><ele>25.0</ele><time>2026-03-28T13:14:06.645Z</time></trkpt><trkpt lat="44.200495" lon="12.09556"><ele>25.0</ele><time>2026-03-28T13:14:08.645Z</time></trkpt><trkpt lat="44.200575" lon="12.0956233"><ele>25.0</ele><time>2026-03-28T13:14:10.646Z</time></trkpt><trkpt lat="44.2006533" lon="12.09568"><ele>25.0</ele><time>2026-03-28T13:14:12.645Z</time></trkpt><trkpt lat="44.20074" lon="12.095735"><ele>25.0</ele><time>2026-03-28T13:14:14.646Z</time></trkpt><trkpt lat="44.2008283" lon="12.095795"><ele>25.0</ele><time>2026-03-28T13:14:16.645Z</time></trkpt><trkpt lat="44.20092" lon="12.09586"><ele>25.0</ele><time>2026-03-28T13:14:18.646Z</time></trkpt><trkpt lat="44.2010217" lon="12.0959367"><ele>25.0</ele><time>2026-03-28T13:14:20.645Z</time></trkpt><trkpt lat="44.2011233" lon="12.0960183"><ele>25.0</ele><time>2026-03-28T13:14:22.645Z</time></trkpt><trkpt lat="44.2012267" lon="12.0960967"><ele>25.0</ele><time>2026-03-28T13:14:24.645Z</time></trkpt><trkpt lat="44.201315" lon="12.096165"><ele>25.0</ele><time>2026-03-28T13:14:26.645Z</time></trkpt><trkpt lat="44.2013933" lon="12.0962183"><ele>25.0</ele><time>2026-03-28T13:14:28.646Z</time></trkpt><trkpt lat="44.20147" lon="12.0962467"><ele>25.0</ele><time>2026-03-28T13:14:31.646Z</time></trkpt><trkpt lat="44.2015183" lon="12.0963483"><ele>25.0</ele><time>2026-03-28T13:14:42.645Z</time></trkpt><trkpt lat="44.201605" lon="12.0964067"><ele>25.0</ele><time>2026-03-28T13:14:44.645Z</time></trkpt><trkpt lat="44.2017" lon="12.09647"><ele>25.0</ele><time>2026-03-28T13:14:46.645Z</time></trkpt><trkpt lat="44.2017933" lon="12.096545"><ele>25.0</ele><time>2026-03-28T13:14:48.645Z</time></trkpt><trkpt lat="44.2018833" lon="12.09661"><ele>25.0</ele><time>2026-03-28T13:14:50.646Z</time></trkpt><trkpt lat="44.2019783" lon="12.096675"><ele>25.0</ele><time>2026-03-28T13:14:52.645Z</time></trkpt><trkpt lat="44.2020683" lon="12.0967533"><ele>24.8</ele><time>2026-03-28T13:14:54.645Z</time></trkpt><trkpt lat="44.2021683" lon="12.09684"><ele>24.6</ele><time>2026-03-28T13:14:56.645Z</time></trkpt><trkpt lat="44.2022633" lon="12.0969317"><ele>24.4</ele><time>2026-03-28T13:14:58.645Z</time></trkpt><trkpt lat="44.202335" lon="12.0970217"><ele>24.2</ele><time>2026-03-28T13:15:00.645Z</time></trkpt><trkpt lat="44.2024017" lon="12.09712"><ele>24.0</ele><time>2026-03-28T13:15:02.645Z</time></trkpt><trkpt lat="44.2024633" lon="12.09725"><ele>24.0</ele><time>2026-03-28T13:15:04.646Z</time></trkpt><trkpt lat="44.2024933" lon="12.097395"><ele>24.0</ele><time>2026-03-28T13:15:06.645Z</time></trkpt><trkpt lat="44.202515" lon="12.09754"><ele>24.0</ele><time>2026-03-28T13:15:08.645Z</time></trkpt><trkpt lat="44.2025517" lon="12.0976817"><ele>24.0</ele><time>2026-03-28T13:15:10.646Z</time></trkpt><trkpt lat="44.2026217" lon="12.097795"><ele>24.0</ele><time>2026-03-28T13:15:12.646Z</time></trkpt><trkpt lat="44.202705" lon="12.097865"><ele>24.0</ele><time>2026-03-28T13:15:14.645Z</time></trkpt><trkpt lat="44.2028133" lon="12.0978983"><ele>24.0</ele><time>2026-03-28T13:15:16.645Z</time></trkpt><trkpt lat="44.2029283" lon="12.0979367"><ele>24.0</ele><time>2026-03-28T13:15:18.645Z</time></trkpt><trkpt lat="44.2030267" lon="12.0980133"><ele>24.0</ele><time>2026-03-28T13:15:20.645Z</time></trkpt><trkpt lat="44.2030933" lon="12.09813"><ele>24.0</ele><time>2026-03-28T13:15:22.646Z</time></trkpt><trkpt lat="44.203155" lon="12.0982433"><ele>24.0</ele><time>2026-03-28T13:15:24.645Z</time></trkpt><trkpt lat="44.2031917" lon="12.098315"><ele>24.0</ele><time>2026-03-28T13:15:25.645Z</time></trkpt><trkpt lat="44.20323" lon="12.0983883"><ele>24.0</ele><time>2026-03-28T13:15:26.645Z</time></trkpt><trkpt lat="44.203285" lon="12.098525"><ele>24.0</ele><time>2026-03-28T13:15:28.645Z</time></trkpt><trkpt lat="44.2033317" lon="12.09866"><ele>24.0</ele><time>2026-03-28T13:15:30.645Z</time></trkpt><trkpt lat="44.2033817" lon="12.0988067"><ele>24.0</ele><time>2026-03-28T13:15:32.645Z</time></trkpt><trkpt lat="44.2034267" lon="12.0989483"><ele>24.0</ele><time>2026-03-28T13:15:34.645Z</time></trkpt><trkpt lat="44.203475" lon="12.09908"><ele>24.0</ele><time>2026-03-28T13:15:36.646Z</time></trkpt><trkpt lat="44.20352" lon="12.0992067"><ele>24.0</ele><time>2026-03-28T13:15:38.645Z</time></trkpt><trkpt lat="44.2035617" lon="12.0993333"><ele>24.0</ele><time>2026-03-28T13:15:40.646Z</time></trkpt><trkpt lat="44.2036017" lon="12.0994567"><ele>23.799999999999997</ele><time>2026-03-28T13:15:42.645Z</time></trkpt><trkpt lat="44.2036433" lon="12.0995717"><ele>23.599999999999998</ele><time>2026-03-28T13:15:44.645Z</time></trkpt><trkpt lat="44.2036867" lon="12.0997017"><ele>23.4</ele><time>2026-03-28T13:15:46.646Z</time></trkpt><trkpt lat="44.2037333" lon="12.0998333"><ele>23.2</ele><time>2026-03-28T13:15:48.645Z</time></trkpt><trkpt lat="44.2037717" lon="12.099955"><ele>23.0</ele><time>2026-03-28T13:15:50.645Z</time></trkpt><trkpt lat="44.20381" lon="12.1000633"><ele>23.166666666666668</ele><time>2026-03-28T13:15:52.645Z</time></trkpt><trkpt lat="44.203845" lon="12.10017"><ele>23.333333333333336</ele><time>2026-03-28T13:15:54.646Z</time></trkpt><trkpt lat="44.2038833" lon="12.1002767"><ele>23.5</ele><time>2026-03-28T13:15:56.645Z</time></trkpt><trkpt lat="44.2039333" lon="12.10038"><ele>23.666666666666668</ele><time>2026-03-28T13:15:58.645Z</time></trkpt><trkpt lat="44.20398" lon="12.1004733"><ele>23.833333333333332</ele><time>2026-03-28T13:16:00.645Z</time></trkpt><trkpt lat="44.20402" lon="12.10055"><ele>24.0</ele><time>2026-03-28T13:16:02.645Z</time></trkpt><trkpt lat="44.2040617" lon="12.1006417"><ele>24.0</ele><time>2026-03-28T13:16:04.646Z</time></trkpt><trkpt lat="44.2041167" lon="12.100735"><ele>24.0</ele><time>2026-03-28T13:16:06.645Z</time></trkpt><trkpt lat="44.20417" lon="12.1008233"><ele>24.0</ele><time>2026-03-28T13:16:08.645Z</time></trkpt><trkpt lat="44.2042283" lon="12.100915"><ele>24.0</ele><time>2026-03-28T13:16:10.645Z</time></trkpt><trkpt lat="44.204285" lon="12.100995"><ele>24.0</ele><time>2026-03-28T13:16:12.645Z</time></trkpt><trkpt lat="44.204345" lon="12.1010817"><ele>24.0</ele><time>2026-03-28T13:16:14.645Z</time></trkpt><trkpt lat="44.20441" lon="12.101165"><ele>24.4</ele><time>2026-03-28T13:16:16.645Z</time></trkpt><trkpt lat="44.20448" lon="12.10124"><ele>24.799999999999997</ele><time>2026-03-28T13:16:18.645Z</time></trkpt><trkpt lat="44.2045567" lon="12.101315"><ele>25.200000000000003</ele><time>2026-03-28T13:16:20.645Z</time></trkpt><trkpt lat="44.2046383" lon="12.1013967"><ele>25.6</ele><time>2026-03-28T13:16:22.646Z</time></trkpt><trkpt lat="44.2047267" lon="12.1014783"><ele>26.0</ele><time>2026-03-28T13:16:24.645Z</time></trkpt><trkpt lat="44.2048183" lon="12.101555"><ele>25.6</ele><time>2026-03-28T13:16:26.645Z</time></trkpt><trkpt lat="44.2049017" lon="12.10163"><ele>25.200000000000003</ele><time>2026-03-28T13:16:28.646Z</time></trkpt><trkpt lat="44.20499" lon="12.1017083"><ele>24.799999999999997</ele><time>2026-03-28T13:16:30.645Z</time></trkpt><trkpt lat="44.2050817" lon="12.1017983"><ele>24.4</ele><time>2026-03-28T13:16:32.645Z</time></trkpt><trkpt lat="44.20517" lon="12.1018717"><ele>24.0</ele><time>2026-03-28T13:16:34.646Z</time></trkpt><trkpt lat="44.20526" lon="12.10195"><ele>24.0</ele><time>2026-03-28T13:16:36.645Z</time></trkpt><trkpt lat="44.2053483" lon="12.1020217"><ele>24.0</ele><time>2026-03-28T13:16:38.645Z</time></trkpt><trkpt lat="44.2054417" lon="12.10209"><ele>24.0</ele><time>2026-03-28T13:16:40.645Z</time></trkpt><trkpt lat="44.2055267" lon="12.1021567"><ele>24.0</ele><time>2026-03-28T13:16:42.645Z</time></trkpt><trkpt lat="44.20562" lon="12.1022267"><ele>24.0</ele><time>2026-03-28T13:16:44.645Z</time></trkpt><trkpt lat="44.2057267" lon="12.10231"><ele>24.166666666666668</ele><time>2026-03-28T13:16:46.645Z</time></trkpt><trkpt lat="44.205785" lon="12.1023583"><ele>24.333333333333336</ele><time>2026-03-28T13:16:47.645Z</time></trkpt><trkpt lat="44.2058467" lon="12.1024067"><ele>24.5</ele><time>2026-03-28T13:16:48.645Z</time></trkpt><trkpt lat="44.2059117" lon="12.1024617"><ele>24.666666666666668</ele><time>2026-03-28T13:16:49.645Z</time></trkpt><trkpt lat="44.20598" lon="12.1025217"><ele>24.833333333333336</ele><time>2026-03-28T13:16:50.646Z</time></trkpt><trkpt lat="44.2060517" lon="12.102585"><ele>25.0</ele><time>2026-03-28T13:16:51.646Z</time></trkpt><trkpt lat="44.206125" lon="12.1026467"><ele>25.000000000000004</ele><time>2026-03-28T13:16:52.646Z</time></trkpt><trkpt lat="44.2062017" lon="12.1027117"><ele>25.0</ele><time>2026-03-28T13:16:53.645Z</time></trkpt><trkpt lat="44.2062733" lon="12.1027767"><ele>25.0</ele><time>2026-03-28T13:16:54.646Z</time></trkpt><trkpt lat="44.2063467" lon="12.10284"><ele>25.0</ele><time>2026-03-28T13:16:55.646Z</time></trkpt><trkpt lat="44.206415" lon="12.1029"><ele>25.000000000000004</ele><time>2026-03-28T13:16:56.645Z</time></trkpt><trkpt lat="44.2064767" lon="12.102955"><ele>25.0</ele><time>2026-03-28T13:16:57.646Z</time></trkpt><trkpt lat="44.2065383" lon="12.1030117"><ele>25.000000000000004</ele><time>2026-03-28T13:16:58.645Z</time></trkpt><trkpt lat="44.2065983" lon="12.1030783"><ele>25.0</ele><time>2026-03-28T13:16:59.646Z</time></trkpt><trkpt lat="44.2066533" lon="12.1031533"><ele>25.0</ele><time>2026-03-28T13:17:00.645Z</time></trkpt><trkpt lat="44.2067017" lon="12.1032383"><ele>25.0</ele><time>2026-03-28T13:17:01.645Z</time></trkpt><trkpt lat="44.20675" lon="12.1033283"><ele>25.000000000000004</ele><time>2026-03-28T13:17:02.645Z</time></trkpt><trkpt lat="44.206805" lon="12.1034083"><ele>25.0</ele><time>2026-03-28T13:17:03.645Z</time></trkpt><trkpt lat="44.2068683" lon="12.1034617"><ele>24.857142857142858</ele><time>2026-03-28T13:17:04.646Z</time></trkpt><trkpt lat="44.2069367" lon="12.103485"><ele>24.714285714285715</ele><time>2026-03-28T13:17:05.645Z</time></trkpt><trkpt lat="44.20701" lon="12.1034867"><ele>24.57142857142857</ele><time>2026-03-28T13:17:06.645Z</time></trkpt><trkpt lat="44.207085" lon="12.1034833"><ele>24.42857142857143</ele><time>2026-03-28T13:17:07.645Z</time></trkpt><trkpt lat="44.2071567" lon="12.1034933"><ele>24.285714285714285</ele><time>2026-03-28T13:17:08.645Z</time></trkpt><trkpt lat="44.2072267" lon="12.1035167"><ele>24.142857142857142</ele><time>2026-03-28T13:17:09.645Z</time></trkpt><trkpt lat="44.2072917" lon="12.1035517"><ele>24.0</ele><time>2026-03-28T13:17:10.645Z</time></trkpt><trkpt lat="44.2073517" lon="12.1035883"><ele>24.0</ele><time>2026-03-28T13:17:11.645Z</time></trkpt><trkpt lat="44.20741" lon="12.1036233"><ele>24.0</ele><time>2026-03-28T13:17:12.645Z</time></trkpt><trkpt lat="44.20747" lon="12.10366"><ele>24.0</ele><time>2026-03-28T13:17:13.645Z</time></trkpt><trkpt lat="44.20758" lon="12.1037367"><ele>24.0</ele><time>2026-03-28T13:17:15.646Z</time></trkpt><trkpt lat="44.2076883" lon="12.1038083"><ele>24.0</ele><time>2026-03-28T13:17:17.645Z</time></trkpt><trkpt lat="44.2078017" lon="12.10388"><ele>24.0</ele><time>2026-03-28T13:17:19.646Z</time></trkpt><trkpt lat="44.20786" lon="12.1039183"><ele>24.0</ele><time>2026-03-28T13:17:20.645Z</time></trkpt><trkpt lat="44.2079683" lon="12.103995"><ele>24.0</ele><time>2026-03-28T13:17:22.645Z</time></trkpt><trkpt lat="44.2080283" lon="12.104035"><ele>24.0</ele><time>2026-03-28T13:17:23.645Z</time></trkpt><trkpt lat="44.208145" lon="12.1041083"><ele>24.0</ele><time>2026-03-28T13:17:25.645Z</time></trkpt><trkpt lat="44.2082017" lon="12.1041467"><ele>24.0</ele><time>2026-03-28T13:17:26.645Z</time></trkpt><trkpt lat="44.20831" lon="12.104215"><ele>24.0</ele><time>2026-03-28T13:17:28.645Z</time></trkpt><trkpt lat="44.20841" lon="12.1042817"><ele>24.0</ele><time>2026-03-28T13:17:30.645Z</time></trkpt><trkpt lat="44.208505" lon="12.1043567"><ele>24.0</ele><time>2026-03-28T13:17:32.645Z</time></trkpt><trkpt lat="44.2085933" lon="12.1044533"><ele>24.0</ele><time>2026-03-28T13:17:34.646Z</time></trkpt><trkpt lat="44.20868" lon="12.10456"><ele>24.0</ele><time>2026-03-28T13:17:36.645Z</time></trkpt><trkpt lat="44.2087283" lon="12.10462"><ele>24.0</ele><time>2026-03-28T13:17:37.646Z</time></trkpt><trkpt lat="44.2088283" lon="12.1046867"><ele>24.0</ele><time>2026-03-28T13:17:39.645Z</time></trkpt><trkpt lat="44.2089483" lon="12.1047233"><ele>24.0</ele><time>2026-03-28T13:17:41.645Z</time></trkpt><trkpt lat="44.2090583" lon="12.1047717"><ele>24.0</ele><time>2026-03-28T13:17:43.645Z</time></trkpt><trkpt lat="44.2091533" lon="12.10485"><ele>24.25</ele><time>2026-03-28T13:17:45.646Z</time></trkpt><trkpt lat="44.20926" lon="12.1049317"><ele>24.5</ele><time>2026-03-28T13:17:47.645Z</time></trkpt><trkpt lat="44.209355" lon="12.1050067"><ele>24.75</ele><time>2026-03-28T13:17:49.645Z</time></trkpt><trkpt lat="44.2094467" lon="12.10508"><ele>25.0</ele><time>2026-03-28T13:17:51.645Z</time></trkpt><trkpt lat="44.2095483" lon="12.1051583"><ele>25.0</ele><time>2026-03-28T13:17:53.645Z</time></trkpt><trkpt lat="44.2096533" lon="12.1052367"><ele>25.0</ele><time>2026-03-28T13:17:55.645Z</time></trkpt><trkpt lat="44.2097567" lon="12.105315"><ele>25.0</ele><time>2026-03-28T13:17:57.645Z</time></trkpt><trkpt lat="44.20985" lon="12.105395"><ele>25.0</ele><time>2026-03-28T13:17:59.645Z</time></trkpt><trkpt lat="44.2099467" lon="12.1054767"><ele>25.25</ele><time>2026-03-28T13:18:01.646Z</time></trkpt><trkpt lat="44.2100367" lon="12.105555"><ele>25.5</ele><time>2026-03-28T13:18:03.645Z</time></trkpt><trkpt lat="44.2101333" lon="12.1056333"><ele>25.75</ele><time>2026-03-28T13:18:05.645Z</time></trkpt><trkpt lat="44.2102367" lon="12.1057067"><ele>26.0</ele><time>2026-03-28T13:18:07.645Z</time></trkpt><trkpt lat="44.2103467" lon="12.1057817"><ele>25.6</ele><time>2026-03-28T13:18:09.645Z</time></trkpt><trkpt lat="44.21045" lon="12.1058633"><ele>25.200000000000003</ele><time>2026-03-28T13:18:11.645Z</time></trkpt><trkpt lat="44.2105617" lon="12.1059467"><ele>24.799999999999997</ele><time>2026-03-28T13:18:13.646Z</time></trkpt><trkpt lat="44.2106183" lon="12.10599"><ele>24.4</ele><time>2026-03-28T13:18:14.646Z</time></trkpt><trkpt lat="44.2107233" lon="12.1060733"><ele>24.0</ele><time>2026-03-28T13:18:16.646Z</time></trkpt><trkpt lat="44.2108267" lon="12.1061583"><ele>24.0</ele><time>2026-03-28T13:18:18.645Z</time></trkpt><trkpt lat="44.2109367" lon="12.10625"><ele>24.0</ele><time>2026-03-28T13:18:20.645Z</time></trkpt><trkpt lat="44.2109967" lon="12.1063"><ele>24.0</ele><time>2026-03-28T13:18:21.646Z</time></trkpt><trkpt lat="44.2110533" lon="12.10634"><ele>24.0</ele><time>2026-03-28T13:18:22.645Z</time></trkpt><trkpt lat="44.2111617" lon="12.1064217"><ele>24.0</ele><time>2026-03-28T13:18:24.645Z</time></trkpt><trkpt lat="44.211265" lon="12.1065133"><ele>23.75</ele><time>2026-03-28T13:18:26.645Z</time></trkpt><trkpt lat="44.21136" lon="12.1066017"><ele>23.5</ele><time>2026-03-28T13:18:28.646Z</time></trkpt><trkpt lat="44.2114567" lon="12.1066817"><ele>23.25</ele><time>2026-03-28T13:18:30.645Z</time></trkpt><trkpt lat="44.2115683" lon="12.1067583"><ele>23.0</ele><time>2026-03-28T13:18:32.645Z</time></trkpt><trkpt lat="44.2116633" lon="12.1068433"><ele>23.5</ele><time>2026-03-28T13:18:34.645Z</time></trkpt><trkpt lat="44.21177" lon="12.106925"><ele>24.0</ele><time>2026-03-28T13:18:36.645Z</time></trkpt><trkpt lat="44.2118683" lon="12.10701"><ele>24.5</ele><time>2026-03-28T13:18:38.645Z</time></trkpt><trkpt lat="44.2119617" lon="12.1070933"><ele>25.0</ele><time>2026-03-28T13:18:40.645Z</time></trkpt><trkpt lat="44.2120417" lon="12.10719"><ele>25.000000000000004</ele><time>2026-03-28T13:18:42.645Z</time></trkpt><trkpt lat="44.2121233" lon="12.1073083"><ele>25.0</ele><time>2026-03-28T13:18:44.645Z</time></trkpt><trkpt lat="44.2121917" lon="12.1074417"><ele>25.0</ele><time>2026-03-28T13:18:46.646Z</time></trkpt><trkpt lat="44.2122233" lon="12.10752"><ele>25.0</ele><time>2026-03-28T13:18:47.646Z</time></trkpt><trkpt lat="44.21225" lon="12.1076"><ele>25.000000000000004</ele><time>2026-03-28T13:18:48.645Z</time></trkpt><trkpt lat="44.2122817" lon="12.1076883"><ele>25.0</ele><time>2026-03-28T13:18:49.646Z</time></trkpt><trkpt lat="44.2123067" lon="12.107775"><ele>24.500000000000004</ele><time>2026-03-28T13:18:50.645Z</time></trkpt><trkpt lat="44.2123333" lon="12.1078617"><ele>24.0</ele><time>2026-03-28T13:18:51.645Z</time></trkpt><trkpt lat="44.21236" lon="12.10795"><ele>23.5</ele><time>2026-03-28T13:18:52.645Z</time></trkpt><trkpt lat="44.2123883" lon="12.10803"><ele>23.0</ele><time>2026-03-28T13:18:53.645Z</time></trkpt><trkpt lat="44.2124583" lon="12.1081683"><ele>22.5</ele><time>2026-03-28T13:18:55.645Z</time></trkpt><trkpt lat="44.212505" lon="12.1082283"><ele>22.0</ele><time>2026-03-28T13:18:56.645Z</time></trkpt><trkpt lat="44.2126017" lon="12.10833"><ele>21.833333333333332</ele><time>2026-03-28T13:18:58.646Z</time></trkpt><trkpt lat="44.2127033" lon="12.108385"><ele>21.666666666666664</ele><time>2026-03-28T13:19:00.645Z</time></trkpt><trkpt lat="44.2128133" lon="12.108405"><ele>21.5</ele><time>2026-03-28T13:19:02.645Z</time></trkpt><trkpt lat="44.2128767" lon="12.1084083"><ele>21.333333333333332</ele><time>2026-03-28T13:19:03.645Z</time></trkpt><trkpt lat="44.2129433" lon="12.1084017"><ele>21.166666666666668</ele><time>2026-03-28T13:19:04.646Z</time></trkpt><trkpt lat="44.2130083" lon="12.108385"><ele>21.0</ele><time>2026-03-28T13:19:05.645Z</time></trkpt><trkpt lat="44.21307" lon="12.108365"><ele>21.6</ele><time>2026-03-28T13:19:06.645Z</time></trkpt><trkpt lat="44.21319" lon="12.10834"><ele>22.200000000000003</ele><time>2026-03-28T13:19:08.645Z</time></trkpt><trkpt lat="44.21331" lon="12.1083267"><ele>22.799999999999997</ele><time>2026-03-28T13:19:10.645Z</time></trkpt><trkpt lat="44.2134317" lon="12.1083433"><ele>23.4</ele><time>2026-03-28T13:19:12.645Z</time></trkpt><trkpt lat="44.2134933" lon="12.1083667"><ele>24.0</ele><time>2026-03-28T13:19:13.645Z</time></trkpt><trkpt lat="44.2136083" lon="12.1084383"><ele>24.0</ele><time>2026-03-28T13:19:15.646Z</time></trkpt><trkpt lat="44.2136633" lon="12.1084817"><ele>24.0</ele><time>2026-03-28T13:19:16.645Z</time></trkpt><trkpt lat="44.2137633" lon="12.10856"><ele>24.0</ele><time>2026-03-28T13:19:18.645Z</time></trkpt><trkpt lat="44.2138583" lon="12.10864"><ele>24.0</ele><time>2026-03-28T13:19:20.646Z</time></trkpt><trkpt lat="44.2139167" lon="12.1086833"><ele>24.0</ele><time>2026-03-28T13:19:21.645Z</time></trkpt><trkpt lat="44.2139767" lon="12.1087233"><ele>24.0</ele><time>2026-03-28T13:19:22.645Z</time></trkpt><trkpt lat="44.2140817" lon="12.108805"><ele>23.799999999999997</ele><time>2026-03-28T13:19:24.645Z</time></trkpt><trkpt lat="44.2141833" lon="12.108885"><ele>23.599999999999998</ele><time>2026-03-28T13:19:26.645Z</time></trkpt><trkpt lat="44.2142883" lon="12.1089683"><ele>23.4</ele><time>2026-03-28T13:19:28.646Z</time></trkpt><trkpt lat="44.2143433" lon="12.1090133"><ele>23.2</ele><time>2026-03-28T13:19:29.645Z</time></trkpt><trkpt lat="44.214445" lon="12.1090967"><ele>23.0</ele><time>2026-03-28T13:19:31.645Z</time></trkpt><trkpt lat="44.2145583" lon="12.1091867"><ele>23.0</ele><time>2026-03-28T13:19:33.645Z</time></trkpt><trkpt lat="44.2146583" lon="12.1092633"><ele>23.0</ele><time>2026-03-28T13:19:35.645Z</time></trkpt><trkpt lat="44.2147583" lon="12.1093383"><ele>23.0</ele><time>2026-03-28T13:19:37.645Z</time></trkpt><trkpt lat="44.2148583" lon="12.1094217"><ele>23.0</ele><time>2026-03-28T13:19:39.645Z</time></trkpt><trkpt lat="44.2149633" lon="12.1095033"><ele>23.0</ele><time>2026-03-28T13:19:41.645Z</time></trkpt><trkpt lat="44.2150717" lon="12.1095967"><ele>23.0</ele><time>2026-03-28T13:19:43.645Z</time></trkpt><trkpt lat="44.2151267" lon="12.1096417"><ele>23.0</ele><time>2026-03-28T13:19:44.645Z</time></trkpt><trkpt lat="44.2151833" lon="12.10969"><ele>23.0</ele><time>2026-03-28T13:19:45.646Z</time></trkpt><trkpt lat="44.21524" lon="12.1097383"><ele>23.0</ele><time>2026-03-28T13:19:46.645Z</time></trkpt><trkpt lat="44.2152983" lon="12.10979"><ele>23.0</ele><time>2026-03-28T13:19:47.645Z</time></trkpt><trkpt lat="44.2153533" lon="12.1098367"><ele>23.0</ele><time>2026-03-28T13:19:48.645Z</time></trkpt><trkpt lat="44.2154083" lon="12.1098833"><ele>23.0</ele><time>2026-03-28T13:19:49.645Z</time></trkpt><trkpt lat="44.2154633" lon="12.10993"><ele>23.0</ele><time>2026-03-28T13:19:50.645Z</time></trkpt><trkpt lat="44.2155233" lon="12.1099783"><ele>23.0</ele><time>2026-03-28T13:19:51.646Z</time></trkpt><trkpt lat="44.2155817" lon="12.1100267"><ele>23.0</ele><time>2026-03-28T13:19:52.645Z</time></trkpt><trkpt lat="44.215645" lon="12.1100683"><ele>23.0</ele><time>2026-03-28T13:19:53.645Z</time></trkpt><trkpt lat="44.2157033" lon="12.110115"><ele>23.0</ele><time>2026-03-28T13:19:54.645Z</time></trkpt><trkpt lat="44.2157583" lon="12.110165"><ele>22.857142857142858</ele><time>2026-03-28T13:19:55.645Z</time></trkpt><trkpt lat="44.2158167" lon="12.1102133"><ele>22.71428571428571</ele><time>2026-03-28T13:19:56.645Z</time></trkpt><trkpt lat="44.2158717" lon="12.11026"><ele>22.57142857142857</ele><time>2026-03-28T13:19:57.645Z</time></trkpt><trkpt lat="44.2159317" lon="12.1103133"><ele>22.42857142857143</ele><time>2026-03-28T13:19:58.645Z</time></trkpt><trkpt lat="44.2159983" lon="12.11036"><ele>22.285714285714285</ele><time>2026-03-28T13:19:59.646Z</time></trkpt><trkpt lat="44.2160567" lon="12.110405"><ele>22.142857142857142</ele><time>2026-03-28T13:20:00.645Z</time></trkpt><trkpt lat="44.2161183" lon="12.1104533"><ele>22.0</ele><time>2026-03-28T13:20:01.645Z</time></trkpt><trkpt lat="44.216175" lon="12.1105033"><ele>22.0</ele><time>2026-03-28T13:20:02.646Z</time></trkpt><trkpt lat="44.2162367" lon="12.11055"><ele>22.0</ele><time>2026-03-28T13:20:03.645Z</time></trkpt><trkpt lat="44.2163483" lon="12.1106467"><ele>22.0</ele><time>2026-03-28T13:20:05.646Z</time></trkpt><trkpt lat="44.216455" lon="12.110725"><ele>22.0</ele><time>2026-03-28T13:20:07.645Z</time></trkpt><trkpt lat="44.2165117" lon="12.110765"><ele>22.0</ele><time>2026-03-28T13:20:08.646Z</time></trkpt><trkpt lat="44.2165667" lon="12.11081"><ele>22.0</ele><time>2026-03-28T13:20:09.646Z</time></trkpt><trkpt lat="44.21667" lon="12.1108917"><ele>21.6</ele><time>2026-03-28T13:20:11.645Z</time></trkpt><trkpt lat="44.2167733" lon="12.11097"><ele>21.200000000000003</ele><time>2026-03-28T13:20:13.645Z</time></trkpt><trkpt lat="44.21688" lon="12.1110567"><ele>20.8</ele><time>2026-03-28T13:20:15.645Z</time></trkpt><trkpt lat="44.216935" lon="12.1111017"><ele>20.4</ele><time>2026-03-28T13:20:16.645Z</time></trkpt><trkpt lat="44.21704" lon="12.111185"><ele>20.0</ele><time>2026-03-28T13:20:18.645Z</time></trkpt><trkpt lat="44.21714" lon="12.1112633"><ele>20.0</ele><time>2026-03-28T13:20:20.645Z</time></trkpt><trkpt lat="44.2172367" lon="12.111345"><ele>20.0</ele><time>2026-03-28T13:20:22.645Z</time></trkpt><trkpt lat="44.2173317" lon="12.1114217"><ele>20.0</ele><time>2026-03-28T13:20:24.645Z</time></trkpt><trkpt lat="44.2174233" lon="12.1114933"><ele>20.0</ele><time>2026-03-28T13:20:26.645Z</time></trkpt><trkpt lat="44.2175133" lon="12.1115633"><ele>20.0</ele><time>2026-03-28T13:20:28.646Z</time></trkpt><trkpt lat="44.2176033" lon="12.111635"><ele>20.4</ele><time>2026-03-28T13:20:30.645Z</time></trkpt><trkpt lat="44.2176917" lon="12.111705"><ele>20.8</ele><time>2026-03-28T13:20:32.645Z</time></trkpt><trkpt lat="44.21778" lon="12.111775"><ele>21.200000000000003</ele><time>2026-03-28T13:20:34.646Z</time></trkpt><trkpt lat="44.2178633" lon="12.1118517"><ele>21.6</ele><time>2026-03-28T13:20:36.646Z</time></trkpt><trkpt lat="44.2179433" lon="12.1119283"><ele>22.0</ele><time>2026-03-28T13:20:38.645Z</time></trkpt><trkpt lat="44.218" lon="12.112035"><ele>22.0</ele><time>2026-03-28T13:20:40.646Z</time></trkpt><trkpt lat="44.2180217" lon="12.1121683"><ele>22.0</ele><time>2026-03-28T13:20:42.645Z</time></trkpt><trkpt lat="44.2179967" lon="12.1122817"><ele>22.0</ele><time>2026-03-28T13:20:44.645Z</time></trkpt><trkpt lat="44.21795" lon="12.1123967"><ele>22.0</ele><time>2026-03-28T13:20:46.645Z</time></trkpt><trkpt lat="44.217905" lon="12.1125067"><ele>22.0</ele><time>2026-03-28T13:20:48.645Z</time></trkpt><trkpt lat="44.217855" lon="12.1126117"><ele>22.0</ele><time>2026-03-28T13:20:50.645Z</time></trkpt><trkpt lat="44.2178117" lon="12.1127217"><ele>22.0</ele><time>2026-03-28T13:20:52.645Z</time></trkpt><trkpt lat="44.21777" lon="12.1128217"><ele>22.0</ele><time>2026-03-28T13:20:54.645Z</time></trkpt><trkpt lat="44.2177283" lon="12.112915"><ele>22.0</ele><time>2026-03-28T13:20:56.645Z</time></trkpt><trkpt lat="44.2176817" lon="12.1130083"><ele>22.0</ele><time>2026-03-28T13:20:58.645Z</time></trkpt><trkpt lat="44.2176383" lon="12.1131033"><ele>22.0</ele><time>2026-03-28T13:21:00.645Z</time></trkpt><trkpt lat="44.2176017" lon="12.1132"><ele>22.0</ele><time>2026-03-28T13:21:02.645Z</time></trkpt><trkpt lat="44.2175583" lon="12.1133"><ele>22.0</ele><time>2026-03-28T13:21:04.646Z</time></trkpt><trkpt lat="44.2175167" lon="12.1133967"><ele>22.0</ele><time>2026-03-28T13:21:06.645Z</time></trkpt><trkpt lat="44.217475" lon="12.1134967"><ele>22.0</ele><time>2026-03-28T13:21:08.645Z</time></trkpt><trkpt lat="44.2174367" lon="12.113595"><ele>22.0</ele><time>2026-03-28T13:21:10.645Z</time></trkpt><trkpt lat="44.2173883" lon="12.1136983"><ele>22.0</ele><time>2026-03-28T13:21:12.645Z</time></trkpt><trkpt lat="44.2173483" lon="12.1138133"><ele>22.200000000000003</ele><time>2026-03-28T13:21:14.645Z</time></trkpt><trkpt lat="44.217305" lon="12.1139233"><ele>22.4</ele><time>2026-03-28T13:21:16.645Z</time></trkpt><trkpt lat="44.217265" lon="12.11404"><ele>22.6</ele><time>2026-03-28T13:21:18.645Z</time></trkpt><trkpt lat="44.21723" lon="12.114165"><ele>22.799999999999997</ele><time>2026-03-28T13:21:20.645Z</time></trkpt><trkpt lat="44.2172033" lon="12.1142867"><ele>23.0</ele><time>2026-03-28T13:21:22.645Z</time></trkpt><trkpt lat="44.2171667" lon="12.11443"><ele>23.0</ele><time>2026-03-28T13:21:24.646Z</time></trkpt><trkpt lat="44.217135" lon="12.114585"><ele>23.0</ele><time>2026-03-28T13:21:26.645Z</time></trkpt><trkpt lat="44.217095" lon="12.11473"><ele>23.0</ele><time>2026-03-28T13:21:28.646Z</time></trkpt><trkpt lat="44.21704" lon="12.1148583"><ele>23.0</ele><time>2026-03-28T13:21:30.645Z</time></trkpt><trkpt lat="44.2169817" lon="12.114995"><ele>23.0</ele><time>2026-03-28T13:21:32.645Z</time></trkpt><trkpt lat="44.2169083" lon="12.11512"><ele>22.799999999999997</ele><time>2026-03-28T13:21:34.646Z</time></trkpt><trkpt lat="44.2168267" lon="12.1152333"><ele>22.6</ele><time>2026-03-28T13:21:36.646Z</time></trkpt><trkpt lat="44.2167433" lon="12.1153383"><ele>22.4</ele><time>2026-03-28T13:21:38.645Z</time></trkpt><trkpt lat="44.216655" lon="12.1154383"><ele>22.200000000000003</ele><time>2026-03-28T13:21:40.645Z</time></trkpt><trkpt lat="44.2165767" lon="12.115535"><ele>22.0</ele><time>2026-03-28T13:21:42.645Z</time></trkpt><trkpt lat="44.2164917" lon="12.115635"><ele>22.6</ele><time>2026-03-28T13:21:44.645Z</time></trkpt><trkpt lat="44.2164133" lon="12.1157217"><ele>23.200000000000003</ele><time>2026-03-28T13:21:46.645Z</time></trkpt><trkpt lat="44.2163267" lon="12.1158117"><ele>23.8</ele><time>2026-03-28T13:21:48.645Z</time></trkpt><trkpt lat="44.21623" lon="12.1158983"><ele>24.4</ele><time>2026-03-28T13:21:50.645Z</time></trkpt><trkpt lat="44.2161333" lon="12.115965"><ele>25.0</ele><time>2026-03-28T13:21:52.645Z</time></trkpt><trkpt lat="44.2160783" lon="12.1160433"><ele>25.0</ele><time>2026-03-28T13:21:54.645Z</time></trkpt><trkpt lat="44.2160583" lon="12.11615"><ele>25.0</ele><time>2026-03-28T13:21:56.645Z</time></trkpt><trkpt lat="44.21605" lon="12.116275"><ele>25.0</ele><time>2026-03-28T13:21:58.645Z</time></trkpt><trkpt lat="44.21605" lon="12.1164017"><ele>25.0</ele><time>2026-03-28T13:22:00.645Z</time></trkpt><trkpt lat="44.216055" lon="12.1165517"><ele>25.0</ele><time>2026-03-28T13:22:02.645Z</time></trkpt><trkpt lat="44.2160533" lon="12.11673"><ele>24.857142857142858</ele><time>2026-03-28T13:22:04.646Z</time></trkpt><trkpt lat="44.2160567" lon="12.1168283"><ele>24.714285714285715</ele><time>2026-03-28T13:22:05.645Z</time></trkpt><trkpt lat="44.2160617" lon="12.1169317"><ele>24.57142857142857</ele><time>2026-03-28T13:22:06.645Z</time></trkpt><trkpt lat="44.2160667" lon="12.1170367"><ele>24.42857142857143</ele><time>2026-03-28T13:22:07.646Z</time></trkpt><trkpt lat="44.21607" lon="12.1171383"><ele>24.285714285714285</ele><time>2026-03-28T13:22:08.646Z</time></trkpt><trkpt lat="44.2160783" lon="12.11724"><ele>24.142857142857142</ele><time>2026-03-28T13:22:09.645Z</time></trkpt><trkpt lat="44.2160883" lon="12.11734"><ele>24.0</ele><time>2026-03-28T13:22:10.645Z</time></trkpt><trkpt lat="44.216105" lon="12.117435"><ele>23.6</ele><time>2026-03-28T13:22:11.645Z</time></trkpt><trkpt lat="44.216125" lon="12.1175183"><ele>23.2</ele><time>2026-03-28T13:22:12.646Z</time></trkpt><trkpt lat="44.2161817" lon="12.117655"><ele>22.8</ele><time>2026-03-28T13:22:14.645Z</time></trkpt><trkpt lat="44.2162683" lon="12.117775"><ele>22.400000000000002</ele><time>2026-03-28T13:22:16.645Z</time></trkpt><trkpt lat="44.2163167" lon="12.1178367"><ele>22.0</ele><time>2026-03-28T13:22:17.645Z</time></trkpt><trkpt lat="44.2164133" lon="12.1179417"><ele>22.0</ele><time>2026-03-28T13:22:19.646Z</time></trkpt><trkpt lat="44.2165083" lon="12.1180367"><ele>22.0</ele><time>2026-03-28T13:22:21.645Z</time></trkpt><trkpt lat="44.21659" lon="12.1181317"><ele>22.0</ele><time>2026-03-28T13:22:23.645Z</time></trkpt><trkpt lat="44.2166617" lon="12.1182483"><ele>22.0</ele><time>2026-03-28T13:22:25.645Z</time></trkpt><trkpt lat="44.21671" lon="12.1183667"><ele>22.0</ele><time>2026-03-28T13:22:27.645Z</time></trkpt><trkpt lat="44.2167383" lon="12.1184983"><ele>22.0</ele><time>2026-03-28T13:22:29.645Z</time></trkpt><trkpt lat="44.2167717" lon="12.1186017"><ele>22.0</ele><time>2026-03-28T13:22:31.645Z</time></trkpt><trkpt lat="44.2168533" lon="12.1186633"><ele>22.0</ele><time>2026-03-28T13:22:33.645Z</time></trkpt><trkpt lat="44.2169183" lon="12.1186817"><ele>22.0</ele><time>2026-03-28T13:22:34.646Z</time></trkpt><trkpt lat="44.2169817" lon="12.1186817"><ele>22.0</ele><time>2026-03-28T13:22:35.646Z</time></trkpt><trkpt lat="44.2171" lon="12.1186683"><ele>22.0</ele><time>2026-03-28T13:22:37.645Z</time></trkpt><trkpt lat="44.217215" lon="12.1186717"><ele>21.8</ele><time>2026-03-28T13:22:39.645Z</time></trkpt><trkpt lat="44.2173267" lon="12.1186867"><ele>21.6</ele><time>2026-03-28T13:22:41.645Z</time></trkpt><trkpt lat="44.2174183" lon="12.1187267"><ele>21.400000000000002</ele><time>2026-03-28T13:22:43.645Z</time></trkpt><trkpt lat="44.217535" lon="12.118775"><ele>21.200000000000003</ele><time>2026-03-28T13:22:45.645Z</time></trkpt><trkpt lat="44.2175967" lon="12.1188017"><ele>21.0</ele><time>2026-03-28T13:22:46.645Z</time></trkpt><trkpt lat="44.2176617" lon="12.118825"><ele>21.0</ele><time>2026-03-28T13:22:47.645Z</time></trkpt><trkpt lat="44.217725" lon="12.11885"><ele>21.0</ele><time>2026-03-28T13:22:48.645Z</time></trkpt><trkpt lat="44.217785" lon="12.1188767"><ele>21.0</ele><time>2026-03-28T13:22:49.646Z</time></trkpt><trkpt lat="44.217845" lon="12.1189133"><ele>21.0</ele><time>2026-03-28T13:22:50.645Z</time></trkpt><trkpt lat="44.217955" lon="12.1189733"><ele>21.0</ele><time>2026-03-28T13:22:52.645Z</time></trkpt><trkpt lat="44.2180633" lon="12.1190233"><ele>21.0</ele><time>2026-03-28T13:22:54.645Z</time></trkpt><trkpt lat="44.21817" lon="12.1190767"><ele>21.333333333333332</ele><time>2026-03-28T13:22:56.646Z</time></trkpt><trkpt lat="44.2182783" lon="12.1191333"><ele>21.666666666666668</ele><time>2026-03-28T13:22:58.645Z</time></trkpt><trkpt lat="44.218395" lon="12.1191833"><ele>22.0</ele><time>2026-03-28T13:23:00.645Z</time></trkpt><trkpt lat="44.21846" lon="12.1192083"><ele>22.333333333333336</ele><time>2026-03-28T13:23:01.645Z</time></trkpt><trkpt lat="44.2185233" lon="12.1192367"><ele>22.666666666666668</ele><time>2026-03-28T13:23:02.645Z</time></trkpt><trkpt lat="44.2185867" lon="12.1192633"><ele>23.0</ele><time>2026-03-28T13:23:03.645Z</time></trkpt><trkpt lat="44.218705" lon="12.1193117"><ele>23.0</ele><time>2026-03-28T13:23:05.645Z</time></trkpt><trkpt lat="44.2188233" lon="12.1193533"><ele>23.0</ele><time>2026-03-28T13:23:07.645Z</time></trkpt><trkpt lat="44.2188867" lon="12.119375"><ele>23.0</ele><time>2026-03-28T13:23:08.645Z</time></trkpt><trkpt lat="44.2189483" lon="12.1193933"><ele>23.0</ele><time>2026-03-28T13:23:09.645Z</time></trkpt><trkpt lat="44.219015" lon="12.1194083"><ele>23.0</ele><time>2026-03-28T13:23:10.646Z</time></trkpt><trkpt lat="44.2190817" lon="12.119425"><ele>23.0</ele><time>2026-03-28T13:23:11.645Z</time></trkpt><trkpt lat="44.2191467" lon="12.11944"><ele>22.714285714285715</ele><time>2026-03-28T13:23:12.645Z</time></trkpt><trkpt lat="44.2192117" lon="12.1194533"><ele>22.428571428571427</ele><time>2026-03-28T13:23:13.645Z</time></trkpt><trkpt lat="44.2192783" lon="12.1194717"><ele>22.142857142857142</ele><time>2026-03-28T13:23:14.645Z</time></trkpt><trkpt lat="44.2193467" lon="12.1194883"><ele>21.857142857142858</ele><time>2026-03-28T13:23:15.645Z</time></trkpt><trkpt lat="44.2194117" lon="12.119505"><ele>21.57142857142857</ele><time>2026-03-28T13:23:16.645Z</time></trkpt><trkpt lat="44.2194783" lon="12.1195217"><ele>21.285714285714285</ele><time>2026-03-28T13:23:17.645Z</time></trkpt><trkpt lat="44.2195467" lon="12.1195367"><ele>21.0</ele><time>2026-03-28T13:23:18.645Z</time></trkpt><trkpt lat="44.219615" lon="12.119555"><ele>21.0</ele><time>2026-03-28T13:23:19.645Z</time></trkpt><trkpt lat="44.2196817" lon="12.1195733"><ele>21.0</ele><time>2026-03-28T13:23:20.646Z</time></trkpt><trkpt lat="44.2197483" lon="12.1195917"><ele>21.0</ele><time>2026-03-28T13:23:21.645Z</time></trkpt><trkpt lat="44.2198167" lon="12.1196133"><ele>21.0</ele><time>2026-03-28T13:23:22.645Z</time></trkpt><trkpt lat="44.2198833" lon="12.1196367"><ele>21.0</ele><time>2026-03-28T13:23:23.645Z</time></trkpt><trkpt lat="44.2199483" lon="12.1196583"><ele>21.0</ele><time>2026-03-28T13:23:24.645Z</time></trkpt><trkpt lat="44.2200167" lon="12.1196817"><ele>21.0</ele><time>2026-03-28T13:23:25.645Z</time></trkpt><trkpt lat="44.22008" lon="12.1197083"><ele>21.0</ele><time>2026-03-28T13:23:26.645Z</time></trkpt><trkpt lat="44.220145" lon="12.1197383"><ele>21.0</ele><time>2026-03-28T13:23:27.645Z</time></trkpt><trkpt lat="44.22021" lon="12.1197683"><ele>21.0</ele><time>2026-03-28T13:23:28.645Z</time></trkpt><trkpt lat="44.2202767" lon="12.1197983"><ele>21.0</ele><time>2026-03-28T13:23:29.645Z</time></trkpt><trkpt lat="44.220345" lon="12.1198267"><ele>21.0</ele><time>2026-03-28T13:23:30.645Z</time></trkpt><trkpt lat="44.220415" lon="12.1198567"><ele>21.0</ele><time>2026-03-28T13:23:31.646Z</time></trkpt><trkpt lat="44.2204817" lon="12.11989"><ele>21.0</ele><time>2026-03-28T13:23:32.645Z</time></trkpt><trkpt lat="44.22055" lon="12.1199233"><ele>21.0</ele><time>2026-03-28T13:23:33.645Z</time></trkpt><trkpt lat="44.2206167" lon="12.1199533"><ele>21.0</ele><time>2026-03-28T13:23:34.645Z</time></trkpt><trkpt lat="44.2206833" lon="12.1199867"><ele>21.0</ele><time>2026-03-28T13:23:35.646Z</time></trkpt><trkpt lat="44.220745" lon="12.1200217"><ele>21.0</ele><time>2026-03-28T13:23:36.645Z</time></trkpt><trkpt lat="44.2208083" lon="12.1200533"><ele>21.0</ele><time>2026-03-28T13:23:37.645Z</time></trkpt><trkpt lat="44.2208683" lon="12.1200867"><ele>21.0</ele><time>2026-03-28T13:23:38.645Z</time></trkpt><trkpt lat="44.2209317" lon="12.12012"><ele>21.0</ele><time>2026-03-28T13:23:39.646Z</time></trkpt><trkpt lat="44.220995" lon="12.12015"><ele>21.0</ele><time>2026-03-28T13:23:40.645Z</time></trkpt><trkpt lat="44.2211117" lon="12.1202017"><ele>21.0</ele><time>2026-03-28T13:23:42.645Z</time></trkpt><trkpt lat="44.2211733" lon="12.1202333"><ele>21.0</ele><time>2026-03-28T13:23:43.645Z</time></trkpt><trkpt lat="44.221235" lon="12.1202633"><ele>21.0</ele><time>2026-03-28T13:23:44.645Z</time></trkpt><trkpt lat="44.221295" lon="12.1202933"><ele>21.0</ele><time>2026-03-28T13:23:45.645Z</time></trkpt><trkpt lat="44.2213617" lon="12.1203267"><ele>21.0</ele><time>2026-03-28T13:23:46.646Z</time></trkpt><trkpt lat="44.221425" lon="12.1203583"><ele>21.0</ele><time>2026-03-28T13:23:47.645Z</time></trkpt><trkpt lat="44.2214917" lon="12.1203917"><ele>21.0</ele><time>2026-03-28T13:23:48.645Z</time></trkpt><trkpt lat="44.221555" lon="12.12042"><ele>21.0</ele><time>2026-03-28T13:23:49.646Z</time></trkpt><trkpt lat="44.2216233" lon="12.120455"><ele>21.0</ele><time>2026-03-28T13:23:50.646Z</time></trkpt><trkpt lat="44.221685" lon="12.1204867"><ele>21.0</ele><time>2026-03-28T13:23:51.646Z</time></trkpt><trkpt lat="44.22175" lon="12.1205217"><ele>21.0</ele><time>2026-03-28T13:23:52.645Z</time></trkpt><trkpt lat="44.22181" lon="12.1205617"><ele>21.0</ele><time>2026-03-28T13:23:53.646Z</time></trkpt><trkpt lat="44.2218667" lon="12.12061"><ele>21.0</ele><time>2026-03-28T13:23:54.645Z</time></trkpt><trkpt lat="44.221915" lon="12.12067"><ele>21.0</ele><time>2026-03-28T13:23:55.646Z</time></trkpt><trkpt lat="44.2219633" lon="12.1207417"><ele>21.0</ele><time>2026-03-28T13:23:56.645Z</time></trkpt><trkpt lat="44.22201" lon="12.1208067"><ele>21.0</ele><time>2026-03-28T13:23:57.645Z</time></trkpt><trkpt lat="44.2220617" lon="12.1208633"><ele>21.0</ele><time>2026-03-28T13:23:58.645Z</time></trkpt><trkpt lat="44.2221217" lon="12.1208917"><ele>21.0</ele><time>2026-03-28T13:23:59.645Z</time></trkpt><trkpt lat="44.22219" lon="12.1208967"><ele>21.0</ele><time>2026-03-28T13:24:00.646Z</time></trkpt><trkpt lat="44.2222633" lon="12.1208833"><ele>21.0</ele><time>2026-03-28T13:24:01.645Z</time></trkpt><trkpt lat="44.2223383" lon="12.120875"><ele>21.0</ele><time>2026-03-28T13:24:02.645Z</time></trkpt><trkpt lat="44.22241" lon="12.1208733"><ele>21.0</ele><time>2026-03-28T13:24:03.645Z</time></trkpt><trkpt lat="44.2224783" lon="12.1208867"><ele>21.0</ele><time>2026-03-28T13:24:04.646Z</time></trkpt><trkpt lat="44.2225433" lon="12.1209083"><ele>21.0</ele><time>2026-03-28T13:24:05.645Z</time></trkpt><trkpt lat="44.2226083" lon="12.1209433"><ele>21.0</ele><time>2026-03-28T13:24:06.645Z</time></trkpt><trkpt lat="44.2227217" lon="12.12099"><ele>21.0</ele><time>2026-03-28T13:24:08.645Z</time></trkpt><trkpt lat="44.22283" lon="12.12104"><ele>21.0</ele><time>2026-03-28T13:24:10.645Z</time></trkpt><trkpt lat="44.222935" lon="12.12109"><ele>21.0</ele><time>2026-03-28T13:24:12.645Z</time></trkpt><trkpt lat="44.2230417" lon="12.1211183"><ele>21.0</ele><time>2026-03-28T13:24:14.645Z</time></trkpt><trkpt lat="44.22316" lon="12.12111"><ele>20.8</ele><time>2026-03-28T13:24:16.645Z</time></trkpt><trkpt lat="44.22325" lon="12.1210133"><ele>20.6</ele><time>2026-03-28T13:24:18.645Z</time></trkpt><trkpt lat="44.2232967" lon="12.1208867"><ele>20.4</ele><time>2026-03-28T13:24:20.645Z</time></trkpt><trkpt lat="44.2233467" lon="12.1207783"><ele>20.2</ele><time>2026-03-28T13:24:22.646Z</time></trkpt><trkpt lat="44.2233983" lon="12.12067"><ele>20.0</ele><time>2026-03-28T13:24:24.645Z</time></trkpt><trkpt lat="44.22344" lon="12.1205633"><ele>20.0</ele><time>2026-03-28T13:24:26.646Z</time></trkpt><trkpt lat="44.2234867" lon="12.120455"><ele>20.0</ele><time>2026-03-28T13:24:28.645Z</time></trkpt><trkpt lat="44.223535" lon="12.1203567"><ele>20.0</ele><time>2026-03-28T13:24:30.645Z</time></trkpt><trkpt lat="44.223585" lon="12.1202517"><ele>20.0</ele><time>2026-03-28T13:24:32.646Z</time></trkpt><trkpt lat="44.2236333" lon="12.1201517"><ele>20.0</ele><time>2026-03-28T13:24:34.645Z</time></trkpt><trkpt lat="44.2236933" lon="12.12003"><ele>20.0</ele><time>2026-03-28T13:24:36.645Z</time></trkpt><trkpt lat="44.2237517" lon="12.11992"><ele>20.0</ele><time>2026-03-28T13:24:38.645Z</time></trkpt><trkpt lat="44.2238033" lon="12.11981"><ele>20.0</ele><time>2026-03-28T13:24:40.645Z</time></trkpt><trkpt lat="44.2238517" lon="12.1197"><ele>20.0</ele><time>2026-03-28T13:24:42.646Z</time></trkpt><trkpt lat="44.2239033" lon="12.1195717"><ele>20.0</ele><time>2026-03-28T13:24:44.645Z</time></trkpt><trkpt lat="44.2239633" lon="12.1194333"><ele>20.0</ele><time>2026-03-28T13:24:46.645Z</time></trkpt><trkpt lat="44.22402" lon="12.1192933"><ele>20.0</ele><time>2026-03-28T13:24:48.645Z</time></trkpt><trkpt lat="44.22408" lon="12.119165"><ele>20.0</ele><time>2026-03-28T13:24:50.645Z</time></trkpt><trkpt lat="44.2241367" lon="12.119035"><ele>20.0</ele><time>2026-03-28T13:24:52.645Z</time></trkpt><trkpt lat="44.2241883" lon="12.1189083"><ele>20.0</ele><time>2026-03-28T13:24:54.645Z</time></trkpt><trkpt lat="44.2242417" lon="12.118785"><ele>20.0</ele><time>2026-03-28T13:24:56.645Z</time></trkpt><trkpt lat="44.2242967" lon="12.11867"><ele>20.0</ele><time>2026-03-28T13:24:58.645Z</time></trkpt><trkpt lat="44.22435" lon="12.1185483"><ele>20.0</ele><time>2026-03-28T13:25:00.645Z</time></trkpt><trkpt lat="44.2243967" lon="12.1184367"><ele>20.0</ele><time>2026-03-28T13:25:02.646Z</time></trkpt><trkpt lat="44.2244517" lon="12.1183133"><ele>20.0</ele><time>2026-03-28T13:25:04.646Z</time></trkpt><trkpt lat="44.2245083" lon="12.1181817"><ele>19.8</ele><time>2026-03-28T13:25:06.647Z</time></trkpt><trkpt lat="44.2245633" lon="12.1180517"><ele>19.6</ele><time>2026-03-28T13:25:08.647Z</time></trkpt><trkpt lat="44.22462" lon="12.117915"><ele>19.4</ele><time>2026-03-28T13:25:10.646Z</time></trkpt><trkpt lat="44.224665" lon="12.117795"><ele>19.2</ele><time>2026-03-28T13:25:12.646Z</time></trkpt><trkpt lat="44.22472" lon="12.1176717"><ele>19.0</ele><time>2026-03-28T13:25:14.646Z</time></trkpt><trkpt lat="44.2247767" lon="12.1175417"><ele>19.2</ele><time>2026-03-28T13:25:16.646Z</time></trkpt><trkpt lat="44.2248317" lon="12.11742"><ele>19.4</ele><time>2026-03-28T13:25:18.646Z</time></trkpt><trkpt lat="44.2248833" lon="12.117295"><ele>19.6</ele><time>2026-03-28T13:25:20.646Z</time></trkpt><trkpt lat="44.22494" lon="12.117165"><ele>19.8</ele><time>2026-03-28T13:25:22.646Z</time></trkpt><trkpt lat="44.2249883" lon="12.11703"><ele>20.0</ele><time>2026-03-28T13:25:24.646Z</time></trkpt><trkpt lat="44.2250367" lon="12.1169083"><ele>20.0</ele><time>2026-03-28T13:25:26.646Z</time></trkpt><trkpt lat="44.22509" lon="12.11678"><ele>20.0</ele><time>2026-03-28T13:25:28.646Z</time></trkpt><trkpt lat="44.225145" lon="12.1166533"><ele>20.0</ele><time>2026-03-28T13:25:30.646Z</time></trkpt><trkpt lat="44.2252083" lon="12.1165333"><ele>20.0</ele><time>2026-03-28T13:25:32.646Z</time></trkpt><trkpt lat="44.22527" lon="12.1164183"><ele>20.0</ele><time>2026-03-28T13:25:34.646Z</time></trkpt><trkpt lat="44.22533" lon="12.1162917"><ele>19.8</ele><time>2026-03-28T13:25:36.646Z</time></trkpt><trkpt lat="44.2253833" lon="12.1162"><ele>19.6</ele><time>2026-03-28T13:25:38.647Z</time></trkpt><trkpt lat="44.2254433" lon="12.116095"><ele>19.4</ele><time>2026-03-28T13:25:40.646Z</time></trkpt><trkpt lat="44.22551" lon="12.1159883"><ele>19.2</ele><time>2026-03-28T13:25:42.646Z</time></trkpt><trkpt lat="44.22558" lon="12.115855"><ele>19.0</ele><time>2026-03-28T13:25:44.646Z</time></trkpt><trkpt lat="44.225635" lon="12.1157333"><ele>19.2</ele><time>2026-03-28T13:25:46.646Z</time></trkpt><trkpt lat="44.2256867" lon="12.1155967"><ele>19.4</ele><time>2026-03-28T13:25:48.647Z</time></trkpt><trkpt lat="44.2257383" lon="12.1154833"><ele>19.6</ele><time>2026-03-28T13:25:50.647Z</time></trkpt><trkpt lat="44.2257867" lon="12.1153717"><ele>19.8</ele><time>2026-03-28T13:25:52.646Z</time></trkpt><trkpt lat="44.2258417" lon="12.115255"><ele>20.0</ele><time>2026-03-28T13:25:54.646Z</time></trkpt><trkpt lat="44.2258933" lon="12.1151467"><ele>20.0</ele><time>2026-03-28T13:25:56.646Z</time></trkpt><trkpt lat="44.22597" lon="12.11515"><ele>20.0</ele><time>2026-03-28T13:25:59.646Z</time></trkpt><trkpt lat="44.2260367" lon="12.1151733"><ele>20.0</ele><time>2026-03-28T13:26:01.646Z</time></trkpt><trkpt lat="44.2261133" lon="12.1152217"><ele>20.0</ele><time>2026-03-28T13:26:03.647Z</time></trkpt><trkpt lat="44.2262183" lon="12.11528"><ele>20.0</ele><time>2026-03-28T13:26:05.647Z</time></trkpt><trkpt lat="44.2263183" lon="12.115335"><ele>20.0</ele><time>2026-03-28T13:26:07.646Z</time></trkpt><trkpt lat="44.2264267" lon="12.115405"><ele>20.0</ele><time>2026-03-28T13:26:09.647Z</time></trkpt><trkpt lat="44.2265317" lon="12.1154633"><ele>20.0</ele><time>2026-03-28T13:26:11.646Z</time></trkpt><trkpt lat="44.226645" lon="12.1155"><ele>20.0</ele><time>2026-03-28T13:26:13.646Z</time></trkpt><trkpt lat="44.2267117" lon="12.1155117"><ele>20.0</ele><time>2026-03-28T13:26:14.647Z</time></trkpt><trkpt lat="44.226775" lon="12.1155117"><ele>19.6</ele><time>2026-03-28T13:26:15.646Z</time></trkpt><trkpt lat="44.2268933" lon="12.1154783"><ele>19.2</ele><time>2026-03-28T13:26:17.647Z</time></trkpt><trkpt lat="44.2269867" lon="12.115405"><ele>18.8</ele><time>2026-03-28T13:26:19.646Z</time></trkpt><trkpt lat="44.22706" lon="12.1153033"><ele>18.4</ele><time>2026-03-28T13:26:21.646Z</time></trkpt><trkpt lat="44.2271217" lon="12.1151783"><ele>18.0</ele><time>2026-03-28T13:26:23.646Z</time></trkpt><trkpt lat="44.22718" lon="12.115045"><ele>18.0</ele><time>2026-03-28T13:26:25.646Z</time></trkpt><trkpt lat="44.22724" lon="12.114915"><ele>18.0</ele><time>2026-03-28T13:26:27.647Z</time></trkpt><trkpt lat="44.2272983" lon="12.1147833"><ele>18.0</ele><time>2026-03-28T13:26:29.646Z</time></trkpt><trkpt lat="44.2273517" lon="12.114655"><ele>18.0</ele><time>2026-03-28T13:26:31.646Z</time></trkpt><trkpt lat="44.2274067" lon="12.1145167"><ele>18.0</ele><time>2026-03-28T13:26:33.646Z</time></trkpt><trkpt lat="44.2274583" lon="12.1143717"><ele>18.2</ele><time>2026-03-28T13:26:35.646Z</time></trkpt><trkpt lat="44.2275117" lon="12.114235"><ele>18.4</ele><time>2026-03-28T13:26:37.646Z</time></trkpt><trkpt lat="44.227565" lon="12.114105"><ele>18.599999999999998</ele><time>2026-03-28T13:26:39.646Z</time></trkpt><trkpt lat="44.227615" lon="12.11397"><ele>18.8</ele><time>2026-03-28T13:26:41.646Z</time></trkpt><trkpt lat="44.22767" lon="12.1138317"><ele>19.0</ele><time>2026-03-28T13:26:43.646Z</time></trkpt><trkpt lat="44.2277267" lon="12.113685"><ele>19.0</ele><time>2026-03-28T13:26:45.646Z</time></trkpt><trkpt lat="44.2277717" lon="12.11355"><ele>19.0</ele><time>2026-03-28T13:26:47.646Z</time></trkpt><trkpt lat="44.22781" lon="12.1134383"><ele>19.0</ele><time>2026-03-28T13:26:49.646Z</time></trkpt><trkpt lat="44.2278483" lon="12.1133183"><ele>19.0</ele><time>2026-03-28T13:26:51.646Z</time></trkpt><trkpt lat="44.2279117" lon="12.113175"><ele>19.0</ele><time>2026-03-28T13:26:53.646Z</time></trkpt><trkpt lat="44.22795" lon="12.1131"><ele>19.0</ele><time>2026-03-28T13:26:54.646Z</time></trkpt><trkpt lat="44.2280117" lon="12.11296"><ele>19.0</ele><time>2026-03-28T13:26:56.646Z</time></trkpt><trkpt lat="44.2280717" lon="12.1128233"><ele>19.0</ele><time>2026-03-28T13:26:58.646Z</time></trkpt><trkpt lat="44.2281283" lon="12.1126833"><ele>19.0</ele><time>2026-03-28T13:27:00.646Z</time></trkpt><trkpt lat="44.2281833" lon="12.11254"><ele>18.5</ele><time>2026-03-28T13:27:02.646Z</time></trkpt><trkpt lat="44.2282367" lon="12.1124017"><ele>18.0</ele><time>2026-03-28T13:27:04.646Z</time></trkpt><trkpt lat="44.22829" lon="12.1122667"><ele>17.5</ele><time>2026-03-28T13:27:06.647Z</time></trkpt><trkpt lat="44.228345" lon="12.1121283"><ele>17.0</ele><time>2026-03-28T13:27:08.646Z</time></trkpt><trkpt lat="44.2284017" lon="12.1119917"><ele>17.0</ele><time>2026-03-28T13:27:10.647Z</time></trkpt><trkpt lat="44.2284583" lon="12.11186"><ele>17.0</ele><time>2026-03-28T13:27:12.646Z</time></trkpt><trkpt lat="44.2285167" lon="12.1117283"><ele>17.0</ele><time>2026-03-28T13:27:14.646Z</time></trkpt><trkpt lat="44.2285767" lon="12.1115883"><ele>17.0</ele><time>2026-03-28T13:27:16.646Z</time></trkpt><trkpt lat="44.228635" lon="12.11145"><ele>17.0</ele><time>2026-03-28T13:27:18.646Z</time></trkpt><trkpt lat="44.22869" lon="12.1113117"><ele>17.0</ele><time>2026-03-28T13:27:20.646Z</time></trkpt><trkpt lat="44.2287483" lon="12.111185"><ele>17.0</ele><time>2026-03-28T13:27:22.646Z</time></trkpt><trkpt lat="44.2288083" lon="12.11105"><ele>17.0</ele><time>2026-03-28T13:27:24.646Z</time></trkpt><trkpt lat="44.2288683" lon="12.1109083"><ele>17.0</ele><time>2026-03-28T13:27:26.646Z</time></trkpt><trkpt lat="44.2289283" lon="12.1107767"><ele>17.0</ele><time>2026-03-28T13:27:28.647Z</time></trkpt><trkpt lat="44.2289933" lon="12.11064"><ele>17.0</ele><time>2026-03-28T13:27:30.647Z</time></trkpt><trkpt lat="44.2290267" lon="12.110565"><ele>17.0</ele><time>2026-03-28T13:27:31.647Z</time></trkpt><trkpt lat="44.2290917" lon="12.110425"><ele>17.0</ele><time>2026-03-28T13:27:33.646Z</time></trkpt><trkpt lat="44.2291617" lon="12.1102867"><ele>17.25</ele><time>2026-03-28T13:27:35.646Z</time></trkpt><trkpt lat="44.229235" lon="12.1101483"><ele>17.5</ele><time>2026-03-28T13:27:37.646Z</time></trkpt><trkpt lat="44.22931" lon="12.1100167"><ele>17.75</ele><time>2026-03-28T13:27:39.646Z</time></trkpt><trkpt lat="44.2293883" lon="12.1098883"><ele>18.0</ele><time>2026-03-28T13:27:41.646Z</time></trkpt><trkpt lat="44.2294633" lon="12.1097617"><ele>18.0</ele><time>2026-03-28T13:27:43.646Z</time></trkpt><trkpt lat="44.2295367" lon="12.1096467"><ele>18.0</ele><time>2026-03-28T13:27:45.646Z</time></trkpt><trkpt lat="44.2296017" lon="12.109535"><ele>18.0</ele><time>2026-03-28T13:27:47.646Z</time></trkpt><trkpt lat="44.2296717" lon="12.10942"><ele>18.0</ele><time>2026-03-28T13:27:49.646Z</time></trkpt><trkpt lat="44.2297433" lon="12.1093033"><ele>18.0</ele><time>2026-03-28T13:27:51.646Z</time></trkpt><trkpt lat="44.22981" lon="12.1091833"><ele>18.166666666666668</ele><time>2026-03-28T13:27:53.646Z</time></trkpt><trkpt lat="44.229875" lon="12.109075"><ele>18.333333333333332</ele><time>2026-03-28T13:27:55.646Z</time></trkpt><trkpt lat="44.2299267" lon="12.1090033"><ele>18.5</ele><time>2026-03-28T13:27:57.646Z</time></trkpt><trkpt lat="44.2299917" lon="12.1089117"><ele>18.666666666666664</ele><time>2026-03-28T13:28:00.647Z</time></trkpt><trkpt lat="44.2300483" lon="12.1088517"><ele>18.833333333333332</ele><time>2026-03-28T13:28:02.646Z</time></trkpt><trkpt lat="44.2301233" lon="12.1087917"><ele>19.0</ele><time>2026-03-28T13:28:04.646Z</time></trkpt><trkpt lat="44.230205" lon="12.1087233"><ele>19.0</ele><time>2026-03-28T13:28:06.646Z</time></trkpt><trkpt lat="44.2302917" lon="12.1086517"><ele>19.0</ele><time>2026-03-28T13:28:08.646Z</time></trkpt><trkpt lat="44.23038" lon="12.1085717"><ele>19.0</ele><time>2026-03-28T13:28:10.646Z</time></trkpt><trkpt lat="44.2304717" lon="12.1084867"><ele>19.0</ele><time>2026-03-28T13:28:12.646Z</time></trkpt><trkpt lat="44.2305667" lon="12.1084033"><ele>19.0</ele><time>2026-03-28T13:28:14.646Z</time></trkpt><trkpt lat="44.23066" lon="12.10832"><ele>19.0</ele><time>2026-03-28T13:28:16.646Z</time></trkpt><trkpt lat="44.23076" lon="12.1082283"><ele>19.0</ele><time>2026-03-28T13:28:18.646Z</time></trkpt><trkpt lat="44.230855" lon="12.108145"><ele>19.0</ele><time>2026-03-28T13:28:20.646Z</time></trkpt><trkpt lat="44.2309517" lon="12.1080517"><ele>19.0</ele><time>2026-03-28T13:28:22.647Z</time></trkpt><trkpt lat="44.2310483" lon="12.10797"><ele>19.0</ele><time>2026-03-28T13:28:24.646Z</time></trkpt><trkpt lat="44.23114" lon="12.1078917"><ele>19.0</ele><time>2026-03-28T13:28:26.646Z</time></trkpt><trkpt lat="44.2312367" lon="12.1078017"><ele>19.0</ele><time>2026-03-28T13:28:28.647Z</time></trkpt><trkpt lat="44.2313283" lon="12.1077067"><ele>19.0</ele><time>2026-03-28T13:28:30.646Z</time></trkpt><trkpt lat="44.23142" lon="12.10761"><ele>18.8</ele><time>2026-03-28T13:28:32.646Z</time></trkpt><trkpt lat="44.2315033" lon="12.1075083"><ele>18.599999999999998</ele><time>2026-03-28T13:28:34.646Z</time></trkpt><trkpt lat="44.2315833" lon="12.107405"><ele>18.4</ele><time>2026-03-28T13:28:36.646Z</time></trkpt><trkpt lat="44.2316633" lon="12.1073083"><ele>18.2</ele><time>2026-03-28T13:28:38.646Z</time></trkpt><trkpt lat="44.2317417" lon="12.1072083"><ele>18.0</ele><time>2026-03-28T13:28:40.646Z</time></trkpt><trkpt lat="44.23182" lon="12.1070967"><ele>18.0</ele><time>2026-03-28T13:28:42.647Z</time></trkpt><trkpt lat="44.2319017" lon="12.1069883"><ele>18.0</ele><time>2026-03-28T13:28:44.646Z</time></trkpt><trkpt lat="44.2319817" lon="12.1068767"><ele>18.0</ele><time>2026-03-28T13:28:46.647Z</time></trkpt><trkpt lat="44.2320633" lon="12.1067683"><ele>18.0</ele><time>2026-03-28T13:28:48.646Z</time></trkpt><trkpt lat="44.2321433" lon="12.1066617"><ele>18.0</ele><time>2026-03-28T13:28:50.646Z</time></trkpt><trkpt lat="44.2322233" lon="12.1065567"><ele>17.75</ele><time>2026-03-28T13:28:52.646Z</time></trkpt><trkpt lat="44.2323117" lon="12.1064383"><ele>17.5</ele><time>2026-03-28T13:28:54.647Z</time></trkpt><trkpt lat="44.2323967" lon="12.1063283"><ele>17.25</ele><time>2026-03-28T13:28:56.646Z</time></trkpt><trkpt lat="44.2324817" lon="12.106215"><ele>17.0</ele><time>2026-03-28T13:28:58.646Z</time></trkpt><trkpt lat="44.2325683" lon="12.1061017"><ele>17.0</ele><time>2026-03-28T13:29:00.646Z</time></trkpt><trkpt lat="44.2326533" lon="12.1059817"><ele>17.0</ele><time>2026-03-28T13:29:02.646Z</time></trkpt><trkpt lat="44.2327367" lon="12.105875"><ele>17.0</ele><time>2026-03-28T13:29:04.646Z</time></trkpt><trkpt lat="44.2328183" lon="12.1057683"><ele>17.0</ele><time>2026-03-28T13:29:06.646Z</time></trkpt><trkpt lat="44.2329" lon="12.1056617"><ele>17.25</ele><time>2026-03-28T13:29:08.646Z</time></trkpt><trkpt lat="44.23298" lon="12.1055467"><ele>17.5</ele><time>2026-03-28T13:29:10.646Z</time></trkpt><trkpt lat="44.2330617" lon="12.1054333"><ele>17.75</ele><time>2026-03-28T13:29:12.646Z</time></trkpt><trkpt lat="44.2331467" lon="12.105315"><ele>18.0</ele><time>2026-03-28T13:29:14.646Z</time></trkpt><trkpt lat="44.2332267" lon="12.105185"><ele>18.0</ele><time>2026-03-28T13:29:16.646Z</time></trkpt><trkpt lat="44.2332983" lon="12.1050633"><ele>18.0</ele><time>2026-03-28T13:29:18.646Z</time></trkpt><trkpt lat="44.2333733" lon="12.1049367"><ele>18.0</ele><time>2026-03-28T13:29:20.646Z</time></trkpt><trkpt lat="44.2334417" lon="12.10481"><ele>18.0</ele><time>2026-03-28T13:29:22.646Z</time></trkpt><trkpt lat="44.233515" lon="12.1046783"><ele>18.0</ele><time>2026-03-28T13:29:24.647Z</time></trkpt><trkpt lat="44.2335917" lon="12.1045517"><ele>18.0</ele><time>2026-03-28T13:29:26.646Z</time></trkpt><trkpt lat="44.233675" lon="12.1044333"><ele>18.0</ele><time>2026-03-28T13:29:28.646Z</time></trkpt><trkpt lat="44.23374" lon="12.1043183"><ele>18.0</ele><time>2026-03-28T13:29:30.646Z</time></trkpt><trkpt lat="44.2338033" lon="12.10421"><ele>18.0</ele><time>2026-03-28T13:29:32.647Z</time></trkpt><trkpt lat="44.2338733" lon="12.104095"><ele>17.8</ele><time>2026-03-28T13:29:34.646Z</time></trkpt><trkpt lat="44.2339417" lon="12.10398"><ele>17.6</ele><time>2026-03-28T13:29:36.646Z</time></trkpt><trkpt lat="44.2340083" lon="12.1038633"><ele>17.4</ele><time>2026-03-28T13:29:38.647Z</time></trkpt><trkpt lat="44.2340783" lon="12.10374"><ele>17.2</ele><time>2026-03-28T13:29:40.646Z</time></trkpt><trkpt lat="44.234145" lon="12.1036083"><ele>17.0</ele><time>2026-03-28T13:29:42.646Z</time></trkpt><trkpt lat="44.234215" lon="12.10348"><ele>17.0</ele><time>2026-03-28T13:29:44.647Z</time></trkpt><trkpt lat="44.2342917" lon="12.1033583"><ele>17.0</ele><time>2026-03-28T13:29:46.647Z</time></trkpt><trkpt lat="44.23436" lon="12.1032417"><ele>17.0</ele><time>2026-03-28T13:29:48.647Z</time></trkpt><trkpt lat="44.2344283" lon="12.103135"><ele>17.0</ele><time>2026-03-28T13:29:50.646Z</time></trkpt><trkpt lat="44.234495" lon="12.1030183"><ele>17.0</ele><time>2026-03-28T13:29:52.647Z</time></trkpt><trkpt lat="44.2345617" lon="12.1028883"><ele>17.0</ele><time>2026-03-28T13:29:54.646Z</time></trkpt><trkpt lat="44.2346317" lon="12.1027717"><ele>17.0</ele><time>2026-03-28T13:29:56.647Z</time></trkpt><trkpt lat="44.2347" lon="12.1026483"><ele>17.0</ele><time>2026-03-28T13:29:58.646Z</time></trkpt><trkpt lat="44.2347667" lon="12.10253"><ele>17.0</ele><time>2026-03-28T13:30:00.646Z</time></trkpt><trkpt lat="44.2348367" lon="12.1024117"><ele>17.0</ele><time>2026-03-28T13:30:02.647Z</time></trkpt><trkpt lat="44.2349083" lon="12.102285"><ele>17.4</ele><time>2026-03-28T13:30:04.647Z</time></trkpt><trkpt lat="44.2349783" lon="12.1021583"><ele>17.799999999999997</ele><time>2026-03-28T13:30:06.646Z</time></trkpt><trkpt lat="44.2350533" lon="12.1020433"><ele>18.2</ele><time>2026-03-28T13:30:08.647Z</time></trkpt><trkpt lat="44.2351083" lon="12.1019417"><ele>18.599999999999998</ele><time>2026-03-28T13:30:10.646Z</time></trkpt><trkpt lat="44.2351633" lon="12.1018283"><ele>19.0</ele><time>2026-03-28T13:30:12.646Z</time></trkpt><trkpt lat="44.235235" lon="12.1017083"><ele>19.0</ele><time>2026-03-28T13:30:14.647Z</time></trkpt><trkpt lat="44.235305" lon="12.1015883"><ele>19.0</ele><time>2026-03-28T13:30:16.646Z</time></trkpt><trkpt lat="44.2353767" lon="12.1014667"><ele>19.0</ele><time>2026-03-28T13:30:18.646Z</time></trkpt><trkpt lat="44.2354483" lon="12.1013483"><ele>19.0</ele><time>2026-03-28T13:30:20.646Z</time></trkpt><trkpt lat="44.2355267" lon="12.10122"><ele>19.2</ele><time>2026-03-28T13:30:22.646Z</time></trkpt><trkpt lat="44.235595" lon="12.1011033"><ele>19.4</ele><time>2026-03-28T13:30:24.646Z</time></trkpt><trkpt lat="44.2356633" lon="12.1009767"><ele>19.6</ele><time>2026-03-28T13:30:26.647Z</time></trkpt><trkpt lat="44.2357267" lon="12.1008583"><ele>19.8</ele><time>2026-03-28T13:30:28.646Z</time></trkpt><trkpt lat="44.2357883" lon="12.1007483"><ele>20.0</ele><time>2026-03-28T13:30:30.646Z</time></trkpt><trkpt lat="44.235855" lon="12.1006417"><ele>19.6</ele><time>2026-03-28T13:30:32.646Z</time></trkpt><trkpt lat="44.2359233" lon="12.10053"><ele>19.2</ele><time>2026-03-28T13:30:34.647Z</time></trkpt><trkpt lat="44.23599" lon="12.1004217"><ele>18.8</ele><time>2026-03-28T13:30:36.646Z</time></trkpt><trkpt lat="44.2360583" lon="12.1003067"><ele>18.4</ele><time>2026-03-28T13:30:38.646Z</time></trkpt><trkpt lat="44.2361283" lon="12.1001983"><ele>18.0</ele><time>2026-03-28T13:30:40.647Z</time></trkpt><trkpt lat="44.2361983" lon="12.10008"><ele>18.0</ele><time>2026-03-28T13:30:42.646Z</time></trkpt><trkpt lat="44.2362683" lon="12.099965"><ele>18.0</ele><time>2026-03-28T13:30:44.646Z</time></trkpt><trkpt lat="44.2363433" lon="12.09987"><ele>18.0</ele><time>2026-03-28T13:30:46.646Z</time></trkpt><trkpt lat="44.2364367" lon="12.0998267"><ele>18.0</ele><time>2026-03-28T13:30:48.646Z</time></trkpt><trkpt lat="44.23655" lon="12.09981"><ele>18.0</ele><time>2026-03-28T13:30:50.646Z</time></trkpt><trkpt lat="44.2366133" lon="12.09982"><ele>18.0</ele><time>2026-03-28T13:30:51.646Z</time></trkpt><trkpt lat="44.2367317" lon="12.09988"><ele>18.0</ele><time>2026-03-28T13:30:53.646Z</time></trkpt><trkpt lat="44.23679" lon="12.0999133"><ele>18.0</ele><time>2026-03-28T13:30:54.646Z</time></trkpt><trkpt lat="44.2368483" lon="12.0999467"><ele>18.0</ele><time>2026-03-28T13:30:55.646Z</time></trkpt><trkpt lat="44.2369067" lon="12.0999833"><ele>18.0</ele><time>2026-03-28T13:30:56.646Z</time></trkpt><trkpt lat="44.2370167" lon="12.10006"><ele>18.0</ele><time>2026-03-28T13:30:58.646Z</time></trkpt><trkpt lat="44.237125" lon="12.1001383"><ele>18.0</ele><time>2026-03-28T13:31:00.646Z</time></trkpt><trkpt lat="44.2372367" lon="12.1002133"><ele>18.0</ele><time>2026-03-28T13:31:02.646Z</time></trkpt><trkpt lat="44.23734" lon="12.100285"><ele>18.0</ele><time>2026-03-28T13:31:04.646Z</time></trkpt><trkpt lat="44.2374367" lon="12.1003467"><ele>18.0</ele><time>2026-03-28T13:31:06.646Z</time></trkpt><trkpt lat="44.2375317" lon="12.1004083"><ele>17.8</ele><time>2026-03-28T13:31:08.646Z</time></trkpt><trkpt lat="44.23763" lon="12.1004733"><ele>17.6</ele><time>2026-03-28T13:31:10.646Z</time></trkpt><trkpt lat="44.2377267" lon="12.100545"><ele>17.4</ele><time>2026-03-28T13:31:12.646Z</time></trkpt><trkpt lat="44.2378067" lon="12.1006033"><ele>17.2</ele><time>2026-03-28T13:31:14.646Z</time></trkpt><trkpt lat="44.2378817" lon="12.100605"><ele>17.0</ele><time>2026-03-28T13:31:16.646Z</time></trkpt><trkpt lat="44.2379283" lon="12.10053"><ele>17.0</ele><time>2026-03-28T13:31:18.646Z</time></trkpt><trkpt lat="44.2379767" lon="12.1004333"><ele>17.0</ele><time>2026-03-28T13:31:20.646Z</time></trkpt><trkpt lat="44.23803" lon="12.100325"><ele>17.0</ele><time>2026-03-28T13:31:22.646Z</time></trkpt><trkpt lat="44.2380783" lon="12.1002217"><ele>17.0</ele><time>2026-03-28T13:31:24.647Z</time></trkpt><trkpt lat="44.2381283" lon="12.1001133"><ele>17.0</ele><time>2026-03-28T13:31:26.646Z</time></trkpt><trkpt lat="44.2381767" lon="12.1000017"><ele>16.8</ele><time>2026-03-28T13:31:28.647Z</time></trkpt><trkpt lat="44.2382267" lon="12.0998817"><ele>16.6</ele><time>2026-03-28T13:31:30.646Z</time></trkpt><trkpt lat="44.23828" lon="12.0997533"><ele>16.400000000000002</ele><time>2026-03-28T13:31:32.646Z</time></trkpt><trkpt lat="44.238335" lon="12.0996233"><ele>16.2</ele><time>2026-03-28T13:31:34.646Z</time></trkpt><trkpt lat="44.23839" lon="12.09948"><ele>16.0</ele><time>2026-03-28T13:31:36.646Z</time></trkpt><trkpt lat="44.2384433" lon="12.0993483"><ele>16.0</ele><time>2026-03-28T13:31:38.646Z</time></trkpt><trkpt lat="44.2384917" lon="12.0992217"><ele>16.0</ele><time>2026-03-28T13:31:40.647Z</time></trkpt><trkpt lat="44.2385383" lon="12.0991017"><ele>16.0</ele><time>2026-03-28T13:31:42.646Z</time></trkpt><trkpt lat="44.2385867" lon="12.0989783"><ele>16.0</ele><time>2026-03-28T13:31:44.646Z</time></trkpt><trkpt lat="44.2386417" lon="12.0988517"><ele>16.0</ele><time>2026-03-28T13:31:46.647Z</time></trkpt><trkpt lat="44.2386933" lon="12.09872"><ele>16.0</ele><time>2026-03-28T13:31:48.646Z</time></trkpt><trkpt lat="44.2387433" lon="12.09859"><ele>16.0</ele><time>2026-03-28T13:31:50.646Z</time></trkpt><trkpt lat="44.2387933" lon="12.0984617"><ele>16.0</ele><time>2026-03-28T13:31:52.646Z</time></trkpt><trkpt lat="44.238845" lon="12.09833"><ele>16.0</ele><time>2026-03-28T13:31:54.646Z</time></trkpt><trkpt lat="44.238895" lon="12.0982033"><ele>16.0</ele><time>2026-03-28T13:31:56.646Z</time></trkpt><trkpt lat="44.2389483" lon="12.0980767"><ele>16.400000000000002</ele><time>2026-03-28T13:31:58.646Z</time></trkpt><trkpt lat="44.2390033" lon="12.0979417"><ele>16.8</ele><time>2026-03-28T13:32:00.647Z</time></trkpt><trkpt lat="44.239055" lon="12.0978117"><ele>17.200000000000003</ele><time>2026-03-28T13:32:02.646Z</time></trkpt><trkpt lat="44.2391083" lon="12.09768"><ele>17.6</ele><time>2026-03-28T13:32:04.646Z</time></trkpt><trkpt lat="44.2391633" lon="12.09755"><ele>18.0</ele><time>2026-03-28T13:32:06.647Z</time></trkpt><trkpt lat="44.23922" lon="12.0974133"><ele>18.0</ele><time>2026-03-28T13:32:08.647Z</time></trkpt><trkpt lat="44.2392717" lon="12.0972767"><ele>18.0</ele><time>2026-03-28T13:32:10.646Z</time></trkpt><trkpt lat="44.239325" lon="12.097135"><ele>18.0</ele><time>2026-03-28T13:32:12.647Z</time></trkpt><trkpt lat="44.2393717" lon="12.097"><ele>18.0</ele><time>2026-03-28T13:32:14.646Z</time></trkpt><trkpt lat="44.2394183" lon="12.0968567"><ele>18.0</ele><time>2026-03-28T13:32:16.646Z</time></trkpt><trkpt lat="44.2394767" lon="12.09671"><ele>17.4</ele><time>2026-03-28T13:32:18.646Z</time></trkpt><trkpt lat="44.2395333" lon="12.096565"><ele>16.8</ele><time>2026-03-28T13:32:20.646Z</time></trkpt><trkpt lat="44.2395967" lon="12.0964233"><ele>16.2</ele><time>2026-03-28T13:32:22.646Z</time></trkpt><trkpt lat="44.2396583" lon="12.09632"><ele>15.6</ele><time>2026-03-28T13:32:24.646Z</time></trkpt><trkpt lat="44.239725" lon="12.0962717"><ele>15.0</ele><time>2026-03-28T13:32:26.646Z</time></trkpt><trkpt lat="44.2398017" lon="12.09623"><ele>15.0</ele><time>2026-03-28T13:32:28.646Z</time></trkpt><trkpt lat="44.239885" lon="12.0962017"><ele>15.0</ele><time>2026-03-28T13:32:30.646Z</time></trkpt><trkpt lat="44.23997" lon="12.0961867"><ele>15.0</ele><time>2026-03-28T13:32:32.646Z</time></trkpt><trkpt lat="44.24005" lon="12.0961883"><ele>15.0</ele><time>2026-03-28T13:32:34.646Z</time></trkpt><trkpt lat="44.2401283" lon="12.096185"><ele>15.0</ele><time>2026-03-28T13:32:36.646Z</time></trkpt><trkpt lat="44.24021" lon="12.0961867"><ele>15.0</ele><time>2026-03-28T13:32:38.647Z</time></trkpt><trkpt lat="44.24031" lon="12.0961767"><ele>15.0</ele><time>2026-03-28T13:32:40.646Z</time></trkpt><trkpt lat="44.2404083" lon="12.0961583"><ele>15.0</ele><time>2026-03-28T13:32:42.647Z</time></trkpt><trkpt lat="44.24051" lon="12.0961533"><ele>15.0</ele><time>2026-03-28T13:32:44.646Z</time></trkpt><trkpt lat="44.2406133" lon="12.096155"><ele>15.0</ele><time>2026-03-28T13:32:46.646Z</time></trkpt><trkpt lat="44.2407083" lon="12.0961333"><ele>15.0</ele><time>2026-03-28T13:32:48.646Z</time></trkpt><trkpt lat="44.2408133" lon="12.09612"><ele>15.0</ele><time>2026-03-28T13:32:50.646Z</time></trkpt><trkpt lat="44.2409233" lon="12.0961133"><ele>15.0</ele><time>2026-03-28T13:32:52.647Z</time></trkpt><trkpt lat="44.2410367" lon="12.0961117"><ele>15.0</ele><time>2026-03-28T13:32:54.646Z</time></trkpt><trkpt lat="44.2411517" lon="12.0961083"><ele>15.0</ele><time>2026-03-28T13:32:56.646Z</time></trkpt><trkpt lat="44.241255" lon="12.096125"><ele>15.0</ele><time>2026-03-28T13:32:58.646Z</time></trkpt><trkpt lat="44.24136" lon="12.0961417"><ele>14.6</ele><time>2026-03-28T13:33:00.647Z</time></trkpt><trkpt lat="44.2414683" lon="12.096165"><ele>14.2</ele><time>2026-03-28T13:33:02.647Z</time></trkpt><trkpt lat="44.2415817" lon="12.0962"><ele>13.8</ele><time>2026-03-28T13:33:04.646Z</time></trkpt><trkpt lat="44.241665" lon="12.0962333"><ele>13.4</ele><time>2026-03-28T13:33:06.646Z</time></trkpt><trkpt lat="44.2417333" lon="12.0962683"><ele>13.0</ele><time>2026-03-28T13:33:08.646Z</time></trkpt><trkpt lat="44.2417617" lon="12.096355"><ele>12.999999999999998</ele><time>2026-03-28T13:33:11.646Z</time></trkpt><trkpt lat="44.2417667" lon="12.0964583"><ele>13.0</ele><time>2026-03-28T13:33:14.646Z</time></trkpt><trkpt lat="44.24176" lon="12.0965633"><ele>13.0</ele><time>2026-03-28T13:33:17.646Z</time></trkpt><trkpt lat="44.2417533" lon="12.0966633"><ele>13.0</ele><time>2026-03-28T13:33:20.646Z</time></trkpt><trkpt lat="44.241755" lon="12.0967617"><ele>12.999999999999998</ele><time>2026-03-28T13:33:23.647Z</time></trkpt><trkpt lat="44.2417567" lon="12.0968767"><ele>13.0</ele><time>2026-03-28T13:33:30.646Z</time></trkpt><trkpt lat="44.24179" lon="12.09698"><ele>13.600000000000001</ele><time>2026-03-28T13:33:33.646Z</time></trkpt><trkpt lat="44.2418467" lon="12.0970583"><ele>14.200000000000001</ele><time>2026-03-28T13:33:36.647Z</time></trkpt><trkpt lat="44.2419283" lon="12.0970983"><ele>14.8</ele><time>2026-03-28T13:33:39.646Z</time></trkpt><trkpt lat="44.2420033" lon="12.0971333"><ele>15.4</ele><time>2026-03-28T13:33:41.646Z</time></trkpt><trkpt lat="44.242085" lon="12.0971583"><ele>16.0</ele><time>2026-03-28T13:33:43.646Z</time></trkpt><trkpt lat="44.24222" lon="12.0972"><ele>15.8</ele><time>2026-03-28T13:33:46.646Z</time></trkpt><trkpt lat="44.24232" lon="12.09724"><ele>15.600000000000001</ele><time>2026-03-28T13:33:48.646Z</time></trkpt><trkpt lat="44.2424217" lon="12.0972717"><ele>15.4</ele><time>2026-03-28T13:33:50.647Z</time></trkpt><trkpt lat="44.2425267" lon="12.097305"><ele>15.2</ele><time>2026-03-28T13:33:52.646Z</time></trkpt><trkpt lat="44.2426267" lon="12.0973367"><ele>15.0</ele><time>2026-03-28T13:33:54.646Z</time></trkpt><trkpt lat="44.24273" lon="12.097365"><ele>15.0</ele><time>2026-03-28T13:33:56.646Z</time></trkpt><trkpt lat="44.2428333" lon="12.0973883"><ele>15.0</ele><time>2026-03-28T13:33:58.646Z</time></trkpt><trkpt lat="44.2429333" lon="12.0974133"><ele>15.0</ele><time>2026-03-28T13:34:00.646Z</time></trkpt><trkpt lat="44.2430217" lon="12.09744"><ele>15.0</ele><time>2026-03-28T13:34:02.646Z</time></trkpt><trkpt lat="44.2430967" lon="12.09746"><ele>15.0</ele><time>2026-03-28T13:34:04.646Z</time></trkpt><trkpt lat="44.2431783" lon="12.0974883"><ele>15.4</ele><time>2026-03-28T13:34:06.646Z</time></trkpt><trkpt lat="44.2432617" lon="12.0975217"><ele>15.8</ele><time>2026-03-28T13:34:08.646Z</time></trkpt><trkpt lat="44.24335" lon="12.0975517"><ele>16.2</ele><time>2026-03-28T13:34:10.647Z</time></trkpt><trkpt lat="44.2434417" lon="12.0975817"><ele>16.6</ele><time>2026-03-28T13:34:12.646Z</time></trkpt><trkpt lat="44.243545" lon="12.097595"><ele>17.0</ele><time>2026-03-28T13:34:14.646Z</time></trkpt><trkpt lat="44.2436517" lon="12.09761"><ele>17.0</ele><time>2026-03-28T13:34:16.646Z</time></trkpt><trkpt lat="44.24376" lon="12.097625"><ele>17.0</ele><time>2026-03-28T13:34:18.646Z</time></trkpt><trkpt lat="44.24387" lon="12.09764"><ele>17.0</ele><time>2026-03-28T13:34:20.646Z</time></trkpt><trkpt lat="44.2439867" lon="12.0976533"><ele>17.0</ele><time>2026-03-28T13:34:22.647Z</time></trkpt><trkpt lat="44.2441133" lon="12.0976683"><ele>16.75</ele><time>2026-03-28T13:34:24.646Z</time></trkpt><trkpt lat="44.2442283" lon="12.09769"><ele>16.5</ele><time>2026-03-28T13:34:26.647Z</time></trkpt><trkpt lat="44.2443467" lon="12.0977083"><ele>16.25</ele><time>2026-03-28T13:34:28.646Z</time></trkpt><trkpt lat="44.244465" lon="12.0977317"><ele>16.0</ele><time>2026-03-28T13:34:30.646Z</time></trkpt><trkpt lat="44.24458" lon="12.0977533"><ele>16.0</ele><time>2026-03-28T13:34:32.646Z</time></trkpt><trkpt lat="44.244695" lon="12.0977817"><ele>16.0</ele><time>2026-03-28T13:34:34.646Z</time></trkpt><trkpt lat="44.2448033" lon="12.097805"><ele>16.0</ele><time>2026-03-28T13:34:36.646Z</time></trkpt><trkpt lat="44.2448933" lon="12.0978133"><ele>16.0</ele><time>2026-03-28T13:34:38.646Z</time></trkpt><trkpt lat="44.244985" lon="12.0978133"><ele>16.0</ele><time>2026-03-28T13:34:40.647Z</time></trkpt><trkpt lat="44.24509" lon="12.0978183"><ele>15.75</ele><time>2026-03-28T13:34:42.646Z</time></trkpt><trkpt lat="44.2451967" lon="12.09785"><ele>15.5</ele><time>2026-03-28T13:34:44.647Z</time></trkpt><trkpt lat="44.2453083" lon="12.09788"><ele>15.25</ele><time>2026-03-28T13:34:46.646Z</time></trkpt><trkpt lat="44.2454233" lon="12.0979083"><ele>15.0</ele><time>2026-03-28T13:34:48.646Z</time></trkpt><trkpt lat="44.2455433" lon="12.0979317"><ele>15.166666666666666</ele><time>2026-03-28T13:34:50.646Z</time></trkpt><trkpt lat="44.2456683" lon="12.0979533"><ele>15.333333333333332</ele><time>2026-03-28T13:34:52.647Z</time></trkpt><trkpt lat="44.2457333" lon="12.097965"><ele>15.5</ele><time>2026-03-28T13:34:53.646Z</time></trkpt><trkpt lat="44.2457967" lon="12.0979817"><ele>15.666666666666666</ele><time>2026-03-28T13:34:54.646Z</time></trkpt><trkpt lat="44.24586" lon="12.097995"><ele>15.833333333333332</ele><time>2026-03-28T13:34:55.646Z</time></trkpt><trkpt lat="44.245985" lon="12.098015"><ele>16.0</ele><time>2026-03-28T13:34:57.646Z</time></trkpt><trkpt lat="44.2460483" lon="12.0980267"><ele>16.0</ele><time>2026-03-28T13:34:58.647Z</time></trkpt><trkpt lat="44.24617" lon="12.0980483"><ele>16.0</ele><time>2026-03-28T13:35:00.646Z</time></trkpt><trkpt lat="44.2462867" lon="12.0980667"><ele>16.0</ele><time>2026-03-28T13:35:02.647Z</time></trkpt><trkpt lat="44.2463917" lon="12.0980917"><ele>16.0</ele><time>2026-03-28T13:35:04.646Z</time></trkpt><trkpt lat="44.2464917" lon="12.0981017"><ele>16.0</ele><time>2026-03-28T13:35:06.646Z</time></trkpt><trkpt lat="44.2465833" lon="12.098115"><ele>15.75</ele><time>2026-03-28T13:35:08.646Z</time></trkpt><trkpt lat="44.2467033" lon="12.0981367"><ele>15.5</ele><time>2026-03-28T13:35:10.647Z</time></trkpt><trkpt lat="44.2468183" lon="12.0981567"><ele>15.25</ele><time>2026-03-28T13:35:12.646Z</time></trkpt><trkpt lat="44.2469383" lon="12.0981783"><ele>15.0</ele><time>2026-03-28T13:35:14.646Z</time></trkpt><trkpt lat="44.247055" lon="12.0981883"><ele>15.0</ele><time>2026-03-28T13:35:16.647Z</time></trkpt><trkpt lat="44.2471667" lon="12.0982"><ele>15.0</ele><time>2026-03-28T13:35:18.647Z</time></trkpt><trkpt lat="44.24727" lon="12.0982017"><ele>15.0</ele><time>2026-03-28T13:35:20.646Z</time></trkpt><trkpt lat="44.247375" lon="12.0982233"><ele>15.0</ele><time>2026-03-28T13:35:22.646Z</time></trkpt><trkpt lat="44.2474783" lon="12.0982667"><ele>15.0</ele><time>2026-03-28T13:35:24.646Z</time></trkpt><trkpt lat="44.2475933" lon="12.0983283"><ele>15.5</ele><time>2026-03-28T13:35:26.646Z</time></trkpt><trkpt lat="44.247655" lon="12.0983517"><ele>16.0</ele><time>2026-03-28T13:35:27.647Z</time></trkpt><trkpt lat="44.2477267" lon="12.0983733"><ele>16.5</ele><time>2026-03-28T13:35:28.646Z</time></trkpt><trkpt lat="44.2477917" lon="12.09839"><ele>17.0</ele><time>2026-03-28T13:35:29.646Z</time></trkpt><trkpt lat="44.247905" lon="12.0984233"><ele>17.5</ele><time>2026-03-28T13:35:31.646Z</time></trkpt><trkpt lat="44.248005" lon="12.0984567"><ele>18.0</ele><time>2026-03-28T13:35:33.646Z</time></trkpt><trkpt lat="44.248105" lon="12.0985017"><ele>17.6</ele><time>2026-03-28T13:35:35.646Z</time></trkpt><trkpt lat="44.2482083" lon="12.0985583"><ele>17.200000000000003</ele><time>2026-03-28T13:35:37.646Z</time></trkpt><trkpt lat="44.2483033" lon="12.098615"><ele>16.8</ele><time>2026-03-28T13:35:39.646Z</time></trkpt><trkpt lat="44.24839" lon="12.098665"><ele>16.400000000000002</ele><time>2026-03-28T13:35:41.646Z</time></trkpt><trkpt lat="44.248475" lon="12.09872"><ele>16.0</ele><time>2026-03-28T13:35:43.646Z</time></trkpt><trkpt lat="44.24856" lon="12.09877"><ele>15.999999999999998</ele><time>2026-03-28T13:35:45.646Z</time></trkpt><trkpt lat="44.248645" lon="12.09882"><ele>16.0</ele><time>2026-03-28T13:35:47.646Z</time></trkpt><trkpt lat="44.2487267" lon="12.0988667"><ele>16.0</ele><time>2026-03-28T13:35:49.646Z</time></trkpt><trkpt lat="44.2488117" lon="12.09891"><ele>16.0</ele><time>2026-03-28T13:35:51.646Z</time></trkpt><trkpt lat="44.248885" lon="12.0989383"><ele>15.999999999999998</ele><time>2026-03-28T13:35:55.144Z</time></trkpt><trkpt lat="44.2489433" lon="12.098975"><ele>16.0</ele><time>2026-03-28T13:35:56.145Z</time></trkpt><trkpt lat="44.249055" lon="12.0990433"><ele>16.0</ele><time>2026-03-28T13:35:58.644Z</time></trkpt><trkpt lat="44.2491533" lon="12.0990933"><ele>16.0</ele><time>2026-03-28T13:36:00.645Z</time></trkpt><trkpt lat="44.2492383" lon="12.0991433"><ele>16.0</ele><time>2026-03-28T13:36:02.644Z</time></trkpt><trkpt lat="44.24933" lon="12.09919"><ele>16.0</ele><time>2026-03-28T13:36:04.644Z</time></trkpt><trkpt lat="44.2494133" lon="12.099235"><ele>16.0</ele><time>2026-03-28T13:36:06.644Z</time></trkpt><trkpt lat="44.249495" lon="12.099285"><ele>16.0</ele><time>2026-03-28T13:36:08.644Z</time></trkpt><trkpt lat="44.2495783" lon="12.0993283"><ele>16.0</ele><time>2026-03-28T13:36:10.644Z</time></trkpt><trkpt lat="44.249665" lon="12.099375"><ele>16.0</ele><time>2026-03-28T13:36:12.644Z</time></trkpt><trkpt lat="44.249755" lon="12.0994233"><ele>16.0</ele><time>2026-03-28T13:36:14.645Z</time></trkpt><trkpt lat="44.249845" lon="12.0994733"><ele>16.0</ele><time>2026-03-28T13:36:16.644Z</time></trkpt><trkpt lat="44.2499317" lon="12.0995183"><ele>15.75</ele><time>2026-03-28T13:36:18.644Z</time></trkpt><trkpt lat="44.2500317" lon="12.0995733"><ele>15.5</ele><time>2026-03-28T13:36:20.645Z</time></trkpt><trkpt lat="44.2501383" lon="12.0996333"><ele>15.25</ele><time>2026-03-28T13:36:22.644Z</time></trkpt><trkpt lat="44.25025" lon="12.0996833"><ele>15.0</ele><time>2026-03-28T13:36:24.644Z</time></trkpt><trkpt lat="44.2503733" lon="12.0997217"><ele>15.0</ele><time>2026-03-28T13:36:26.644Z</time></trkpt><trkpt lat="44.2504417" lon="12.0997367"><ele>15.0</ele><time>2026-03-28T13:36:27.644Z</time></trkpt><trkpt lat="44.250515" lon="12.0997467"><ele>15.0</ele><time>2026-03-28T13:36:28.644Z</time></trkpt><trkpt lat="44.2505917" lon="12.0997517"><ele>15.0</ele><time>2026-03-28T13:36:29.645Z</time></trkpt><trkpt lat="44.2506717" lon="12.09975"><ele>15.0</ele><time>2026-03-28T13:36:30.645Z</time></trkpt><trkpt lat="44.250755" lon="12.0997383"><ele>15.0</ele><time>2026-03-28T13:36:31.645Z</time></trkpt><trkpt lat="44.25084" lon="12.0997167"><ele>15.0</ele><time>2026-03-28T13:36:32.644Z</time></trkpt><trkpt lat="44.2509283" lon="12.0996883"><ele>15.0</ele><time>2026-03-28T13:36:33.645Z</time></trkpt><trkpt lat="44.2510183" lon="12.0996567"><ele>15.0</ele><time>2026-03-28T13:36:34.644Z</time></trkpt><trkpt lat="44.25111" lon="12.0996217"><ele>15.0</ele><time>2026-03-28T13:36:35.645Z</time></trkpt><trkpt lat="44.2512033" lon="12.0995917"><ele>15.0</ele><time>2026-03-28T13:36:36.644Z</time></trkpt><trkpt lat="44.2513" lon="12.099565"><ele>15.0</ele><time>2026-03-28T13:36:37.645Z</time></trkpt><trkpt lat="44.2513983" lon="12.0995367"><ele>15.0</ele><time>2026-03-28T13:36:38.645Z</time></trkpt><trkpt lat="44.251495" lon="12.099515"><ele>15.0</ele><time>2026-03-28T13:36:39.644Z</time></trkpt><trkpt lat="44.25159" lon="12.0994933"><ele>15.0</ele><time>2026-03-28T13:36:40.644Z</time></trkpt><trkpt lat="44.251685" lon="12.0994717"><ele>15.0</ele><time>2026-03-28T13:36:41.644Z</time></trkpt><trkpt lat="44.25178" lon="12.0994567"><ele>14.833333333333334</ele><time>2026-03-28T13:36:42.645Z</time></trkpt><trkpt lat="44.2518717" lon="12.0994467"><ele>14.666666666666668</ele><time>2026-03-28T13:36:43.644Z</time></trkpt><trkpt lat="44.251965" lon="12.0994333"><ele>14.5</ele><time>2026-03-28T13:36:44.644Z</time></trkpt><trkpt lat="44.2520483" lon="12.0994283"><ele>14.333333333333334</ele><time>2026-03-28T13:36:45.644Z</time></trkpt><trkpt lat="44.2521317" lon="12.0994267"><ele>14.166666666666668</ele><time>2026-03-28T13:36:46.644Z</time></trkpt><trkpt lat="44.2522133" lon="12.0994233"><ele>14.0</ele><time>2026-03-28T13:36:47.644Z</time></trkpt><trkpt lat="44.2522933" lon="12.0994167"><ele>13.833333333333334</ele><time>2026-03-28T13:36:48.645Z</time></trkpt><trkpt lat="44.25237" lon="12.099415"><ele>13.666666666666668</ele><time>2026-03-28T13:36:49.644Z</time></trkpt><trkpt lat="44.2524383" lon="12.0994167"><ele>13.5</ele><time>2026-03-28T13:36:50.644Z</time></trkpt><trkpt lat="44.252505" lon="12.09942"><ele>13.333333333333332</ele><time>2026-03-28T13:36:51.644Z</time></trkpt><trkpt lat="44.25257" lon="12.0994233"><ele>13.166666666666666</ele><time>2026-03-28T13:36:52.644Z</time></trkpt><trkpt lat="44.2526333" lon="12.0994267"><ele>13.0</ele><time>2026-03-28T13:36:53.644Z</time></trkpt><trkpt lat="44.2527533" lon="12.0994333"><ele>12.999999999999998</ele><time>2026-03-28T13:36:55.644Z</time></trkpt><trkpt lat="44.2528217" lon="12.099425"><ele>13.0</ele><time>2026-03-28T13:36:56.644Z</time></trkpt><trkpt lat="44.252885" lon="12.0994267"><ele>13.0</ele><time>2026-03-28T13:36:57.644Z</time></trkpt><trkpt lat="44.2529933" lon="12.0994283"><ele>13.0</ele><time>2026-03-28T13:36:59.644Z</time></trkpt><trkpt lat="44.2530933" lon="12.099435"><ele>12.999999999999998</ele><time>2026-03-28T13:37:01.644Z</time></trkpt><trkpt lat="44.25319" lon="12.0994433"><ele>13.0</ele><time>2026-03-28T13:37:03.644Z</time></trkpt><trkpt lat="44.2532833" lon="12.0994617"><ele>13.0</ele><time>2026-03-28T13:37:05.644Z</time></trkpt><trkpt lat="44.2533783" lon="12.0994783"><ele>13.0</ele><time>2026-03-28T13:37:07.645Z</time></trkpt><trkpt lat="44.2534867" lon="12.099485"><ele>13.0</ele><time>2026-03-28T13:37:09.645Z</time></trkpt><trkpt lat="44.253595" lon="12.09949"><ele>13.0</ele><time>2026-03-28T13:37:11.644Z</time></trkpt><trkpt lat="44.2536983" lon="12.0995017"><ele>13.0</ele><time>2026-03-28T13:37:13.644Z</time></trkpt><trkpt lat="44.2537967" lon="12.09951"><ele>13.0</ele><time>2026-03-28T13:37:15.644Z</time></trkpt><trkpt lat="44.25389" lon="12.0995083"><ele>13.0</ele><time>2026-03-28T13:37:17.644Z</time></trkpt><trkpt lat="44.253985" lon="12.0995067"><ele>13.0</ele><time>2026-03-28T13:37:19.644Z</time></trkpt><trkpt lat="44.254085" lon="12.09952"><ele>13.0</ele><time>2026-03-28T13:37:21.645Z</time></trkpt><trkpt lat="44.25419" lon="12.099535"><ele>13.0</ele><time>2026-03-28T13:37:23.644Z</time></trkpt><trkpt lat="44.2542867" lon="12.099545"><ele>12.8</ele><time>2026-03-28T13:37:25.645Z</time></trkpt><trkpt lat="44.25438" lon="12.09956"><ele>12.600000000000001</ele><time>2026-03-28T13:37:27.644Z</time></trkpt><trkpt lat="44.2544733" lon="12.0995667"><ele>12.399999999999999</ele><time>2026-03-28T13:37:29.644Z</time></trkpt><trkpt lat="44.2545733" lon="12.0995717"><ele>12.2</ele><time>2026-03-28T13:37:31.644Z</time></trkpt><trkpt lat="44.2546667" lon="12.09959"><ele>12.0</ele><time>2026-03-28T13:37:33.644Z</time></trkpt><trkpt lat="44.2547567" lon="12.0996"><ele>11.8</ele><time>2026-03-28T13:37:35.644Z</time></trkpt><trkpt lat="44.2548517" lon="12.09961"><ele>11.6</ele><time>2026-03-28T13:37:37.644Z</time></trkpt><trkpt lat="44.25495" lon="12.0996217"><ele>11.4</ele><time>2026-03-28T13:37:39.644Z</time></trkpt><trkpt lat="44.2550467" lon="12.0996317"><ele>11.200000000000001</ele><time>2026-03-28T13:37:41.644Z</time></trkpt><trkpt lat="44.2551383" lon="12.099645"><ele>11.0</ele><time>2026-03-28T13:37:43.644Z</time></trkpt><trkpt lat="44.2552317" lon="12.09966"><ele>11.0</ele><time>2026-03-28T13:37:45.644Z</time></trkpt><trkpt lat="44.255335" lon="12.0996683"><ele>11.0</ele><time>2026-03-28T13:37:47.644Z</time></trkpt><trkpt lat="44.2554367" lon="12.0996783"><ele>11.0</ele><time>2026-03-28T13:37:49.644Z</time></trkpt><trkpt lat="44.2555467" lon="12.0996867"><ele>11.0</ele><time>2026-03-28T13:37:51.644Z</time></trkpt><trkpt lat="44.2556517" lon="12.099695"><ele>11.0</ele><time>2026-03-28T13:37:53.644Z</time></trkpt><trkpt lat="44.255765" lon="12.0997033"><ele>11.0</ele><time>2026-03-28T13:37:55.644Z</time></trkpt><trkpt lat="44.2558783" lon="12.09971"><ele>11.0</ele><time>2026-03-28T13:37:57.644Z</time></trkpt><trkpt lat="44.2559933" lon="12.0997183"><ele>11.0</ele><time>2026-03-28T13:37:59.644Z</time></trkpt><trkpt lat="44.2561183" lon="12.0997233"><ele>11.0</ele><time>2026-03-28T13:38:01.644Z</time></trkpt><trkpt lat="44.256245" lon="12.09973"><ele>11.0</ele><time>2026-03-28T13:38:03.644Z</time></trkpt><trkpt lat="44.256365" lon="12.0997333"><ele>11.0</ele><time>2026-03-28T13:38:05.644Z</time></trkpt><trkpt lat="44.25649" lon="12.099745"><ele>11.0</ele><time>2026-03-28T13:38:07.644Z</time></trkpt><trkpt lat="44.256615" lon="12.0997567"><ele>11.0</ele><time>2026-03-28T13:38:09.644Z</time></trkpt><trkpt lat="44.2567333" lon="12.099765"><ele>11.0</ele><time>2026-03-28T13:38:11.644Z</time></trkpt><trkpt lat="44.256845" lon="12.099785"><ele>11.0</ele><time>2026-03-28T13:38:13.644Z</time></trkpt><trkpt lat="44.2569567" lon="12.099805"><ele>11.0</ele><time>2026-03-28T13:38:15.644Z</time></trkpt><trkpt lat="44.2570667" lon="12.0998267"><ele>11.0</ele><time>2026-03-28T13:38:17.644Z</time></trkpt><trkpt lat="44.2571833" lon="12.099885"><ele>11.666666666666666</ele><time>2026-03-28T13:38:19.644Z</time></trkpt><trkpt lat="44.2572967" lon="12.0999467"><ele>12.333333333333332</ele><time>2026-03-28T13:38:21.645Z</time></trkpt><trkpt lat="44.2573567" lon="12.0999783"><ele>13.0</ele><time>2026-03-28T13:38:22.644Z</time></trkpt><trkpt lat="44.2574167" lon="12.1000117"><ele>13.666666666666666</ele><time>2026-03-28T13:38:23.644Z</time></trkpt><trkpt lat="44.25748" lon="12.10005"><ele>14.333333333333334</ele><time>2026-03-28T13:38:24.644Z</time></trkpt><trkpt lat="44.25755" lon="12.1000867"><ele>15.0</ele><time>2026-03-28T13:38:25.644Z</time></trkpt><trkpt lat="44.25762" lon="12.1001217"><ele>15.0</ele><time>2026-03-28T13:38:26.644Z</time></trkpt><trkpt lat="44.2576867" lon="12.1001567"><ele>15.0</ele><time>2026-03-28T13:38:27.644Z</time></trkpt><trkpt lat="44.2577533" lon="12.10019"><ele>15.0</ele><time>2026-03-28T13:38:28.644Z</time></trkpt><trkpt lat="44.2578167" lon="12.1002217"><ele>15.0</ele><time>2026-03-28T13:38:29.645Z</time></trkpt><trkpt lat="44.25788" lon="12.1002533"><ele>15.0</ele><time>2026-03-28T13:38:30.644Z</time></trkpt><trkpt lat="44.257945" lon="12.1002867"><ele>15.0</ele><time>2026-03-28T13:38:31.645Z</time></trkpt><trkpt lat="44.2580083" lon="12.1003167"><ele>15.0</ele><time>2026-03-28T13:38:32.644Z</time></trkpt><trkpt lat="44.2580683" lon="12.100345"><ele>14.8</ele><time>2026-03-28T13:38:33.644Z</time></trkpt><trkpt lat="44.2581283" lon="12.1003717"><ele>14.6</ele><time>2026-03-28T13:38:34.644Z</time></trkpt><trkpt lat="44.2581883" lon="12.1004017"><ele>14.399999999999999</ele><time>2026-03-28T13:38:35.644Z</time></trkpt><trkpt lat="44.2583017" lon="12.1004617"><ele>14.2</ele><time>2026-03-28T13:38:37.645Z</time></trkpt><trkpt lat="44.2584133" lon="12.1005133"><ele>14.0</ele><time>2026-03-28T13:38:39.645Z</time></trkpt><trkpt lat="44.2585283" lon="12.100565"><ele>14.0</ele><time>2026-03-28T13:38:41.644Z</time></trkpt><trkpt lat="44.258635" lon="12.1006283"><ele>14.0</ele><time>2026-03-28T13:38:43.644Z</time></trkpt><trkpt lat="44.2587483" lon="12.100685"><ele>14.0</ele><time>2026-03-28T13:38:45.644Z</time></trkpt><trkpt lat="44.2588617" lon="12.100745"><ele>14.0</ele><time>2026-03-28T13:38:47.645Z</time></trkpt><trkpt lat="44.2589767" lon="12.1008017"><ele>13.75</ele><time>2026-03-28T13:38:49.645Z</time></trkpt><trkpt lat="44.259095" lon="12.1008583"><ele>13.5</ele><time>2026-03-28T13:38:51.644Z</time></trkpt><trkpt lat="44.25921" lon="12.1009133"><ele>13.25</ele><time>2026-03-28T13:38:53.644Z</time></trkpt><trkpt lat="44.259325" lon="12.1009683"><ele>13.0</ele><time>2026-03-28T13:38:55.644Z</time></trkpt><trkpt lat="44.25944" lon="12.1010183"><ele>13.0</ele><time>2026-03-28T13:38:57.644Z</time></trkpt><trkpt lat="44.25955" lon="12.1010617"><ele>13.0</ele><time>2026-03-28T13:38:59.644Z</time></trkpt><trkpt lat="44.2596083" lon="12.1010983"><ele>13.0</ele><time>2026-03-28T13:39:00.644Z</time></trkpt><trkpt lat="44.2596667" lon="12.1011317"><ele>13.0</ele><time>2026-03-28T13:39:01.644Z</time></trkpt><trkpt lat="44.25978" lon="12.101195"><ele>13.0</ele><time>2026-03-28T13:39:03.644Z</time></trkpt><trkpt lat="44.2598917" lon="12.1012483"><ele>12.833333333333332</ele><time>2026-03-28T13:39:05.644Z</time></trkpt><trkpt lat="44.2600117" lon="12.1013083"><ele>12.666666666666666</ele><time>2026-03-28T13:39:07.644Z</time></trkpt><trkpt lat="44.260075" lon="12.10134"><ele>12.5</ele><time>2026-03-28T13:39:08.644Z</time></trkpt><trkpt lat="44.2601383" lon="12.1013717"><ele>12.333333333333332</ele><time>2026-03-28T13:39:09.644Z</time></trkpt><trkpt lat="44.2602033" lon="12.1014017"><ele>12.166666666666666</ele><time>2026-03-28T13:39:10.644Z</time></trkpt><trkpt lat="44.260265" lon="12.1014317"><ele>12.0</ele><time>2026-03-28T13:39:11.645Z</time></trkpt><trkpt lat="44.2603267" lon="12.1014583"><ele>12.0</ele><time>2026-03-28T13:39:12.644Z</time></trkpt><trkpt lat="44.26044" lon="12.1015117"><ele>12.0</ele><time>2026-03-28T13:39:14.644Z</time></trkpt><trkpt lat="44.2605517" lon="12.1015733"><ele>12.0</ele><time>2026-03-28T13:39:16.644Z</time></trkpt><trkpt lat="44.2606717" lon="12.1016417"><ele>12.0</ele><time>2026-03-28T13:39:18.644Z</time></trkpt><trkpt lat="44.2607317" lon="12.10167"><ele>12.0</ele><time>2026-03-28T13:39:19.645Z</time></trkpt><trkpt lat="44.2607917" lon="12.1016983"><ele>12.2</ele><time>2026-03-28T13:39:20.644Z</time></trkpt><trkpt lat="44.26091" lon="12.1017633"><ele>12.399999999999999</ele><time>2026-03-28T13:39:22.644Z</time></trkpt><trkpt lat="44.26097" lon="12.1017983"><ele>12.600000000000001</ele><time>2026-03-28T13:39:23.644Z</time></trkpt><trkpt lat="44.2610883" lon="12.1018667"><ele>12.8</ele><time>2026-03-28T13:39:25.644Z</time></trkpt><trkpt lat="44.2612067" lon="12.1019283"><ele>13.0</ele><time>2026-03-28T13:39:27.644Z</time></trkpt><trkpt lat="44.2612683" lon="12.1019633"><ele>13.0</ele><time>2026-03-28T13:39:28.644Z</time></trkpt><trkpt lat="44.2613617" lon="12.1020217"><ele>13.0</ele><time>2026-03-28T13:39:30.644Z</time></trkpt><trkpt lat="44.2614767" lon="12.102075"><ele>13.0</ele><time>2026-03-28T13:39:32.644Z</time></trkpt><trkpt lat="44.261595" lon="12.1021"><ele>13.0</ele><time>2026-03-28T13:39:34.644Z</time></trkpt><trkpt lat="44.2617217" lon="12.1021017"><ele>12.999999999999998</ele><time>2026-03-28T13:39:36.644Z</time></trkpt><trkpt lat="44.261845" lon="12.10209"><ele>13.0</ele><time>2026-03-28T13:39:38.644Z</time></trkpt><trkpt lat="44.2619667" lon="12.1020667"><ele>13.0</ele><time>2026-03-28T13:39:40.644Z</time></trkpt><trkpt lat="44.2620317" lon="12.1020617"><ele>13.0</ele><time>2026-03-28T13:39:41.644Z</time></trkpt><trkpt lat="44.2620983" lon="12.1020517"><ele>12.999999999999998</ele><time>2026-03-28T13:39:42.644Z</time></trkpt><trkpt lat="44.2621633" lon="12.1020417"><ele>13.0</ele><time>2026-03-28T13:39:43.645Z</time></trkpt><trkpt lat="44.2622317" lon="12.1020333"><ele>12.999999999999998</ele><time>2026-03-28T13:39:44.644Z</time></trkpt><trkpt lat="44.2623" lon="12.1020267"><ele>13.0</ele><time>2026-03-28T13:39:45.644Z</time></trkpt><trkpt lat="44.2623667" lon="12.10202"><ele>13.0</ele><time>2026-03-28T13:39:46.644Z</time></trkpt><trkpt lat="44.26249" lon="12.1020083"><ele>13.0</ele><time>2026-03-28T13:39:48.644Z</time></trkpt><trkpt lat="44.262555" lon="12.1020033"><ele>12.999999999999998</ele><time>2026-03-28T13:39:49.644Z</time></trkpt><trkpt lat="44.26262" lon="12.1019967"><ele>13.0</ele><time>2026-03-28T13:39:50.644Z</time></trkpt><trkpt lat="44.262685" lon="12.1019883"><ele>13.0</ele><time>2026-03-28T13:39:51.644Z</time></trkpt><trkpt lat="44.2627483" lon="12.1019817"><ele>13.0</ele><time>2026-03-28T13:39:52.644Z</time></trkpt><trkpt lat="44.2628133" lon="12.1019767"><ele>13.0</ele><time>2026-03-28T13:39:53.645Z</time></trkpt><trkpt lat="44.2628767" lon="12.1019717"><ele>13.0</ele><time>2026-03-28T13:39:54.644Z</time></trkpt><trkpt lat="44.26294" lon="12.101965"><ele>13.0</ele><time>2026-03-28T13:39:55.644Z</time></trkpt><trkpt lat="44.2630033" lon="12.1019583"><ele>13.0</ele><time>2026-03-28T13:39:56.644Z</time></trkpt><trkpt lat="44.263125" lon="12.101955"><ele>13.0</ele><time>2026-03-28T13:39:58.644Z</time></trkpt><trkpt lat="44.2632483" lon="12.101955"><ele>12.666666666666666</ele><time>2026-03-28T13:40:00.644Z</time></trkpt><trkpt lat="44.2633117" lon="12.1019567"><ele>12.333333333333332</ele><time>2026-03-28T13:40:01.645Z</time></trkpt><trkpt lat="44.263375" lon="12.10196"><ele>12.0</ele><time>2026-03-28T13:40:02.644Z</time></trkpt><trkpt lat="44.2634433" lon="12.1019633"><ele>11.666666666666666</ele><time>2026-03-28T13:40:03.644Z</time></trkpt><trkpt lat="44.263565" lon="12.1019683"><ele>11.333333333333332</ele><time>2026-03-28T13:40:05.644Z</time></trkpt><trkpt lat="44.2636833" lon="12.10198"><ele>11.0</ele><time>2026-03-28T13:40:07.645Z</time></trkpt><trkpt lat="44.2638083" lon="12.101985"><ele>11.0</ele><time>2026-03-28T13:40:09.644Z</time></trkpt><trkpt lat="44.2639333" lon="12.102"><ele>11.0</ele><time>2026-03-28T13:40:11.644Z</time></trkpt><trkpt lat="44.2639967" lon="12.1020033"><ele>11.0</ele><time>2026-03-28T13:40:12.644Z</time></trkpt><trkpt lat="44.2640617" lon="12.102005"><ele>11.0</ele><time>2026-03-28T13:40:13.644Z</time></trkpt><trkpt lat="44.2641267" lon="12.102005"><ele>11.0</ele><time>2026-03-28T13:40:14.644Z</time></trkpt><trkpt lat="44.26419" lon="12.1020067"><ele>11.0</ele><time>2026-03-28T13:40:15.644Z</time></trkpt><trkpt lat="44.2643083" lon="12.1020117"><ele>11.200000000000001</ele><time>2026-03-28T13:40:17.645Z</time></trkpt><trkpt lat="44.2644183" lon="12.1020133"><ele>11.4</ele><time>2026-03-28T13:40:19.644Z</time></trkpt><trkpt lat="44.264525" lon="12.1020167"><ele>11.6</ele><time>2026-03-28T13:40:21.644Z</time></trkpt><trkpt lat="44.2646317" lon="12.10202"><ele>11.8</ele><time>2026-03-28T13:40:23.644Z</time></trkpt><trkpt lat="44.2647433" lon="12.1020433"><ele>12.0</ele><time>2026-03-28T13:40:25.644Z</time></trkpt><trkpt lat="44.2648667" lon="12.1020667"><ele>11.666666666666666</ele><time>2026-03-28T13:40:27.644Z</time></trkpt><trkpt lat="44.2649917" lon="12.1020867"><ele>11.333333333333334</ele><time>2026-03-28T13:40:29.644Z</time></trkpt><trkpt lat="44.265055" lon="12.102095"><ele>11.0</ele><time>2026-03-28T13:40:30.644Z</time></trkpt><trkpt lat="44.2651183" lon="12.102105"><ele>10.666666666666668</ele><time>2026-03-28T13:40:31.644Z</time></trkpt><trkpt lat="44.2651817" lon="12.1021133"><ele>10.333333333333334</ele><time>2026-03-28T13:40:32.644Z</time></trkpt><trkpt lat="44.2652467" lon="12.1021217"><ele>10.0</ele><time>2026-03-28T13:40:33.644Z</time></trkpt><trkpt lat="44.26537" lon="12.1021483"><ele>10.0</ele><time>2026-03-28T13:40:35.644Z</time></trkpt><trkpt lat="44.2654933" lon="12.102175"><ele>10.0</ele><time>2026-03-28T13:40:37.644Z</time></trkpt><trkpt lat="44.2655567" lon="12.102185"><ele>10.0</ele><time>2026-03-28T13:40:38.644Z</time></trkpt><trkpt lat="44.265675" lon="12.1022167"><ele>10.0</ele><time>2026-03-28T13:40:40.644Z</time></trkpt><trkpt lat="44.265795" lon="12.1022433"><ele>10.0</ele><time>2026-03-28T13:40:42.644Z</time></trkpt><trkpt lat="44.2659167" lon="12.1022767"><ele>10.25</ele><time>2026-03-28T13:40:44.644Z</time></trkpt><trkpt lat="44.2660333" lon="12.1023083"><ele>10.5</ele><time>2026-03-28T13:40:46.644Z</time></trkpt><trkpt lat="44.2661483" lon="12.1023317"><ele>10.75</ele><time>2026-03-28T13:40:48.644Z</time></trkpt><trkpt lat="44.2662583" lon="12.10235"><ele>11.0</ele><time>2026-03-28T13:40:50.644Z</time></trkpt><trkpt lat="44.2663667" lon="12.1023617"><ele>11.0</ele><time>2026-03-28T13:40:52.644Z</time></trkpt><trkpt lat="44.266475" lon="12.10239"><ele>11.0</ele><time>2026-03-28T13:40:54.645Z</time></trkpt><trkpt lat="44.2665883" lon="12.1024217"><ele>11.0</ele><time>2026-03-28T13:40:56.644Z</time></trkpt><trkpt lat="44.2667083" lon="12.102455"><ele>11.0</ele><time>2026-03-28T13:40:58.644Z</time></trkpt><trkpt lat="44.2668283" lon="12.1024783"><ele>11.25</ele><time>2026-03-28T13:41:00.644Z</time></trkpt><trkpt lat="44.266945" lon="12.1024933"><ele>11.5</ele><time>2026-03-28T13:41:02.644Z</time></trkpt><trkpt lat="44.2670567" lon="12.102515"><ele>11.75</ele><time>2026-03-28T13:41:04.644Z</time></trkpt><trkpt lat="44.2671667" lon="12.1025317"><ele>12.0</ele><time>2026-03-28T13:41:06.644Z</time></trkpt><trkpt lat="44.26729" lon="12.1025467"><ele>12.0</ele><time>2026-03-28T13:41:08.644Z</time></trkpt><trkpt lat="44.2674017" lon="12.102565"><ele>12.0</ele><time>2026-03-28T13:41:10.644Z</time></trkpt><trkpt lat="44.2675133" lon="12.102575"><ele>12.0</ele><time>2026-03-28T13:41:12.644Z</time></trkpt><trkpt lat="44.2676233" lon="12.1025817"><ele>12.0</ele><time>2026-03-28T13:41:14.644Z</time></trkpt><trkpt lat="44.267735" lon="12.102595"><ele>12.0</ele><time>2026-03-28T13:41:16.644Z</time></trkpt><trkpt lat="44.2678467" lon="12.1026033"><ele>12.0</ele><time>2026-03-28T13:41:18.644Z</time></trkpt><trkpt lat="44.2679117" lon="12.1026183"><ele>12.0</ele><time>2026-03-28T13:41:19.644Z</time></trkpt><trkpt lat="44.2680283" lon="12.1026333"><ele>12.0</ele><time>2026-03-28T13:41:21.644Z</time></trkpt><trkpt lat="44.2681417" lon="12.1026517"><ele>12.0</ele><time>2026-03-28T13:41:23.644Z</time></trkpt><trkpt lat="44.2682567" lon="12.1026617"><ele>12.0</ele><time>2026-03-28T13:41:25.645Z</time></trkpt><trkpt lat="44.2683717" lon="12.1026683"><ele>11.6</ele><time>2026-03-28T13:41:27.644Z</time></trkpt><trkpt lat="44.2684833" lon="12.10268"><ele>11.2</ele><time>2026-03-28T13:41:29.644Z</time></trkpt><trkpt lat="44.26859" lon="12.1026883"><ele>10.8</ele><time>2026-03-28T13:41:31.645Z</time></trkpt><trkpt lat="44.2686917" lon="12.102685"><ele>10.4</ele><time>2026-03-28T13:41:33.644Z</time></trkpt><trkpt lat="44.2687967" lon="12.1026883"><ele>10.0</ele><time>2026-03-28T13:41:35.644Z</time></trkpt><trkpt lat="44.2689067" lon="12.1027"><ele>10.2</ele><time>2026-03-28T13:41:37.645Z</time></trkpt><trkpt lat="44.2690167" lon="12.1027117"><ele>10.4</ele><time>2026-03-28T13:41:39.644Z</time></trkpt><trkpt lat="44.2691233" lon="12.102725"><ele>10.600000000000001</ele><time>2026-03-28T13:41:41.644Z</time></trkpt><trkpt lat="44.26923" lon="12.1027417"><ele>10.8</ele><time>2026-03-28T13:41:43.644Z</time></trkpt><trkpt lat="44.2693433" lon="12.10276"><ele>11.0</ele><time>2026-03-28T13:41:45.644Z</time></trkpt><trkpt lat="44.2694517" lon="12.1027733"><ele>11.0</ele><time>2026-03-28T13:41:47.645Z</time></trkpt><trkpt lat="44.2695617" lon="12.1027833"><ele>11.0</ele><time>2026-03-28T13:41:49.645Z</time></trkpt><trkpt lat="44.26967" lon="12.1028067"><ele>11.0</ele><time>2026-03-28T13:41:51.644Z</time></trkpt><trkpt lat="44.2697783" lon="12.10284"><ele>11.0</ele><time>2026-03-28T13:41:53.645Z</time></trkpt><trkpt lat="44.2698933" lon="12.1028667"><ele>11.0</ele><time>2026-03-28T13:41:55.645Z</time></trkpt><trkpt lat="44.2700017" lon="12.10288"><ele>11.0</ele><time>2026-03-28T13:41:57.644Z</time></trkpt><trkpt lat="44.2701117" lon="12.1028933"><ele>11.0</ele><time>2026-03-28T13:41:59.645Z</time></trkpt><trkpt lat="44.2702283" lon="12.1029183"><ele>11.0</ele><time>2026-03-28T13:42:01.644Z</time></trkpt><trkpt lat="44.2703383" lon="12.1029417"><ele>11.0</ele><time>2026-03-28T13:42:03.645Z</time></trkpt><trkpt lat="44.2704433" lon="12.1029533"><ele>11.0</ele><time>2026-03-28T13:42:05.644Z</time></trkpt><trkpt lat="44.2705517" lon="12.1029683"><ele>10.75</ele><time>2026-03-28T13:42:07.644Z</time></trkpt><trkpt lat="44.270665" lon="12.1029933"><ele>10.5</ele><time>2026-03-28T13:42:09.644Z</time></trkpt><trkpt lat="44.2707767" lon="12.1030167"><ele>10.25</ele><time>2026-03-28T13:42:11.644Z</time></trkpt><trkpt lat="44.2708917" lon="12.1030467"><ele>10.0</ele><time>2026-03-28T13:42:13.644Z</time></trkpt><trkpt lat="44.2709983" lon="12.1030617"><ele>10.0</ele><time>2026-03-28T13:42:15.644Z</time></trkpt><trkpt lat="44.271095" lon="12.1030717"><ele>10.0</ele><time>2026-03-28T13:42:17.644Z</time></trkpt><trkpt lat="44.271195" lon="12.1031"><ele>10.0</ele><time>2026-03-28T13:42:19.644Z</time></trkpt><trkpt lat="44.2713017" lon="12.10312"><ele>10.0</ele><time>2026-03-28T13:42:21.644Z</time></trkpt><trkpt lat="44.2714083" lon="12.1031367"><ele>10.0</ele><time>2026-03-28T13:42:23.644Z</time></trkpt><trkpt lat="44.271515" lon="12.1031583"><ele>10.0</ele><time>2026-03-28T13:42:25.645Z</time></trkpt><trkpt lat="44.27162" lon="12.1031983"><ele>10.0</ele><time>2026-03-28T13:42:27.644Z</time></trkpt><trkpt lat="44.2717267" lon="12.10325"><ele>10.0</ele><time>2026-03-28T13:42:29.644Z</time></trkpt><trkpt lat="44.271835" lon="12.1032933"><ele>10.0</ele><time>2026-03-28T13:42:31.644Z</time></trkpt><trkpt lat="44.2719517" lon="12.1033317"><ele>10.25</ele><time>2026-03-28T13:42:33.645Z</time></trkpt><trkpt lat="44.2720717" lon="12.10338"><ele>10.5</ele><time>2026-03-28T13:42:35.644Z</time></trkpt><trkpt lat="44.2721917" lon="12.1034317"><ele>10.75</ele><time>2026-03-28T13:42:37.644Z</time></trkpt><trkpt lat="44.2723117" lon="12.10348"><ele>11.0</ele><time>2026-03-28T13:42:39.644Z</time></trkpt><trkpt lat="44.2724317" lon="12.1035233"><ele>11.0</ele><time>2026-03-28T13:42:41.644Z</time></trkpt><trkpt lat="44.2725483" lon="12.1035617"><ele>11.0</ele><time>2026-03-28T13:42:43.644Z</time></trkpt><trkpt lat="44.2726683" lon="12.1035967"><ele>11.0</ele><time>2026-03-28T13:42:45.644Z</time></trkpt><trkpt lat="44.2727933" lon="12.1036283"><ele>11.0</ele><time>2026-03-28T13:42:47.644Z</time></trkpt><trkpt lat="44.272915" lon="12.1036583"><ele>11.0</ele><time>2026-03-28T13:42:49.644Z</time></trkpt><trkpt lat="44.27303" lon="12.1036933"><ele>11.0</ele><time>2026-03-28T13:42:51.644Z</time></trkpt><trkpt lat="44.2731483" lon="12.1037183"><ele>11.0</ele><time>2026-03-28T13:42:53.644Z</time></trkpt><trkpt lat="44.2732633" lon="12.1037467"><ele>11.0</ele><time>2026-03-28T13:42:55.644Z</time></trkpt><trkpt lat="44.273385" lon="12.10378"><ele>10.5</ele><time>2026-03-28T13:42:57.644Z</time></trkpt><trkpt lat="44.2735033" lon="12.1038133"><ele>10.0</ele><time>2026-03-28T13:42:59.645Z</time></trkpt><trkpt lat="44.273625" lon="12.1038467"><ele>9.5</ele><time>2026-03-28T13:43:01.644Z</time></trkpt><trkpt lat="44.2737417" lon="12.103885"><ele>9.0</ele><time>2026-03-28T13:43:03.644Z</time></trkpt><trkpt lat="44.2738583" lon="12.1039167"><ele>9.25</ele><time>2026-03-28T13:43:05.645Z</time></trkpt><trkpt lat="44.2739767" lon="12.1039567"><ele>9.5</ele><time>2026-03-28T13:43:07.644Z</time></trkpt><trkpt lat="44.2740917" lon="12.1040067"><ele>9.75</ele><time>2026-03-28T13:43:09.644Z</time></trkpt><trkpt lat="44.274205" lon="12.1040667"><ele>10.0</ele><time>2026-03-28T13:43:11.644Z</time></trkpt><trkpt lat="44.2743233" lon="12.104125"><ele>10.0</ele><time>2026-03-28T13:43:13.644Z</time></trkpt><trkpt lat="44.274385" lon="12.1041567"><ele>10.0</ele><time>2026-03-28T13:43:14.644Z</time></trkpt><trkpt lat="44.274445" lon="12.1041883"><ele>10.0</ele><time>2026-03-28T13:43:15.644Z</time></trkpt><trkpt lat="44.2745067" lon="12.10422"><ele>10.0</ele><time>2026-03-28T13:43:16.644Z</time></trkpt><trkpt lat="44.2745667" lon="12.1042517"><ele>10.0</ele><time>2026-03-28T13:43:17.644Z</time></trkpt><trkpt lat="44.2746267" lon="12.1042817"><ele>10.0</ele><time>2026-03-28T13:43:18.645Z</time></trkpt><trkpt lat="44.2746867" lon="12.1043133"><ele>10.0</ele><time>2026-03-28T13:43:19.644Z</time></trkpt><trkpt lat="44.2747967" lon="12.1043717"><ele>10.0</ele><time>2026-03-28T13:43:21.645Z</time></trkpt><trkpt lat="44.2749017" lon="12.10442"><ele>10.0</ele><time>2026-03-28T13:43:23.644Z</time></trkpt><trkpt lat="44.275005" lon="12.1044583"><ele>10.0</ele><time>2026-03-28T13:43:25.644Z</time></trkpt><trkpt lat="44.2750983" lon="12.10451"><ele>10.0</ele><time>2026-03-28T13:43:27.644Z</time></trkpt><trkpt lat="44.2751967" lon="12.104545"><ele>10.0</ele><time>2026-03-28T13:43:29.645Z</time></trkpt><trkpt lat="44.2753" lon="12.10459"><ele>10.0</ele><time>2026-03-28T13:43:31.644Z</time></trkpt><trkpt lat="44.2754083" lon="12.104645"><ele>10.0</ele><time>2026-03-28T13:43:33.644Z</time></trkpt><trkpt lat="44.2755133" lon="12.1046983"><ele>10.0</ele><time>2026-03-28T13:43:35.644Z</time></trkpt><trkpt lat="44.2756167" lon="12.10474"><ele>10.0</ele><time>2026-03-28T13:43:37.645Z</time></trkpt><trkpt lat="44.27572" lon="12.104785"><ele>10.0</ele><time>2026-03-28T13:43:39.644Z</time></trkpt><trkpt lat="44.27582" lon="12.1048233"><ele>10.0</ele><time>2026-03-28T13:43:41.644Z</time></trkpt><trkpt lat="44.2759217" lon="12.1048583"><ele>10.0</ele><time>2026-03-28T13:43:43.645Z</time></trkpt><trkpt lat="44.276035" lon="12.1048983"><ele>10.0</ele><time>2026-03-28T13:43:45.644Z</time></trkpt><trkpt lat="44.276145" lon="12.104935"><ele>10.0</ele><time>2026-03-28T13:43:47.644Z</time></trkpt><trkpt lat="44.2762433" lon="12.1049683"><ele>10.0</ele><time>2026-03-28T13:43:49.644Z</time></trkpt><trkpt lat="44.276335" lon="12.1050067"><ele>10.0</ele><time>2026-03-28T13:43:51.644Z</time></trkpt><trkpt lat="44.276425" lon="12.1050383"><ele>10.0</ele><time>2026-03-28T13:43:53.644Z</time></trkpt><trkpt lat="44.2765067" lon="12.105075"><ele>10.0</ele><time>2026-03-28T13:43:55.644Z</time></trkpt><trkpt lat="44.2765867" lon="12.1050933"><ele>10.0</ele><time>2026-03-28T13:43:57.644Z</time></trkpt><trkpt lat="44.27667" lon="12.1051217"><ele>10.0</ele><time>2026-03-28T13:43:59.644Z</time></trkpt><trkpt lat="44.2767583" lon="12.1051683"><ele>10.0</ele><time>2026-03-28T13:44:01.644Z</time></trkpt><trkpt lat="44.2768483" lon="12.1052117"><ele>10.0</ele><time>2026-03-28T13:44:03.644Z</time></trkpt><trkpt lat="44.2769417" lon="12.1052467"><ele>10.0</ele><time>2026-03-28T13:44:05.644Z</time></trkpt><trkpt lat="44.2770417" lon="12.1052867"><ele>10.0</ele><time>2026-03-28T13:44:07.644Z</time></trkpt><trkpt lat="44.2771467" lon="12.1053283"><ele>10.0</ele><time>2026-03-28T13:44:09.645Z</time></trkpt><trkpt lat="44.277245" lon="12.1053717"><ele>10.0</ele><time>2026-03-28T13:44:11.645Z</time></trkpt><trkpt lat="44.2773367" lon="12.1054083"><ele>10.0</ele><time>2026-03-28T13:44:13.645Z</time></trkpt><trkpt lat="44.2774317" lon="12.105455"><ele>10.0</ele><time>2026-03-28T13:44:15.644Z</time></trkpt><trkpt lat="44.2775333" lon="12.1055067"><ele>10.0</ele><time>2026-03-28T13:44:17.644Z</time></trkpt><trkpt lat="44.2776367" lon="12.1055517"><ele>10.0</ele><time>2026-03-28T13:44:19.644Z</time></trkpt><trkpt lat="44.27774" lon="12.1056017"><ele>10.0</ele><time>2026-03-28T13:44:21.644Z</time></trkpt><trkpt lat="44.2778417" lon="12.1056433"><ele>10.0</ele><time>2026-03-28T13:44:23.644Z</time></trkpt><trkpt lat="44.2779383" lon="12.1056817"><ele>10.0</ele><time>2026-03-28T13:44:25.644Z</time></trkpt><trkpt lat="44.2780383" lon="12.1057267"><ele>10.0</ele><time>2026-03-28T13:44:27.644Z</time></trkpt><trkpt lat="44.278135" lon="12.105765"><ele>10.0</ele><time>2026-03-28T13:44:29.644Z</time></trkpt><trkpt lat="44.278225" lon="12.1058067"><ele>10.0</ele><time>2026-03-28T13:44:31.645Z</time></trkpt><trkpt lat="44.2783183" lon="12.1058517"><ele>9.8</ele><time>2026-03-28T13:44:33.645Z</time></trkpt><trkpt lat="44.278415" lon="12.1058983"><ele>9.6</ele><time>2026-03-28T13:44:35.645Z</time></trkpt><trkpt lat="44.278515" lon="12.10594"><ele>9.4</ele><time>2026-03-28T13:44:37.644Z</time></trkpt><trkpt lat="44.2786183" lon="12.1059783"><ele>9.2</ele><time>2026-03-28T13:44:39.644Z</time></trkpt><trkpt lat="44.278715" lon="12.1060283"><ele>9.0</ele><time>2026-03-28T13:44:41.644Z</time></trkpt><trkpt lat="44.2788083" lon="12.1060767"><ele>9.0</ele><time>2026-03-28T13:44:43.644Z</time></trkpt><trkpt lat="44.2789033" lon="12.1061217"><ele>9.0</ele><time>2026-03-28T13:44:45.644Z</time></trkpt><trkpt lat="44.2790083" lon="12.10616"><ele>9.0</ele><time>2026-03-28T13:44:47.644Z</time></trkpt><trkpt lat="44.27911" lon="12.1061967"><ele>9.0</ele><time>2026-03-28T13:44:49.644Z</time></trkpt><trkpt lat="44.27921" lon="12.1062467"><ele>9.0</ele><time>2026-03-28T13:44:51.644Z</time></trkpt><trkpt lat="44.2793117" lon="12.106295"><ele>9.0</ele><time>2026-03-28T13:44:53.645Z</time></trkpt><trkpt lat="44.27942" lon="12.10634"><ele>9.0</ele><time>2026-03-28T13:44:55.645Z</time></trkpt><trkpt lat="44.279525" lon="12.1063883"><ele>9.0</ele><time>2026-03-28T13:44:57.644Z</time></trkpt><trkpt lat="44.27963" lon="12.1064383"><ele>9.0</ele><time>2026-03-28T13:44:59.644Z</time></trkpt><trkpt lat="44.27973" lon="12.1064883"><ele>9.0</ele><time>2026-03-28T13:45:01.644Z</time></trkpt><trkpt lat="44.2798317" lon="12.1065333"><ele>9.0</ele><time>2026-03-28T13:45:03.644Z</time></trkpt><trkpt lat="44.2799367" lon="12.10657"><ele>9.0</ele><time>2026-03-28T13:45:05.644Z</time></trkpt><trkpt lat="44.280045" lon="12.1066"><ele>9.0</ele><time>2026-03-28T13:45:07.645Z</time></trkpt><trkpt lat="44.2801467" lon="12.10663"><ele>9.0</ele><time>2026-03-28T13:45:09.644Z</time></trkpt><trkpt lat="44.2802433" lon="12.1066617"><ele>9.0</ele><time>2026-03-28T13:45:11.644Z</time></trkpt><trkpt lat="44.2803433" lon="12.1066917"><ele>9.0</ele><time>2026-03-28T13:45:13.644Z</time></trkpt><trkpt lat="44.2804417" lon="12.10672"><ele>9.0</ele><time>2026-03-28T13:45:15.644Z</time></trkpt><trkpt lat="44.2805333" lon="12.1067467"><ele>9.0</ele><time>2026-03-28T13:45:17.644Z</time></trkpt><trkpt lat="44.28062" lon="12.1067733"><ele>9.0</ele><time>2026-03-28T13:45:19.644Z</time></trkpt><trkpt lat="44.2807067" lon="12.1067983"><ele>9.0</ele><time>2026-03-28T13:45:21.645Z</time></trkpt><trkpt lat="44.2807933" lon="12.10682"><ele>8.666666666666666</ele><time>2026-03-28T13:45:23.644Z</time></trkpt><trkpt lat="44.2808767" lon="12.10684"><ele>8.333333333333334</ele><time>2026-03-28T13:45:25.645Z</time></trkpt><trkpt lat="44.2809517" lon="12.106845"><ele>8.0</ele><time>2026-03-28T13:45:27.644Z</time></trkpt><trkpt lat="44.2810267" lon="12.1068467"><ele>7.666666666666667</ele><time>2026-03-28T13:45:30.644Z</time></trkpt><trkpt lat="44.2809583" lon="12.10678"><ele>7.333333333333334</ele><time>2026-03-28T13:45:53.644Z</time></trkpt><trkpt lat="44.2808833" lon="12.1067583"><ele>7.0</ele><time>2026-03-28T13:45:56.644Z</time></trkpt><trkpt lat="44.2808167" lon="12.1067433"><ele>7.0</ele><time>2026-03-28T13:45:58.644Z</time></trkpt><trkpt lat="44.28074" lon="12.10672"><ele>6.999999999999999</ele><time>2026-03-28T13:46:00.644Z</time></trkpt><trkpt lat="44.28065" lon="12.1066917"><ele>6.999999999999999</ele><time>2026-03-28T13:46:02.644Z</time></trkpt><trkpt lat="44.2805467" lon="12.106665"><ele>7.0</ele><time>2026-03-28T13:46:04.644Z</time></trkpt><trkpt lat="44.28044" lon="12.1066383"><ele>7.0</ele><time>2026-03-28T13:46:06.644Z</time></trkpt><trkpt lat="44.280335" lon="12.1066083"><ele>7.5</ele><time>2026-03-28T13:46:08.644Z</time></trkpt><trkpt lat="44.2802267" lon="12.1065767"><ele>8.0</ele><time>2026-03-28T13:46:10.645Z</time></trkpt><trkpt lat="44.2801117" lon="12.106545"><ele>8.5</ele><time>2026-03-28T13:46:12.644Z</time></trkpt><trkpt lat="44.2800017" lon="12.1065117"><ele>9.0</ele><time>2026-03-28T13:46:14.645Z</time></trkpt><trkpt lat="44.27989" lon="12.1064767"><ele>9.0</ele><time>2026-03-28T13:46:16.644Z</time></trkpt><trkpt lat="44.2797783" lon="12.1064383"><ele>9.0</ele><time>2026-03-28T13:46:18.644Z</time></trkpt><trkpt lat="44.2796617" lon="12.1064017"><ele>9.0</ele><time>2026-03-28T13:46:20.644Z</time></trkpt><trkpt lat="44.27955" lon="12.106355"><ele>9.0</ele><time>2026-03-28T13:46:22.644Z</time></trkpt><trkpt lat="44.2794467" lon="12.1063067"><ele>8.75</ele><time>2026-03-28T13:46:24.644Z</time></trkpt><trkpt lat="44.2793383" lon="12.1062617"><ele>8.5</ele><time>2026-03-28T13:46:26.644Z</time></trkpt><trkpt lat="44.2792283" lon="12.106215"><ele>8.25</ele><time>2026-03-28T13:46:28.644Z</time></trkpt><trkpt lat="44.2791217" lon="12.106165"><ele>8.0</ele><time>2026-03-28T13:46:30.644Z</time></trkpt><trkpt lat="44.2790133" lon="12.1061233"><ele>8.200000000000001</ele><time>2026-03-28T13:46:32.644Z</time></trkpt><trkpt lat="44.27891" lon="12.106075"><ele>8.4</ele><time>2026-03-28T13:46:34.644Z</time></trkpt><trkpt lat="44.278805" lon="12.1060267"><ele>8.600000000000001</ele><time>2026-03-28T13:46:36.645Z</time></trkpt><trkpt lat="44.2786983" lon="12.1059783"><ele>8.8</ele><time>2026-03-28T13:46:38.644Z</time></trkpt><trkpt lat="44.2785917" lon="12.10593"><ele>9.0</ele><time>2026-03-28T13:46:40.644Z</time></trkpt><trkpt lat="44.2784817" lon="12.105885"><ele>9.0</ele><time>2026-03-28T13:46:42.644Z</time></trkpt><trkpt lat="44.2783733" lon="12.1058367"><ele>9.0</ele><time>2026-03-28T13:46:44.644Z</time></trkpt><trkpt lat="44.278265" lon="12.1057917"><ele>9.0</ele><time>2026-03-28T13:46:46.644Z</time></trkpt><trkpt lat="44.2781583" lon="12.105745"><ele>9.0</ele><time>2026-03-28T13:46:48.644Z</time></trkpt><trkpt lat="44.278055" lon="12.1056983"><ele>9.0</ele><time>2026-03-28T13:46:50.644Z</time></trkpt><trkpt lat="44.2779517" lon="12.1056517"><ele>9.2</ele><time>2026-03-28T13:46:52.644Z</time></trkpt><trkpt lat="44.277855" lon="12.105615"><ele>9.4</ele><time>2026-03-28T13:46:54.644Z</time></trkpt><trkpt lat="44.2777567" lon="12.1055817"><ele>9.6</ele><time>2026-03-28T13:46:56.644Z</time></trkpt><trkpt lat="44.2776567" lon="12.1055333"><ele>9.8</ele><time>2026-03-28T13:46:58.644Z</time></trkpt><trkpt lat="44.277565" lon="12.105485"><ele>10.0</ele><time>2026-03-28T13:47:00.644Z</time></trkpt><trkpt lat="44.27748" lon="12.105445"><ele>10.0</ele><time>2026-03-28T13:47:02.645Z</time></trkpt><trkpt lat="44.27739" lon="12.1054033"><ele>10.0</ele><time>2026-03-28T13:47:04.645Z</time></trkpt><trkpt lat="44.277295" lon="12.1053567"><ele>10.0</ele><time>2026-03-28T13:47:06.644Z</time></trkpt><trkpt lat="44.2771867" lon="12.1053183"><ele>10.0</ele><time>2026-03-28T13:47:08.644Z</time></trkpt><trkpt lat="44.2770833" lon="12.105275"><ele>10.0</ele><time>2026-03-28T13:47:10.644Z</time></trkpt><trkpt lat="44.276975" lon="12.10523"><ele>10.0</ele><time>2026-03-28T13:47:12.644Z</time></trkpt><trkpt lat="44.2768767" lon="12.1051933"><ele>10.0</ele><time>2026-03-28T13:47:14.644Z</time></trkpt><trkpt lat="44.2767817" lon="12.1051533"><ele>10.0</ele><time>2026-03-28T13:47:16.644Z</time></trkpt><trkpt lat="44.2766917" lon="12.1051217"><ele>10.0</ele><time>2026-03-28T13:47:18.644Z</time></trkpt><trkpt lat="44.2766033" lon="12.1050967"><ele>10.0</ele><time>2026-03-28T13:47:20.645Z</time></trkpt><trkpt lat="44.2765233" lon="12.1051167"><ele>10.0</ele><time>2026-03-28T13:47:22.644Z</time></trkpt><trkpt lat="44.27647" lon="12.1051917"><ele>10.0</ele><time>2026-03-28T13:47:24.645Z</time></trkpt><trkpt lat="44.2764217" lon="12.1053083"><ele>10.0</ele><time>2026-03-28T13:47:26.644Z</time></trkpt><trkpt lat="44.2763633" lon="12.10544"><ele>10.0</ele><time>2026-03-28T13:47:28.644Z</time></trkpt><trkpt lat="44.276305" lon="12.10557"><ele>10.0</ele><time>2026-03-28T13:47:30.645Z</time></trkpt><trkpt lat="44.2762533" lon="12.1057033"><ele>10.4</ele><time>2026-03-28T13:47:32.644Z</time></trkpt><trkpt lat="44.276195" lon="12.10583"><ele>10.8</ele><time>2026-03-28T13:47:34.644Z</time></trkpt><trkpt lat="44.2761483" lon="12.1059633"><ele>11.2</ele><time>2026-03-28T13:47:36.645Z</time></trkpt><trkpt lat="44.2761017" lon="12.1060867"><ele>11.6</ele><time>2026-03-28T13:47:38.644Z</time></trkpt><trkpt lat="44.2760433" lon="12.10623"><ele>12.0</ele><time>2026-03-28T13:47:40.644Z</time></trkpt><trkpt lat="44.2759933" lon="12.106365"><ele>12.0</ele><time>2026-03-28T13:47:42.644Z</time></trkpt><trkpt lat="44.2759383" lon="12.1064883"><ele>12.0</ele><time>2026-03-28T13:47:44.644Z</time></trkpt><trkpt lat="44.27589" lon="12.106645"><ele>12.0</ele><time>2026-03-28T13:47:46.644Z</time></trkpt><trkpt lat="44.2758417" lon="12.1068"><ele>12.0</ele><time>2026-03-28T13:47:48.644Z</time></trkpt><trkpt lat="44.2757983" lon="12.10695"><ele>12.0</ele><time>2026-03-28T13:47:50.644Z</time></trkpt><trkpt lat="44.2757483" lon="12.1070867"><ele>12.0</ele><time>2026-03-28T13:47:52.645Z</time></trkpt><trkpt lat="44.2757" lon="12.107225"><ele>12.0</ele><time>2026-03-28T13:47:54.644Z</time></trkpt><trkpt lat="44.2756533" lon="12.1073633"><ele>12.0</ele><time>2026-03-28T13:47:56.644Z</time></trkpt><trkpt lat="44.2756033" lon="12.1074883"><ele>12.0</ele><time>2026-03-28T13:47:58.644Z</time></trkpt><trkpt lat="44.2755617" lon="12.1076067"><ele>12.0</ele><time>2026-03-28T13:48:00.645Z</time></trkpt><trkpt lat="44.27551" lon="12.1077167"><ele>12.0</ele><time>2026-03-28T13:48:02.645Z</time></trkpt><trkpt lat="44.27547" lon="12.1077883"><ele>12.0</ele><time>2026-03-28T13:48:04.644Z</time></trkpt><trkpt lat="44.2754267" lon="12.10789"><ele>12.0</ele><time>2026-03-28T13:48:06.644Z</time></trkpt><trkpt lat="44.27539" lon="12.1080167"><ele>12.0</ele><time>2026-03-28T13:48:08.644Z</time></trkpt><trkpt lat="44.27535" lon="12.1081533"><ele>12.0</ele><time>2026-03-28T13:48:10.644Z</time></trkpt><trkpt lat="44.27531" lon="12.1083083"><ele>12.0</ele><time>2026-03-28T13:48:12.644Z</time></trkpt><trkpt lat="44.2752717" lon="12.1084533"><ele>12.0</ele><time>2026-03-28T13:48:14.644Z</time></trkpt><trkpt lat="44.27523" lon="12.10859"><ele>12.0</ele><time>2026-03-28T13:48:16.644Z</time></trkpt><trkpt lat="44.2751633" lon="12.1087317"><ele>12.0</ele><time>2026-03-28T13:48:18.644Z</time></trkpt><trkpt lat="44.2751333" lon="12.10881"><ele>12.0</ele><time>2026-03-28T13:48:19.644Z</time></trkpt><trkpt lat="44.2751017" lon="12.1088867"><ele>12.0</ele><time>2026-03-28T13:48:20.645Z</time></trkpt><trkpt lat="44.2750417" lon="12.1090367"><ele>12.0</ele><time>2026-03-28T13:48:22.644Z</time></trkpt><trkpt lat="44.2750117" lon="12.109115"><ele>12.0</ele><time>2026-03-28T13:48:23.644Z</time></trkpt><trkpt lat="44.274955" lon="12.1092717"><ele>12.0</ele><time>2026-03-28T13:48:25.644Z</time></trkpt><trkpt lat="44.2749283" lon="12.1093517"><ele>12.0</ele><time>2026-03-28T13:48:26.644Z</time></trkpt><trkpt lat="44.2748733" lon="12.1095"><ele>11.75</ele><time>2026-03-28T13:48:28.644Z</time></trkpt><trkpt lat="44.274815" lon="12.1096567"><ele>11.5</ele><time>2026-03-28T13:48:30.645Z</time></trkpt><trkpt lat="44.2747567" lon="12.1098083"><ele>11.25</ele><time>2026-03-28T13:48:32.644Z</time></trkpt><trkpt lat="44.2747017" lon="12.1099567"><ele>11.0</ele><time>2026-03-28T13:48:34.644Z</time></trkpt><trkpt lat="44.2746467" lon="12.1100967"><ele>11.0</ele><time>2026-03-28T13:48:36.644Z</time></trkpt><trkpt lat="44.2745917" lon="12.1102467"><ele>11.0</ele><time>2026-03-28T13:48:38.644Z</time></trkpt><trkpt lat="44.2745367" lon="12.1104017"><ele>11.0</ele><time>2026-03-28T13:48:40.644Z</time></trkpt><trkpt lat="44.2744783" lon="12.1105467"><ele>11.0</ele><time>2026-03-28T13:48:42.644Z</time></trkpt><trkpt lat="44.2744517" lon="12.1106283"><ele>11.0</ele><time>2026-03-28T13:48:43.645Z</time></trkpt><trkpt lat="44.2744067" lon="12.1107833"><ele>11.25</ele><time>2026-03-28T13:48:45.645Z</time></trkpt><trkpt lat="44.2743517" lon="12.1109317"><ele>11.5</ele><time>2026-03-28T13:48:47.644Z</time></trkpt><trkpt lat="44.2742967" lon="12.111075"><ele>11.75</ele><time>2026-03-28T13:48:49.644Z</time></trkpt><trkpt lat="44.2742433" lon="12.1112183"><ele>12.0</ele><time>2026-03-28T13:48:51.645Z</time></trkpt><trkpt lat="44.2741917" lon="12.1113617"><ele>12.0</ele><time>2026-03-28T13:48:53.644Z</time></trkpt><trkpt lat="44.27413" lon="12.1115"><ele>12.0</ele><time>2026-03-28T13:48:55.644Z</time></trkpt><trkpt lat="44.27407" lon="12.1116267"><ele>12.0</ele><time>2026-03-28T13:48:57.644Z</time></trkpt><trkpt lat="44.2740167" lon="12.1117533"><ele>12.0</ele><time>2026-03-28T13:48:59.644Z</time></trkpt><trkpt lat="44.2739733" lon="12.111905"><ele>12.0</ele><time>2026-03-28T13:49:01.644Z</time></trkpt><trkpt lat="44.2739283" lon="12.112045"><ele>11.75</ele><time>2026-03-28T13:49:03.644Z</time></trkpt><trkpt lat="44.2738883" lon="12.1121967"><ele>11.5</ele><time>2026-03-28T13:49:05.644Z</time></trkpt><trkpt lat="44.27384" lon="12.11235"><ele>11.25</ele><time>2026-03-28T13:49:07.645Z</time></trkpt><trkpt lat="44.2737883" lon="12.1125033"><ele>11.0</ele><time>2026-03-28T13:49:09.644Z</time></trkpt><trkpt lat="44.2737367" lon="12.11266"><ele>11.0</ele><time>2026-03-28T13:49:11.645Z</time></trkpt><trkpt lat="44.27371" lon="12.11274"><ele>11.0</ele><time>2026-03-28T13:49:12.644Z</time></trkpt><trkpt lat="44.2736583" lon="12.1128967"><ele>11.0</ele><time>2026-03-28T13:49:14.644Z</time></trkpt><trkpt lat="44.2736067" lon="12.1130567"><ele>11.0</ele><time>2026-03-28T13:49:16.644Z</time></trkpt><trkpt lat="44.2735533" lon="12.1132083"><ele>11.0</ele><time>2026-03-28T13:49:18.644Z</time></trkpt><trkpt lat="44.2735" lon="12.1133517"><ele>11.0</ele><time>2026-03-28T13:49:20.645Z</time></trkpt><trkpt lat="44.273445" lon="12.1134917"><ele>11.0</ele><time>2026-03-28T13:49:22.645Z</time></trkpt><trkpt lat="44.27339" lon="12.1136317"><ele>11.0</ele><time>2026-03-28T13:49:24.644Z</time></trkpt><trkpt lat="44.2733417" lon="12.1137583"><ele>11.0</ele><time>2026-03-28T13:49:26.644Z</time></trkpt><trkpt lat="44.273295" lon="12.1138867"><ele>11.0</ele><time>2026-03-28T13:49:28.644Z</time></trkpt><trkpt lat="44.2732567" lon="12.1140033"><ele>11.166666666666666</ele><time>2026-03-28T13:49:30.644Z</time></trkpt><trkpt lat="44.27324" lon="12.1141017"><ele>11.333333333333332</ele><time>2026-03-28T13:49:32.644Z</time></trkpt><trkpt lat="44.2732667" lon="12.1141933"><ele>11.5</ele><time>2026-03-28T13:49:36.644Z</time></trkpt><trkpt lat="44.2733283" lon="12.1142133"><ele>11.666666666666666</ele><time>2026-03-28T13:49:38.645Z</time></trkpt><trkpt lat="44.2733983" lon="12.114245"><ele>11.833333333333334</ele><time>2026-03-28T13:49:40.644Z</time></trkpt><trkpt lat="44.273475" lon="12.114285"><ele>12.0</ele><time>2026-03-28T13:49:42.644Z</time></trkpt><trkpt lat="44.2735583" lon="12.1143483"><ele>12.0</ele><time>2026-03-28T13:49:44.644Z</time></trkpt><trkpt lat="44.2736533" lon="12.1144183"><ele>12.0</ele><time>2026-03-28T13:49:46.644Z</time></trkpt><trkpt lat="44.2737483" lon="12.1145"><ele>12.0</ele><time>2026-03-28T13:49:48.644Z</time></trkpt><trkpt lat="44.2738417" lon="12.1145833"><ele>12.0</ele><time>2026-03-28T13:49:50.644Z</time></trkpt><trkpt lat="44.2739417" lon="12.1146733"><ele>12.0</ele><time>2026-03-28T13:49:52.644Z</time></trkpt><trkpt lat="44.2739967" lon="12.114725"><ele>11.857142857142856</ele><time>2026-03-28T13:49:53.644Z</time></trkpt><trkpt lat="44.2740533" lon="12.1147717"><ele>11.714285714285714</ele><time>2026-03-28T13:49:54.645Z</time></trkpt><trkpt lat="44.2741117" lon="12.11482"><ele>11.571428571428571</ele><time>2026-03-28T13:49:55.644Z</time></trkpt><trkpt lat="44.2741667" lon="12.1148667"><ele>11.428571428571427</ele><time>2026-03-28T13:49:56.644Z</time></trkpt><trkpt lat="44.2742233" lon="12.1149183"><ele>11.285714285714285</ele><time>2026-03-28T13:49:57.644Z</time></trkpt><trkpt lat="44.2742783" lon="12.114965"><ele>11.142857142857142</ele><time>2026-03-28T13:49:58.644Z</time></trkpt><trkpt lat="44.2743333" lon="12.115015"><ele>11.0</ele><time>2026-03-28T13:49:59.645Z</time></trkpt><trkpt lat="44.2743917" lon="12.115065"><ele>11.0</ele><time>2026-03-28T13:50:00.645Z</time></trkpt><trkpt lat="44.2744467" lon="12.11511"><ele>11.0</ele><time>2026-03-28T13:50:01.644Z</time></trkpt><trkpt lat="44.2745017" lon="12.1151583"><ele>11.0</ele><time>2026-03-28T13:50:02.644Z</time></trkpt><trkpt lat="44.2745567" lon="12.1152033"><ele>11.0</ele><time>2026-03-28T13:50:03.644Z</time></trkpt><trkpt lat="44.2746633" lon="12.1152917"><ele>11.0</ele><time>2026-03-28T13:50:05.644Z</time></trkpt><trkpt lat="44.274765" lon="12.11538"><ele>11.0</ele><time>2026-03-28T13:50:07.644Z</time></trkpt><trkpt lat="44.2748783" lon="12.1154717"><ele>11.0</ele><time>2026-03-28T13:50:09.644Z</time></trkpt><trkpt lat="44.2749833" lon="12.11556"><ele>11.0</ele><time>2026-03-28T13:50:11.644Z</time></trkpt><trkpt lat="44.2750833" lon="12.1156533"><ele>11.0</ele><time>2026-03-28T13:50:13.645Z</time></trkpt><trkpt lat="44.2751783" lon="12.115735"><ele>11.0</ele><time>2026-03-28T13:50:15.644Z</time></trkpt><trkpt lat="44.27528" lon="12.1158233"><ele>11.0</ele><time>2026-03-28T13:50:17.645Z</time></trkpt><trkpt lat="44.2753367" lon="12.1158717"><ele>11.0</ele><time>2026-03-28T13:50:18.644Z</time></trkpt><trkpt lat="44.27544" lon="12.1159617"><ele>11.0</ele><time>2026-03-28T13:50:20.644Z</time></trkpt><trkpt lat="44.275495" lon="12.11601"><ele>11.0</ele><time>2026-03-28T13:50:21.644Z</time></trkpt><trkpt lat="44.2755983" lon="12.1160967"><ele>11.0</ele><time>2026-03-28T13:50:23.645Z</time></trkpt><trkpt lat="44.2757067" lon="12.1161933"><ele>11.166666666666666</ele><time>2026-03-28T13:50:25.644Z</time></trkpt><trkpt lat="44.2757633" lon="12.1162417"><ele>11.333333333333332</ele><time>2026-03-28T13:50:26.644Z</time></trkpt><trkpt lat="44.275865" lon="12.1163317"><ele>11.5</ele><time>2026-03-28T13:50:28.644Z</time></trkpt><trkpt lat="44.27597" lon="12.1164183"><ele>11.666666666666666</ele><time>2026-03-28T13:50:30.644Z</time></trkpt><trkpt lat="44.276025" lon="12.1164633"><ele>11.833333333333334</ele><time>2026-03-28T13:50:31.644Z</time></trkpt><trkpt lat="44.2760817" lon="12.1165117"><ele>12.0</ele><time>2026-03-28T13:50:32.644Z</time></trkpt><trkpt lat="44.2761367" lon="12.116555"><ele>11.75</ele><time>2026-03-28T13:50:33.644Z</time></trkpt><trkpt lat="44.276245" lon="12.116645"><ele>11.5</ele><time>2026-03-28T13:50:35.644Z</time></trkpt><trkpt lat="44.2763517" lon="12.1167283"><ele>11.25</ele><time>2026-03-28T13:50:37.645Z</time></trkpt><trkpt lat="44.2764567" lon="12.1168117"><ele>11.0</ele><time>2026-03-28T13:50:39.644Z</time></trkpt><trkpt lat="44.276555" lon="12.1168883"><ele>11.0</ele><time>2026-03-28T13:50:41.644Z</time></trkpt><trkpt lat="44.27665" lon="12.1169667"><ele>11.0</ele><time>2026-03-28T13:50:43.644Z</time></trkpt><trkpt lat="44.276745" lon="12.11705"><ele>11.0</ele><time>2026-03-28T13:50:45.644Z</time></trkpt><trkpt lat="44.27684" lon="12.1171317"><ele>11.0</ele><time>2026-03-28T13:50:47.644Z</time></trkpt><trkpt lat="44.2769417" lon="12.1172167"><ele>11.0</ele><time>2026-03-28T13:50:49.644Z</time></trkpt><trkpt lat="44.277045" lon="12.1173067"><ele>11.0</ele><time>2026-03-28T13:50:51.644Z</time></trkpt><trkpt lat="44.2771" lon="12.1173533"><ele>11.0</ele><time>2026-03-28T13:50:52.645Z</time></trkpt><trkpt lat="44.2771567" lon="12.1174"><ele>11.0</ele><time>2026-03-28T13:50:53.644Z</time></trkpt><trkpt lat="44.2772633" lon="12.1174867"><ele>11.0</ele><time>2026-03-28T13:50:55.644Z</time></trkpt><trkpt lat="44.277355" lon="12.11756"><ele>11.25</ele><time>2026-03-28T13:50:57.644Z</time></trkpt><trkpt lat="44.277455" lon="12.1176383"><ele>11.5</ele><time>2026-03-28T13:50:59.644Z</time></trkpt><trkpt lat="44.2775633" lon="12.1177317"><ele>11.75</ele><time>2026-03-28T13:51:01.645Z</time></trkpt><trkpt lat="44.2776633" lon="12.1178267"><ele>12.0</ele><time>2026-03-28T13:51:03.644Z</time></trkpt><trkpt lat="44.277745" lon="12.1179067"><ele>12.0</ele><time>2026-03-28T13:51:05.644Z</time></trkpt><trkpt lat="44.2778467" lon="12.11799"><ele>12.0</ele><time>2026-03-28T13:51:07.645Z</time></trkpt><trkpt lat="44.27795" lon="12.118075"><ele>12.0</ele><time>2026-03-28T13:51:09.644Z</time></trkpt><trkpt lat="44.2780533" lon="12.1181517"><ele>12.0</ele><time>2026-03-28T13:51:11.644Z</time></trkpt><trkpt lat="44.2781533" lon="12.1182367"><ele>11.5</ele><time>2026-03-28T13:51:13.644Z</time></trkpt><trkpt lat="44.2782483" lon="12.1183283"><ele>11.0</ele><time>2026-03-28T13:51:15.644Z</time></trkpt><trkpt lat="44.27835" lon="12.118425"><ele>10.5</ele><time>2026-03-28T13:51:17.644Z</time></trkpt><trkpt lat="44.2784517" lon="12.11852"><ele>10.0</ele><time>2026-03-28T13:51:19.644Z</time></trkpt><trkpt lat="44.278555" lon="12.1186167"><ele>10.0</ele><time>2026-03-28T13:51:21.644Z</time></trkpt><trkpt lat="44.278655" lon="12.1187067"><ele>10.0</ele><time>2026-03-28T13:51:23.644Z</time></trkpt><trkpt lat="44.27876" lon="12.1187933"><ele>10.0</ele><time>2026-03-28T13:51:25.644Z</time></trkpt><trkpt lat="44.27886" lon="12.11888"><ele>10.0</ele><time>2026-03-28T13:51:27.645Z</time></trkpt><trkpt lat="44.278955" lon="12.118955"><ele>9.8</ele><time>2026-03-28T13:51:29.644Z</time></trkpt><trkpt lat="44.279055" lon="12.1190417"><ele>9.6</ele><time>2026-03-28T13:51:31.644Z</time></trkpt><trkpt lat="44.279155" lon="12.1191433"><ele>9.4</ele><time>2026-03-28T13:51:33.644Z</time></trkpt><trkpt lat="44.2792083" lon="12.1191983"><ele>9.2</ele><time>2026-03-28T13:51:34.644Z</time></trkpt><trkpt lat="44.2792617" lon="12.119245"><ele>9.0</ele><time>2026-03-28T13:51:35.644Z</time></trkpt><trkpt lat="44.2793733" lon="12.119325"><ele>9.0</ele><time>2026-03-28T13:51:37.644Z</time></trkpt><trkpt lat="44.27947" lon="12.11942"><ele>9.0</ele><time>2026-03-28T13:51:39.644Z</time></trkpt><trkpt lat="44.2795717" lon="12.1195067"><ele>9.0</ele><time>2026-03-28T13:51:41.644Z</time></trkpt><trkpt lat="44.27966" lon="12.1195817"><ele>9.0</ele><time>2026-03-28T13:51:43.644Z</time></trkpt><trkpt lat="44.27975" lon="12.11964"><ele>9.0</ele><time>2026-03-28T13:51:45.644Z</time></trkpt><trkpt lat="44.2798417" lon="12.1197233"><ele>9.0</ele><time>2026-03-28T13:51:47.644Z</time></trkpt><trkpt lat="44.2799367" lon="12.1198067"><ele>9.0</ele><time>2026-03-28T13:51:49.644Z</time></trkpt><trkpt lat="44.2800317" lon="12.1198833"><ele>9.0</ele><time>2026-03-28T13:51:51.644Z</time></trkpt><trkpt lat="44.2801367" lon="12.1199683"><ele>9.0</ele><time>2026-03-28T13:51:53.644Z</time></trkpt><trkpt lat="44.2802333" lon="12.1200533"><ele>9.0</ele><time>2026-03-28T13:51:55.644Z</time></trkpt><trkpt lat="44.28033" lon="12.1201367"><ele>9.0</ele><time>2026-03-28T13:51:57.644Z</time></trkpt><trkpt lat="44.2804183" lon="12.1202117"><ele>9.0</ele><time>2026-03-28T13:51:59.644Z</time></trkpt><trkpt lat="44.2804967" lon="12.1202833"><ele>9.0</ele><time>2026-03-28T13:52:01.644Z</time></trkpt><trkpt lat="44.2805717" lon="12.1203783"><ele>9.0</ele><time>2026-03-28T13:52:03.644Z</time></trkpt><trkpt lat="44.28065" lon="12.120475"><ele>9.0</ele><time>2026-03-28T13:52:05.644Z</time></trkpt><trkpt lat="44.28073" lon="12.1205833"><ele>9.0</ele><time>2026-03-28T13:52:07.644Z</time></trkpt><trkpt lat="44.2807783" lon="12.12064"><ele>9.0</ele><time>2026-03-28T13:52:08.644Z</time></trkpt><trkpt lat="44.2808633" lon="12.12076"><ele>9.0</ele><time>2026-03-28T13:52:10.644Z</time></trkpt><trkpt lat="44.2809467" lon="12.1208633"><ele>9.0</ele><time>2026-03-28T13:52:12.644Z</time></trkpt><trkpt lat="44.281035" lon="12.1209717"><ele>9.333333333333334</ele><time>2026-03-28T13:52:14.644Z</time></trkpt><trkpt lat="44.2810833" lon="12.1210283"><ele>9.666666666666666</ele><time>2026-03-28T13:52:15.644Z</time></trkpt><trkpt lat="44.2811333" lon="12.1210867"><ele>10.0</ele><time>2026-03-28T13:52:16.644Z</time></trkpt><trkpt lat="44.2811817" lon="12.121145"><ele>10.333333333333332</ele><time>2026-03-28T13:52:17.644Z</time></trkpt><trkpt lat="44.281265" lon="12.12125"><ele>10.666666666666666</ele><time>2026-03-28T13:52:19.644Z</time></trkpt><trkpt lat="44.2813567" lon="12.1213617"><ele>11.0</ele><time>2026-03-28T13:52:21.644Z</time></trkpt><trkpt lat="44.28141" lon="12.1214117"><ele>11.0</ele><time>2026-03-28T13:52:22.644Z</time></trkpt><trkpt lat="44.2815" lon="12.1215117"><ele>11.0</ele><time>2026-03-28T13:52:24.644Z</time></trkpt><trkpt lat="44.2816017" lon="12.1216183"><ele>11.0</ele><time>2026-03-28T13:52:26.644Z</time></trkpt><trkpt lat="44.281705" lon="12.1217183"><ele>11.0</ele><time>2026-03-28T13:52:28.644Z</time></trkpt><trkpt lat="44.281755" lon="12.121775"><ele>11.0</ele><time>2026-03-28T13:52:29.645Z</time></trkpt><trkpt lat="44.2818583" lon="12.12188"><ele>11.0</ele><time>2026-03-28T13:52:31.644Z</time></trkpt><trkpt lat="44.281915" lon="12.121925"><ele>11.0</ele><time>2026-03-28T13:52:32.644Z</time></trkpt><trkpt lat="44.282025" lon="12.1220017"><ele>11.0</ele><time>2026-03-28T13:52:34.644Z</time></trkpt><trkpt lat="44.2820833" lon="12.122045"><ele>11.0</ele><time>2026-03-28T13:52:35.644Z</time></trkpt><trkpt lat="44.2821467" lon="12.1220817"><ele>11.0</ele><time>2026-03-28T13:52:36.644Z</time></trkpt><trkpt lat="44.2822117" lon="12.122125"><ele>11.0</ele><time>2026-03-28T13:52:37.645Z</time></trkpt><trkpt lat="44.2822683" lon="12.122165"><ele>10.8</ele><time>2026-03-28T13:52:38.645Z</time></trkpt><trkpt lat="44.2823783" lon="12.1222367"><ele>10.600000000000001</ele><time>2026-03-28T13:52:40.644Z</time></trkpt><trkpt lat="44.2824917" lon="12.1223117"><ele>10.4</ele><time>2026-03-28T13:52:42.644Z</time></trkpt><trkpt lat="44.28255" lon="12.122345"><ele>10.2</ele><time>2026-03-28T13:52:43.644Z</time></trkpt><trkpt lat="44.28261" lon="12.1223733"><ele>10.0</ele><time>2026-03-28T13:52:44.644Z</time></trkpt><trkpt lat="44.282715" lon="12.1224417"><ele>9.75</ele><time>2026-03-28T13:52:46.644Z</time></trkpt><trkpt lat="44.2828233" lon="12.122505"><ele>9.5</ele><time>2026-03-28T13:52:48.644Z</time></trkpt><trkpt lat="44.2829283" lon="12.122585"><ele>9.25</ele><time>2026-03-28T13:52:50.644Z</time></trkpt><trkpt lat="44.2830367" lon="12.1226667"><ele>9.0</ele><time>2026-03-28T13:52:52.644Z</time></trkpt><trkpt lat="44.2831467" lon="12.12273"><ele>8.8</ele><time>2026-03-28T13:52:54.644Z</time></trkpt><trkpt lat="44.2832567" lon="12.1227933"><ele>8.600000000000001</ele><time>2026-03-28T13:52:56.644Z</time></trkpt><trkpt lat="44.2833133" lon="12.1228333"><ele>8.4</ele><time>2026-03-28T13:52:57.645Z</time></trkpt><trkpt lat="44.2834183" lon="12.122905"><ele>8.200000000000001</ele><time>2026-03-28T13:52:59.645Z</time></trkpt><trkpt lat="44.2835267" lon="12.12298"><ele>8.0</ele><time>2026-03-28T13:53:01.644Z</time></trkpt><trkpt lat="44.2836317" lon="12.1230783"><ele>7.999999999999999</ele><time>2026-03-28T13:53:03.644Z</time></trkpt><trkpt lat="44.2836883" lon="12.1231283"><ele>8.0</ele><time>2026-03-28T13:53:04.645Z</time></trkpt><trkpt lat="44.2837467" lon="12.123185"><ele>8.0</ele><time>2026-03-28T13:53:05.644Z</time></trkpt><trkpt lat="44.2838067" lon="12.1232367"><ele>8.0</ele><time>2026-03-28T13:53:06.644Z</time></trkpt><trkpt lat="44.2838633" lon="12.1232883"><ele>7.999999999999999</ele><time>2026-03-28T13:53:07.644Z</time></trkpt><trkpt lat="44.28396" lon="12.12338"><ele>8.0</ele><time>2026-03-28T13:53:09.644Z</time></trkpt><trkpt lat="44.28405" lon="12.1234783"><ele>7.800000000000001</ele><time>2026-03-28T13:53:11.644Z</time></trkpt><trkpt lat="44.2841467" lon="12.1235767"><ele>7.6000000000000005</ele><time>2026-03-28T13:53:13.644Z</time></trkpt><trkpt lat="44.2842483" lon="12.1236683"><ele>7.3999999999999995</ele><time>2026-03-28T13:53:15.644Z</time></trkpt><trkpt lat="44.2843467" lon="12.123755"><ele>7.199999999999999</ele><time>2026-03-28T13:53:17.644Z</time></trkpt><trkpt lat="44.2844017" lon="12.1238033"><ele>7.0</ele><time>2026-03-28T13:53:18.645Z</time></trkpt><trkpt lat="44.2844583" lon="12.1238617"><ele>7.0</ele><time>2026-03-28T13:53:19.645Z</time></trkpt><trkpt lat="44.28456" lon="12.1239667"><ele>6.999999999999999</ele><time>2026-03-28T13:53:21.644Z</time></trkpt><trkpt lat="44.2846617" lon="12.1240683"><ele>6.999999999999999</ele><time>2026-03-28T13:53:23.644Z</time></trkpt><trkpt lat="44.284715" lon="12.1241217"><ele>7.0</ele><time>2026-03-28T13:53:24.644Z</time></trkpt><trkpt lat="44.28477" lon="12.1241767"><ele>7.0</ele><time>2026-03-28T13:53:25.645Z</time></trkpt><trkpt lat="44.2848683" lon="12.1242633"><ele>7.3999999999999995</ele><time>2026-03-28T13:53:27.644Z</time></trkpt><trkpt lat="44.2849583" lon="12.12434"><ele>7.799999999999999</ele><time>2026-03-28T13:53:29.644Z</time></trkpt><trkpt lat="44.2850533" lon="12.1244267"><ele>8.2</ele><time>2026-03-28T13:53:31.644Z</time></trkpt><trkpt lat="44.2851517" lon="12.1245133"><ele>8.6</ele><time>2026-03-28T13:53:33.644Z</time></trkpt><trkpt lat="44.28524" lon="12.1246033"><ele>9.0</ele><time>2026-03-28T13:53:35.644Z</time></trkpt><trkpt lat="44.28534" lon="12.124695"><ele>9.0</ele><time>2026-03-28T13:53:37.644Z</time></trkpt><trkpt lat="44.2854467" lon="12.1247883"><ele>9.0</ele><time>2026-03-28T13:53:39.644Z</time></trkpt><trkpt lat="44.2855517" lon="12.1248783"><ele>9.0</ele><time>2026-03-28T13:53:41.645Z</time></trkpt><trkpt lat="44.2856083" lon="12.124925"><ele>9.0</ele><time>2026-03-28T13:53:42.644Z</time></trkpt><trkpt lat="44.285665" lon="12.1249667"><ele>9.0</ele><time>2026-03-28T13:53:43.644Z</time></trkpt><trkpt lat="44.2857717" lon="12.1250433"><ele>8.833333333333334</ele><time>2026-03-28T13:53:45.644Z</time></trkpt><trkpt lat="44.2858783" lon="12.125125"><ele>8.666666666666666</ele><time>2026-03-28T13:53:47.644Z</time></trkpt><trkpt lat="44.2859333" lon="12.1251717"><ele>8.5</ele><time>2026-03-28T13:53:48.645Z</time></trkpt><trkpt lat="44.2859883" lon="12.1252167"><ele>8.333333333333332</ele><time>2026-03-28T13:53:49.644Z</time></trkpt><trkpt lat="44.286045" lon="12.1252667"><ele>8.166666666666666</ele><time>2026-03-28T13:53:50.644Z</time></trkpt><trkpt lat="44.286135" lon="12.1253417"><ele>8.0</ele><time>2026-03-28T13:53:52.644Z</time></trkpt><trkpt lat="44.2862283" lon="12.125405"><ele>8.0</ele><time>2026-03-28T13:53:54.644Z</time></trkpt><trkpt lat="44.2863167" lon="12.125485"><ele>8.0</ele><time>2026-03-28T13:53:56.644Z</time></trkpt><trkpt lat="44.286405" lon="12.1255467"><ele>8.0</ele><time>2026-03-28T13:53:58.644Z</time></trkpt><trkpt lat="44.28649" lon="12.1256283"><ele>8.0</ele><time>2026-03-28T13:54:00.644Z</time></trkpt><trkpt lat="44.2865817" lon="12.1257133"><ele>8.0</ele><time>2026-03-28T13:54:02.645Z</time></trkpt><trkpt lat="44.2866833" lon="12.1258167"><ele>8.200000000000001</ele><time>2026-03-28T13:54:04.644Z</time></trkpt><trkpt lat="44.2867367" lon="12.1258667"><ele>8.4</ele><time>2026-03-28T13:54:05.644Z</time></trkpt><trkpt lat="44.2868383" lon="12.1259617"><ele>8.600000000000001</ele><time>2026-03-28T13:54:07.644Z</time></trkpt><trkpt lat="44.2868983" lon="12.1260183"><ele>8.8</ele><time>2026-03-28T13:54:08.644Z</time></trkpt><trkpt lat="44.2870083" lon="12.1261"><ele>9.0</ele><time>2026-03-28T13:54:10.644Z</time></trkpt><trkpt lat="44.2870667" lon="12.1261467"><ele>9.0</ele><time>2026-03-28T13:54:11.645Z</time></trkpt><trkpt lat="44.287125" lon="12.1261883"><ele>9.0</ele><time>2026-03-28T13:54:12.645Z</time></trkpt><trkpt lat="44.2871833" lon="12.1262317"><ele>9.0</ele><time>2026-03-28T13:54:13.644Z</time></trkpt><trkpt lat="44.2872933" lon="12.1263133"><ele>9.0</ele><time>2026-03-28T13:54:15.644Z</time></trkpt><trkpt lat="44.28735" lon="12.126355"><ele>9.0</ele><time>2026-03-28T13:54:16.644Z</time></trkpt><trkpt lat="44.287465" lon="12.1264283"><ele>9.0</ele><time>2026-03-28T13:54:18.644Z</time></trkpt><trkpt lat="44.2875217" lon="12.12647"><ele>8.8</ele><time>2026-03-28T13:54:19.644Z</time></trkpt><trkpt lat="44.2875783" lon="12.12651"><ele>8.600000000000001</ele><time>2026-03-28T13:54:20.644Z</time></trkpt><trkpt lat="44.2876367" lon="12.1265517"><ele>8.4</ele><time>2026-03-28T13:54:21.644Z</time></trkpt><trkpt lat="44.2877383" lon="12.12662"><ele>8.200000000000001</ele><time>2026-03-28T13:54:23.645Z</time></trkpt><trkpt lat="44.287845" lon="12.126685"><ele>8.0</ele><time>2026-03-28T13:54:25.645Z</time></trkpt><trkpt lat="44.2879517" lon="12.1267533"><ele>8.0</ele><time>2026-03-28T13:54:27.645Z</time></trkpt><trkpt lat="44.28805" lon="12.1268167"><ele>8.0</ele><time>2026-03-28T13:54:29.644Z</time></trkpt><trkpt lat="44.2881483" lon="12.1268767"><ele>8.0</ele><time>2026-03-28T13:54:31.645Z</time></trkpt><trkpt lat="44.2882467" lon="12.1269383"><ele>8.0</ele><time>2026-03-28T13:54:33.644Z</time></trkpt><trkpt lat="44.288345" lon="12.127"><ele>8.0</ele><time>2026-03-28T13:54:35.645Z</time></trkpt><trkpt lat="44.2884383" lon="12.1270633"><ele>8.0</ele><time>2026-03-28T13:54:37.644Z</time></trkpt><trkpt lat="44.2885333" lon="12.1271283"><ele>8.0</ele><time>2026-03-28T13:54:39.645Z</time></trkpt><trkpt lat="44.28863" lon="12.1271867"><ele>8.0</ele><time>2026-03-28T13:54:41.644Z</time></trkpt><trkpt lat="44.2887333" lon="12.1272533"><ele>8.0</ele><time>2026-03-28T13:54:43.644Z</time></trkpt><trkpt lat="44.288835" lon="12.1273267"><ele>8.0</ele><time>2026-03-28T13:54:45.644Z</time></trkpt><trkpt lat="44.2889317" lon="12.1273933"><ele>7.6000000000000005</ele><time>2026-03-28T13:54:47.644Z</time></trkpt><trkpt lat="44.2890283" lon="12.1274567"><ele>7.200000000000001</ele><time>2026-03-28T13:54:49.644Z</time></trkpt><trkpt lat="44.2891267" lon="12.127515"><ele>6.8</ele><time>2026-03-28T13:54:51.645Z</time></trkpt><trkpt lat="44.2892367" lon="12.1275783"><ele>6.4</ele><time>2026-03-28T13:54:53.644Z</time></trkpt><trkpt lat="44.2893433" lon="12.1276433"><ele>6.0</ele><time>2026-03-28T13:54:55.644Z</time></trkpt><trkpt lat="44.2894467" lon="12.12771"><ele>6.0</ele><time>2026-03-28T13:54:57.644Z</time></trkpt><trkpt lat="44.2895533" lon="12.127775"><ele>6.0</ele><time>2026-03-28T13:54:59.645Z</time></trkpt><trkpt lat="44.2896533" lon="12.1278333"><ele>6.0</ele><time>2026-03-28T13:55:01.645Z</time></trkpt><trkpt lat="44.289745" lon="12.1279033"><ele>6.0</ele><time>2026-03-28T13:55:03.645Z</time></trkpt><trkpt lat="44.2898333" lon="12.1279683"><ele>6.0</ele><time>2026-03-28T13:55:05.645Z</time></trkpt><trkpt lat="44.289935" lon="12.1280317"><ele>6.199999999999999</ele><time>2026-03-28T13:55:07.644Z</time></trkpt><trkpt lat="44.290035" lon="12.128095"><ele>6.3999999999999995</ele><time>2026-03-28T13:55:09.644Z</time></trkpt><trkpt lat="44.2901367" lon="12.1281567"><ele>6.6</ele><time>2026-03-28T13:55:11.644Z</time></trkpt><trkpt lat="44.2902283" lon="12.1282167"><ele>6.8</ele><time>2026-03-28T13:55:13.644Z</time></trkpt><trkpt lat="44.2903183" lon="12.1282767"><ele>7.0</ele><time>2026-03-28T13:55:15.644Z</time></trkpt><trkpt lat="44.29041" lon="12.1283383"><ele>7.000000000000001</ele><time>2026-03-28T13:55:17.644Z</time></trkpt><trkpt lat="44.29049" lon="12.1283867"><ele>7.0</ele><time>2026-03-28T13:55:19.644Z</time></trkpt><trkpt lat="44.29056" lon="12.1284283"><ele>7.0</ele><time>2026-03-28T13:55:21.644Z</time></trkpt><trkpt lat="44.2906383" lon="12.12844"><ele>7.0</ele><time>2026-03-28T13:55:24.645Z</time></trkpt><trkpt lat="44.2907083" lon="12.1283733"><ele>7.000000000000001</ele><time>2026-03-28T13:55:27.644Z</time></trkpt><trkpt lat="44.2907583" lon="12.1282983"><ele>7.0</ele><time>2026-03-28T13:55:29.644Z</time></trkpt><trkpt lat="44.2908133" lon="12.1282117"><ele>7.25</ele><time>2026-03-28T13:55:31.644Z</time></trkpt><trkpt lat="44.2908717" lon="12.1280867"><ele>7.5</ele><time>2026-03-28T13:55:33.644Z</time></trkpt><trkpt lat="44.290935" lon="12.12795"><ele>7.75</ele><time>2026-03-28T13:55:35.644Z</time></trkpt><trkpt lat="44.2910017" lon="12.1278"><ele>8.0</ele><time>2026-03-28T13:55:37.645Z</time></trkpt><trkpt lat="44.291065" lon="12.1276633"><ele>8.0</ele><time>2026-03-28T13:55:39.645Z</time></trkpt><trkpt lat="44.2911267" lon="12.1275417"><ele>8.0</ele><time>2026-03-28T13:55:41.645Z</time></trkpt><trkpt lat="44.2911783" lon="12.127385"><ele>8.0</ele><time>2026-03-28T13:55:43.645Z</time></trkpt><trkpt lat="44.2912033" lon="12.1273033"><ele>8.0</ele><time>2026-03-28T13:55:44.645Z</time></trkpt><trkpt lat="44.2912583" lon="12.1271617"><ele>8.0</ele><time>2026-03-28T13:55:46.644Z</time></trkpt><trkpt lat="44.2913233" lon="12.1270133"><ele>8.166666666666666</ele><time>2026-03-28T13:55:48.644Z</time></trkpt><trkpt lat="44.2913533" lon="12.1269333"><ele>8.333333333333332</ele><time>2026-03-28T13:55:49.645Z</time></trkpt><trkpt lat="44.2913833" lon="12.1268533"><ele>8.5</ele><time>2026-03-28T13:55:50.644Z</time></trkpt><trkpt lat="44.2914133" lon="12.1267733"><ele>8.666666666666666</ele><time>2026-03-28T13:55:51.644Z</time></trkpt><trkpt lat="44.2914667" lon="12.1266217"><ele>8.833333333333334</ele><time>2026-03-28T13:55:53.644Z</time></trkpt><trkpt lat="44.2915167" lon="12.1264817"><ele>9.0</ele><time>2026-03-28T13:55:55.644Z</time></trkpt><trkpt lat="44.291575" lon="12.1263467"><ele>9.166666666666666</ele><time>2026-03-28T13:55:57.644Z</time></trkpt><trkpt lat="44.2916367" lon="12.1262017"><ele>9.333333333333334</ele><time>2026-03-28T13:55:59.644Z</time></trkpt><trkpt lat="44.2916683" lon="12.1261167"><ele>9.5</ele><time>2026-03-28T13:56:00.644Z</time></trkpt><trkpt lat="44.2917" lon="12.1260383"><ele>9.666666666666668</ele><time>2026-03-28T13:56:01.644Z</time></trkpt><trkpt lat="44.291735" lon="12.1259583"><ele>9.833333333333334</ele><time>2026-03-28T13:56:02.645Z</time></trkpt><trkpt lat="44.2917717" lon="12.1258833"><ele>10.0</ele><time>2026-03-28T13:56:03.644Z</time></trkpt><trkpt lat="44.29181" lon="12.1258"><ele>9.833333333333334</ele><time>2026-03-28T13:56:04.644Z</time></trkpt><trkpt lat="44.2918433" lon="12.125725"><ele>9.666666666666668</ele><time>2026-03-28T13:56:05.644Z</time></trkpt><trkpt lat="44.291875" lon="12.1256483"><ele>9.5</ele><time>2026-03-28T13:56:06.644Z</time></trkpt><trkpt lat="44.2919083" lon="12.1255717"><ele>9.333333333333334</ele><time>2026-03-28T13:56:07.644Z</time></trkpt><trkpt lat="44.2919417" lon="12.125495"><ele>9.166666666666666</ele><time>2026-03-28T13:56:08.644Z</time></trkpt><trkpt lat="44.291975" lon="12.12542"><ele>9.0</ele><time>2026-03-28T13:56:09.644Z</time></trkpt><trkpt lat="44.2920383" lon="12.1252583"><ele>9.0</ele><time>2026-03-28T13:56:11.644Z</time></trkpt><trkpt lat="44.2921" lon="12.1251117"><ele>9.0</ele><time>2026-03-28T13:56:13.644Z</time></trkpt><trkpt lat="44.2921317" lon="12.1250317"><ele>9.0</ele><time>2026-03-28T13:56:14.645Z</time></trkpt><trkpt lat="44.2921633" lon="12.12495"><ele>9.0</ele><time>2026-03-28T13:56:15.644Z</time></trkpt><trkpt lat="44.2921967" lon="12.1248717"><ele>9.0</ele><time>2026-03-28T13:56:16.644Z</time></trkpt><trkpt lat="44.2922283" lon="12.1247867"><ele>9.0</ele><time>2026-03-28T13:56:17.645Z</time></trkpt><trkpt lat="44.29226" lon="12.1247017"><ele>8.571428571428573</ele><time>2026-03-28T13:56:18.644Z</time></trkpt><trkpt lat="44.29229" lon="12.1246183"><ele>8.142857142857142</ele><time>2026-03-28T13:56:19.644Z</time></trkpt><trkpt lat="44.2923217" lon="12.1245383"><ele>7.714285714285714</ele><time>2026-03-28T13:56:20.644Z</time></trkpt><trkpt lat="44.292355" lon="12.1244467"><ele>7.2857142857142865</ele><time>2026-03-28T13:56:21.644Z</time></trkpt><trkpt lat="44.2923867" lon="12.124365"><ele>6.857142857142858</ele><time>2026-03-28T13:56:22.644Z</time></trkpt><trkpt lat="44.29242" lon="12.1242833"><ele>6.428571428571428</ele><time>2026-03-28T13:56:23.644Z</time></trkpt><trkpt lat="44.2924533" lon="12.124205"><ele>6.0</ele><time>2026-03-28T13:56:24.645Z</time></trkpt><trkpt lat="44.292485" lon="12.124125"><ele>6.285714285714285</ele><time>2026-03-28T13:56:25.644Z</time></trkpt><trkpt lat="44.2925167" lon="12.124045"><ele>6.571428571428571</ele><time>2026-03-28T13:56:26.644Z</time></trkpt><trkpt lat="44.2925483" lon="12.1239617"><ele>6.857142857142857</ele><time>2026-03-28T13:56:27.644Z</time></trkpt><trkpt lat="44.29258" lon="12.1238767"><ele>7.142857142857142</ele><time>2026-03-28T13:56:28.644Z</time></trkpt><trkpt lat="44.2926117" lon="12.123795"><ele>7.428571428571428</ele><time>2026-03-28T13:56:29.645Z</time></trkpt><trkpt lat="44.2926433" lon="12.1237167"><ele>7.7142857142857135</ele><time>2026-03-28T13:56:30.644Z</time></trkpt><trkpt lat="44.292675" lon="12.12364"><ele>8.0</ele><time>2026-03-28T13:56:31.645Z</time></trkpt><trkpt lat="44.2927067" lon="12.1235633"><ele>8.0</ele><time>2026-03-28T13:56:32.644Z</time></trkpt><trkpt lat="44.2927383" lon="12.1234867"><ele>7.999999999999999</ele><time>2026-03-28T13:56:33.644Z</time></trkpt><trkpt lat="44.29277" lon="12.12341"><ele>8.0</ele><time>2026-03-28T13:56:34.644Z</time></trkpt><trkpt lat="44.2928033" lon="12.1233317"><ele>8.0</ele><time>2026-03-28T13:56:35.644Z</time></trkpt><trkpt lat="44.292835" lon="12.1232533"><ele>7.999999999999999</ele><time>2026-03-28T13:56:36.644Z</time></trkpt><trkpt lat="44.2928967" lon="12.1230967"><ele>8.0</ele><time>2026-03-28T13:56:38.645Z</time></trkpt><trkpt lat="44.2929283" lon="12.1230183"><ele>8.0</ele><time>2026-03-28T13:56:39.644Z</time></trkpt><trkpt lat="44.29296" lon="12.12294"><ele>8.0</ele><time>2026-03-28T13:56:40.644Z</time></trkpt><trkpt lat="44.2929933" lon="12.1228583"><ele>7.999999999999999</ele><time>2026-03-28T13:56:41.645Z</time></trkpt><trkpt lat="44.2930267" lon="12.1227783"><ele>8.0</ele><time>2026-03-28T13:56:42.644Z</time></trkpt><trkpt lat="44.29306" lon="12.1226967"><ele>8.0</ele><time>2026-03-28T13:56:43.644Z</time></trkpt><trkpt lat="44.2930933" lon="12.122615"><ele>7.999999999999999</ele><time>2026-03-28T13:56:44.644Z</time></trkpt><trkpt lat="44.2931283" lon="12.122535"><ele>8.0</ele><time>2026-03-28T13:56:45.644Z</time></trkpt><trkpt lat="44.2931633" lon="12.122455"><ele>8.0</ele><time>2026-03-28T13:56:46.644Z</time></trkpt><trkpt lat="44.2931967" lon="12.1223733"><ele>7.833333333333333</ele><time>2026-03-28T13:56:47.645Z</time></trkpt><trkpt lat="44.2932283" lon="12.1222933"><ele>7.666666666666666</ele><time>2026-03-28T13:56:48.644Z</time></trkpt><trkpt lat="44.29326" lon="12.1222167"><ele>7.5</ele><time>2026-03-28T13:56:49.644Z</time></trkpt><trkpt lat="44.2932933" lon="12.12214"><ele>7.333333333333334</ele><time>2026-03-28T13:56:50.645Z</time></trkpt><trkpt lat="44.2933267" lon="12.1220633"><ele>7.166666666666667</ele><time>2026-03-28T13:56:51.645Z</time></trkpt><trkpt lat="44.29336" lon="12.1219817"><ele>7.0</ele><time>2026-03-28T13:56:52.644Z</time></trkpt><trkpt lat="44.2934217" lon="12.1218267"><ele>7.000000000000001</ele><time>2026-03-28T13:56:54.644Z</time></trkpt><trkpt lat="44.2934533" lon="12.12175"><ele>7.0</ele><time>2026-03-28T13:56:55.644Z</time></trkpt><trkpt lat="44.2934867" lon="12.12167"><ele>7.0</ele><time>2026-03-28T13:56:56.644Z</time></trkpt><trkpt lat="44.2935433" lon="12.1215167"><ele>7.0</ele><time>2026-03-28T13:56:58.644Z</time></trkpt><trkpt lat="44.2935983" lon="12.1213667"><ele>7.000000000000001</ele><time>2026-03-28T13:57:00.644Z</time></trkpt><trkpt lat="44.2936333" lon="12.12129"><ele>7.0</ele><time>2026-03-28T13:57:01.644Z</time></trkpt><trkpt lat="44.29367" lon="12.121215"><ele>7.0</ele><time>2026-03-28T13:57:02.644Z</time></trkpt><trkpt lat="44.293705" lon="12.1211383"><ele>6.999999999999999</ele><time>2026-03-28T13:57:03.645Z</time></trkpt><trkpt lat="44.293735" lon="12.12106"><ele>6.999999999999999</ele><time>2026-03-28T13:57:04.644Z</time></trkpt><trkpt lat="44.2937883" lon="12.1209167"><ele>7.0</ele><time>2026-03-28T13:57:06.644Z</time></trkpt><trkpt lat="44.2938433" lon="12.1207817"><ele>7.0</ele><time>2026-03-28T13:57:08.644Z</time></trkpt><trkpt lat="44.2939" lon="12.1206533"><ele>7.25</ele><time>2026-03-28T13:57:10.644Z</time></trkpt><trkpt lat="44.2939567" lon="12.1205083"><ele>7.5</ele><time>2026-03-28T13:57:12.645Z</time></trkpt><trkpt lat="44.2940117" lon="12.1203717"><ele>7.75</ele><time>2026-03-28T13:57:14.644Z</time></trkpt><trkpt lat="44.2940683" lon="12.12023"><ele>8.0</ele><time>2026-03-28T13:57:16.644Z</time></trkpt><trkpt lat="44.2941233" lon="12.1200917"><ele>8.0</ele><time>2026-03-28T13:57:18.644Z</time></trkpt><trkpt lat="44.2941817" lon="12.1199467"><ele>8.0</ele><time>2026-03-28T13:57:20.644Z</time></trkpt><trkpt lat="44.2942383" lon="12.1198"><ele>8.0</ele><time>2026-03-28T13:57:22.645Z</time></trkpt><trkpt lat="44.2942967" lon="12.11966"><ele>8.0</ele><time>2026-03-28T13:57:24.645Z</time></trkpt><trkpt lat="44.2943533" lon="12.1195083"><ele>8.0</ele><time>2026-03-28T13:57:26.644Z</time></trkpt><trkpt lat="44.2944083" lon="12.1193633"><ele>8.0</ele><time>2026-03-28T13:57:28.644Z</time></trkpt><trkpt lat="44.294465" lon="12.119225"><ele>8.0</ele><time>2026-03-28T13:57:30.644Z</time></trkpt><trkpt lat="44.294525" lon="12.11908"><ele>8.0</ele><time>2026-03-28T13:57:32.644Z</time></trkpt><trkpt lat="44.2945783" lon="12.118945"><ele>8.0</ele><time>2026-03-28T13:57:34.644Z</time></trkpt><trkpt lat="44.2946283" lon="12.118815"><ele>8.0</ele><time>2026-03-28T13:57:36.644Z</time></trkpt><trkpt lat="44.29468" lon="12.118685"><ele>8.0</ele><time>2026-03-28T13:57:38.645Z</time></trkpt><trkpt lat="44.29473" lon="12.11855"><ele>8.0</ele><time>2026-03-28T13:57:40.644Z</time></trkpt><trkpt lat="44.2947817" lon="12.11841"><ele>8.0</ele><time>2026-03-28T13:57:42.644Z</time></trkpt><trkpt lat="44.294835" lon="12.1182667"><ele>7.800000000000001</ele><time>2026-03-28T13:57:44.644Z</time></trkpt><trkpt lat="44.2948917" lon="12.1181267"><ele>7.6000000000000005</ele><time>2026-03-28T13:57:46.644Z</time></trkpt><trkpt lat="44.2949417" lon="12.1180117"><ele>7.3999999999999995</ele><time>2026-03-28T13:57:48.644Z</time></trkpt><trkpt lat="44.2949933" lon="12.1178783"><ele>7.199999999999999</ele><time>2026-03-28T13:57:50.644Z</time></trkpt><trkpt lat="44.295055" lon="12.1177283"><ele>7.0</ele><time>2026-03-28T13:57:52.645Z</time></trkpt><trkpt lat="44.2950883" lon="12.1176483"><ele>7.000000000000001</ele><time>2026-03-28T13:57:53.644Z</time></trkpt><trkpt lat="44.29512" lon="12.1175717"><ele>7.0</ele><time>2026-03-28T13:57:54.645Z</time></trkpt><trkpt lat="44.29515" lon="12.1174933"><ele>7.0</ele><time>2026-03-28T13:57:55.644Z</time></trkpt><trkpt lat="44.2951817" lon="12.117415"><ele>7.0</ele><time>2026-03-28T13:57:56.645Z</time></trkpt><trkpt lat="44.2952383" lon="12.1172667"><ele>7.000000000000001</ele><time>2026-03-28T13:57:58.645Z</time></trkpt><trkpt lat="44.29529" lon="12.1171183"><ele>7.0</ele><time>2026-03-28T13:58:00.644Z</time></trkpt><trkpt lat="44.29535" lon="12.1169683"><ele>7.199999999999999</ele><time>2026-03-28T13:58:02.644Z</time></trkpt><trkpt lat="44.2954083" lon="12.11682"><ele>7.3999999999999995</ele><time>2026-03-28T13:58:04.645Z</time></trkpt><trkpt lat="44.2954667" lon="12.1166767"><ele>7.6000000000000005</ele><time>2026-03-28T13:58:06.644Z</time></trkpt><trkpt lat="44.2954967" lon="12.1165983"><ele>7.800000000000001</ele><time>2026-03-28T13:58:07.644Z</time></trkpt><trkpt lat="44.295525" lon="12.1165183"><ele>8.0</ele><time>2026-03-28T13:58:08.644Z</time></trkpt><trkpt lat="44.2955817" lon="12.11637"><ele>8.25</ele><time>2026-03-28T13:58:10.644Z</time></trkpt><trkpt lat="44.295645" lon="12.1162333"><ele>8.5</ele><time>2026-03-28T13:58:12.644Z</time></trkpt><trkpt lat="44.2957017" lon="12.1160933"><ele>8.75</ele><time>2026-03-28T13:58:14.644Z</time></trkpt><trkpt lat="44.2957533" lon="12.115965"><ele>9.0</ele><time>2026-03-28T13:58:16.644Z</time></trkpt><trkpt lat="44.2958083" lon="12.1158267"><ele>9.2</ele><time>2026-03-28T13:58:18.644Z</time></trkpt><trkpt lat="44.2958633" lon="12.1156783"><ele>9.4</ele><time>2026-03-28T13:58:20.644Z</time></trkpt><trkpt lat="44.2959217" lon="12.1155333"><ele>9.6</ele><time>2026-03-28T13:58:22.644Z</time></trkpt><trkpt lat="44.295975" lon="12.11539"><ele>9.8</ele><time>2026-03-28T13:58:24.645Z</time></trkpt><trkpt lat="44.2960067" lon="12.1153133"><ele>10.0</ele><time>2026-03-28T13:58:25.644Z</time></trkpt><trkpt lat="44.2960683" lon="12.1151583"><ele>10.0</ele><time>2026-03-28T13:58:27.644Z</time></trkpt><trkpt lat="44.2960967" lon="12.1150783"><ele>10.0</ele><time>2026-03-28T13:58:28.645Z</time></trkpt><trkpt lat="44.2961517" lon="12.11493"><ele>10.0</ele><time>2026-03-28T13:58:30.644Z</time></trkpt><trkpt lat="44.296215" lon="12.114815"><ele>10.0</ele><time>2026-03-28T13:58:32.644Z</time></trkpt><trkpt lat="44.29627" lon="12.114695"><ele>10.0</ele><time>2026-03-28T13:58:34.644Z</time></trkpt><trkpt lat="44.2963283" lon="12.1145517"><ele>10.0</ele><time>2026-03-28T13:58:36.645Z</time></trkpt><trkpt lat="44.296385" lon="12.114405"><ele>10.0</ele><time>2026-03-28T13:58:38.644Z</time></trkpt><trkpt lat="44.2964433" lon="12.1142483"><ele>10.0</ele><time>2026-03-28T13:58:40.644Z</time></trkpt><trkpt lat="44.2965033" lon="12.1140883"><ele>10.0</ele><time>2026-03-28T13:58:42.644Z</time></trkpt><trkpt lat="44.2965383" lon="12.1140083"><ele>10.0</ele><time>2026-03-28T13:58:43.644Z</time></trkpt><trkpt lat="44.2965683" lon="12.1139267"><ele>10.333333333333334</ele><time>2026-03-28T13:58:44.645Z</time></trkpt><trkpt lat="44.2965983" lon="12.1138383"><ele>10.666666666666668</ele><time>2026-03-28T13:58:45.645Z</time></trkpt><trkpt lat="44.2966267" lon="12.113755"><ele>11.0</ele><time>2026-03-28T13:58:46.644Z</time></trkpt><trkpt lat="44.296655" lon="12.1136717"><ele>11.333333333333334</ele><time>2026-03-28T13:58:47.644Z</time></trkpt><trkpt lat="44.296685" lon="12.1135883"><ele>11.666666666666666</ele><time>2026-03-28T13:58:48.644Z</time></trkpt><trkpt lat="44.2967367" lon="12.1134367"><ele>12.0</ele><time>2026-03-28T13:58:50.645Z</time></trkpt><trkpt lat="44.2967917" lon="12.1132883"><ele>12.0</ele><time>2026-03-28T13:58:52.644Z</time></trkpt><trkpt lat="44.29684" lon="12.1131517"><ele>12.0</ele><time>2026-03-28T13:58:54.644Z</time></trkpt><trkpt lat="44.2968767" lon="12.113005"><ele>12.0</ele><time>2026-03-28T13:58:56.645Z</time></trkpt><trkpt lat="44.2969167" lon="12.112865"><ele>12.0</ele><time>2026-03-28T13:58:58.645Z</time></trkpt><trkpt lat="44.2969733" lon="12.1127167"><ele>12.0</ele><time>2026-03-28T13:59:00.644Z</time></trkpt><trkpt lat="44.2970233" lon="12.11257"><ele>12.0</ele><time>2026-03-28T13:59:02.644Z</time></trkpt><trkpt lat="44.2970717" lon="12.1124217"><ele>12.0</ele><time>2026-03-28T13:59:04.644Z</time></trkpt><trkpt lat="44.2971133" lon="12.112275"><ele>12.0</ele><time>2026-03-28T13:59:06.645Z</time></trkpt><trkpt lat="44.2971533" lon="12.1121267"><ele>12.0</ele><time>2026-03-28T13:59:08.644Z</time></trkpt><trkpt lat="44.2971883" lon="12.111995"><ele>12.0</ele><time>2026-03-28T13:59:10.645Z</time></trkpt><trkpt lat="44.2972433" lon="12.1118633"><ele>11.833333333333334</ele><time>2026-03-28T13:59:12.644Z</time></trkpt><trkpt lat="44.297305" lon="12.1117167"><ele>11.666666666666666</ele><time>2026-03-28T13:59:14.644Z</time></trkpt><trkpt lat="44.29734" lon="12.11164"><ele>11.5</ele><time>2026-03-28T13:59:15.644Z</time></trkpt><trkpt lat="44.297395" lon="12.1115383"><ele>11.333333333333332</ele><time>2026-03-28T13:59:17.644Z</time></trkpt><trkpt lat="44.297445" lon="12.11145"><ele>11.166666666666666</ele><time>2026-03-28T13:59:19.644Z</time></trkpt><trkpt lat="44.29751" lon="12.1113817"><ele>11.0</ele><time>2026-03-28T13:59:21.645Z</time></trkpt><trkpt lat="44.297605" lon="12.1113233"><ele>11.0</ele><time>2026-03-28T13:59:23.644Z</time></trkpt><trkpt lat="44.2976783" lon="12.111285"><ele>11.0</ele><time>2026-03-28T13:59:24.644Z</time></trkpt><trkpt lat="44.2977967" lon="12.11127"><ele>11.0</ele><time>2026-03-28T13:59:26.645Z</time></trkpt><trkpt lat="44.2979133" lon="12.111275"><ele>11.0</ele><time>2026-03-28T13:59:28.644Z</time></trkpt><trkpt lat="44.29802" lon="12.1112883"><ele>11.0</ele><time>2026-03-28T13:59:30.644Z</time></trkpt><trkpt lat="44.2981267" lon="12.1113183"><ele>11.0</ele><time>2026-03-28T13:59:32.644Z</time></trkpt><trkpt lat="44.29822" lon="12.1113517"><ele>11.0</ele><time>2026-03-28T13:59:34.644Z</time></trkpt><trkpt lat="44.298305" lon="12.11138"><ele>11.0</ele><time>2026-03-28T13:59:36.644Z</time></trkpt><trkpt lat="44.2983917" lon="12.1114"><ele>11.0</ele><time>2026-03-28T13:59:38.644Z</time></trkpt><trkpt lat="44.298475" lon="12.1114167"><ele>11.0</ele><time>2026-03-28T13:59:40.645Z</time></trkpt><trkpt lat="44.2985583" lon="12.111435"><ele>11.0</ele><time>2026-03-28T13:59:42.644Z</time></trkpt><trkpt lat="44.2986467" lon="12.111455"><ele>11.0</ele><time>2026-03-28T13:59:44.644Z</time></trkpt><trkpt lat="44.2987317" lon="12.1114817"><ele>11.0</ele><time>2026-03-28T13:59:46.644Z</time></trkpt><trkpt lat="44.2988183" lon="12.1115083"><ele>11.0</ele><time>2026-03-28T13:59:48.644Z</time></trkpt><trkpt lat="44.2989083" lon="12.1115367"><ele>11.0</ele><time>2026-03-28T13:59:50.644Z</time></trkpt><trkpt lat="44.29901" lon="12.1116283"><ele>11.0</ele><time>2026-03-28T13:59:52.644Z</time></trkpt><trkpt lat="44.2990667" lon="12.1116683"><ele>10.600000000000001</ele><time>2026-03-28T13:59:53.644Z</time></trkpt><trkpt lat="44.2991483" lon="12.111705"><ele>10.200000000000001</ele><time>2026-03-28T13:59:55.644Z</time></trkpt><trkpt lat="44.2992283" lon="12.111745"><ele>9.8</ele><time>2026-03-28T13:59:57.644Z</time></trkpt><trkpt lat="44.2993283" lon="12.1117933"><ele>9.4</ele><time>2026-03-28T13:59:59.644Z</time></trkpt><trkpt lat="44.299415" lon="12.11183"><ele>9.0</ele><time>2026-03-28T14:00:01.644Z</time></trkpt><trkpt lat="44.299505" lon="12.111865"><ele>9.0</ele><time>2026-03-28T14:00:03.645Z</time></trkpt><trkpt lat="44.299595" lon="12.1119017"><ele>9.0</ele><time>2026-03-28T14:00:05.644Z</time></trkpt><trkpt lat="44.2996883" lon="12.1119233"><ele>9.0</ele><time>2026-03-28T14:00:07.644Z</time></trkpt><trkpt lat="44.299775" lon="12.111955"><ele>9.0</ele><time>2026-03-28T14:00:09.644Z</time></trkpt><trkpt lat="44.2998633" lon="12.1119833"><ele>9.0</ele><time>2026-03-28T14:00:11.644Z</time></trkpt><trkpt lat="44.29995" lon="12.1120167"><ele>8.833333333333334</ele><time>2026-03-28T14:00:13.644Z</time></trkpt><trkpt lat="44.3000367" lon="12.11204"><ele>8.666666666666666</ele><time>2026-03-28T14:00:15.644Z</time></trkpt><trkpt lat="44.3001267" lon="12.11206"><ele>8.5</ele><time>2026-03-28T14:00:17.645Z</time></trkpt><trkpt lat="44.30021" lon="12.1120867"><ele>8.333333333333332</ele><time>2026-03-28T14:00:19.645Z</time></trkpt><trkpt lat="44.3002917" lon="12.1121117"><ele>8.166666666666666</ele><time>2026-03-28T14:00:21.644Z</time></trkpt><trkpt lat="44.300375" lon="12.1121317"><ele>8.0</ele><time>2026-03-28T14:00:23.645Z</time></trkpt><trkpt lat="44.3004567" lon="12.11216"><ele>7.999999999999999</ele><time>2026-03-28T14:00:25.644Z</time></trkpt><trkpt lat="44.3005417" lon="12.1121867"><ele>8.0</ele><time>2026-03-28T14:00:27.644Z</time></trkpt><trkpt lat="44.3006283" lon="12.1122033"><ele>8.0</ele><time>2026-03-28T14:00:29.644Z</time></trkpt><trkpt lat="44.300715" lon="12.11222"><ele>8.0</ele><time>2026-03-28T14:00:31.644Z</time></trkpt><trkpt lat="44.3008" lon="12.112245"><ele>7.999999999999999</ele><time>2026-03-28T14:00:33.644Z</time></trkpt><trkpt lat="44.3008867" lon="12.1122667"><ele>8.0</ele><time>2026-03-28T14:00:35.644Z</time></trkpt><trkpt lat="44.3009783" lon="12.1122833"><ele>8.4</ele><time>2026-03-28T14:00:37.644Z</time></trkpt><trkpt lat="44.3010717" lon="12.1123017"><ele>8.8</ele><time>2026-03-28T14:00:39.645Z</time></trkpt><trkpt lat="44.3011617" lon="12.112315"><ele>9.2</ele><time>2026-03-28T14:00:41.644Z</time></trkpt><trkpt lat="44.301255" lon="12.1123417"><ele>9.6</ele><time>2026-03-28T14:00:43.644Z</time></trkpt><trkpt lat="44.3013517" lon="12.1123633"><ele>10.0</ele><time>2026-03-28T14:00:45.644Z</time></trkpt><trkpt lat="44.3014467" lon="12.1123867"><ele>9.6</ele><time>2026-03-28T14:00:47.644Z</time></trkpt><trkpt lat="44.301545" lon="12.112415"><ele>9.2</ele><time>2026-03-28T14:00:49.644Z</time></trkpt><trkpt lat="44.3016367" lon="12.1124467"><ele>8.8</ele><time>2026-03-28T14:00:51.645Z</time></trkpt><trkpt lat="44.301735" lon="12.1124817"><ele>8.4</ele><time>2026-03-28T14:00:53.644Z</time></trkpt><trkpt lat="44.3018283" lon="12.1125167"><ele>8.0</ele><time>2026-03-28T14:00:55.644Z</time></trkpt><trkpt lat="44.3019233" lon="12.1125533"><ele>8.0</ele><time>2026-03-28T14:00:57.644Z</time></trkpt><trkpt lat="44.3020217" lon="12.1125917"><ele>8.0</ele><time>2026-03-28T14:00:59.644Z</time></trkpt><trkpt lat="44.3021183" lon="12.1126333"><ele>8.0</ele><time>2026-03-28T14:01:01.644Z</time></trkpt><trkpt lat="44.3022133" lon="12.1126717"><ele>8.0</ele><time>2026-03-28T14:01:03.644Z</time></trkpt><trkpt lat="44.3023133" lon="12.1127167"><ele>8.0</ele><time>2026-03-28T14:01:05.644Z</time></trkpt><trkpt lat="44.3024167" lon="12.11276"><ele>7.800000000000001</ele><time>2026-03-28T14:01:07.645Z</time></trkpt><trkpt lat="44.3025183" lon="12.112805"><ele>7.6000000000000005</ele><time>2026-03-28T14:01:09.644Z</time></trkpt><trkpt lat="44.3026233" lon="12.1128533"><ele>7.3999999999999995</ele><time>2026-03-28T14:01:11.644Z</time></trkpt><trkpt lat="44.302725" lon="12.112905"><ele>7.199999999999999</ele><time>2026-03-28T14:01:13.645Z</time></trkpt><trkpt lat="44.3028217" lon="12.1129567"><ele>7.0</ele><time>2026-03-28T14:01:15.644Z</time></trkpt><trkpt lat="44.3029167" lon="12.1130083"><ele>7.0</ele><time>2026-03-28T14:01:17.644Z</time></trkpt><trkpt lat="44.3030133" lon="12.113065"><ele>6.999999999999999</ele><time>2026-03-28T14:01:19.645Z</time></trkpt><trkpt lat="44.3031133" lon="12.11312"><ele>6.999999999999999</ele><time>2026-03-28T14:01:21.644Z</time></trkpt><trkpt lat="44.3032217" lon="12.1131733"><ele>7.0</ele><time>2026-03-28T14:01:23.644Z</time></trkpt><trkpt lat="44.30332" lon="12.1132267"><ele>7.0</ele><time>2026-03-28T14:01:25.645Z</time></trkpt><trkpt lat="44.3034183" lon="12.1132867"><ele>7.199999999999999</ele><time>2026-03-28T14:01:27.644Z</time></trkpt><trkpt lat="44.3035183" lon="12.11335"><ele>7.3999999999999995</ele><time>2026-03-28T14:01:29.644Z</time></trkpt><trkpt lat="44.3036167" lon="12.1134083"><ele>7.6000000000000005</ele><time>2026-03-28T14:01:31.644Z</time></trkpt><trkpt lat="44.3037183" lon="12.113475"><ele>7.800000000000001</ele><time>2026-03-28T14:01:33.644Z</time></trkpt><trkpt lat="44.303815" lon="12.11354"><ele>8.0</ele><time>2026-03-28T14:01:35.645Z</time></trkpt><trkpt lat="44.3039117" lon="12.1135983"><ele>8.0</ele><time>2026-03-28T14:01:37.644Z</time></trkpt><trkpt lat="44.304005" lon="12.1136567"><ele>8.0</ele><time>2026-03-28T14:01:39.644Z</time></trkpt><trkpt lat="44.304105" lon="12.113715"><ele>8.0</ele><time>2026-03-28T14:01:41.644Z</time></trkpt><trkpt lat="44.3042017" lon="12.113765"><ele>8.0</ele><time>2026-03-28T14:01:43.644Z</time></trkpt><trkpt lat="44.3043" lon="12.1138267"><ele>8.0</ele><time>2026-03-28T14:01:45.644Z</time></trkpt><trkpt lat="44.3043917" lon="12.1138867"><ele>8.0</ele><time>2026-03-28T14:01:47.644Z</time></trkpt><trkpt lat="44.30449" lon="12.1139483"><ele>8.0</ele><time>2026-03-28T14:01:49.644Z</time></trkpt><trkpt lat="44.30459" lon="12.11401"><ele>8.0</ele><time>2026-03-28T14:01:51.644Z</time></trkpt><trkpt lat="44.3046917" lon="12.1140717"><ele>8.0</ele><time>2026-03-28T14:01:53.644Z</time></trkpt><trkpt lat="44.3047983" lon="12.1141317"><ele>8.0</ele><time>2026-03-28T14:01:55.644Z</time></trkpt><trkpt lat="44.3049017" lon="12.114185"><ele>7.800000000000001</ele><time>2026-03-28T14:01:57.644Z</time></trkpt><trkpt lat="44.3050017" lon="12.1142317"><ele>7.6000000000000005</ele><time>2026-03-28T14:01:59.645Z</time></trkpt><trkpt lat="44.3051017" lon="12.1142667"><ele>7.3999999999999995</ele><time>2026-03-28T14:02:01.644Z</time></trkpt><trkpt lat="44.3052017" lon="12.1143117"><ele>7.199999999999999</ele><time>2026-03-28T14:02:03.644Z</time></trkpt><trkpt lat="44.3053033" lon="12.11435"><ele>7.0</ele><time>2026-03-28T14:02:05.644Z</time></trkpt><trkpt lat="44.30541" lon="12.11439"><ele>7.0</ele><time>2026-03-28T14:02:07.644Z</time></trkpt><trkpt lat="44.30552" lon="12.1144317"><ele>6.999999999999999</ele><time>2026-03-28T14:02:09.644Z</time></trkpt><trkpt lat="44.3056267" lon="12.114465"><ele>6.999999999999999</ele><time>2026-03-28T14:02:11.645Z</time></trkpt><trkpt lat="44.3057317" lon="12.1145083"><ele>7.0</ele><time>2026-03-28T14:02:13.645Z</time></trkpt><trkpt lat="44.3058383" lon="12.11455"><ele>7.0</ele><time>2026-03-28T14:02:15.645Z</time></trkpt><trkpt lat="44.3059417" lon="12.11459"><ele>7.0</ele><time>2026-03-28T14:02:17.644Z</time></trkpt><trkpt lat="44.3060467" lon="12.1146267"><ele>6.999999999999999</ele><time>2026-03-28T14:02:19.644Z</time></trkpt><trkpt lat="44.3061517" lon="12.1146617"><ele>6.999999999999999</ele><time>2026-03-28T14:02:21.644Z</time></trkpt><trkpt lat="44.3062583" lon="12.1146983"><ele>7.0</ele><time>2026-03-28T14:02:23.644Z</time></trkpt><trkpt lat="44.306365" lon="12.11473"><ele>7.0</ele><time>2026-03-28T14:02:25.644Z</time></trkpt><trkpt lat="44.3064733" lon="12.1147633"><ele>7.0</ele><time>2026-03-28T14:02:27.644Z</time></trkpt><trkpt lat="44.3065767" lon="12.1147967"><ele>6.999999999999999</ele><time>2026-03-28T14:02:29.644Z</time></trkpt><trkpt lat="44.3066833" lon="12.11483"><ele>6.999999999999999</ele><time>2026-03-28T14:02:31.645Z</time></trkpt><trkpt lat="44.30679" lon="12.1148583"><ele>7.0</ele><time>2026-03-28T14:02:33.644Z</time></trkpt><trkpt lat="44.3068983" lon="12.114885"><ele>7.0</ele><time>2026-03-28T14:02:35.644Z</time></trkpt><trkpt lat="44.3070083" lon="12.1149183"><ele>7.0</ele><time>2026-03-28T14:02:37.644Z</time></trkpt><trkpt lat="44.3071183" lon="12.11495"><ele>7.0</ele><time>2026-03-28T14:02:39.644Z</time></trkpt><trkpt lat="44.307225" lon="12.11498"><ele>7.0</ele><time>2026-03-28T14:02:41.645Z</time></trkpt><trkpt lat="44.307335" lon="12.11501"><ele>7.0</ele><time>2026-03-28T14:02:43.645Z</time></trkpt><trkpt lat="44.30745" lon="12.1150433"><ele>6.8</ele><time>2026-03-28T14:02:45.644Z</time></trkpt><trkpt lat="44.3075633" lon="12.115075"><ele>6.6</ele><time>2026-03-28T14:02:47.644Z</time></trkpt><trkpt lat="44.3076733" lon="12.1151067"><ele>6.3999999999999995</ele><time>2026-03-28T14:02:49.644Z</time></trkpt><trkpt lat="44.3077817" lon="12.1151317"><ele>6.199999999999999</ele><time>2026-03-28T14:02:51.645Z</time></trkpt><trkpt lat="44.30789" lon="12.1151617"><ele>6.0</ele><time>2026-03-28T14:02:53.644Z</time></trkpt><trkpt lat="44.3079983" lon="12.1151967"><ele>5.75</ele><time>2026-03-28T14:02:55.645Z</time></trkpt><trkpt lat="44.30811" lon="12.1152333"><ele>5.5</ele><time>2026-03-28T14:02:57.644Z</time></trkpt><trkpt lat="44.3082217" lon="12.1152717"><ele>5.25</ele><time>2026-03-28T14:02:59.644Z</time></trkpt><trkpt lat="44.3083317" lon="12.115315"><ele>5.0</ele><time>2026-03-28T14:03:01.644Z</time></trkpt><trkpt lat="44.3084417" lon="12.11536"><ele>5.0</ele><time>2026-03-28T14:03:03.645Z</time></trkpt><trkpt lat="44.308555" lon="12.115405"><ele>5.0</ele><time>2026-03-28T14:03:05.644Z</time></trkpt><trkpt lat="44.30867" lon="12.1154483"><ele>5.0</ele><time>2026-03-28T14:03:07.644Z</time></trkpt><trkpt lat="44.3087783" lon="12.1154967"><ele>5.0</ele><time>2026-03-28T14:03:09.644Z</time></trkpt><trkpt lat="44.3088783" lon="12.11552"><ele>5.2</ele><time>2026-03-28T14:03:11.645Z</time></trkpt><trkpt lat="44.3089817" lon="12.1155417"><ele>5.4</ele><time>2026-03-28T14:03:13.644Z</time></trkpt><trkpt lat="44.3090717" lon="12.1155733"><ele>5.6</ele><time>2026-03-28T14:03:15.644Z</time></trkpt><trkpt lat="44.309175" lon="12.115615"><ele>5.8</ele><time>2026-03-28T14:03:17.644Z</time></trkpt><trkpt lat="44.3092883" lon="12.11567"><ele>6.0</ele><time>2026-03-28T14:03:19.645Z</time></trkpt><trkpt lat="44.3094" lon="12.115725"><ele>6.0</ele><time>2026-03-28T14:03:21.645Z</time></trkpt><trkpt lat="44.309515" lon="12.1157833"><ele>6.0</ele><time>2026-03-28T14:03:23.644Z</time></trkpt><trkpt lat="44.309625" lon="12.1158367"><ele>6.0</ele><time>2026-03-28T14:03:25.644Z</time></trkpt><trkpt lat="44.3097333" lon="12.1158867"><ele>6.0</ele><time>2026-03-28T14:03:27.644Z</time></trkpt><trkpt lat="44.30984" lon="12.1159317"><ele>6.0</ele><time>2026-03-28T14:03:29.644Z</time></trkpt><trkpt lat="44.3099483" lon="12.115975"><ele>6.0</ele><time>2026-03-28T14:03:31.644Z</time></trkpt><trkpt lat="44.310055" lon="12.116015"><ele>6.0</ele><time>2026-03-28T14:03:33.644Z</time></trkpt><trkpt lat="44.3101633" lon="12.11606"><ele>6.0</ele><time>2026-03-28T14:03:35.645Z</time></trkpt><trkpt lat="44.3102717" lon="12.1161067"><ele>6.0</ele><time>2026-03-28T14:03:37.644Z</time></trkpt><trkpt lat="44.31038" lon="12.1161567"><ele>6.0</ele><time>2026-03-28T14:03:39.644Z</time></trkpt><trkpt lat="44.3104883" lon="12.1162067"><ele>6.0</ele><time>2026-03-28T14:03:41.644Z</time></trkpt><trkpt lat="44.3105967" lon="12.11625"><ele>6.0</ele><time>2026-03-28T14:03:43.644Z</time></trkpt><trkpt lat="44.3106967" lon="12.1162883"><ele>6.0</ele><time>2026-03-28T14:03:45.644Z</time></trkpt><trkpt lat="44.310795" lon="12.1163267"><ele>6.25</ele><time>2026-03-28T14:03:47.644Z</time></trkpt><trkpt lat="44.3109033" lon="12.11637"><ele>6.5</ele><time>2026-03-28T14:03:49.644Z</time></trkpt><trkpt lat="44.31101" lon="12.11642"><ele>6.75</ele><time>2026-03-28T14:03:51.644Z</time></trkpt><trkpt lat="44.31112" lon="12.1164667"><ele>7.0</ele><time>2026-03-28T14:03:53.644Z</time></trkpt><trkpt lat="44.311225" lon="12.116515"><ele>7.0</ele><time>2026-03-28T14:03:55.644Z</time></trkpt><trkpt lat="44.3113283" lon="12.1165617"><ele>7.0</ele><time>2026-03-28T14:03:57.645Z</time></trkpt><trkpt lat="44.311435" lon="12.1166083"><ele>7.0</ele><time>2026-03-28T14:03:59.644Z</time></trkpt><trkpt lat="44.3115483" lon="12.1166567"><ele>7.0</ele><time>2026-03-28T14:04:01.644Z</time></trkpt><trkpt lat="44.3116583" lon="12.1167167"><ele>7.25</ele><time>2026-03-28T14:04:03.644Z</time></trkpt><trkpt lat="44.3117583" lon="12.1167717"><ele>7.5</ele><time>2026-03-28T14:04:05.644Z</time></trkpt><trkpt lat="44.311865" lon="12.1168183"><ele>7.75</ele><time>2026-03-28T14:04:07.644Z</time></trkpt><trkpt lat="44.3119783" lon="12.1168667"><ele>8.0</ele><time>2026-03-28T14:04:09.644Z</time></trkpt><trkpt lat="44.3120883" lon="12.1169183"><ele>8.0</ele><time>2026-03-28T14:04:11.644Z</time></trkpt><trkpt lat="44.3121883" lon="12.116965"><ele>8.0</ele><time>2026-03-28T14:04:13.644Z</time></trkpt><trkpt lat="44.312295" lon="12.1170133"><ele>8.0</ele><time>2026-03-28T14:04:15.645Z</time></trkpt><trkpt lat="44.3124067" lon="12.1170583"><ele>8.0</ele><time>2026-03-28T14:04:17.644Z</time></trkpt><trkpt lat="44.3125133" lon="12.1170983"><ele>8.0</ele><time>2026-03-28T14:04:19.644Z</time></trkpt><trkpt lat="44.3126167" lon="12.1171317"><ele>7.6000000000000005</ele><time>2026-03-28T14:04:21.644Z</time></trkpt><trkpt lat="44.312725" lon="12.1171733"><ele>7.200000000000001</ele><time>2026-03-28T14:04:23.644Z</time></trkpt><trkpt lat="44.3128283" lon="12.117215"><ele>6.8</ele><time>2026-03-28T14:04:25.644Z</time></trkpt><trkpt lat="44.3129333" lon="12.1172567"><ele>6.4</ele><time>2026-03-28T14:04:27.644Z</time></trkpt><trkpt lat="44.3130383" lon="12.1172967"><ele>6.0</ele><time>2026-03-28T14:04:29.644Z</time></trkpt><trkpt lat="44.313145" lon="12.1173283"><ele>6.0</ele><time>2026-03-28T14:04:31.644Z</time></trkpt><trkpt lat="44.31325" lon="12.1173617"><ele>6.0</ele><time>2026-03-28T14:04:33.645Z</time></trkpt><trkpt lat="44.3133567" lon="12.117395"><ele>6.0</ele><time>2026-03-28T14:04:35.644Z</time></trkpt><trkpt lat="44.3134683" lon="12.11743"><ele>6.0</ele><time>2026-03-28T14:04:37.644Z</time></trkpt><trkpt lat="44.3135733" lon="12.1174667"><ele>6.0</ele><time>2026-03-28T14:04:39.644Z</time></trkpt><trkpt lat="44.3136733" lon="12.1175033"><ele>6.199999999999999</ele><time>2026-03-28T14:04:41.644Z</time></trkpt><trkpt lat="44.3137767" lon="12.1175383"><ele>6.3999999999999995</ele><time>2026-03-28T14:04:43.644Z</time></trkpt><trkpt lat="44.313885" lon="12.11758"><ele>6.6</ele><time>2026-03-28T14:04:45.644Z</time></trkpt><trkpt lat="44.31399" lon="12.11763"><ele>6.8</ele><time>2026-03-28T14:04:47.644Z</time></trkpt><trkpt lat="44.3140883" lon="12.1176817"><ele>7.0</ele><time>2026-03-28T14:04:49.644Z</time></trkpt><trkpt lat="44.3141867" lon="12.1177383"><ele>7.0</ele><time>2026-03-28T14:04:51.644Z</time></trkpt><trkpt lat="44.3142833" lon="12.1177983"><ele>6.999999999999999</ele><time>2026-03-28T14:04:53.644Z</time></trkpt><trkpt lat="44.3143867" lon="12.11786"><ele>6.999999999999999</ele><time>2026-03-28T14:04:55.644Z</time></trkpt><trkpt lat="44.31449" lon="12.1179167"><ele>7.0</ele><time>2026-03-28T14:04:57.644Z</time></trkpt><trkpt lat="44.3146017" lon="12.1179733"><ele>7.0</ele><time>2026-03-28T14:04:59.645Z</time></trkpt><trkpt lat="44.3147133" lon="12.11802"><ele>7.199999999999999</ele><time>2026-03-28T14:05:01.644Z</time></trkpt><trkpt lat="44.314825" lon="12.11806"><ele>7.3999999999999995</ele><time>2026-03-28T14:05:03.645Z</time></trkpt><trkpt lat="44.31493" lon="12.1180917"><ele>7.6000000000000005</ele><time>2026-03-28T14:05:05.644Z</time></trkpt><trkpt lat="44.3150333" lon="12.1181217"><ele>7.800000000000001</ele><time>2026-03-28T14:05:07.644Z</time></trkpt><trkpt lat="44.3151417" lon="12.11815"><ele>8.0</ele><time>2026-03-28T14:05:09.645Z</time></trkpt><trkpt lat="44.3152467" lon="12.118185"><ele>8.0</ele><time>2026-03-28T14:05:11.644Z</time></trkpt><trkpt lat="44.315345" lon="12.1182183"><ele>8.0</ele><time>2026-03-28T14:05:13.644Z</time></trkpt><trkpt lat="44.3154517" lon="12.1182417"><ele>8.0</ele><time>2026-03-28T14:05:15.644Z</time></trkpt><trkpt lat="44.3155483" lon="12.1182667"><ele>8.0</ele><time>2026-03-28T14:05:17.645Z</time></trkpt><trkpt lat="44.3156517" lon="12.1183"><ele>8.0</ele><time>2026-03-28T14:05:19.644Z</time></trkpt><trkpt lat="44.3157467" lon="12.118325"><ele>7.6000000000000005</ele><time>2026-03-28T14:05:21.644Z</time></trkpt><trkpt lat="44.3158417" lon="12.1183583"><ele>7.200000000000001</ele><time>2026-03-28T14:05:23.645Z</time></trkpt><trkpt lat="44.31594" lon="12.1184"><ele>6.8</ele><time>2026-03-28T14:05:25.644Z</time></trkpt><trkpt lat="44.3160467" lon="12.1184317"><ele>6.4</ele><time>2026-03-28T14:05:27.644Z</time></trkpt><trkpt lat="44.316155" lon="12.11846"><ele>6.0</ele><time>2026-03-28T14:05:29.645Z</time></trkpt><trkpt lat="44.3162583" lon="12.1184833"><ele>6.0</ele><time>2026-03-28T14:05:31.644Z</time></trkpt><trkpt lat="44.31637" lon="12.1185017"><ele>6.0</ele><time>2026-03-28T14:05:33.644Z</time></trkpt><trkpt lat="44.3164733" lon="12.1185133"><ele>6.0</ele><time>2026-03-28T14:05:35.645Z</time></trkpt><trkpt lat="44.3165783" lon="12.1185167"><ele>6.0</ele><time>2026-03-28T14:05:37.644Z</time></trkpt><trkpt lat="44.3166917" lon="12.1185233"><ele>6.0</ele><time>2026-03-28T14:05:39.644Z</time></trkpt><trkpt lat="44.316805" lon="12.1185367"><ele>6.199999999999999</ele><time>2026-03-28T14:05:41.645Z</time></trkpt><trkpt lat="44.31692" lon="12.11855"><ele>6.3999999999999995</ele><time>2026-03-28T14:05:43.644Z</time></trkpt><trkpt lat="44.3170317" lon="12.11857"><ele>6.6</ele><time>2026-03-28T14:05:45.645Z</time></trkpt><trkpt lat="44.3171333" lon="12.1186"><ele>6.8</ele><time>2026-03-28T14:05:47.644Z</time></trkpt><trkpt lat="44.31724" lon="12.1186317"><ele>7.0</ele><time>2026-03-28T14:05:49.644Z</time></trkpt><trkpt lat="44.3173533" lon="12.118665"><ele>7.0</ele><time>2026-03-28T14:05:51.644Z</time></trkpt><trkpt lat="44.3174633" lon="12.11871"><ele>6.999999999999999</ele><time>2026-03-28T14:05:53.645Z</time></trkpt><trkpt lat="44.3175683" lon="12.11875"><ele>6.999999999999999</ele><time>2026-03-28T14:05:55.644Z</time></trkpt><trkpt lat="44.3176667" lon="12.1187883"><ele>7.0</ele><time>2026-03-28T14:05:57.645Z</time></trkpt><trkpt lat="44.3177667" lon="12.1188283"><ele>7.0</ele><time>2026-03-28T14:05:59.645Z</time></trkpt><trkpt lat="44.3178617" lon="12.1188583"><ele>7.0</ele><time>2026-03-28T14:06:01.644Z</time></trkpt><trkpt lat="44.31795" lon="12.1188883"><ele>6.999999999999999</ele><time>2026-03-28T14:06:03.645Z</time></trkpt><trkpt lat="44.3180417" lon="12.1189233"><ele>6.999999999999999</ele><time>2026-03-28T14:06:05.645Z</time></trkpt><trkpt lat="44.3181383" lon="12.1189633"><ele>7.0</ele><time>2026-03-28T14:06:07.644Z</time></trkpt><trkpt lat="44.3182333" lon="12.119"><ele>7.0</ele><time>2026-03-28T14:06:09.644Z</time></trkpt><trkpt lat="44.318335" lon="12.1190383"><ele>6.8</ele><time>2026-03-28T14:06:11.644Z</time></trkpt><trkpt lat="44.31844" lon="12.119075"><ele>6.6</ele><time>2026-03-28T14:06:13.644Z</time></trkpt><trkpt lat="44.318545" lon="12.1191067"><ele>6.3999999999999995</ele><time>2026-03-28T14:06:15.644Z</time></trkpt><trkpt lat="44.318655" lon="12.1191383"><ele>6.199999999999999</ele><time>2026-03-28T14:06:17.644Z</time></trkpt><trkpt lat="44.3187667" lon="12.119175"><ele>6.0</ele><time>2026-03-28T14:06:19.645Z</time></trkpt><trkpt lat="44.31888" lon="12.1192133"><ele>6.0</ele><time>2026-03-28T14:06:21.645Z</time></trkpt><trkpt lat="44.3189933" lon="12.11925"><ele>6.0</ele><time>2026-03-28T14:06:23.644Z</time></trkpt><trkpt lat="44.3190983" lon="12.119285"><ele>6.0</ele><time>2026-03-28T14:06:25.644Z</time></trkpt><trkpt lat="44.3192067" lon="12.1193267"><ele>6.0</ele><time>2026-03-28T14:06:27.644Z</time></trkpt><trkpt lat="44.319315" lon="12.1193633"><ele>6.0</ele><time>2026-03-28T14:06:29.645Z</time></trkpt><trkpt lat="44.3194233" lon="12.1193967"><ele>6.0</ele><time>2026-03-28T14:06:31.644Z</time></trkpt><trkpt lat="44.3195317" lon="12.1194283"><ele>6.0</ele><time>2026-03-28T14:06:33.644Z</time></trkpt><trkpt lat="44.31964" lon="12.11947"><ele>6.0</ele><time>2026-03-28T14:06:35.644Z</time></trkpt><trkpt lat="44.319755" lon="12.1195133"><ele>6.0</ele><time>2026-03-28T14:06:37.644Z</time></trkpt><trkpt lat="44.3198683" lon="12.1195533"><ele>6.25</ele><time>2026-03-28T14:06:39.644Z</time></trkpt><trkpt lat="44.3199867" lon="12.1195933"><ele>6.5</ele><time>2026-03-28T14:06:41.645Z</time></trkpt><trkpt lat="44.3200967" lon="12.11962"><ele>6.75</ele><time>2026-03-28T14:06:43.644Z</time></trkpt><trkpt lat="44.320205" lon="12.11965"><ele>7.0</ele><time>2026-03-28T14:06:45.644Z</time></trkpt><trkpt lat="44.3203167" lon="12.119685"><ele>7.0</ele><time>2026-03-28T14:06:47.644Z</time></trkpt><trkpt lat="44.3204283" lon="12.1197217"><ele>7.0</ele><time>2026-03-28T14:06:49.645Z</time></trkpt><trkpt lat="44.320545" lon="12.1197617"><ele>7.0</ele><time>2026-03-28T14:06:51.645Z</time></trkpt><trkpt lat="44.3206633" lon="12.1198"><ele>7.0</ele><time>2026-03-28T14:06:53.644Z</time></trkpt><trkpt lat="44.3207833" lon="12.11984"><ele>6.833333333333334</ele><time>2026-03-28T14:06:55.644Z</time></trkpt><trkpt lat="44.320845" lon="12.1198617"><ele>6.666666666666667</ele><time>2026-03-28T14:06:56.644Z</time></trkpt><trkpt lat="44.3209067" lon="12.1198833"><ele>6.5</ele><time>2026-03-28T14:06:57.644Z</time></trkpt><trkpt lat="44.3210333" lon="12.11993"><ele>6.333333333333334</ele><time>2026-03-28T14:06:59.644Z</time></trkpt><trkpt lat="44.3211517" lon="12.11998"><ele>6.166666666666667</ele><time>2026-03-28T14:07:01.644Z</time></trkpt><trkpt lat="44.3212133" lon="12.1200017"><ele>6.0</ele><time>2026-03-28T14:07:02.645Z</time></trkpt><trkpt lat="44.321275" lon="12.120025"><ele>6.0</ele><time>2026-03-28T14:07:03.645Z</time></trkpt><trkpt lat="44.3213933" lon="12.120065"><ele>6.0</ele><time>2026-03-28T14:07:05.644Z</time></trkpt><trkpt lat="44.3215117" lon="12.1201033"><ele>6.0</ele><time>2026-03-28T14:07:07.644Z</time></trkpt><trkpt lat="44.3216317" lon="12.1201483"><ele>6.0</ele><time>2026-03-28T14:07:09.644Z</time></trkpt><trkpt lat="44.3217517" lon="12.1201933"><ele>6.25</ele><time>2026-03-28T14:07:11.644Z</time></trkpt><trkpt lat="44.3218667" lon="12.120245"><ele>6.5</ele><time>2026-03-28T14:07:13.644Z</time></trkpt><trkpt lat="44.321985" lon="12.1202817"><ele>6.75</ele><time>2026-03-28T14:07:15.644Z</time></trkpt><trkpt lat="44.3220967" lon="12.120325"><ele>7.0</ele><time>2026-03-28T14:07:17.644Z</time></trkpt><trkpt lat="44.322195" lon="12.1203567"><ele>7.000000000000001</ele><time>2026-03-28T14:07:19.644Z</time></trkpt><trkpt lat="44.3223" lon="12.1204"><ele>7.0</ele><time>2026-03-28T14:07:21.644Z</time></trkpt><trkpt lat="44.322365" lon="12.12042"><ele>7.0</ele><time>2026-03-28T14:07:22.644Z</time></trkpt><trkpt lat="44.3224867" lon="12.1204567"><ele>7.0</ele><time>2026-03-28T14:07:24.644Z</time></trkpt><trkpt lat="44.3225483" lon="12.1204767"><ele>7.000000000000001</ele><time>2026-03-28T14:07:25.644Z</time></trkpt><trkpt lat="44.32261" lon="12.1204983"><ele>7.0</ele><time>2026-03-28T14:07:26.644Z</time></trkpt><trkpt lat="44.3227267" lon="12.1205333"><ele>7.0</ele><time>2026-03-28T14:07:28.644Z</time></trkpt><trkpt lat="44.322845" lon="12.1205767"><ele>6.999999999999999</ele><time>2026-03-28T14:07:30.644Z</time></trkpt><trkpt lat="44.3229617" lon="12.1206217"><ele>6.999999999999999</ele><time>2026-03-28T14:07:32.644Z</time></trkpt><trkpt lat="44.3230767" lon="12.12067"><ele>7.0</ele><time>2026-03-28T14:07:34.644Z</time></trkpt><trkpt lat="44.3231367" lon="12.1206983"><ele>7.0</ele><time>2026-03-28T14:07:35.644Z</time></trkpt><trkpt lat="44.32325" lon="12.120765"><ele>7.0</ele><time>2026-03-28T14:07:37.645Z</time></trkpt><trkpt lat="44.3233567" lon="12.1208383"><ele>7.0</ele><time>2026-03-28T14:07:39.644Z</time></trkpt><trkpt lat="44.323465" lon="12.12091"><ele>7.0</ele><time>2026-03-28T14:07:41.644Z</time></trkpt><trkpt lat="44.32357" lon="12.1209767"><ele>7.0</ele><time>2026-03-28T14:07:43.644Z</time></trkpt><trkpt lat="44.3236767" lon="12.1210467"><ele>7.0</ele><time>2026-03-28T14:07:45.645Z</time></trkpt><trkpt lat="44.3237867" lon="12.1211083"><ele>7.0</ele><time>2026-03-28T14:07:47.644Z</time></trkpt><trkpt lat="44.3238883" lon="12.12117"><ele>7.0</ele><time>2026-03-28T14:07:49.644Z</time></trkpt><trkpt lat="44.3239933" lon="12.1212233"><ele>7.0</ele><time>2026-03-28T14:07:51.644Z</time></trkpt><trkpt lat="44.324105" lon="12.121275"><ele>6.75</ele><time>2026-03-28T14:07:53.644Z</time></trkpt><trkpt lat="44.3242133" lon="12.1213267"><ele>6.5</ele><time>2026-03-28T14:07:55.644Z</time></trkpt><trkpt lat="44.324325" lon="12.1213783"><ele>6.25</ele><time>2026-03-28T14:07:57.644Z</time></trkpt><trkpt lat="44.32444" lon="12.121435"><ele>6.0</ele><time>2026-03-28T14:07:59.644Z</time></trkpt><trkpt lat="44.3245533" lon="12.1214817"><ele>6.0</ele><time>2026-03-28T14:08:01.644Z</time></trkpt><trkpt lat="44.3246617" lon="12.1215283"><ele>6.0</ele><time>2026-03-28T14:08:03.644Z</time></trkpt><trkpt lat="44.32477" lon="12.1215783"><ele>6.0</ele><time>2026-03-28T14:08:05.644Z</time></trkpt><trkpt lat="44.324875" lon="12.1216283"><ele>6.0</ele><time>2026-03-28T14:08:07.644Z</time></trkpt><trkpt lat="44.3249833" lon="12.121685"><ele>6.0</ele><time>2026-03-28T14:08:09.644Z</time></trkpt><trkpt lat="44.32509" lon="12.1217333"><ele>6.0</ele><time>2026-03-28T14:08:11.644Z</time></trkpt><trkpt lat="44.3252" lon="12.1217817"><ele>6.0</ele><time>2026-03-28T14:08:13.644Z</time></trkpt><trkpt lat="44.325305" lon="12.12182"><ele>6.0</ele><time>2026-03-28T14:08:15.644Z</time></trkpt><trkpt lat="44.3254167" lon="12.12185"><ele>6.0</ele><time>2026-03-28T14:08:17.645Z</time></trkpt><trkpt lat="44.3255233" lon="12.1218817"><ele>6.0</ele><time>2026-03-28T14:08:19.644Z</time></trkpt><trkpt lat="44.3256283" lon="12.1219117"><ele>6.0</ele><time>2026-03-28T14:08:21.644Z</time></trkpt><trkpt lat="44.3257333" lon="12.1219433"><ele>6.0</ele><time>2026-03-28T14:08:23.644Z</time></trkpt><trkpt lat="44.3258217" lon="12.1219717"><ele>6.0</ele><time>2026-03-28T14:08:25.644Z</time></trkpt><trkpt lat="44.3259167" lon="12.1220067"><ele>5.8</ele><time>2026-03-28T14:08:27.645Z</time></trkpt><trkpt lat="44.3260067" lon="12.1220383"><ele>5.6</ele><time>2026-03-28T14:08:29.644Z</time></trkpt><trkpt lat="44.3261017" lon="12.122075"><ele>5.4</ele><time>2026-03-28T14:08:31.644Z</time></trkpt><trkpt lat="44.3261967" lon="12.1221133"><ele>5.2</ele><time>2026-03-28T14:08:33.644Z</time></trkpt><trkpt lat="44.3262967" lon="12.1221567"><ele>5.0</ele><time>2026-03-28T14:08:35.644Z</time></trkpt><trkpt lat="44.326395" lon="12.122195"><ele>5.0</ele><time>2026-03-28T14:08:37.644Z</time></trkpt><trkpt lat="44.3264933" lon="12.1222367"><ele>5.0</ele><time>2026-03-28T14:08:39.644Z</time></trkpt><trkpt lat="44.3265933" lon="12.12228"><ele>5.0</ele><time>2026-03-28T14:08:41.644Z</time></trkpt><trkpt lat="44.3266917" lon="12.1223217"><ele>5.0</ele><time>2026-03-28T14:08:43.644Z</time></trkpt><trkpt lat="44.32679" lon="12.1223617"><ele>5.0</ele><time>2026-03-28T14:08:45.645Z</time></trkpt><trkpt lat="44.3268917" lon="12.12241"><ele>5.0</ele><time>2026-03-28T14:08:47.645Z</time></trkpt><trkpt lat="44.3269967" lon="12.1224517"><ele>5.0</ele><time>2026-03-28T14:08:49.644Z</time></trkpt><trkpt lat="44.3271017" lon="12.1225"><ele>5.0</ele><time>2026-03-28T14:08:51.644Z</time></trkpt><trkpt lat="44.3272067" lon="12.1225417"><ele>5.0</ele><time>2026-03-28T14:08:53.644Z</time></trkpt><trkpt lat="44.32731" lon="12.1225683"><ele>5.0</ele><time>2026-03-28T14:08:55.644Z</time></trkpt><trkpt lat="44.3274083" lon="12.1225967"><ele>5.0</ele><time>2026-03-28T14:08:57.645Z</time></trkpt><trkpt lat="44.3275067" lon="12.122635"><ele>5.0</ele><time>2026-03-28T14:08:59.644Z</time></trkpt><trkpt lat="44.3276067" lon="12.12267"><ele>5.0</ele><time>2026-03-28T14:09:01.644Z</time></trkpt><trkpt lat="44.32771" lon="12.122705"><ele>5.0</ele><time>2026-03-28T14:09:03.644Z</time></trkpt><trkpt lat="44.3278133" lon="12.1227417"><ele>5.0</ele><time>2026-03-28T14:09:05.644Z</time></trkpt><trkpt lat="44.3279167" lon="12.122785"><ele>5.0</ele><time>2026-03-28T14:09:07.644Z</time></trkpt><trkpt lat="44.328025" lon="12.122825"><ele>5.0</ele><time>2026-03-28T14:09:09.644Z</time></trkpt><trkpt lat="44.328135" lon="12.122865"><ele>5.0</ele><time>2026-03-28T14:09:11.644Z</time></trkpt><trkpt lat="44.3282433" lon="12.1229017"><ele>5.0</ele><time>2026-03-28T14:09:13.644Z</time></trkpt><trkpt lat="44.3283517" lon="12.1229383"><ele>5.0</ele><time>2026-03-28T14:09:15.644Z</time></trkpt><trkpt lat="44.32846" lon="12.122975"><ele>5.25</ele><time>2026-03-28T14:09:17.644Z</time></trkpt><trkpt lat="44.3285683" lon="12.123025"><ele>5.5</ele><time>2026-03-28T14:09:19.645Z</time></trkpt><trkpt lat="44.3286667" lon="12.1230783"><ele>5.75</ele><time>2026-03-28T14:09:21.644Z</time></trkpt><trkpt lat="44.32877" lon="12.1231517"><ele>6.0</ele><time>2026-03-28T14:09:23.645Z</time></trkpt><trkpt lat="44.328875" lon="12.12323"><ele>6.199999999999999</ele><time>2026-03-28T14:09:25.644Z</time></trkpt><trkpt lat="44.32898" lon="12.123305"><ele>6.3999999999999995</ele><time>2026-03-28T14:09:27.645Z</time></trkpt><trkpt lat="44.3290733" lon="12.1233683"><ele>6.6</ele><time>2026-03-28T14:09:29.644Z</time></trkpt><trkpt lat="44.3291617" lon="12.1234317"><ele>6.8</ele><time>2026-03-28T14:09:31.644Z</time></trkpt><trkpt lat="44.3292533" lon="12.123505"><ele>7.0</ele><time>2026-03-28T14:09:33.645Z</time></trkpt><trkpt lat="44.3293383" lon="12.123585"><ele>7.0</ele><time>2026-03-28T14:09:35.644Z</time></trkpt><trkpt lat="44.3294283" lon="12.1236683"><ele>7.0</ele><time>2026-03-28T14:09:37.644Z</time></trkpt><trkpt lat="44.329515" lon="12.1237617"><ele>7.0</ele><time>2026-03-28T14:09:39.645Z</time></trkpt><trkpt lat="44.3296083" lon="12.1238483"><ele>7.0</ele><time>2026-03-28T14:09:41.644Z</time></trkpt><trkpt lat="44.3297083" lon="12.1239467"><ele>6.75</ele><time>2026-03-28T14:09:43.644Z</time></trkpt><trkpt lat="44.3298083" lon="12.1240333"><ele>6.5</ele><time>2026-03-28T14:09:45.644Z</time></trkpt><trkpt lat="44.3299017" lon="12.12412"><ele>6.25</ele><time>2026-03-28T14:09:47.644Z</time></trkpt><trkpt lat="44.3299983" lon="12.1242083"><ele>6.0</ele><time>2026-03-28T14:09:49.645Z</time></trkpt><trkpt lat="44.330095" lon="12.1242933"><ele>6.0</ele><time>2026-03-28T14:09:51.644Z</time></trkpt><trkpt lat="44.330195" lon="12.1243833"><ele>6.0</ele><time>2026-03-28T14:09:53.644Z</time></trkpt><trkpt lat="44.3302917" lon="12.1244767"><ele>6.0</ele><time>2026-03-28T14:09:55.645Z</time></trkpt><trkpt lat="44.33039" lon="12.1245683"><ele>6.0</ele><time>2026-03-28T14:09:57.644Z</time></trkpt><trkpt lat="44.3304867" lon="12.1246633"><ele>5.75</ele><time>2026-03-28T14:09:59.644Z</time></trkpt><trkpt lat="44.330585" lon="12.1247517"><ele>5.5</ele><time>2026-03-28T14:10:01.644Z</time></trkpt><trkpt lat="44.3306833" lon="12.124845"><ele>5.25</ele><time>2026-03-28T14:10:03.645Z</time></trkpt><trkpt lat="44.33078" lon="12.1249367"><ele>5.0</ele><time>2026-03-28T14:10:05.644Z</time></trkpt><trkpt lat="44.3308783" lon="12.1250267"><ele>5.5</ele><time>2026-03-28T14:10:07.644Z</time></trkpt><trkpt lat="44.330975" lon="12.125115"><ele>6.0</ele><time>2026-03-28T14:10:09.644Z</time></trkpt><trkpt lat="44.3310717" lon="12.1251983"><ele>6.5</ele><time>2026-03-28T14:10:11.644Z</time></trkpt><trkpt lat="44.33117" lon="12.1252883"><ele>7.0</ele><time>2026-03-28T14:10:13.645Z</time></trkpt><trkpt lat="44.331265" lon="12.125375"><ele>7.0</ele><time>2026-03-28T14:10:15.645Z</time></trkpt><trkpt lat="44.3313633" lon="12.12546"><ele>7.0</ele><time>2026-03-28T14:10:17.645Z</time></trkpt><trkpt lat="44.3314633" lon="12.125555"><ele>7.0</ele><time>2026-03-28T14:10:19.645Z</time></trkpt><trkpt lat="44.33156" lon="12.1256467"><ele>7.0</ele><time>2026-03-28T14:10:21.645Z</time></trkpt><trkpt lat="44.3316583" lon="12.1257383"><ele>6.6</ele><time>2026-03-28T14:10:23.644Z</time></trkpt><trkpt lat="44.3317517" lon="12.125825"><ele>6.199999999999999</ele><time>2026-03-28T14:10:25.644Z</time></trkpt><trkpt lat="44.3318417" lon="12.1259117"><ele>5.8</ele><time>2026-03-28T14:10:27.644Z</time></trkpt><trkpt lat="44.3319317" lon="12.1259883"><ele>5.4</ele><time>2026-03-28T14:10:29.644Z</time></trkpt><trkpt lat="44.332015" lon="12.1260567"><ele>5.0</ele><time>2026-03-28T14:10:31.645Z</time></trkpt><trkpt lat="44.3320967" lon="12.126135"><ele>5.0</ele><time>2026-03-28T14:10:33.644Z</time></trkpt><trkpt lat="44.33218" lon="12.1262067"><ele>5.0</ele><time>2026-03-28T14:10:35.644Z</time></trkpt><trkpt lat="44.3322533" lon="12.1262667"><ele>5.0</ele><time>2026-03-28T14:10:37.644Z</time></trkpt><trkpt lat="44.332325" lon="12.1263383"><ele>5.0</ele><time>2026-03-28T14:10:39.645Z</time></trkpt><trkpt lat="44.3324083" lon="12.1264083"><ele>5.0</ele><time>2026-03-28T14:10:41.644Z</time></trkpt><trkpt lat="44.3324983" lon="12.126475"><ele>4.8</ele><time>2026-03-28T14:10:43.645Z</time></trkpt><trkpt lat="44.3325883" lon="12.1265517"><ele>4.6</ele><time>2026-03-28T14:10:45.644Z</time></trkpt><trkpt lat="44.3326767" lon="12.1266317"><ele>4.4</ele><time>2026-03-28T14:10:47.644Z</time></trkpt><trkpt lat="44.3327783" lon="12.1267133"><ele>4.2</ele><time>2026-03-28T14:10:49.644Z</time></trkpt><trkpt lat="44.332835" lon="12.1267567"><ele>4.0</ele><time>2026-03-28T14:10:50.645Z</time></trkpt><trkpt lat="44.3329383" lon="12.1268283"><ele>4.4</ele><time>2026-03-28T14:10:52.645Z</time></trkpt><trkpt lat="44.3330417" lon="12.126895"><ele>4.800000000000001</ele><time>2026-03-28T14:10:54.644Z</time></trkpt><trkpt lat="44.3331483" lon="12.1269567"><ele>5.199999999999999</ele><time>2026-03-28T14:10:56.644Z</time></trkpt><trkpt lat="44.33325" lon="12.1270117"><ele>5.6</ele><time>2026-03-28T14:10:58.644Z</time></trkpt><trkpt lat="44.3333533" lon="12.1270633"><ele>6.0</ele><time>2026-03-28T14:11:00.644Z</time></trkpt><trkpt lat="44.333465" lon="12.1271117"><ele>6.0</ele><time>2026-03-28T14:11:02.644Z</time></trkpt><trkpt lat="44.3335717" lon="12.1271533"><ele>6.0</ele><time>2026-03-28T14:11:04.644Z</time></trkpt><trkpt lat="44.3336817" lon="12.1271983"><ele>6.0</ele><time>2026-03-28T14:11:06.644Z</time></trkpt><trkpt lat="44.3337917" lon="12.1272367"><ele>6.0</ele><time>2026-03-28T14:11:08.644Z</time></trkpt><trkpt lat="44.3339033" lon="12.1272733"><ele>5.8</ele><time>2026-03-28T14:11:10.644Z</time></trkpt><trkpt lat="44.3340167" lon="12.127315"><ele>5.6</ele><time>2026-03-28T14:11:12.644Z</time></trkpt><trkpt lat="44.3341233" lon="12.1273583"><ele>5.4</ele><time>2026-03-28T14:11:14.645Z</time></trkpt><trkpt lat="44.3342217" lon="12.1274"><ele>5.2</ele><time>2026-03-28T14:11:16.644Z</time></trkpt><trkpt lat="44.3343233" lon="12.127445"><ele>5.0</ele><time>2026-03-28T14:11:18.644Z</time></trkpt><trkpt lat="44.3344217" lon="12.1274917"><ele>5.0</ele><time>2026-03-28T14:11:20.644Z</time></trkpt><trkpt lat="44.3345167" lon="12.12755"><ele>5.0</ele><time>2026-03-28T14:11:22.644Z</time></trkpt><trkpt lat="44.3345967" lon="12.127605"><ele>5.0</ele><time>2026-03-28T14:11:24.644Z</time></trkpt><trkpt lat="44.3346783" lon="12.1276583"><ele>5.0</ele><time>2026-03-28T14:11:26.645Z</time></trkpt><trkpt lat="44.3347633" lon="12.1277117"><ele>5.0</ele><time>2026-03-28T14:11:28.644Z</time></trkpt><trkpt lat="44.3348517" lon="12.1277733"><ele>5.2</ele><time>2026-03-28T14:11:30.644Z</time></trkpt><trkpt lat="44.334935" lon="12.12783"><ele>5.4</ele><time>2026-03-28T14:11:32.645Z</time></trkpt><trkpt lat="44.3350183" lon="12.12789"><ele>5.6</ele><time>2026-03-28T14:11:34.644Z</time></trkpt><trkpt lat="44.3350933" lon="12.1279517"><ele>5.8</ele><time>2026-03-28T14:11:36.644Z</time></trkpt><trkpt lat="44.335175" lon="12.1280183"><ele>6.0</ele><time>2026-03-28T14:11:38.645Z</time></trkpt><trkpt lat="44.3352583" lon="12.1280867"><ele>6.0</ele><time>2026-03-28T14:11:40.644Z</time></trkpt><trkpt lat="44.3353417" lon="12.1281567"><ele>6.0</ele><time>2026-03-28T14:11:42.644Z</time></trkpt><trkpt lat="44.3354183" lon="12.1282367"><ele>6.0</ele><time>2026-03-28T14:11:44.644Z</time></trkpt><trkpt lat="44.3354883" lon="12.1283217"><ele>6.0</ele><time>2026-03-28T14:11:46.644Z</time></trkpt><trkpt lat="44.33556" lon="12.1284183"><ele>6.0</ele><time>2026-03-28T14:11:48.644Z</time></trkpt><trkpt lat="44.3356317" lon="12.1285117"><ele>6.0</ele><time>2026-03-28T14:11:50.644Z</time></trkpt><trkpt lat="44.3357033" lon="12.1286083"><ele>6.0</ele><time>2026-03-28T14:11:52.644Z</time></trkpt><trkpt lat="44.3357767" lon="12.1287083"><ele>6.0</ele><time>2026-03-28T14:11:54.644Z</time></trkpt><trkpt lat="44.335855" lon="12.12882"><ele>6.0</ele><time>2026-03-28T14:11:56.645Z</time></trkpt><trkpt lat="44.3359267" lon="12.1289283"><ele>6.0</ele><time>2026-03-28T14:11:58.644Z</time></trkpt><trkpt lat="44.3359967" lon="12.12906"><ele>6.0</ele><time>2026-03-28T14:12:00.644Z</time></trkpt><trkpt lat="44.3360417" lon="12.129195"><ele>6.0</ele><time>2026-03-28T14:12:02.644Z</time></trkpt><trkpt lat="44.33607" lon="12.12934"><ele>6.0</ele><time>2026-03-28T14:12:04.645Z</time></trkpt><trkpt lat="44.3360917" lon="12.1295017"><ele>6.0</ele><time>2026-03-28T14:12:06.645Z</time></trkpt><trkpt lat="44.3361083" lon="12.1296633"><ele>6.0</ele><time>2026-03-28T14:12:08.644Z</time></trkpt><trkpt lat="44.3361233" lon="12.1298233"><ele>5.8</ele><time>2026-03-28T14:12:10.644Z</time></trkpt><trkpt lat="44.3361283" lon="12.12998"><ele>5.6</ele><time>2026-03-28T14:12:12.644Z</time></trkpt><trkpt lat="44.3361283" lon="12.1301317"><ele>5.4</ele><time>2026-03-28T14:12:14.645Z</time></trkpt><trkpt lat="44.336135" lon="12.1302867"><ele>5.2</ele><time>2026-03-28T14:12:16.644Z</time></trkpt><trkpt lat="44.3361483" lon="12.130425"><ele>5.0</ele><time>2026-03-28T14:12:18.644Z</time></trkpt><trkpt lat="44.336165" lon="12.1305717"><ele>5.2</ele><time>2026-03-28T14:12:20.644Z</time></trkpt><trkpt lat="44.3362" lon="12.1307317"><ele>5.4</ele><time>2026-03-28T14:12:22.644Z</time></trkpt><trkpt lat="44.3362367" lon="12.13086"><ele>5.6</ele><time>2026-03-28T14:12:24.644Z</time></trkpt><trkpt lat="44.3362867" lon="12.13099"><ele>5.8</ele><time>2026-03-28T14:12:26.644Z</time></trkpt><trkpt lat="44.3363433" lon="12.1311033"><ele>6.0</ele><time>2026-03-28T14:12:28.644Z</time></trkpt><trkpt lat="44.3364117" lon="12.1312033"><ele>6.0</ele><time>2026-03-28T14:12:30.644Z</time></trkpt><trkpt lat="44.33649" lon="12.1313"><ele>6.0</ele><time>2026-03-28T14:12:32.644Z</time></trkpt><trkpt lat="44.33657" lon="12.1313917"><ele>6.0</ele><time>2026-03-28T14:12:34.644Z</time></trkpt><trkpt lat="44.3366583" lon="12.1314883"><ele>6.0</ele><time>2026-03-28T14:12:36.644Z</time></trkpt><trkpt lat="44.336745" lon="12.1315733"><ele>6.0</ele><time>2026-03-28T14:12:38.645Z</time></trkpt><trkpt lat="44.336835" lon="12.131655"><ele>5.8</ele><time>2026-03-28T14:12:40.644Z</time></trkpt><trkpt lat="44.33693" lon="12.131725"><ele>5.6</ele><time>2026-03-28T14:12:42.644Z</time></trkpt><trkpt lat="44.33703" lon="12.1317933"><ele>5.4</ele><time>2026-03-28T14:12:44.644Z</time></trkpt><trkpt lat="44.33713" lon="12.1318567"><ele>5.2</ele><time>2026-03-28T14:12:46.645Z</time></trkpt><trkpt lat="44.337235" lon="12.1319217"><ele>5.0</ele><time>2026-03-28T14:12:48.644Z</time></trkpt><trkpt lat="44.3373433" lon="12.1319783"><ele>4.75</ele><time>2026-03-28T14:12:50.644Z</time></trkpt><trkpt lat="44.33745" lon="12.132035"><ele>4.5</ele><time>2026-03-28T14:12:52.644Z</time></trkpt><trkpt lat="44.3375633" lon="12.1320967"><ele>4.25</ele><time>2026-03-28T14:12:54.644Z</time></trkpt><trkpt lat="44.3376717" lon="12.1321517"><ele>4.0</ele><time>2026-03-28T14:12:56.644Z</time></trkpt><trkpt lat="44.3377817" lon="12.132215"><ele>4.0</ele><time>2026-03-28T14:12:58.644Z</time></trkpt><trkpt lat="44.3378867" lon="12.1322783"><ele>4.0</ele><time>2026-03-28T14:13:00.644Z</time></trkpt><trkpt lat="44.3379883" lon="12.1323417"><ele>4.0</ele><time>2026-03-28T14:13:02.644Z</time></trkpt><trkpt lat="44.338095" lon="12.1324183"><ele>4.0</ele><time>2026-03-28T14:13:04.645Z</time></trkpt><trkpt lat="44.3381933" lon="12.1324867"><ele>4.2</ele><time>2026-03-28T14:13:06.644Z</time></trkpt><trkpt lat="44.3382917" lon="12.132565"><ele>4.4</ele><time>2026-03-28T14:13:08.645Z</time></trkpt><trkpt lat="44.3383917" lon="12.13265"><ele>4.6</ele><time>2026-03-28T14:13:10.644Z</time></trkpt><trkpt lat="44.3384833" lon="12.13273"><ele>4.8</ele><time>2026-03-28T14:13:12.644Z</time></trkpt><trkpt lat="44.3385667" lon="12.132805"><ele>5.0</ele><time>2026-03-28T14:13:14.644Z</time></trkpt><trkpt lat="44.3386533" lon="12.1329017"><ele>5.0</ele><time>2026-03-28T14:13:16.644Z</time></trkpt><trkpt lat="44.33874" lon="12.1330017"><ele>5.0</ele><time>2026-03-28T14:13:18.644Z</time></trkpt><trkpt lat="44.3388183" lon="12.1331083"><ele>5.0</ele><time>2026-03-28T14:13:20.645Z</time></trkpt><trkpt lat="44.338895" lon="12.1332267"><ele>5.0</ele><time>2026-03-28T14:13:22.644Z</time></trkpt><trkpt lat="44.3389767" lon="12.1333483"><ele>5.4</ele><time>2026-03-28T14:13:24.644Z</time></trkpt><trkpt lat="44.33902" lon="12.1334133"><ele>5.8</ele><time>2026-03-28T14:13:25.645Z</time></trkpt><trkpt lat="44.3391" lon="12.1335267"><ele>6.199999999999999</ele><time>2026-03-28T14:13:27.644Z</time></trkpt><trkpt lat="44.33918" lon="12.1336467"><ele>6.6</ele><time>2026-03-28T14:13:29.644Z</time></trkpt><trkpt lat="44.3392633" lon="12.133765"><ele>7.0</ele><time>2026-03-28T14:13:31.644Z</time></trkpt><trkpt lat="44.339345" lon="12.1338833"><ele>7.0</ele><time>2026-03-28T14:13:33.644Z</time></trkpt><trkpt lat="44.3394333" lon="12.1340033"><ele>7.0</ele><time>2026-03-28T14:13:35.644Z</time></trkpt><trkpt lat="44.339515" lon="12.1341133"><ele>7.0</ele><time>2026-03-28T14:13:37.644Z</time></trkpt><trkpt lat="44.3396" lon="12.134225"><ele>7.0</ele><time>2026-03-28T14:13:39.645Z</time></trkpt><trkpt lat="44.3396833" lon="12.1343367"><ele>7.0</ele><time>2026-03-28T14:13:41.644Z</time></trkpt><trkpt lat="44.3397667" lon="12.1344517"><ele>7.0</ele><time>2026-03-28T14:13:43.644Z</time></trkpt><trkpt lat="44.3398517" lon="12.1345767"><ele>7.0</ele><time>2026-03-28T14:13:45.644Z</time></trkpt><trkpt lat="44.339935" lon="12.1346967"><ele>7.0</ele><time>2026-03-28T14:13:47.644Z</time></trkpt><trkpt lat="44.3400133" lon="12.1348033"><ele>7.199999999999999</ele><time>2026-03-28T14:13:49.644Z</time></trkpt><trkpt lat="44.3400933" lon="12.13491"><ele>7.3999999999999995</ele><time>2026-03-28T14:13:51.644Z</time></trkpt><trkpt lat="44.340175" lon="12.135015"><ele>7.6000000000000005</ele><time>2026-03-28T14:13:53.644Z</time></trkpt><trkpt lat="44.3402717" lon="12.1351183"><ele>7.800000000000001</ele><time>2026-03-28T14:13:55.644Z</time></trkpt><trkpt lat="44.3403233" lon="12.1351717"><ele>8.0</ele><time>2026-03-28T14:13:56.644Z</time></trkpt><trkpt lat="44.340425" lon="12.135275"><ele>8.0</ele><time>2026-03-28T14:13:58.644Z</time></trkpt><trkpt lat="44.340525" lon="12.1353767"><ele>8.0</ele><time>2026-03-28T14:14:00.644Z</time></trkpt><trkpt lat="44.3406283" lon="12.1354833"><ele>8.0</ele><time>2026-03-28T14:14:02.645Z</time></trkpt><trkpt lat="44.3407217" lon="12.1355883"><ele>8.0</ele><time>2026-03-28T14:14:04.644Z</time></trkpt><trkpt lat="44.3408067" lon="12.135685"><ele>7.0</ele><time>2026-03-28T14:14:06.644Z</time></trkpt><trkpt lat="44.3409" lon="12.1357817"><ele>6.0</ele><time>2026-03-28T14:14:08.644Z</time></trkpt><trkpt lat="44.3409917" lon="12.13586"><ele>5.0</ele><time>2026-03-28T14:14:10.644Z</time></trkpt><trkpt lat="44.341095" lon="12.13594"><ele>4.0</ele><time>2026-03-28T14:14:12.645Z</time></trkpt><trkpt lat="44.3411967" lon="12.1360283"><ele>4.0</ele><time>2026-03-28T14:14:14.645Z</time></trkpt><trkpt lat="44.341295" lon="12.1361133"><ele>4.0</ele><time>2026-03-28T14:14:16.644Z</time></trkpt><trkpt lat="44.3414" lon="12.1362083"><ele>4.0</ele><time>2026-03-28T14:14:18.644Z</time></trkpt><trkpt lat="44.3414567" lon="12.136255"><ele>4.0</ele><time>2026-03-28T14:14:19.644Z</time></trkpt><trkpt lat="44.341515" lon="12.1363017"><ele>4.0</ele><time>2026-03-28T14:14:20.644Z</time></trkpt><trkpt lat="44.3416233" lon="12.1363883"><ele>4.2</ele><time>2026-03-28T14:14:22.644Z</time></trkpt><trkpt lat="44.3417283" lon="12.13649"><ele>4.4</ele><time>2026-03-28T14:14:24.644Z</time></trkpt><trkpt lat="44.3417833" lon="12.1365383"><ele>4.6</ele><time>2026-03-28T14:14:25.645Z</time></trkpt><trkpt lat="44.3418817" lon="12.1366233"><ele>4.8</ele><time>2026-03-28T14:14:27.645Z</time></trkpt><trkpt lat="44.34197" lon="12.1367083"><ele>5.0</ele><time>2026-03-28T14:14:29.645Z</time></trkpt><trkpt lat="44.3420567" lon="12.1367867"><ele>5.0</ele><time>2026-03-28T14:14:31.644Z</time></trkpt><trkpt lat="44.3421417" lon="12.1368617"><ele>5.0</ele><time>2026-03-28T14:14:33.645Z</time></trkpt><trkpt lat="44.3422267" lon="12.1369333"><ele>5.0</ele><time>2026-03-28T14:14:35.644Z</time></trkpt><trkpt lat="44.3423067" lon="12.13702"><ele>5.0</ele><time>2026-03-28T14:14:37.644Z</time></trkpt><trkpt lat="44.34238" lon="12.13712"><ele>5.0</ele><time>2026-03-28T14:14:39.644Z</time></trkpt><trkpt lat="44.3424483" lon="12.1372267"><ele>5.0</ele><time>2026-03-28T14:14:41.644Z</time></trkpt><trkpt lat="44.3425183" lon="12.13735"><ele>5.0</ele><time>2026-03-28T14:14:43.644Z</time></trkpt><trkpt lat="44.3425867" lon="12.1374717"><ele>5.0</ele><time>2026-03-28T14:14:45.644Z</time></trkpt><trkpt lat="44.3426617" lon="12.1375933"><ele>5.0</ele><time>2026-03-28T14:14:47.644Z</time></trkpt><trkpt lat="44.34273" lon="12.1377017"><ele>5.0</ele><time>2026-03-28T14:14:49.644Z</time></trkpt><trkpt lat="44.3427833" lon="12.13781"><ele>5.0</ele><time>2026-03-28T14:14:51.644Z</time></trkpt><trkpt lat="44.342845" lon="12.1379117"><ele>5.0</ele><time>2026-03-28T14:14:53.644Z</time></trkpt><trkpt lat="44.3429067" lon="12.1380167"><ele>5.0</ele><time>2026-03-28T14:14:55.644Z</time></trkpt><trkpt lat="44.342955" lon="12.1380983"><ele>5.0</ele><time>2026-03-28T14:14:57.645Z</time></trkpt><trkpt lat="44.3430033" lon="12.1381783"><ele>5.0</ele><time>2026-03-28T14:14:59.644Z</time></trkpt><trkpt lat="44.3430583" lon="12.1382767"><ele>5.0</ele><time>2026-03-28T14:15:01.644Z</time></trkpt><trkpt lat="44.3431117" lon="12.1383783"><ele>5.0</ele><time>2026-03-28T14:15:03.645Z</time></trkpt><trkpt lat="44.3431583" lon="12.1384833"><ele>5.0</ele><time>2026-03-28T14:15:05.644Z</time></trkpt><trkpt lat="44.34321" lon="12.1385983"><ele>5.0</ele><time>2026-03-28T14:15:07.644Z</time></trkpt><trkpt lat="44.34326" lon="12.13873"><ele>5.0</ele><time>2026-03-28T14:15:09.644Z</time></trkpt><trkpt lat="44.34331" lon="12.13886"><ele>5.0</ele><time>2026-03-28T14:15:11.644Z</time></trkpt><trkpt lat="44.343365" lon="12.138995"><ele>5.0</ele><time>2026-03-28T14:15:13.644Z</time></trkpt><trkpt lat="44.3434233" lon="12.1391133"><ele>5.0</ele><time>2026-03-28T14:15:15.644Z</time></trkpt><trkpt lat="44.3434733" lon="12.139225"><ele>5.0</ele><time>2026-03-28T14:15:17.644Z</time></trkpt><trkpt lat="44.343515" lon="12.139325"><ele>5.0</ele><time>2026-03-28T14:15:19.644Z</time></trkpt><trkpt lat="44.3435417" lon="12.1394067"><ele>5.0</ele><time>2026-03-28T14:15:21.644Z</time></trkpt><trkpt lat="44.343555" lon="12.1394983"><ele>5.0</ele><time>2026-03-28T14:15:24.644Z</time></trkpt><trkpt lat="44.343585" lon="12.1395983"><ele>5.0</ele><time>2026-03-28T14:15:31.645Z</time></trkpt><trkpt lat="44.34358" lon="12.139755"><ele>5.0</ele><time>2026-03-28T14:17:00.645Z</time></trkpt><trkpt lat="44.3436483" lon="12.1397983"><ele>5.0</ele><time>2026-03-28T14:17:59.644Z</time></trkpt><trkpt lat="44.3436817" lon="12.139895"><ele>5.0</ele><time>2026-03-28T14:18:03.645Z</time></trkpt><trkpt lat="44.3437" lon="12.1399883"><ele>5.0</ele><time>2026-03-28T14:18:06.645Z</time></trkpt><trkpt lat="44.34372" lon="12.1401033"><ele>5.0</ele><time>2026-03-28T14:18:10.644Z</time></trkpt><trkpt lat="44.3437567" lon="12.14023"><ele>5.2</ele><time>2026-03-28T14:18:13.644Z</time></trkpt><trkpt lat="44.3437967" lon="12.1403417"><ele>5.4</ele><time>2026-03-28T14:18:15.644Z</time></trkpt><trkpt lat="44.3438383" lon="12.1404567"><ele>5.6</ele><time>2026-03-28T14:18:17.644Z</time></trkpt><trkpt lat="44.3438817" lon="12.14057"><ele>5.8</ele><time>2026-03-28T14:18:19.644Z</time></trkpt><trkpt lat="44.3439283" lon="12.140695"><ele>6.0</ele><time>2026-03-28T14:18:21.644Z</time></trkpt><trkpt lat="44.34397" lon="12.14082"><ele>6.0</ele><time>2026-03-28T14:18:23.644Z</time></trkpt><trkpt lat="44.3440133" lon="12.14095"><ele>6.0</ele><time>2026-03-28T14:18:25.645Z</time></trkpt><trkpt lat="44.34406" lon="12.1410767"><ele>6.0</ele><time>2026-03-28T14:18:27.645Z</time></trkpt><trkpt lat="44.3441067" lon="12.1412"><ele>6.0</ele><time>2026-03-28T14:18:29.644Z</time></trkpt><trkpt lat="44.3441483" lon="12.1413217"><ele>6.0</ele><time>2026-03-28T14:18:31.644Z</time></trkpt><trkpt lat="44.344195" lon="12.1414383"><ele>5.8</ele><time>2026-03-28T14:18:33.644Z</time></trkpt><trkpt lat="44.3442433" lon="12.1415583"><ele>5.6</ele><time>2026-03-28T14:18:35.644Z</time></trkpt><trkpt lat="44.3442967" lon="12.1416617"><ele>5.4</ele><time>2026-03-28T14:18:37.645Z</time></trkpt><trkpt lat="44.344355" lon="12.1417783"><ele>5.2</ele><time>2026-03-28T14:18:39.644Z</time></trkpt><trkpt lat="44.3444133" lon="12.1418767"><ele>5.0</ele><time>2026-03-28T14:18:41.645Z</time></trkpt><trkpt lat="44.3444717" lon="12.1419583"><ele>5.0</ele><time>2026-03-28T14:18:43.644Z</time></trkpt><trkpt lat="44.3445417" lon="12.142045"><ele>5.0</ele><time>2026-03-28T14:18:45.644Z</time></trkpt><trkpt lat="44.3446067" lon="12.1421317"><ele>5.0</ele><time>2026-03-28T14:18:47.644Z</time></trkpt><trkpt lat="44.3446767" lon="12.1422217"><ele>5.0</ele><time>2026-03-28T14:18:49.645Z</time></trkpt><trkpt lat="44.344755" lon="12.1423033"><ele>5.0</ele><time>2026-03-28T14:18:51.644Z</time></trkpt><trkpt lat="44.3448183" lon="12.1423867"><ele>5.0</ele><time>2026-03-28T14:18:53.644Z</time></trkpt><trkpt lat="44.3448833" lon="12.1424683"><ele>5.0</ele><time>2026-03-28T14:18:55.644Z</time></trkpt><trkpt lat="44.3449533" lon="12.1425533"><ele>5.0</ele><time>2026-03-28T14:18:57.644Z</time></trkpt><trkpt lat="44.34503" lon="12.142635"><ele>5.0</ele><time>2026-03-28T14:18:59.644Z</time></trkpt><trkpt lat="44.3451083" lon="12.142715"><ele>5.0</ele><time>2026-03-28T14:19:01.644Z</time></trkpt><trkpt lat="44.34519" lon="12.1427933"><ele>5.0</ele><time>2026-03-28T14:19:03.644Z</time></trkpt><trkpt lat="44.3452767" lon="12.1428683"><ele>5.0</ele><time>2026-03-28T14:19:05.644Z</time></trkpt><trkpt lat="44.3453733" lon="12.1429317"><ele>5.0</ele><time>2026-03-28T14:19:07.644Z</time></trkpt><trkpt lat="44.3454683" lon="12.142995"><ele>5.0</ele><time>2026-03-28T14:19:09.644Z</time></trkpt><trkpt lat="44.345565" lon="12.1430417"><ele>5.0</ele><time>2026-03-28T14:19:11.644Z</time></trkpt><trkpt lat="44.34566" lon="12.1430833"><ele>5.0</ele><time>2026-03-28T14:19:13.645Z</time></trkpt><trkpt lat="44.3457583" lon="12.14312"><ele>5.0</ele><time>2026-03-28T14:19:15.645Z</time></trkpt><trkpt lat="44.34586" lon="12.1431467"><ele>5.0</ele><time>2026-03-28T14:19:17.644Z</time></trkpt><trkpt lat="44.3459617" lon="12.1431767"><ele>5.0</ele><time>2026-03-28T14:19:19.644Z</time></trkpt><trkpt lat="44.3460633" lon="12.14321"><ele>5.0</ele><time>2026-03-28T14:19:21.644Z</time></trkpt><trkpt lat="44.3461583" lon="12.1432517"><ele>5.0</ele><time>2026-03-28T14:19:23.644Z</time></trkpt><trkpt lat="44.3462583" lon="12.1432983"><ele>5.0</ele><time>2026-03-28T14:19:25.644Z</time></trkpt><trkpt lat="44.3463583" lon="12.14336"><ele>5.0</ele><time>2026-03-28T14:19:27.644Z</time></trkpt><trkpt lat="44.3464483" lon="12.14343"><ele>5.0</ele><time>2026-03-28T14:19:29.645Z</time></trkpt><trkpt lat="44.3465383" lon="12.1434967"><ele>5.0</ele><time>2026-03-28T14:19:31.645Z</time></trkpt><trkpt lat="44.3466233" lon="12.14358"><ele>4.8</ele><time>2026-03-28T14:19:33.644Z</time></trkpt><trkpt lat="44.346715" lon="12.1436567"><ele>4.6</ele><time>2026-03-28T14:19:35.645Z</time></trkpt><trkpt lat="44.3468" lon="12.1437333"><ele>4.4</ele><time>2026-03-28T14:19:37.645Z</time></trkpt><trkpt lat="44.3468767" lon="12.1438067"><ele>4.2</ele><time>2026-03-28T14:19:39.645Z</time></trkpt><trkpt lat="44.34696" lon="12.1438817"><ele>4.0</ele><time>2026-03-28T14:19:41.644Z</time></trkpt><trkpt lat="44.34704" lon="12.143965"><ele>4.0</ele><time>2026-03-28T14:19:43.644Z</time></trkpt><trkpt lat="44.3471267" lon="12.1440483"><ele>4.0</ele><time>2026-03-28T14:19:45.644Z</time></trkpt><trkpt lat="44.34721" lon="12.144135"><ele>4.0</ele><time>2026-03-28T14:19:47.644Z</time></trkpt><trkpt lat="44.3472883" lon="12.1442283"><ele>4.0</ele><time>2026-03-28T14:19:49.644Z</time></trkpt><trkpt lat="44.3473717" lon="12.1443267"><ele>4.0</ele><time>2026-03-28T14:19:51.644Z</time></trkpt><trkpt lat="44.3474533" lon="12.14442"><ele>4.0</ele><time>2026-03-28T14:19:53.644Z</time></trkpt><trkpt lat="44.3475283" lon="12.1445167"><ele>4.0</ele><time>2026-03-28T14:19:55.644Z</time></trkpt><trkpt lat="44.3476067" lon="12.144605"><ele>4.0</ele><time>2026-03-28T14:19:57.645Z</time></trkpt><trkpt lat="44.34769" lon="12.1447017"><ele>4.0</ele><time>2026-03-28T14:19:59.644Z</time></trkpt><trkpt lat="44.3477717" lon="12.144795"><ele>4.0</ele><time>2026-03-28T14:20:01.644Z</time></trkpt><trkpt lat="44.3478433" lon="12.1448883"><ele>4.0</ele><time>2026-03-28T14:20:03.644Z</time></trkpt><trkpt lat="44.3479217" lon="12.144985"><ele>4.0</ele><time>2026-03-28T14:20:05.644Z</time></trkpt><trkpt lat="44.3480017" lon="12.1450917"><ele>4.0</ele><time>2026-03-28T14:20:07.644Z</time></trkpt><trkpt lat="44.3480817" lon="12.1452017"><ele>4.0</ele><time>2026-03-28T14:20:09.644Z</time></trkpt><trkpt lat="44.3481567" lon="12.1452917"><ele>4.0</ele><time>2026-03-28T14:20:11.644Z</time></trkpt><trkpt lat="44.3482317" lon="12.1453833"><ele>4.0</ele><time>2026-03-28T14:20:13.644Z</time></trkpt><trkpt lat="44.34831" lon="12.1454767"><ele>4.0</ele><time>2026-03-28T14:20:15.645Z</time></trkpt><trkpt lat="44.3483883" lon="12.145575"><ele>4.0</ele><time>2026-03-28T14:20:17.644Z</time></trkpt><trkpt lat="44.3484683" lon="12.1456717"><ele>4.0</ele><time>2026-03-28T14:20:19.644Z</time></trkpt><trkpt lat="44.3485483" lon="12.1457867"><ele>4.0</ele><time>2026-03-28T14:20:21.644Z</time></trkpt><trkpt lat="44.3486283" lon="12.1458783"><ele>4.2</ele><time>2026-03-28T14:20:23.644Z</time></trkpt><trkpt lat="44.3487017" lon="12.1459717"><ele>4.4</ele><time>2026-03-28T14:20:25.644Z</time></trkpt><trkpt lat="44.3487817" lon="12.1460717"><ele>4.6</ele><time>2026-03-28T14:20:27.645Z</time></trkpt><trkpt lat="44.3488633" lon="12.14617"><ele>4.8</ele><time>2026-03-28T14:20:29.644Z</time></trkpt><trkpt lat="44.348945" lon="12.146265"><ele>5.0</ele><time>2026-03-28T14:20:31.644Z</time></trkpt><trkpt lat="44.3490267" lon="12.1463633"><ele>4.8</ele><time>2026-03-28T14:20:33.644Z</time></trkpt><trkpt lat="44.3491083" lon="12.1464683"><ele>4.6</ele><time>2026-03-28T14:20:35.644Z</time></trkpt><trkpt lat="44.3491883" lon="12.1465833"><ele>4.4</ele><time>2026-03-28T14:20:37.644Z</time></trkpt><trkpt lat="44.3492667" lon="12.1466933"><ele>4.2</ele><time>2026-03-28T14:20:39.645Z</time></trkpt><trkpt lat="44.3493367" lon="12.1468067"><ele>4.0</ele><time>2026-03-28T14:20:41.644Z</time></trkpt><trkpt lat="44.3494117" lon="12.14693"><ele>4.0</ele><time>2026-03-28T14:20:43.644Z</time></trkpt><trkpt lat="44.3494817" lon="12.1470517"><ele>4.0</ele><time>2026-03-28T14:20:45.644Z</time></trkpt><trkpt lat="44.34955" lon="12.1471717"><ele>4.0</ele><time>2026-03-28T14:20:47.644Z</time></trkpt><trkpt lat="44.3496117" lon="12.1472883"><ele>4.0</ele><time>2026-03-28T14:20:49.645Z</time></trkpt><trkpt lat="44.3496783" lon="12.1474117"><ele>4.0</ele><time>2026-03-28T14:20:51.644Z</time></trkpt><trkpt lat="44.3497417" lon="12.14753"><ele>4.0</ele><time>2026-03-28T14:20:53.644Z</time></trkpt><trkpt lat="44.349815" lon="12.14764"><ele>4.0</ele><time>2026-03-28T14:20:55.644Z</time></trkpt><trkpt lat="44.3498867" lon="12.1477517"><ele>4.0</ele><time>2026-03-28T14:20:57.645Z</time></trkpt><trkpt lat="44.3499667" lon="12.1478667"><ele>4.0</ele><time>2026-03-28T14:20:59.644Z</time></trkpt><trkpt lat="44.35005" lon="12.147985"><ele>4.0</ele><time>2026-03-28T14:21:01.645Z</time></trkpt><trkpt lat="44.3501267" lon="12.1481017"><ele>3.8000000000000003</ele><time>2026-03-28T14:21:03.644Z</time></trkpt><trkpt lat="44.3502" lon="12.1482133"><ele>3.6000000000000005</ele><time>2026-03-28T14:21:05.644Z</time></trkpt><trkpt lat="44.3502717" lon="12.1483267"><ele>3.4</ele><time>2026-03-28T14:21:07.645Z</time></trkpt><trkpt lat="44.3503583" lon="12.1484333"><ele>3.2</ele><time>2026-03-28T14:21:09.644Z</time></trkpt><trkpt lat="44.3504433" lon="12.14854"><ele>3.0</ele><time>2026-03-28T14:21:11.645Z</time></trkpt><trkpt lat="44.3505333" lon="12.1486433"><ele>3.2</ele><time>2026-03-28T14:21:13.644Z</time></trkpt><trkpt lat="44.35062" lon="12.1487333"><ele>3.4</ele><time>2026-03-28T14:21:15.644Z</time></trkpt><trkpt lat="44.3507" lon="12.1488333"><ele>3.6000000000000005</ele><time>2026-03-28T14:21:17.644Z</time></trkpt><trkpt lat="44.350785" lon="12.1489367"><ele>3.8000000000000003</ele><time>2026-03-28T14:21:19.644Z</time></trkpt><trkpt lat="44.3508683" lon="12.1490483"><ele>4.0</ele><time>2026-03-28T14:21:21.644Z</time></trkpt><trkpt lat="44.3509517" lon="12.1491567"><ele>4.2</ele><time>2026-03-28T14:21:23.645Z</time></trkpt><trkpt lat="44.351035" lon="12.1492633"><ele>4.4</ele><time>2026-03-28T14:21:25.644Z</time></trkpt><trkpt lat="44.351115" lon="12.1493683"><ele>4.6</ele><time>2026-03-28T14:21:27.644Z</time></trkpt><trkpt lat="44.3511917" lon="12.149475"><ele>4.8</ele><time>2026-03-28T14:21:29.645Z</time></trkpt><trkpt lat="44.351265" lon="12.1495867"><ele>5.0</ele><time>2026-03-28T14:21:31.645Z</time></trkpt><trkpt lat="44.35134" lon="12.149695"><ele>5.0</ele><time>2026-03-28T14:21:33.645Z</time></trkpt><trkpt lat="44.3514133" lon="12.14979"><ele>5.0</ele><time>2026-03-28T14:21:35.645Z</time></trkpt><trkpt lat="44.3514883" lon="12.1498933"><ele>5.0</ele><time>2026-03-28T14:21:37.645Z</time></trkpt><trkpt lat="44.3515683" lon="12.1500083"><ele>5.0</ele><time>2026-03-28T14:21:39.644Z</time></trkpt><trkpt lat="44.35165" lon="12.1501183"><ele>5.0</ele><time>2026-03-28T14:21:41.644Z</time></trkpt><trkpt lat="44.3517283" lon="12.1502283"><ele>5.0</ele><time>2026-03-28T14:21:43.644Z</time></trkpt><trkpt lat="44.3518067" lon="12.1503333"><ele>5.0</ele><time>2026-03-28T14:21:45.644Z</time></trkpt><trkpt lat="44.35189" lon="12.1504483"><ele>5.0</ele><time>2026-03-28T14:21:47.644Z</time></trkpt><trkpt lat="44.3519733" lon="12.150565"><ele>5.0</ele><time>2026-03-28T14:21:49.644Z</time></trkpt><trkpt lat="44.3520533" lon="12.1506733"><ele>5.0</ele><time>2026-03-28T14:21:51.644Z</time></trkpt><trkpt lat="44.3521333" lon="12.15078"><ele>5.0</ele><time>2026-03-28T14:21:53.644Z</time></trkpt><trkpt lat="44.352215" lon="12.150885"><ele>5.0</ele><time>2026-03-28T14:21:55.644Z</time></trkpt><trkpt lat="44.3522933" lon="12.15099"><ele>5.0</ele><time>2026-03-28T14:21:57.644Z</time></trkpt><trkpt lat="44.3523683" lon="12.1510933"><ele>5.0</ele><time>2026-03-28T14:21:59.645Z</time></trkpt><trkpt lat="44.3524417" lon="12.151195"><ele>5.0</ele><time>2026-03-28T14:22:01.644Z</time></trkpt><trkpt lat="44.3525183" lon="12.1512967"><ele>5.0</ele><time>2026-03-28T14:22:03.644Z</time></trkpt><trkpt lat="44.3525967" lon="12.1514033"><ele>5.0</ele><time>2026-03-28T14:22:05.644Z</time></trkpt><trkpt lat="44.3526767" lon="12.151515"><ele>5.0</ele><time>2026-03-28T14:22:07.644Z</time></trkpt><trkpt lat="44.35276" lon="12.15162"><ele>5.0</ele><time>2026-03-28T14:22:09.644Z</time></trkpt><trkpt lat="44.35284" lon="12.1517133"><ele>4.75</ele><time>2026-03-28T14:22:11.645Z</time></trkpt><trkpt lat="44.3529183" lon="12.1518067"><ele>4.5</ele><time>2026-03-28T14:22:13.645Z</time></trkpt><trkpt lat="44.3530083" lon="12.1519167"><ele>4.25</ele><time>2026-03-28T14:22:15.645Z</time></trkpt><trkpt lat="44.3530983" lon="12.15203"><ele>4.0</ele><time>2026-03-28T14:22:17.644Z</time></trkpt><trkpt lat="44.3531867" lon="12.152135"><ele>4.0</ele><time>2026-03-28T14:22:19.644Z</time></trkpt><trkpt lat="44.353275" lon="12.1522483"><ele>4.0</ele><time>2026-03-28T14:22:21.644Z</time></trkpt><trkpt lat="44.353365" lon="12.1523567"><ele>4.0</ele><time>2026-03-28T14:22:23.644Z</time></trkpt><trkpt lat="44.3534533" lon="12.1524583"><ele>4.0</ele><time>2026-03-28T14:22:25.644Z</time></trkpt><trkpt lat="44.3535383" lon="12.1525583"><ele>4.0</ele><time>2026-03-28T14:22:27.644Z</time></trkpt><trkpt lat="44.3536283" lon="12.152665"><ele>4.0</ele><time>2026-03-28T14:22:29.645Z</time></trkpt><trkpt lat="44.35372" lon="12.1527633"><ele>4.0</ele><time>2026-03-28T14:22:31.644Z</time></trkpt><trkpt lat="44.35381" lon="12.15287"><ele>4.0</ele><time>2026-03-28T14:22:33.644Z</time></trkpt><trkpt lat="44.3539033" lon="12.152975"><ele>4.0</ele><time>2026-03-28T14:22:35.645Z</time></trkpt><trkpt lat="44.353995" lon="12.1530717"><ele>4.0</ele><time>2026-03-28T14:22:37.644Z</time></trkpt><trkpt lat="44.35408" lon="12.1531767"><ele>4.0</ele><time>2026-03-28T14:22:39.644Z</time></trkpt><trkpt lat="44.3541667" lon="12.1532767"><ele>4.0</ele><time>2026-03-28T14:22:41.645Z</time></trkpt><trkpt lat="44.354255" lon="12.1533817"><ele>4.0</ele><time>2026-03-28T14:22:43.644Z</time></trkpt><trkpt lat="44.3543433" lon="12.1534767"><ele>4.0</ele><time>2026-03-28T14:22:45.644Z</time></trkpt><trkpt lat="44.354435" lon="12.1535917"><ele>4.0</ele><time>2026-03-28T14:22:47.645Z</time></trkpt><trkpt lat="44.3545267" lon="12.1536983"><ele>4.0</ele><time>2026-03-28T14:22:49.645Z</time></trkpt><trkpt lat="44.3546167" lon="12.1538033"><ele>4.0</ele><time>2026-03-28T14:22:51.644Z</time></trkpt><trkpt lat="44.3547017" lon="12.1539133"><ele>4.0</ele><time>2026-03-28T14:22:53.644Z</time></trkpt><trkpt lat="44.354785" lon="12.15403"><ele>4.0</ele><time>2026-03-28T14:22:55.644Z</time></trkpt><trkpt lat="44.35483" lon="12.1540933"><ele>4.0</ele><time>2026-03-28T14:22:56.644Z</time></trkpt><trkpt lat="44.3548717" lon="12.15416"><ele>4.0</ele><time>2026-03-28T14:22:57.644Z</time></trkpt><trkpt lat="44.3549517" lon="12.1542783"><ele>4.0</ele><time>2026-03-28T14:22:59.644Z</time></trkpt><trkpt lat="44.3550317" lon="12.15439"><ele>4.0</ele><time>2026-03-28T14:23:01.645Z</time></trkpt><trkpt lat="44.3551117" lon="12.1545117"><ele>4.0</ele><time>2026-03-28T14:23:03.645Z</time></trkpt><trkpt lat="44.3551983" lon="12.1546367"><ele>4.0</ele><time>2026-03-28T14:23:05.644Z</time></trkpt><trkpt lat="44.35526" lon="12.15475"><ele>4.2</ele><time>2026-03-28T14:23:07.644Z</time></trkpt><trkpt lat="44.3553367" lon="12.1548783"><ele>4.4</ele><time>2026-03-28T14:23:09.644Z</time></trkpt><trkpt lat="44.35542" lon="12.1550017"><ele>4.6</ele><time>2026-03-28T14:23:11.644Z</time></trkpt><trkpt lat="44.3555033" lon="12.1551233"><ele>4.8</ele><time>2026-03-28T14:23:13.644Z</time></trkpt><trkpt lat="44.3555483" lon="12.1551883"><ele>5.0</ele><time>2026-03-28T14:23:14.645Z</time></trkpt><trkpt lat="44.3556333" lon="12.1553233"><ele>5.0</ele><time>2026-03-28T14:23:16.644Z</time></trkpt><trkpt lat="44.355675" lon="12.15539"><ele>5.0</ele><time>2026-03-28T14:23:17.644Z</time></trkpt><trkpt lat="44.3557167" lon="12.1554617"><ele>5.0</ele><time>2026-03-28T14:23:18.645Z</time></trkpt><trkpt lat="44.3557983" lon="12.155595"><ele>5.0</ele><time>2026-03-28T14:23:20.644Z</time></trkpt><trkpt lat="44.3558417" lon="12.15566"><ele>5.0</ele><time>2026-03-28T14:23:21.644Z</time></trkpt><trkpt lat="44.3558867" lon="12.155725"><ele>5.0</ele><time>2026-03-28T14:23:22.645Z</time></trkpt><trkpt lat="44.35597" lon="12.15585"><ele>4.5</ele><time>2026-03-28T14:23:24.645Z</time></trkpt><trkpt lat="44.3560483" lon="12.1559683"><ele>4.0</ele><time>2026-03-28T14:23:26.644Z</time></trkpt><trkpt lat="44.3561267" lon="12.1560933"><ele>3.5</ele><time>2026-03-28T14:23:28.644Z</time></trkpt><trkpt lat="44.356205" lon="12.1562233"><ele>3.0</ele><time>2026-03-28T14:23:30.644Z</time></trkpt><trkpt lat="44.3562883" lon="12.1563517"><ele>3.0</ele><time>2026-03-28T14:23:32.644Z</time></trkpt><trkpt lat="44.3563717" lon="12.1564683"><ele>3.0</ele><time>2026-03-28T14:23:34.644Z</time></trkpt><trkpt lat="44.3564633" lon="12.15658"><ele>3.0</ele><time>2026-03-28T14:23:36.644Z</time></trkpt><trkpt lat="44.3565533" lon="12.1566983"><ele>3.0</ele><time>2026-03-28T14:23:38.645Z</time></trkpt><trkpt lat="44.35665" lon="12.1568017"><ele>3.0</ele><time>2026-03-28T14:23:40.644Z</time></trkpt><trkpt lat="44.3567017" lon="12.1568567"><ele>3.0</ele><time>2026-03-28T14:23:41.644Z</time></trkpt><trkpt lat="44.356755" lon="12.1569133"><ele>3.0</ele><time>2026-03-28T14:23:42.644Z</time></trkpt><trkpt lat="44.3568483" lon="12.1570133"><ele>3.0</ele><time>2026-03-28T14:23:44.645Z</time></trkpt><trkpt lat="44.3569467" lon="12.1571083"><ele>3.0</ele><time>2026-03-28T14:23:46.645Z</time></trkpt><trkpt lat="44.3570383" lon="12.1572"><ele>3.0</ele><time>2026-03-28T14:23:48.645Z</time></trkpt><trkpt lat="44.3571333" lon="12.1573117"><ele>3.0</ele><time>2026-03-28T14:23:50.645Z</time></trkpt><trkpt lat="44.3572333" lon="12.1574217"><ele>3.0</ele><time>2026-03-28T14:23:52.644Z</time></trkpt><trkpt lat="44.3573317" lon="12.1575317"><ele>3.0</ele><time>2026-03-28T14:23:54.644Z</time></trkpt><trkpt lat="44.3573833" lon="12.1575933"><ele>3.0</ele><time>2026-03-28T14:23:55.645Z</time></trkpt><trkpt lat="44.35748" lon="12.1577017"><ele>3.0</ele><time>2026-03-28T14:23:57.644Z</time></trkpt><trkpt lat="44.3575317" lon="12.1577567"><ele>3.0</ele><time>2026-03-28T14:23:58.644Z</time></trkpt><trkpt lat="44.3575817" lon="12.1578117"><ele>3.0</ele><time>2026-03-28T14:23:59.644Z</time></trkpt><trkpt lat="44.3576333" lon="12.1578633"><ele>3.0</ele><time>2026-03-28T14:24:00.645Z</time></trkpt><trkpt lat="44.357685" lon="12.1579233"><ele>3.0</ele><time>2026-03-28T14:24:01.644Z</time></trkpt><trkpt lat="44.35778" lon="12.1580233"><ele>3.0</ele><time>2026-03-28T14:24:03.644Z</time></trkpt><trkpt lat="44.35788" lon="12.1581317"><ele>3.0</ele><time>2026-03-28T14:24:05.644Z</time></trkpt><trkpt lat="44.35793" lon="12.1581867"><ele>3.0</ele><time>2026-03-28T14:24:06.644Z</time></trkpt><trkpt lat="44.3579817" lon="12.15824"><ele>3.0</ele><time>2026-03-28T14:24:07.644Z</time></trkpt><trkpt lat="44.35803" lon="12.1583"><ele>3.0</ele><time>2026-03-28T14:24:08.644Z</time></trkpt><trkpt lat="44.3580783" lon="12.1583567"><ele>3.0</ele><time>2026-03-28T14:24:09.645Z</time></trkpt><trkpt lat="44.3581667" lon="12.1584617"><ele>3.0</ele><time>2026-03-28T14:24:11.644Z</time></trkpt><trkpt lat="44.35826" lon="12.1585567"><ele>3.5</ele><time>2026-03-28T14:24:13.645Z</time></trkpt><trkpt lat="44.35835" lon="12.15866"><ele>4.0</ele><time>2026-03-28T14:24:15.644Z</time></trkpt><trkpt lat="44.35844" lon="12.1587717"><ele>4.5</ele><time>2026-03-28T14:24:17.645Z</time></trkpt><trkpt lat="44.358525" lon="12.158875"><ele>5.0</ele><time>2026-03-28T14:24:19.644Z</time></trkpt><trkpt lat="44.3586083" lon="12.1589817"><ele>5.0</ele><time>2026-03-28T14:24:21.644Z</time></trkpt><trkpt lat="44.35869" lon="12.1590867"><ele>5.0</ele><time>2026-03-28T14:24:23.644Z</time></trkpt><trkpt lat="44.3587767" lon="12.1592033"><ele>5.0</ele><time>2026-03-28T14:24:25.644Z</time></trkpt><trkpt lat="44.3588617" lon="12.1593183"><ele>5.0</ele><time>2026-03-28T14:24:27.644Z</time></trkpt><trkpt lat="44.3589417" lon="12.15943"><ele>5.0</ele><time>2026-03-28T14:24:29.644Z</time></trkpt><trkpt lat="44.3590233" lon="12.1595367"><ele>5.0</ele><time>2026-03-28T14:24:31.644Z</time></trkpt><trkpt lat="44.3591067" lon="12.15965"><ele>5.0</ele><time>2026-03-28T14:24:33.644Z</time></trkpt><trkpt lat="44.3591933" lon="12.1597667"><ele>5.0</ele><time>2026-03-28T14:24:35.644Z</time></trkpt><trkpt lat="44.35924" lon="12.1598267"><ele>5.0</ele><time>2026-03-28T14:24:36.644Z</time></trkpt><trkpt lat="44.3592883" lon="12.1598867"><ele>4.5</ele><time>2026-03-28T14:24:37.644Z</time></trkpt><trkpt lat="44.35938" lon="12.1600067"><ele>4.0</ele><time>2026-03-28T14:24:39.645Z</time></trkpt><trkpt lat="44.3594617" lon="12.16012"><ele>3.5</ele><time>2026-03-28T14:24:41.644Z</time></trkpt><trkpt lat="44.35954" lon="12.16023"><ele>3.0</ele><time>2026-03-28T14:24:43.644Z</time></trkpt><trkpt lat="44.3596117" lon="12.1603483"><ele>3.0</ele><time>2026-03-28T14:24:45.644Z</time></trkpt><trkpt lat="44.3596883" lon="12.1604667"><ele>3.0</ele><time>2026-03-28T14:24:47.644Z</time></trkpt><trkpt lat="44.35976" lon="12.1605917"><ele>3.0</ele><time>2026-03-28T14:24:49.644Z</time></trkpt><trkpt lat="44.3598383" lon="12.16071"><ele>3.0</ele><time>2026-03-28T14:24:51.644Z</time></trkpt><trkpt lat="44.35992" lon="12.1608367"><ele>3.0</ele><time>2026-03-28T14:24:53.645Z</time></trkpt><trkpt lat="44.359995" lon="12.160955"><ele>3.0</ele><time>2026-03-28T14:24:55.644Z</time></trkpt><trkpt lat="44.3600733" lon="12.16107"><ele>3.0</ele><time>2026-03-28T14:24:57.644Z</time></trkpt><trkpt lat="44.3601417" lon="12.1611817"><ele>3.0</ele><time>2026-03-28T14:24:59.644Z</time></trkpt><trkpt lat="44.3602167" lon="12.1612983"><ele>3.0</ele><time>2026-03-28T14:25:01.644Z</time></trkpt><trkpt lat="44.360295" lon="12.16142"><ele>3.0</ele><time>2026-03-28T14:25:03.644Z</time></trkpt><trkpt lat="44.360375" lon="12.1615467"><ele>3.0</ele><time>2026-03-28T14:25:05.644Z</time></trkpt><trkpt lat="44.3604533" lon="12.16168"><ele>3.0</ele><time>2026-03-28T14:25:07.644Z</time></trkpt><trkpt lat="44.360495" lon="12.1617483"><ele>3.0</ele><time>2026-03-28T14:25:08.644Z</time></trkpt><trkpt lat="44.3605683" lon="12.1618833"><ele>3.0</ele><time>2026-03-28T14:25:10.644Z</time></trkpt><trkpt lat="44.360635" lon="12.1620117"><ele>3.0</ele><time>2026-03-28T14:25:12.644Z</time></trkpt><trkpt lat="44.3607067" lon="12.1621367"><ele>3.0</ele><time>2026-03-28T14:25:14.644Z</time></trkpt><trkpt lat="44.3607817" lon="12.162265"><ele>3.0</ele><time>2026-03-28T14:25:16.645Z</time></trkpt><trkpt lat="44.360855" lon="12.1623983"><ele>3.0</ele><time>2026-03-28T14:25:18.644Z</time></trkpt><trkpt lat="44.360895" lon="12.1624667"><ele>3.0</ele><time>2026-03-28T14:25:19.645Z</time></trkpt><trkpt lat="44.3609333" lon="12.1625383"><ele>3.25</ele><time>2026-03-28T14:25:20.644Z</time></trkpt><trkpt lat="44.3610083" lon="12.1626717"><ele>3.5</ele><time>2026-03-28T14:25:22.644Z</time></trkpt><trkpt lat="44.3610883" lon="12.1628033"><ele>3.75</ele><time>2026-03-28T14:25:24.645Z</time></trkpt><trkpt lat="44.3611667" lon="12.1629283"><ele>4.0</ele><time>2026-03-28T14:25:26.644Z</time></trkpt><trkpt lat="44.361245" lon="12.1630517"><ele>4.0</ele><time>2026-03-28T14:25:28.644Z</time></trkpt><trkpt lat="44.3613283" lon="12.1631717"><ele>4.0</ele><time>2026-03-28T14:25:30.645Z</time></trkpt><trkpt lat="44.3614117" lon="12.16329"><ele>4.0</ele><time>2026-03-28T14:25:32.645Z</time></trkpt><trkpt lat="44.3615017" lon="12.1634167"><ele>4.0</ele><time>2026-03-28T14:25:34.644Z</time></trkpt><trkpt lat="44.36155" lon="12.1634833"><ele>4.0</ele><time>2026-03-28T14:25:35.644Z</time></trkpt><trkpt lat="44.3616" lon="12.1635483"><ele>4.0</ele><time>2026-03-28T14:25:36.645Z</time></trkpt><trkpt lat="44.361645" lon="12.1636117"><ele>4.0</ele><time>2026-03-28T14:25:37.644Z</time></trkpt><trkpt lat="44.3617267" lon="12.1637333"><ele>4.0</ele><time>2026-03-28T14:25:39.644Z</time></trkpt><trkpt lat="44.3618067" lon="12.163855"><ele>4.0</ele><time>2026-03-28T14:25:41.644Z</time></trkpt><trkpt lat="44.36188" lon="12.1639767"><ele>4.0</ele><time>2026-03-28T14:25:43.644Z</time></trkpt><trkpt lat="44.3619567" lon="12.164095"><ele>4.0</ele><time>2026-03-28T14:25:45.644Z</time></trkpt><trkpt lat="44.3620367" lon="12.1642117"><ele>4.0</ele><time>2026-03-28T14:25:47.644Z</time></trkpt><trkpt lat="44.3621133" lon="12.1643267"><ele>4.0</ele><time>2026-03-28T14:25:49.644Z</time></trkpt><trkpt lat="44.3621917" lon="12.16446"><ele>4.0</ele><time>2026-03-28T14:25:51.645Z</time></trkpt><trkpt lat="44.362235" lon="12.1645267"><ele>4.0</ele><time>2026-03-28T14:25:52.644Z</time></trkpt><trkpt lat="44.3623133" lon="12.1646533"><ele>4.0</ele><time>2026-03-28T14:25:54.644Z</time></trkpt><trkpt lat="44.3623533" lon="12.1647217"><ele>4.0</ele><time>2026-03-28T14:25:55.645Z</time></trkpt><trkpt lat="44.3624317" lon="12.1648517"><ele>4.0</ele><time>2026-03-28T14:25:57.644Z</time></trkpt><trkpt lat="44.3625067" lon="12.1649717"><ele>4.0</ele><time>2026-03-28T14:25:59.644Z</time></trkpt><trkpt lat="44.3625883" lon="12.1650883"><ele>4.0</ele><time>2026-03-28T14:26:01.644Z</time></trkpt><trkpt lat="44.36263" lon="12.165155"><ele>3.9999999999999996</ele><time>2026-03-28T14:26:02.644Z</time></trkpt><trkpt lat="44.362705" lon="12.1652733"><ele>4.0</ele><time>2026-03-28T14:26:04.644Z</time></trkpt><trkpt lat="44.3627467" lon="12.16534"><ele>4.0</ele><time>2026-03-28T14:26:05.645Z</time></trkpt><trkpt lat="44.36279" lon="12.16541"><ele>4.0</ele><time>2026-03-28T14:26:06.645Z</time></trkpt><trkpt lat="44.3628733" lon="12.1655483"><ele>3.9999999999999996</ele><time>2026-03-28T14:26:08.644Z</time></trkpt><trkpt lat="44.362915" lon="12.165615"><ele>4.0</ele><time>2026-03-28T14:26:09.645Z</time></trkpt><trkpt lat="44.3629583" lon="12.16568"><ele>4.0</ele><time>2026-03-28T14:26:10.644Z</time></trkpt><trkpt lat="44.3630383" lon="12.16581"><ele>4.0</ele><time>2026-03-28T14:26:12.644Z</time></trkpt><trkpt lat="44.3631217" lon="12.16594"><ele>4.0</ele><time>2026-03-28T14:26:14.645Z</time></trkpt><trkpt lat="44.363205" lon="12.1660667"><ele>4.0</ele><time>2026-03-28T14:26:16.644Z</time></trkpt><trkpt lat="44.36329" lon="12.1661917"><ele>4.0</ele><time>2026-03-28T14:26:18.644Z</time></trkpt><trkpt lat="44.363375" lon="12.166315"><ele>4.0</ele><time>2026-03-28T14:26:20.644Z</time></trkpt><trkpt lat="44.36346" lon="12.166435"><ele>4.0</ele><time>2026-03-28T14:26:22.644Z</time></trkpt><trkpt lat="44.363545" lon="12.1665583"><ele>4.0</ele><time>2026-03-28T14:26:24.644Z</time></trkpt><trkpt lat="44.3636267" lon="12.166675"><ele>4.0</ele><time>2026-03-28T14:26:26.644Z</time></trkpt><trkpt lat="44.3637117" lon="12.1667983"><ele>4.0</ele><time>2026-03-28T14:26:28.644Z</time></trkpt><trkpt lat="44.3637567" lon="12.1668633"><ele>4.0</ele><time>2026-03-28T14:26:29.644Z</time></trkpt><trkpt lat="44.36384" lon="12.166985"><ele>4.0</ele><time>2026-03-28T14:26:31.644Z</time></trkpt><trkpt lat="44.363925" lon="12.1671133"><ele>4.0</ele><time>2026-03-28T14:26:33.644Z</time></trkpt><trkpt lat="44.363975" lon="12.1671833"><ele>4.0</ele><time>2026-03-28T14:26:34.644Z</time></trkpt><trkpt lat="44.3640217" lon="12.16725"><ele>3.9999999999999996</ele><time>2026-03-28T14:26:35.644Z</time></trkpt><trkpt lat="44.364065" lon="12.167315"><ele>4.0</ele><time>2026-03-28T14:26:36.645Z</time></trkpt><trkpt lat="44.364115" lon="12.1673833"><ele>4.0</ele><time>2026-03-28T14:26:37.644Z</time></trkpt><trkpt lat="44.3641617" lon="12.1674467"><ele>3.9999999999999996</ele><time>2026-03-28T14:26:38.645Z</time></trkpt><trkpt lat="44.36421" lon="12.16751"><ele>4.0</ele><time>2026-03-28T14:26:39.645Z</time></trkpt><trkpt lat="44.36426" lon="12.1675733"><ele>4.0</ele><time>2026-03-28T14:26:40.644Z</time></trkpt><trkpt lat="44.36435" lon="12.1676883"><ele>4.0</ele><time>2026-03-28T14:26:42.644Z</time></trkpt><trkpt lat="44.3644383" lon="12.1677967"><ele>4.0</ele><time>2026-03-28T14:26:44.644Z</time></trkpt><trkpt lat="44.3644817" lon="12.1678617"><ele>4.0</ele><time>2026-03-28T14:26:45.644Z</time></trkpt><trkpt lat="44.3645683" lon="12.1679733"><ele>4.0</ele><time>2026-03-28T14:26:47.644Z</time></trkpt><trkpt lat="44.3646533" lon="12.1680933"><ele>4.0</ele><time>2026-03-28T14:26:49.644Z</time></trkpt><trkpt lat="44.3647033" lon="12.1681567"><ele>4.2</ele><time>2026-03-28T14:26:50.645Z</time></trkpt><trkpt lat="44.36475" lon="12.1682167"><ele>4.4</ele><time>2026-03-28T14:26:51.644Z</time></trkpt><trkpt lat="44.3648383" lon="12.1683217"><ele>4.6</ele><time>2026-03-28T14:26:53.644Z</time></trkpt><trkpt lat="44.3649217" lon="12.16843"><ele>4.8</ele><time>2026-03-28T14:26:55.644Z</time></trkpt><trkpt lat="44.3650017" lon="12.1685433"><ele>5.0</ele><time>2026-03-28T14:26:57.644Z</time></trkpt><trkpt lat="44.3650833" lon="12.1686367"><ele>5.0</ele><time>2026-03-28T14:26:59.645Z</time></trkpt><trkpt lat="44.3651633" lon="12.1687467"><ele>5.0</ele><time>2026-03-28T14:27:01.644Z</time></trkpt><trkpt lat="44.3652383" lon="12.1688433"><ele>5.0</ele><time>2026-03-28T14:27:03.644Z</time></trkpt><trkpt lat="44.3653217" lon="12.1689433"><ele>5.0</ele><time>2026-03-28T14:27:05.645Z</time></trkpt><trkpt lat="44.3653883" lon="12.1690433"><ele>5.0</ele><time>2026-03-28T14:27:07.645Z</time></trkpt><trkpt lat="44.365455" lon="12.169145"><ele>4.8</ele><time>2026-03-28T14:27:09.645Z</time></trkpt><trkpt lat="44.3655283" lon="12.1692567"><ele>4.6</ele><time>2026-03-28T14:27:11.644Z</time></trkpt><trkpt lat="44.3656033" lon="12.16935"><ele>4.4</ele><time>2026-03-28T14:27:13.644Z</time></trkpt><trkpt lat="44.36568" lon="12.1694533"><ele>4.2</ele><time>2026-03-28T14:27:15.644Z</time></trkpt><trkpt lat="44.3657617" lon="12.1695617"><ele>4.0</ele><time>2026-03-28T14:27:17.645Z</time></trkpt><trkpt lat="44.3658383" lon="12.1696633"><ele>4.0</ele><time>2026-03-28T14:27:19.644Z</time></trkpt><trkpt lat="44.36592" lon="12.1697733"><ele>4.0</ele><time>2026-03-28T14:27:21.644Z</time></trkpt><trkpt lat="44.366" lon="12.1698933"><ele>4.0</ele><time>2026-03-28T14:27:23.644Z</time></trkpt><trkpt lat="44.366045" lon="12.1699567"><ele>4.0</ele><time>2026-03-28T14:27:24.644Z</time></trkpt><trkpt lat="44.3661217" lon="12.17007"><ele>4.0</ele><time>2026-03-28T14:27:26.645Z</time></trkpt><trkpt lat="44.3662067" lon="12.1701833"><ele>4.0</ele><time>2026-03-28T14:27:28.645Z</time></trkpt><trkpt lat="44.36628" lon="12.1702883"><ele>4.0</ele><time>2026-03-28T14:27:30.644Z</time></trkpt><trkpt lat="44.3663583" lon="12.1704067"><ele>4.0</ele><time>2026-03-28T14:27:32.644Z</time></trkpt><trkpt lat="44.366425" lon="12.1705183"><ele>4.0</ele><time>2026-03-28T14:27:34.644Z</time></trkpt><trkpt lat="44.3664917" lon="12.17064"><ele>4.0</ele><time>2026-03-28T14:27:36.644Z</time></trkpt><trkpt lat="44.36656" lon="12.1707533"><ele>4.25</ele><time>2026-03-28T14:27:38.644Z</time></trkpt><trkpt lat="44.36663" lon="12.1708833"><ele>4.5</ele><time>2026-03-28T14:27:40.644Z</time></trkpt><trkpt lat="44.3667067" lon="12.1710083"><ele>4.75</ele><time>2026-03-28T14:27:42.644Z</time></trkpt><trkpt lat="44.3667767" lon="12.17114"><ele>5.0</ele><time>2026-03-28T14:27:44.644Z</time></trkpt><trkpt lat="44.366845" lon="12.17127"><ele>5.0</ele><time>2026-03-28T14:27:46.644Z</time></trkpt><trkpt lat="44.3669083" lon="12.1713917"><ele>5.0</ele><time>2026-03-28T14:27:48.644Z</time></trkpt><trkpt lat="44.3669817" lon="12.1715283"><ele>5.0</ele><time>2026-03-28T14:27:50.645Z</time></trkpt><trkpt lat="44.3670517" lon="12.1716517"><ele>5.0</ele><time>2026-03-28T14:27:52.645Z</time></trkpt><trkpt lat="44.3671233" lon="12.1717783"><ele>4.75</ele><time>2026-03-28T14:27:54.645Z</time></trkpt><trkpt lat="44.367195" lon="12.171905"><ele>4.5</ele><time>2026-03-28T14:27:56.644Z</time></trkpt><trkpt lat="44.36727" lon="12.1720317"><ele>4.25</ele><time>2026-03-28T14:27:58.644Z</time></trkpt><trkpt lat="44.3673417" lon="12.1721567"><ele>4.0</ele><time>2026-03-28T14:28:00.644Z</time></trkpt><trkpt lat="44.367405" lon="12.1722783"><ele>4.0</ele><time>2026-03-28T14:28:02.644Z</time></trkpt><trkpt lat="44.3674683" lon="12.1724083"><ele>4.0</ele><time>2026-03-28T14:28:04.644Z</time></trkpt><trkpt lat="44.3675217" lon="12.1725333"><ele>4.0</ele><time>2026-03-28T14:28:06.645Z</time></trkpt><trkpt lat="44.3675817" lon="12.1726583"><ele>4.0</ele><time>2026-03-28T14:28:08.644Z</time></trkpt><trkpt lat="44.367645" lon="12.1727717"><ele>4.0</ele><time>2026-03-28T14:28:10.644Z</time></trkpt><trkpt lat="44.3677033" lon="12.1728717"><ele>4.0</ele><time>2026-03-28T14:28:12.644Z</time></trkpt><trkpt lat="44.3677583" lon="12.172975"><ele>4.0</ele><time>2026-03-28T14:28:14.644Z</time></trkpt><trkpt lat="44.367845" lon="12.173095"><ele>4.0</ele><time>2026-03-28T14:28:16.644Z</time></trkpt><trkpt lat="44.3679283" lon="12.173195"><ele>4.0</ele><time>2026-03-28T14:28:18.644Z</time></trkpt><trkpt lat="44.368015" lon="12.1732983"><ele>4.0</ele><time>2026-03-28T14:28:20.645Z</time></trkpt><trkpt lat="44.3681067" lon="12.1734017"><ele>3.8000000000000003</ele><time>2026-03-28T14:28:22.644Z</time></trkpt><trkpt lat="44.3681583" lon="12.1734567"><ele>3.6000000000000005</ele><time>2026-03-28T14:28:23.644Z</time></trkpt><trkpt lat="44.3682433" lon="12.1735533"><ele>3.4</ele><time>2026-03-28T14:28:25.644Z</time></trkpt><trkpt lat="44.3683267" lon="12.1736517"><ele>3.2</ele><time>2026-03-28T14:28:27.644Z</time></trkpt><trkpt lat="44.3684083" lon="12.17375"><ele>3.0</ele><time>2026-03-28T14:28:29.644Z</time></trkpt><trkpt lat="44.3684883" lon="12.17386"><ele>3.0</ele><time>2026-03-28T14:28:31.645Z</time></trkpt><trkpt lat="44.3685667" lon="12.1739667"><ele>3.0</ele><time>2026-03-28T14:28:33.644Z</time></trkpt><trkpt lat="44.3686517" lon="12.174095"><ele>3.0</ele><time>2026-03-28T14:28:35.644Z</time></trkpt><trkpt lat="44.3687317" lon="12.1742167"><ele>3.0</ele><time>2026-03-28T14:28:37.644Z</time></trkpt><trkpt lat="44.3688033" lon="12.1743367"><ele>2.8</ele><time>2026-03-28T14:28:39.644Z</time></trkpt><trkpt lat="44.368875" lon="12.174455"><ele>2.5999999999999996</ele><time>2026-03-28T14:28:41.644Z</time></trkpt><trkpt lat="44.368945" lon="12.1745717"><ele>2.4000000000000004</ele><time>2026-03-28T14:28:43.644Z</time></trkpt><trkpt lat="44.3690117" lon="12.1746833"><ele>2.2</ele><time>2026-03-28T14:28:45.644Z</time></trkpt><trkpt lat="44.3690733" lon="12.1747783"><ele>2.0</ele><time>2026-03-28T14:28:47.644Z</time></trkpt><trkpt lat="44.3691317" lon="12.1748767"><ele>2.0</ele><time>2026-03-28T14:28:49.644Z</time></trkpt><trkpt lat="44.3691867" lon="12.1749817"><ele>2.0</ele><time>2026-03-28T14:28:51.644Z</time></trkpt><trkpt lat="44.36925" lon="12.1750883"><ele>2.0</ele><time>2026-03-28T14:28:53.644Z</time></trkpt><trkpt lat="44.3693183" lon="12.1752"><ele>2.0</ele><time>2026-03-28T14:28:55.644Z</time></trkpt><trkpt lat="44.3693867" lon="12.1753133"><ele>2.0</ele><time>2026-03-28T14:28:57.644Z</time></trkpt><trkpt lat="44.3694583" lon="12.1754283"><ele>2.0</ele><time>2026-03-28T14:28:59.644Z</time></trkpt><trkpt lat="44.36952" lon="12.1755317"><ele>2.0</ele><time>2026-03-28T14:29:01.644Z</time></trkpt><trkpt lat="44.3695783" lon="12.1756383"><ele>2.0</ele><time>2026-03-28T14:29:03.644Z</time></trkpt><trkpt lat="44.3696317" lon="12.1757367"><ele>2.0</ele><time>2026-03-28T14:29:05.645Z</time></trkpt><trkpt lat="44.3696883" lon="12.1758517"><ele>2.0</ele><time>2026-03-28T14:29:07.644Z</time></trkpt><trkpt lat="44.3697417" lon="12.175955"><ele>2.2</ele><time>2026-03-28T14:29:09.645Z</time></trkpt><trkpt lat="44.3698017" lon="12.1760583"><ele>2.4000000000000004</ele><time>2026-03-28T14:29:11.645Z</time></trkpt><trkpt lat="44.3698617" lon="12.1761667"><ele>2.5999999999999996</ele><time>2026-03-28T14:29:13.644Z</time></trkpt><trkpt lat="44.3699267" lon="12.1762783"><ele>2.8</ele><time>2026-03-28T14:29:15.644Z</time></trkpt><trkpt lat="44.36999" lon="12.176395"><ele>3.0</ele><time>2026-03-28T14:29:17.644Z</time></trkpt><trkpt lat="44.370055" lon="12.1765117"><ele>2.8</ele><time>2026-03-28T14:29:19.644Z</time></trkpt><trkpt lat="44.3701117" lon="12.1766233"><ele>2.5999999999999996</ele><time>2026-03-28T14:29:21.644Z</time></trkpt><trkpt lat="44.370185" lon="12.176745"><ele>2.4000000000000004</ele><time>2026-03-28T14:29:23.644Z</time></trkpt><trkpt lat="44.3702533" lon="12.1768617"><ele>2.2</ele><time>2026-03-28T14:29:25.644Z</time></trkpt><trkpt lat="44.3703267" lon="12.17698"><ele>2.0</ele><time>2026-03-28T14:29:27.645Z</time></trkpt><trkpt lat="44.3703967" lon="12.1770917"><ele>2.0</ele><time>2026-03-28T14:29:29.645Z</time></trkpt><trkpt lat="44.3704633" lon="12.1771967"><ele>2.0</ele><time>2026-03-28T14:29:31.644Z</time></trkpt><trkpt lat="44.3705433" lon="12.1773183"><ele>2.0</ele><time>2026-03-28T14:29:33.644Z</time></trkpt><trkpt lat="44.370615" lon="12.17743"><ele>2.0</ele><time>2026-03-28T14:29:35.644Z</time></trkpt><trkpt lat="44.3706867" lon="12.1775433"><ele>2.0</ele><time>2026-03-28T14:29:37.644Z</time></trkpt><trkpt lat="44.3707567" lon="12.1776567"><ele>2.2</ele><time>2026-03-28T14:29:39.645Z</time></trkpt><trkpt lat="44.3708317" lon="12.177775"><ele>2.4000000000000004</ele><time>2026-03-28T14:29:41.644Z</time></trkpt><trkpt lat="44.370905" lon="12.1778833"><ele>2.5999999999999996</ele><time>2026-03-28T14:29:43.644Z</time></trkpt><trkpt lat="44.370975" lon="12.1779917"><ele>2.8</ele><time>2026-03-28T14:29:45.644Z</time></trkpt><trkpt lat="44.3710467" lon="12.1781017"><ele>3.0</ele><time>2026-03-28T14:29:47.645Z</time></trkpt><trkpt lat="44.3711167" lon="12.1782133"><ele>3.0</ele><time>2026-03-28T14:29:49.645Z</time></trkpt><trkpt lat="44.3711883" lon="12.178325"><ele>3.0</ele><time>2026-03-28T14:29:51.644Z</time></trkpt><trkpt lat="44.3712467" lon="12.17843"><ele>3.0</ele><time>2026-03-28T14:29:53.644Z</time></trkpt><trkpt lat="44.3713183" lon="12.1785433"><ele>3.0</ele><time>2026-03-28T14:29:55.644Z</time></trkpt><trkpt lat="44.3713817" lon="12.1786533"><ele>3.0</ele><time>2026-03-28T14:29:57.644Z</time></trkpt><trkpt lat="44.3714517" lon="12.178765"><ele>3.0</ele><time>2026-03-28T14:29:59.645Z</time></trkpt><trkpt lat="44.3715317" lon="12.1788883"><ele>3.0</ele><time>2026-03-28T14:30:01.644Z</time></trkpt><trkpt lat="44.371605" lon="12.1790017"><ele>3.0</ele><time>2026-03-28T14:30:03.644Z</time></trkpt><trkpt lat="44.3716717" lon="12.17911"><ele>3.0</ele><time>2026-03-28T14:30:05.644Z</time></trkpt><trkpt lat="44.3717433" lon="12.1792267"><ele>3.0</ele><time>2026-03-28T14:30:07.644Z</time></trkpt><trkpt lat="44.37181" lon="12.1793383"><ele>2.8</ele><time>2026-03-28T14:30:09.644Z</time></trkpt><trkpt lat="44.3718733" lon="12.179445"><ele>2.5999999999999996</ele><time>2026-03-28T14:30:11.644Z</time></trkpt><trkpt lat="44.3719367" lon="12.1795467"><ele>2.4000000000000004</ele><time>2026-03-28T14:30:13.644Z</time></trkpt><trkpt lat="44.372" lon="12.17966"><ele>2.2</ele><time>2026-03-28T14:30:15.644Z</time></trkpt><trkpt lat="44.372065" lon="12.179775"><ele>2.0</ele><time>2026-03-28T14:30:17.644Z</time></trkpt><trkpt lat="44.372125" lon="12.1798933"><ele>2.0</ele><time>2026-03-28T14:30:19.644Z</time></trkpt><trkpt lat="44.3721833" lon="12.1800117"><ele>2.0</ele><time>2026-03-28T14:30:21.645Z</time></trkpt><trkpt lat="44.3722467" lon="12.1801217"><ele>2.0</ele><time>2026-03-28T14:30:23.644Z</time></trkpt><trkpt lat="44.3723067" lon="12.1802383"><ele>2.0</ele><time>2026-03-28T14:30:25.644Z</time></trkpt><trkpt lat="44.3723683" lon="12.1803467"><ele>2.0</ele><time>2026-03-28T14:30:27.644Z</time></trkpt><trkpt lat="44.3724317" lon="12.1804467"><ele>2.0</ele><time>2026-03-28T14:30:29.645Z</time></trkpt><trkpt lat="44.3724983" lon="12.1805367"><ele>2.0</ele><time>2026-03-28T14:30:31.644Z</time></trkpt><trkpt lat="44.37257" lon="12.18063"><ele>2.0</ele><time>2026-03-28T14:30:33.644Z</time></trkpt><trkpt lat="44.3726383" lon="12.1807117"><ele>2.0</ele><time>2026-03-28T14:30:35.644Z</time></trkpt><trkpt lat="44.372715" lon="12.1808067"><ele>2.0</ele><time>2026-03-28T14:30:37.645Z</time></trkpt><trkpt lat="44.3727867" lon="12.1808967"><ele>2.0</ele><time>2026-03-28T14:30:39.644Z</time></trkpt><trkpt lat="44.3728667" lon="12.1809933"><ele>2.0</ele><time>2026-03-28T14:30:41.644Z</time></trkpt><trkpt lat="44.3729533" lon="12.1810917"><ele>2.0</ele><time>2026-03-28T14:30:43.644Z</time></trkpt><trkpt lat="44.3730283" lon="12.1811817"><ele>2.0</ele><time>2026-03-28T14:30:45.644Z</time></trkpt><trkpt lat="44.3731067" lon="12.18126"><ele>2.0</ele><time>2026-03-28T14:30:47.645Z</time></trkpt><trkpt lat="44.3731783" lon="12.1813467"><ele>2.0</ele><time>2026-03-28T14:30:49.644Z</time></trkpt><trkpt lat="44.373255" lon="12.1814433"><ele>2.0</ele><time>2026-03-28T14:30:51.644Z</time></trkpt><trkpt lat="44.3733367" lon="12.181535"><ele>2.0</ele><time>2026-03-28T14:30:53.644Z</time></trkpt><trkpt lat="44.3734133" lon="12.1816217"><ele>2.0</ele><time>2026-03-28T14:30:55.644Z</time></trkpt><trkpt lat="44.3735" lon="12.18172"><ele>2.0</ele><time>2026-03-28T14:30:57.644Z</time></trkpt><trkpt lat="44.3735883" lon="12.1818267"><ele>1.857142857142857</ele><time>2026-03-28T14:30:59.644Z</time></trkpt><trkpt lat="44.3736417" lon="12.18188"><ele>1.714285714285714</ele><time>2026-03-28T14:31:00.644Z</time></trkpt><trkpt lat="44.3736967" lon="12.1819367"><ele>1.5714285714285714</ele><time>2026-03-28T14:31:01.644Z</time></trkpt><trkpt lat="44.3737517" lon="12.1819967"><ele>1.4285714285714284</ele><time>2026-03-28T14:31:02.644Z</time></trkpt><trkpt lat="44.3738083" lon="12.182065"><ele>1.2857142857142856</ele><time>2026-03-28T14:31:03.644Z</time></trkpt><trkpt lat="44.37386" lon="12.1821317"><ele>1.1428571428571428</ele><time>2026-03-28T14:31:04.644Z</time></trkpt><trkpt lat="44.3739083" lon="12.182195"><ele>1.0</ele><time>2026-03-28T14:31:05.645Z</time></trkpt><trkpt lat="44.3739583" lon="12.1822633"><ele>1.6</ele><time>2026-03-28T14:31:06.644Z</time></trkpt><trkpt lat="44.3740083" lon="12.1823183"><ele>2.2</ele><time>2026-03-28T14:31:07.644Z</time></trkpt><trkpt lat="44.374105" lon="12.1824267"><ele>2.8000000000000003</ele><time>2026-03-28T14:31:09.644Z</time></trkpt><trkpt lat="44.3741933" lon="12.1825267"><ele>3.4000000000000004</ele><time>2026-03-28T14:31:11.644Z</time></trkpt><trkpt lat="44.3742767" lon="12.182625"><ele>4.0</ele><time>2026-03-28T14:31:13.644Z</time></trkpt><trkpt lat="44.3743583" lon="12.1827183"><ele>4.0</ele><time>2026-03-28T14:31:15.645Z</time></trkpt><trkpt lat="44.374435" lon="12.1828233"><ele>4.0</ele><time>2026-03-28T14:31:17.644Z</time></trkpt><trkpt lat="44.374515" lon="12.1829317"><ele>4.0</ele><time>2026-03-28T14:31:19.645Z</time></trkpt><trkpt lat="44.3745967" lon="12.18306"><ele>4.0</ele><time>2026-03-28T14:31:21.644Z</time></trkpt><trkpt lat="44.37468" lon="12.1831783"><ele>3.75</ele><time>2026-03-28T14:31:23.644Z</time></trkpt><trkpt lat="44.3747617" lon="12.1833017"><ele>3.5</ele><time>2026-03-28T14:31:25.644Z</time></trkpt><trkpt lat="44.374845" lon="12.1834217"><ele>3.25</ele><time>2026-03-28T14:31:27.644Z</time></trkpt><trkpt lat="44.3749167" lon="12.1835417"><ele>3.0</ele><time>2026-03-28T14:31:29.644Z</time></trkpt><trkpt lat="44.374995" lon="12.1836667"><ele>3.0</ele><time>2026-03-28T14:31:31.644Z</time></trkpt><trkpt lat="44.37507" lon="12.183795"><ele>3.0</ele><time>2026-03-28T14:31:33.645Z</time></trkpt><trkpt lat="44.3751417" lon="12.1839317"><ele>3.0</ele><time>2026-03-28T14:31:35.644Z</time></trkpt><trkpt lat="44.3752" lon="12.18406"><ele>3.0</ele><time>2026-03-28T14:31:37.644Z</time></trkpt><trkpt lat="44.3752683" lon="12.184205"><ele>3.1666666666666665</ele><time>2026-03-28T14:31:39.644Z</time></trkpt><trkpt lat="44.3753317" lon="12.18435"><ele>3.333333333333333</ele><time>2026-03-28T14:31:41.644Z</time></trkpt><trkpt lat="44.375365" lon="12.1844283"><ele>3.5</ele><time>2026-03-28T14:31:42.644Z</time></trkpt><trkpt lat="44.3754" lon="12.1845067"><ele>3.6666666666666665</ele><time>2026-03-28T14:31:43.644Z</time></trkpt><trkpt lat="44.37543" lon="12.184585"><ele>3.833333333333333</ele><time>2026-03-28T14:31:44.644Z</time></trkpt><trkpt lat="44.37549" lon="12.18474"><ele>4.0</ele><time>2026-03-28T14:31:46.644Z</time></trkpt><trkpt lat="44.37552" lon="12.18482"><ele>3.6666666666666665</ele><time>2026-03-28T14:31:47.644Z</time></trkpt><trkpt lat="44.3755783" lon="12.1849783"><ele>3.333333333333333</ele><time>2026-03-28T14:31:49.644Z</time></trkpt><trkpt lat="44.3756083" lon="12.1850567"><ele>3.0</ele><time>2026-03-28T14:31:50.644Z</time></trkpt><trkpt lat="44.3756383" lon="12.1851383"><ele>2.6666666666666665</ele><time>2026-03-28T14:31:51.644Z</time></trkpt><trkpt lat="44.37567" lon="12.1852167"><ele>2.333333333333333</ele><time>2026-03-28T14:31:52.645Z</time></trkpt><trkpt lat="44.3757017" lon="12.185295"><ele>2.0</ele><time>2026-03-28T14:31:53.644Z</time></trkpt><trkpt lat="44.3757317" lon="12.1853767"><ele>2.0</ele><time>2026-03-28T14:31:54.644Z</time></trkpt><trkpt lat="44.3757867" lon="12.1855283"><ele>2.0</ele><time>2026-03-28T14:31:56.644Z</time></trkpt><trkpt lat="44.3758433" lon="12.1856717"><ele>2.0</ele><time>2026-03-28T14:31:58.645Z</time></trkpt><trkpt lat="44.3759" lon="12.1858067"><ele>2.0</ele><time>2026-03-28T14:32:00.644Z</time></trkpt><trkpt lat="44.3759367" lon="12.185885"><ele>2.0</ele><time>2026-03-28T14:32:01.645Z</time></trkpt><trkpt lat="44.3759683" lon="12.185965"><ele>1.9999999999999998</ele><time>2026-03-28T14:32:02.644Z</time></trkpt><trkpt lat="44.3760017" lon="12.1860433"><ele>2.0</ele><time>2026-03-28T14:32:03.644Z</time></trkpt><trkpt lat="44.3760367" lon="12.18612"><ele>2.0</ele><time>2026-03-28T14:32:04.644Z</time></trkpt><trkpt lat="44.3761083" lon="12.18625"><ele>2.0</ele><time>2026-03-28T14:32:06.644Z</time></trkpt><trkpt lat="44.3761533" lon="12.18632"><ele>1.9999999999999998</ele><time>2026-03-28T14:32:07.644Z</time></trkpt><trkpt lat="44.3761983" lon="12.186385"><ele>2.0</ele><time>2026-03-28T14:32:08.644Z</time></trkpt><trkpt lat="44.376275" lon="12.1865117"><ele>2.0</ele><time>2026-03-28T14:32:10.644Z</time></trkpt><trkpt lat="44.3763517" lon="12.1866283"><ele>2.0</ele><time>2026-03-28T14:32:12.644Z</time></trkpt><trkpt lat="44.3764367" lon="12.18674"><ele>2.0</ele><time>2026-03-28T14:32:14.644Z</time></trkpt><trkpt lat="44.3765267" lon="12.1868517"><ele>2.0</ele><time>2026-03-28T14:32:16.645Z</time></trkpt><trkpt lat="44.376615" lon="12.186965"><ele>2.0</ele><time>2026-03-28T14:32:18.645Z</time></trkpt><trkpt lat="44.3767017" lon="12.1870783"><ele>2.0</ele><time>2026-03-28T14:32:20.645Z</time></trkpt><trkpt lat="44.3767933" lon="12.1871917"><ele>2.0</ele><time>2026-03-28T14:32:22.645Z</time></trkpt><trkpt lat="44.3768767" lon="12.1873033"><ele>2.0</ele><time>2026-03-28T14:32:24.644Z</time></trkpt><trkpt lat="44.3769633" lon="12.1874167"><ele>2.0</ele><time>2026-03-28T14:32:26.644Z</time></trkpt><trkpt lat="44.37705" lon="12.1875283"><ele>2.0</ele><time>2026-03-28T14:32:28.645Z</time></trkpt><trkpt lat="44.3771267" lon="12.1876383"><ele>2.0</ele><time>2026-03-28T14:32:30.644Z</time></trkpt><trkpt lat="44.3772017" lon="12.1877433"><ele>2.0</ele><time>2026-03-28T14:32:32.645Z</time></trkpt><trkpt lat="44.37728" lon="12.1878517"><ele>2.0</ele><time>2026-03-28T14:32:34.645Z</time></trkpt><trkpt lat="44.3773683" lon="12.1879583"><ele>2.25</ele><time>2026-03-28T14:32:36.645Z</time></trkpt><trkpt lat="44.37746" lon="12.188065"><ele>2.5</ele><time>2026-03-28T14:32:38.644Z</time></trkpt><trkpt lat="44.377545" lon="12.1881717"><ele>2.75</ele><time>2026-03-28T14:32:40.644Z</time></trkpt><trkpt lat="44.3776417" lon="12.18828"><ele>3.0</ele><time>2026-03-28T14:32:42.645Z</time></trkpt><trkpt lat="44.37773" lon="12.1883833"><ele>2.8</ele><time>2026-03-28T14:32:44.644Z</time></trkpt><trkpt lat="44.37783" lon="12.1884967"><ele>2.5999999999999996</ele><time>2026-03-28T14:32:46.644Z</time></trkpt><trkpt lat="44.3779183" lon="12.188595"><ele>2.4000000000000004</ele><time>2026-03-28T14:32:48.644Z</time></trkpt><trkpt lat="44.3780067" lon="12.1887033"><ele>2.2</ele><time>2026-03-28T14:32:50.644Z</time></trkpt><trkpt lat="44.3780567" lon="12.1887583"><ele>2.0</ele><time>2026-03-28T14:32:51.645Z</time></trkpt><trkpt lat="44.3781483" lon="12.1888483"><ele>1.9999999999999998</ele><time>2026-03-28T14:32:53.644Z</time></trkpt><trkpt lat="44.378245" lon="12.188945"><ele>2.0</ele><time>2026-03-28T14:32:55.644Z</time></trkpt><trkpt lat="44.3782967" lon="12.1889967"><ele>2.0</ele><time>2026-03-28T14:32:56.644Z</time></trkpt><trkpt lat="44.3783483" lon="12.1890483"><ele>2.0</ele><time>2026-03-28T14:32:57.645Z</time></trkpt><trkpt lat="44.3784467" lon="12.1891567"><ele>1.9999999999999998</ele><time>2026-03-28T14:32:59.644Z</time></trkpt><trkpt lat="44.3785017" lon="12.1892117"><ele>2.0</ele><time>2026-03-28T14:33:00.644Z</time></trkpt><trkpt lat="44.3786067" lon="12.1893083"><ele>2.0</ele><time>2026-03-28T14:33:02.644Z</time></trkpt><trkpt lat="44.37866" lon="12.18936"><ele>2.0</ele><time>2026-03-28T14:33:03.644Z</time></trkpt><trkpt lat="44.3787117" lon="12.1894117"><ele>2.0</ele><time>2026-03-28T14:33:04.645Z</time></trkpt><trkpt lat="44.3788083" lon="12.1895"><ele>2.0</ele><time>2026-03-28T14:33:06.644Z</time></trkpt><trkpt lat="44.3789" lon="12.18959"><ele>2.0</ele><time>2026-03-28T14:33:08.644Z</time></trkpt><trkpt lat="44.3789883" lon="12.189685"><ele>1.9999999999999998</ele><time>2026-03-28T14:33:10.644Z</time></trkpt><trkpt lat="44.3790733" lon="12.1897867"><ele>2.0</ele><time>2026-03-28T14:33:12.644Z</time></trkpt><trkpt lat="44.3791633" lon="12.1898967"><ele>2.0</ele><time>2026-03-28T14:33:14.644Z</time></trkpt><trkpt lat="44.3792117" lon="12.1899567"><ele>2.0</ele><time>2026-03-28T14:33:15.644Z</time></trkpt><trkpt lat="44.3792617" lon="12.1900233"><ele>1.9999999999999998</ele><time>2026-03-28T14:33:16.644Z</time></trkpt><trkpt lat="44.3793067" lon="12.1900933"><ele>2.0</ele><time>2026-03-28T14:33:17.644Z</time></trkpt><trkpt lat="44.3793517" lon="12.1901667"><ele>2.0</ele><time>2026-03-28T14:33:18.644Z</time></trkpt><trkpt lat="44.3793933" lon="12.1902333"><ele>1.9999999999999998</ele><time>2026-03-28T14:33:19.644Z</time></trkpt><trkpt lat="44.3794367" lon="12.1903"><ele>2.0</ele><time>2026-03-28T14:33:20.644Z</time></trkpt><trkpt lat="44.37948" lon="12.1903667"><ele>2.0</ele><time>2026-03-28T14:33:21.644Z</time></trkpt><trkpt lat="44.3795583" lon="12.1905033"><ele>1.9999999999999998</ele><time>2026-03-28T14:33:23.645Z</time></trkpt><trkpt lat="44.3795983" lon="12.1905717"><ele>2.0</ele><time>2026-03-28T14:33:24.644Z</time></trkpt><trkpt lat="44.3796417" lon="12.19064"><ele>2.0</ele><time>2026-03-28T14:33:25.644Z</time></trkpt><trkpt lat="44.37972" lon="12.19077"><ele>1.8</ele><time>2026-03-28T14:33:27.644Z</time></trkpt><trkpt lat="44.3798017" lon="12.1909017"><ele>1.6</ele><time>2026-03-28T14:33:29.644Z</time></trkpt><trkpt lat="44.3798833" lon="12.1910333"><ele>1.4000000000000001</ele><time>2026-03-28T14:33:31.644Z</time></trkpt><trkpt lat="44.37993" lon="12.1911"><ele>1.2000000000000002</ele><time>2026-03-28T14:33:32.644Z</time></trkpt><trkpt lat="44.3799767" lon="12.19116"><ele>1.0</ele><time>2026-03-28T14:33:33.644Z</time></trkpt><trkpt lat="44.3800617" lon="12.1912833"><ele>1.0</ele><time>2026-03-28T14:33:35.644Z</time></trkpt><trkpt lat="44.3801483" lon="12.1914"><ele>1.0</ele><time>2026-03-28T14:33:37.644Z</time></trkpt><trkpt lat="44.3802367" lon="12.1915067"><ele>1.0</ele><time>2026-03-28T14:33:39.644Z</time></trkpt><trkpt lat="44.380325" lon="12.1916133"><ele>1.0</ele><time>2026-03-28T14:33:41.645Z</time></trkpt><trkpt lat="44.38042" lon="12.1917283"><ele>0.9999999999999999</ele><time>2026-03-28T14:33:43.644Z</time></trkpt><trkpt lat="44.38047" lon="12.191795"><ele>1.0</ele><time>2026-03-28T14:33:44.644Z</time></trkpt><trkpt lat="44.3805233" lon="12.1918567"><ele>1.0</ele><time>2026-03-28T14:33:45.644Z</time></trkpt><trkpt lat="44.3805767" lon="12.191915"><ele>1.0</ele><time>2026-03-28T14:33:46.644Z</time></trkpt><trkpt lat="44.3806717" lon="12.1920133"><ele>0.9999999999999999</ele><time>2026-03-28T14:33:48.644Z</time></trkpt><trkpt lat="44.380725" lon="12.19207"><ele>1.0</ele><time>2026-03-28T14:33:49.644Z</time></trkpt><trkpt lat="44.3807817" lon="12.1921283"><ele>1.0</ele><time>2026-03-28T14:33:50.645Z</time></trkpt><trkpt lat="44.38084" lon="12.1921867"><ele>0.9999999999999999</ele><time>2026-03-28T14:33:51.644Z</time></trkpt><trkpt lat="44.3808967" lon="12.1922467"><ele>1.0</ele><time>2026-03-28T14:33:52.644Z</time></trkpt><trkpt lat="44.3809517" lon="12.1923033"><ele>1.0</ele><time>2026-03-28T14:33:53.645Z</time></trkpt><trkpt lat="44.3810083" lon="12.1923617"><ele>0.9999999999999999</ele><time>2026-03-28T14:33:54.644Z</time></trkpt><trkpt lat="44.3810667" lon="12.192415"><ele>1.0</ele><time>2026-03-28T14:33:55.645Z</time></trkpt><trkpt lat="44.381125" lon="12.1924717"><ele>1.0</ele><time>2026-03-28T14:33:56.644Z</time></trkpt><trkpt lat="44.3811833" lon="12.1925267"><ele>1.0</ele><time>2026-03-28T14:33:57.644Z</time></trkpt><trkpt lat="44.3812383" lon="12.1925783"><ele>1.0</ele><time>2026-03-28T14:33:58.644Z</time></trkpt><trkpt lat="44.3813417" lon="12.1926717"><ele>1.0</ele><time>2026-03-28T14:34:00.644Z</time></trkpt><trkpt lat="44.3813983" lon="12.1927217"><ele>1.0</ele><time>2026-03-28T14:34:01.644Z</time></trkpt><trkpt lat="44.381505" lon="12.1928233"><ele>1.0</ele><time>2026-03-28T14:34:03.644Z</time></trkpt><trkpt lat="44.3815633" lon="12.1928767"><ele>1.0</ele><time>2026-03-28T14:34:04.644Z</time></trkpt><trkpt lat="44.38162" lon="12.1929317"><ele>0.9999999999999999</ele><time>2026-03-28T14:34:05.644Z</time></trkpt><trkpt lat="44.38168" lon="12.1929833"><ele>1.0</ele><time>2026-03-28T14:34:06.645Z</time></trkpt><trkpt lat="44.3817383" lon="12.19303"><ele>1.0</ele><time>2026-03-28T14:34:07.644Z</time></trkpt><trkpt lat="44.3817917" lon="12.19308"><ele>0.9999999999999999</ele><time>2026-03-28T14:34:08.644Z</time></trkpt><trkpt lat="44.3818467" lon="12.193135"><ele>1.0</ele><time>2026-03-28T14:34:09.644Z</time></trkpt><trkpt lat="44.3819033" lon="12.1931867"><ele>1.0</ele><time>2026-03-28T14:34:10.644Z</time></trkpt><trkpt lat="44.3819583" lon="12.1932333"><ele>1.0</ele><time>2026-03-28T14:34:11.644Z</time></trkpt><trkpt lat="44.3820117" lon="12.1932867"><ele>1.0</ele><time>2026-03-28T14:34:12.644Z</time></trkpt><trkpt lat="44.3821117" lon="12.1933783"><ele>1.0</ele><time>2026-03-28T14:34:14.644Z</time></trkpt><trkpt lat="44.3822017" lon="12.193465"><ele>1.0</ele><time>2026-03-28T14:34:16.644Z</time></trkpt><trkpt lat="44.382285" lon="12.1935617"><ele>1.0</ele><time>2026-03-28T14:34:18.644Z</time></trkpt><trkpt lat="44.382375" lon="12.1936533"><ele>0.9999999999999999</ele><time>2026-03-28T14:34:20.644Z</time></trkpt><trkpt lat="44.3824567" lon="12.1937617"><ele>1.0</ele><time>2026-03-28T14:34:22.644Z</time></trkpt><trkpt lat="44.3825283" lon="12.193855"><ele>1.0</ele><time>2026-03-28T14:34:24.644Z</time></trkpt><trkpt lat="44.3825633" lon="12.19395"><ele>1.0</ele><time>2026-03-28T14:34:27.644Z</time></trkpt><trkpt lat="44.3825183" lon="12.194045"><ele>0.9999999999999999</ele><time>2026-03-28T14:34:30.645Z</time></trkpt><trkpt lat="44.3824583" lon="12.19412"><ele>1.0</ele><time>2026-03-28T14:34:32.645Z</time></trkpt><trkpt lat="44.3823967" lon="12.1942017"><ele>1.25</ele><time>2026-03-28T14:34:34.644Z</time></trkpt><trkpt lat="44.3823383" lon="12.1943083"><ele>1.5</ele><time>2026-03-28T14:34:36.644Z</time></trkpt><trkpt lat="44.3822633" lon="12.194425"><ele>1.75</ele><time>2026-03-28T14:34:38.644Z</time></trkpt><trkpt lat="44.3821683" lon="12.1945417"><ele>2.0</ele><time>2026-03-28T14:34:40.644Z</time></trkpt><trkpt lat="44.3820767" lon="12.1946667"><ele>2.0</ele><time>2026-03-28T14:34:42.644Z</time></trkpt><trkpt lat="44.38203" lon="12.1947267"><ele>2.0</ele><time>2026-03-28T14:34:43.644Z</time></trkpt><trkpt lat="44.3819483" lon="12.194845"><ele>2.0</ele><time>2026-03-28T14:34:45.644Z</time></trkpt><trkpt lat="44.381865" lon="12.19496"><ele>2.0</ele><time>2026-03-28T14:34:47.644Z</time></trkpt><trkpt lat="44.3817917" lon="12.19506"><ele>2.0</ele><time>2026-03-28T14:34:49.644Z</time></trkpt><trkpt lat="44.3817267" lon="12.19517"><ele>1.6666666666666665</ele><time>2026-03-28T14:34:51.644Z</time></trkpt><trkpt lat="44.3816633" lon="12.1952767"><ele>1.3333333333333333</ele><time>2026-03-28T14:34:53.644Z</time></trkpt><trkpt lat="44.381605" lon="12.1953683"><ele>1.0</ele><time>2026-03-28T14:34:55.644Z</time></trkpt><trkpt lat="44.3815833" lon="12.1954733"><ele>0.6666666666666666</ele><time>2026-03-28T14:34:57.644Z</time></trkpt><trkpt lat="44.3816" lon="12.1955833"><ele>0.3333333333333333</ele><time>2026-03-28T14:34:59.644Z</time></trkpt><trkpt lat="44.3816117" lon="12.1956967"><ele>0.0</ele><time>2026-03-28T14:35:01.644Z</time></trkpt><trkpt lat="44.3816133" lon="12.1958"><ele>-0.14285714285714285</ele><time>2026-03-28T14:35:03.644Z</time></trkpt><trkpt lat="44.381605" lon="12.1958883"><ele>-0.2857142857142857</ele><time>2026-03-28T14:35:05.644Z</time></trkpt><trkpt lat="44.38159" lon="12.1959983"><ele>-0.42857142857142855</ele><time>2026-03-28T14:35:07.645Z</time></trkpt><trkpt lat="44.3815717" lon="12.1961067"><ele>-0.5714285714285714</ele><time>2026-03-28T14:35:09.644Z</time></trkpt><trkpt lat="44.3815433" lon="12.196195"><ele>-0.7142857142857142</ele><time>2026-03-28T14:35:11.644Z</time></trkpt><trkpt lat="44.381505" lon="12.1962833"><ele>-0.8571428571428571</ele><time>2026-03-28T14:35:13.644Z</time></trkpt><trkpt lat="44.3814733" lon="12.19637"><ele>-1.0</ele><time>2026-03-28T14:35:15.645Z</time></trkpt><trkpt lat="44.3814467" lon="12.1964533"><ele>-1.1428571428571428</ele><time>2026-03-28T14:35:17.644Z</time></trkpt><trkpt lat="44.3814167" lon="12.19654"><ele>-1.2857142857142856</ele><time>2026-03-28T14:35:19.644Z</time></trkpt><trkpt lat="44.381395" lon="12.1966317"><ele>-1.4285714285714284</ele><time>2026-03-28T14:35:21.644Z</time></trkpt><trkpt lat="44.381375" lon="12.1967167"><ele>-1.5714285714285714</ele><time>2026-03-28T14:35:23.645Z</time></trkpt><trkpt lat="44.3813533" lon="12.1968283"><ele>-1.714285714285714</ele><time>2026-03-28T14:35:26.644Z</time></trkpt><trkpt lat="44.3813267" lon="12.19691"><ele>-1.857142857142857</ele><time>2026-03-28T14:35:28.644Z</time></trkpt><trkpt lat="44.3813017" lon="12.1970317"><ele>-2.0</ele><time>2026-03-28T14:35:31.644Z</time></trkpt><trkpt lat="44.38128" lon="12.1971517"><ele>-1.6666666666666665</ele><time>2026-03-28T14:35:34.644Z</time></trkpt><trkpt lat="44.3812617" lon="12.1972467"><ele>-1.3333333333333333</ele><time>2026-03-28T14:35:36.644Z</time></trkpt><trkpt lat="44.38124" lon="12.1973417"><ele>-1.0</ele><time>2026-03-28T14:35:38.644Z</time></trkpt><trkpt lat="44.381225" lon="12.19745"><ele>-0.6666666666666666</ele><time>2026-03-28T14:35:40.644Z</time></trkpt><trkpt lat="44.3811967" lon="12.1975783"><ele>-0.3333333333333333</ele><time>2026-03-28T14:35:42.644Z</time></trkpt><trkpt lat="44.381165" lon="12.1977083"><ele>0.0</ele><time>2026-03-28T14:35:44.645Z</time></trkpt><trkpt lat="44.3811433" lon="12.1978317"><ele>0.0</ele><time>2026-03-28T14:35:46.645Z</time></trkpt><trkpt lat="44.3811267" lon="12.1979533"><ele>0.0</ele><time>2026-03-28T14:35:48.644Z</time></trkpt><trkpt lat="44.3811033" lon="12.1980733"><ele>0.0</ele><time>2026-03-28T14:35:50.645Z</time></trkpt><trkpt lat="44.3810717" lon="12.1981933"><ele>0.0</ele><time>2026-03-28T14:35:52.645Z</time></trkpt><trkpt lat="44.3810433" lon="12.1983133"><ele>0.0</ele><time>2026-03-28T14:35:54.644Z</time></trkpt><trkpt lat="44.381015" lon="12.19845"><ele>-0.2</ele><time>2026-03-28T14:35:56.644Z</time></trkpt><trkpt lat="44.380985" lon="12.1985833"><ele>-0.4</ele><time>2026-03-28T14:35:58.644Z</time></trkpt><trkpt lat="44.3809533" lon="12.1987317"><ele>-0.6000000000000001</ele><time>2026-03-28T14:36:00.644Z</time></trkpt><trkpt lat="44.38092" lon="12.1988733"><ele>-0.8</ele><time>2026-03-28T14:36:02.644Z</time></trkpt><trkpt lat="44.3808817" lon="12.1990083"><ele>-1.0</ele><time>2026-03-28T14:36:04.644Z</time></trkpt><trkpt lat="44.3808567" lon="12.1991333"><ele>-0.6666666666666666</ele><time>2026-03-28T14:36:06.644Z</time></trkpt><trkpt lat="44.3808433" lon="12.19924"><ele>-0.3333333333333333</ele><time>2026-03-28T14:36:08.644Z</time></trkpt><trkpt lat="44.3808267" lon="12.1993533"><ele>0.0</ele><time>2026-03-28T14:36:10.643Z</time></trkpt><trkpt lat="44.3808083" lon="12.1994433"><ele>0.3333333333333333</ele><time>2026-03-28T14:36:12.644Z</time></trkpt><trkpt lat="44.380775" lon="12.199525"><ele>0.6666666666666666</ele><time>2026-03-28T14:36:15.643Z</time></trkpt><trkpt lat="44.3807883" lon="12.1997033"><ele>1.0</ele><time>2026-03-28T14:36:26.643Z</time></trkpt><trkpt lat="44.38087" lon="12.1997383"><ele>1.0</ele><time>2026-03-28T14:36:29.643Z</time></trkpt><trkpt lat="44.380965" lon="12.1997733"><ele>1.0</ele><time>2026-03-28T14:36:32.643Z</time></trkpt><trkpt lat="44.38105" lon="12.199815"><ele>1.0</ele><time>2026-03-28T14:36:34.644Z</time></trkpt><trkpt lat="44.38114" lon="12.1998633"><ele>1.0</ele><time>2026-03-28T14:36:36.644Z</time></trkpt><trkpt lat="44.3812183" lon="12.199915"><ele>1.0</ele><time>2026-03-28T14:36:38.643Z</time></trkpt><trkpt lat="44.38131" lon="12.1999817"><ele>1.2000000000000002</ele><time>2026-03-28T14:36:40.644Z</time></trkpt><trkpt lat="44.3814083" lon="12.2000533"><ele>1.4000000000000001</ele><time>2026-03-28T14:36:42.643Z</time></trkpt><trkpt lat="44.3815" lon="12.200115"><ele>1.6</ele><time>2026-03-28T14:36:44.643Z</time></trkpt><trkpt lat="44.381595" lon="12.2001733"><ele>1.8</ele><time>2026-03-28T14:36:46.643Z</time></trkpt><trkpt lat="44.381685" lon="12.2002167"><ele>2.0</ele><time>2026-03-28T14:36:48.643Z</time></trkpt><trkpt lat="44.3817633" lon="12.2002633"><ele>2.0</ele><time>2026-03-28T14:36:50.643Z</time></trkpt><trkpt lat="44.3818033" lon="12.200335"><ele>1.9999999999999998</ele><time>2026-03-28T14:36:52.643Z</time></trkpt><trkpt lat="44.381745" lon="12.2003883"><ele>2.0</ele><time>2026-03-28T14:36:57.644Z</time></trkpt><trkpt lat="44.3816817" lon="12.2004517"><ele>2.0</ele><time>2026-03-28T14:37:01.644Z</time></trkpt><trkpt lat="44.3816183" lon="12.2005167"><ele>1.9999999999999998</ele><time>2026-03-28T14:37:04.643Z</time></trkpt><trkpt lat="44.3815683" lon="12.2005817"><ele>2.0</ele><time>2026-03-28T14:37:06.644Z</time></trkpt><trkpt lat="44.381515" lon="12.2006633"><ele>2.0</ele><time>2026-03-28T14:37:08.644Z</time></trkpt><trkpt lat="44.3814467" lon="12.20073"><ele>2.0</ele><time>2026-03-28T14:37:10.643Z</time></trkpt><trkpt lat="44.3813767" lon="12.2008117"><ele>2.0</ele><time>2026-03-28T14:37:12.643Z</time></trkpt><trkpt lat="44.3813067" lon="12.2009067"><ele>2.0</ele><time>2026-03-28T14:37:14.643Z</time></trkpt><trkpt lat="44.3812317" lon="12.2010167"><ele>2.0</ele><time>2026-03-28T14:37:16.644Z</time></trkpt><trkpt lat="44.38116" lon="12.2011033"><ele>2.0</ele><time>2026-03-28T14:37:18.644Z</time></trkpt><trkpt lat="44.3810817" lon="12.2011617"><ele>2.0</ele><time>2026-03-28T14:37:20.643Z</time></trkpt><trkpt lat="44.38101" lon="12.2012267"><ele>2.0</ele><time>2026-03-28T14:37:22.643Z</time></trkpt><trkpt lat="44.380925" lon="12.2012967"><ele>2.0</ele><time>2026-03-28T14:37:24.644Z</time></trkpt><trkpt lat="44.3808417" lon="12.2013583"><ele>2.0</ele><time>2026-03-28T14:37:26.643Z</time></trkpt><trkpt lat="44.3807633" lon="12.2014067"><ele>2.0</ele><time>2026-03-28T14:37:28.644Z</time></trkpt><trkpt lat="44.3806767" lon="12.2014583"><ele>1.9999999999999998</ele><time>2026-03-28T14:37:30.643Z</time></trkpt><trkpt lat="44.3805933" lon="12.20151"><ele>2.0</ele><time>2026-03-28T14:37:32.643Z</time></trkpt><trkpt lat="44.3805067" lon="12.2015567"><ele>2.0</ele><time>2026-03-28T14:37:34.644Z</time></trkpt><trkpt lat="44.38042" lon="12.2016083"><ele>2.0</ele><time>2026-03-28T14:37:36.644Z</time></trkpt><trkpt lat="44.3803483" lon="12.2016517"><ele>1.9999999999999998</ele><time>2026-03-28T14:37:38.644Z</time></trkpt><trkpt lat="44.38027" lon="12.20172"><ele>2.0</ele><time>2026-03-28T14:37:40.644Z</time></trkpt><trkpt lat="44.3801867" lon="12.2017783"><ele>2.0</ele><time>2026-03-28T14:37:42.643Z</time></trkpt><trkpt lat="44.3801217" lon="12.2018217"><ele>2.0</ele><time>2026-03-28T14:37:44.643Z</time></trkpt><trkpt lat="44.3800167" lon="12.2018683"><ele>2.0</ele><time>2026-03-28T14:37:47.643Z</time></trkpt><trkpt lat="44.37992" lon="12.2018817"><ele>2.0</ele><time>2026-03-28T14:37:49.643Z</time></trkpt><trkpt lat="44.379825" lon="12.2018733"><ele>2.0</ele><time>2026-03-28T14:37:51.643Z</time></trkpt><trkpt lat="44.3797267" lon="12.2018617"><ele>2.2</ele><time>2026-03-28T14:37:53.643Z</time></trkpt><trkpt lat="44.3796183" lon="12.201845"><ele>2.4000000000000004</ele><time>2026-03-28T14:37:55.643Z</time></trkpt><trkpt lat="44.3795233" lon="12.20182"><ele>2.5999999999999996</ele><time>2026-03-28T14:37:57.643Z</time></trkpt><trkpt lat="44.3794233" lon="12.2017983"><ele>2.8</ele><time>2026-03-28T14:37:59.643Z</time></trkpt><trkpt lat="44.3793217" lon="12.201785"><ele>3.0</ele><time>2026-03-28T14:38:01.643Z</time></trkpt><trkpt lat="44.3792183" lon="12.201765"><ele>3.0</ele><time>2026-03-28T14:38:03.643Z</time></trkpt><trkpt lat="44.3791083" lon="12.2017367"><ele>3.0</ele><time>2026-03-28T14:38:05.644Z</time></trkpt><trkpt lat="44.3789967" lon="12.201705"><ele>3.0</ele><time>2026-03-28T14:38:07.643Z</time></trkpt><trkpt lat="44.3788983" lon="12.2016867"><ele>3.0</ele><time>2026-03-28T14:38:09.644Z</time></trkpt><trkpt lat="44.3787933" lon="12.2016567"><ele>3.0</ele><time>2026-03-28T14:38:11.643Z</time></trkpt><trkpt lat="44.37869" lon="12.2016367"><ele>2.4</ele><time>2026-03-28T14:38:13.643Z</time></trkpt><trkpt lat="44.378585" lon="12.201605"><ele>1.7999999999999998</ele><time>2026-03-28T14:38:15.643Z</time></trkpt><trkpt lat="44.3784817" lon="12.2015817"><ele>1.2</ele><time>2026-03-28T14:38:17.643Z</time></trkpt><trkpt lat="44.378375" lon="12.2015567"><ele>0.6</ele><time>2026-03-28T14:38:19.644Z</time></trkpt><trkpt lat="44.37827" lon="12.2015317"><ele>0.0</ele><time>2026-03-28T14:38:21.643Z</time></trkpt><trkpt lat="44.378165" lon="12.201505"><ele>0.2</ele><time>2026-03-28T14:38:23.643Z</time></trkpt><trkpt lat="44.3780733" lon="12.2014767"><ele>0.4</ele><time>2026-03-28T14:38:25.643Z</time></trkpt><trkpt lat="44.3779733" lon="12.201455"><ele>0.6000000000000001</ele><time>2026-03-28T14:38:27.644Z</time></trkpt><trkpt lat="44.3778733" lon="12.2014267"><ele>0.8</ele><time>2026-03-28T14:38:29.643Z</time></trkpt><trkpt lat="44.377785" lon="12.2013933"><ele>1.0</ele><time>2026-03-28T14:38:31.644Z</time></trkpt><trkpt lat="44.377695" lon="12.2013717"><ele>1.25</ele><time>2026-03-28T14:38:33.643Z</time></trkpt><trkpt lat="44.377595" lon="12.2013517"><ele>1.5</ele><time>2026-03-28T14:38:35.643Z</time></trkpt><trkpt lat="44.3774867" lon="12.2013033"><ele>1.75</ele><time>2026-03-28T14:38:37.643Z</time></trkpt><trkpt lat="44.37738" lon="12.2012483"><ele>2.0</ele><time>2026-03-28T14:38:39.644Z</time></trkpt><trkpt lat="44.3772633" lon="12.20119"><ele>1.6</ele><time>2026-03-28T14:38:41.643Z</time></trkpt><trkpt lat="44.377155" lon="12.2011083"><ele>1.2000000000000002</ele><time>2026-03-28T14:38:43.643Z</time></trkpt><trkpt lat="44.3770483" lon="12.2010283"><ele>0.8</ele><time>2026-03-28T14:38:45.643Z</time></trkpt><trkpt lat="44.3769367" lon="12.200945"><ele>0.4</ele><time>2026-03-28T14:38:47.644Z</time></trkpt><trkpt lat="44.3768767" lon="12.2009017"><ele>0.0</ele><time>2026-03-28T14:38:48.644Z</time></trkpt><trkpt lat="44.37682" lon="12.2008567"><ele>0.0</ele><time>2026-03-28T14:38:49.643Z</time></trkpt><trkpt lat="44.3767083" lon="12.20078"><ele>0.0</ele><time>2026-03-28T14:38:51.643Z</time></trkpt><trkpt lat="44.3766033" lon="12.2007017"><ele>0.0</ele><time>2026-03-28T14:38:53.643Z</time></trkpt><trkpt lat="44.376505" lon="12.2006367"><ele>0.0</ele><time>2026-03-28T14:38:55.643Z</time></trkpt><trkpt lat="44.376405" lon="12.2005517"><ele>-0.16666666666666666</ele><time>2026-03-28T14:38:57.643Z</time></trkpt><trkpt lat="44.37632" lon="12.2004683"><ele>-0.3333333333333333</ele><time>2026-03-28T14:38:59.643Z</time></trkpt><trkpt lat="44.3762383" lon="12.2004017"><ele>-0.5</ele><time>2026-03-28T14:39:01.644Z</time></trkpt><trkpt lat="44.37619" lon="12.20034"><ele>-0.6666666666666666</ele><time>2026-03-28T14:39:02.643Z</time></trkpt><trkpt lat="44.3761367" lon="12.2002817"><ele>-0.8333333333333333</ele><time>2026-03-28T14:39:03.644Z</time></trkpt><trkpt lat="44.376085" lon="12.2002217"><ele>-1.0</ele><time>2026-03-28T14:39:04.643Z</time></trkpt><trkpt lat="44.3760333" lon="12.2001633"><ele>-1.0</ele><time>2026-03-28T14:39:05.643Z</time></trkpt><trkpt lat="44.3759783" lon="12.2001083"><ele>-1.0</ele><time>2026-03-28T14:39:06.643Z</time></trkpt><trkpt lat="44.3758767" lon="12.2000067"><ele>-1.0</ele><time>2026-03-28T14:39:08.644Z</time></trkpt><trkpt lat="44.3757717" lon="12.19991"><ele>-1.0</ele><time>2026-03-28T14:39:10.644Z</time></trkpt><trkpt lat="44.3756683" lon="12.1998133"><ele>-1.0</ele><time>2026-03-28T14:39:12.644Z</time></trkpt><trkpt lat="44.375615" lon="12.1997633"><ele>-1.0</ele><time>2026-03-28T14:39:13.644Z</time></trkpt><trkpt lat="44.37556" lon="12.1997117"><ele>-1.0</ele><time>2026-03-28T14:39:14.643Z</time></trkpt><trkpt lat="44.375455" lon="12.1996317"><ele>-1.0</ele><time>2026-03-28T14:39:16.643Z</time></trkpt><trkpt lat="44.3753533" lon="12.1995467"><ele>-1.0</ele><time>2026-03-28T14:39:18.643Z</time></trkpt><trkpt lat="44.3752517" lon="12.1994583"><ele>-1.0</ele><time>2026-03-28T14:39:20.643Z</time></trkpt><trkpt lat="44.3751567" lon="12.19936"><ele>-1.0</ele><time>2026-03-28T14:39:22.643Z</time></trkpt><trkpt lat="44.3750733" lon="12.1992667"><ele>-1.0</ele><time>2026-03-28T14:39:24.643Z</time></trkpt><trkpt lat="44.3749767" lon="12.1991717"><ele>-1.0</ele><time>2026-03-28T14:39:26.643Z</time></trkpt><trkpt lat="44.3748817" lon="12.1990833"><ele>-1.0</ele><time>2026-03-28T14:39:28.643Z</time></trkpt><trkpt lat="44.3747867" lon="12.199"><ele>-1.0</ele><time>2026-03-28T14:39:30.644Z</time></trkpt><trkpt lat="44.3746883" lon="12.19892"><ele>-1.0</ele><time>2026-03-28T14:39:32.643Z</time></trkpt><trkpt lat="44.37459" lon="12.1988317"><ele>-1.0</ele><time>2026-03-28T14:39:34.643Z</time></trkpt><trkpt lat="44.3744933" lon="12.1987467"><ele>-1.0</ele><time>2026-03-28T14:39:36.643Z</time></trkpt><trkpt lat="44.3744017" lon="12.1986617"><ele>-0.75</ele><time>2026-03-28T14:39:38.643Z</time></trkpt><trkpt lat="44.3743017" lon="12.1985733"><ele>-0.5</ele><time>2026-03-28T14:39:40.643Z</time></trkpt><trkpt lat="44.3742" lon="12.19849"><ele>-0.25</ele><time>2026-03-28T14:39:42.643Z</time></trkpt><trkpt lat="44.3741033" lon="12.1984083"><ele>0.0</ele><time>2026-03-28T14:39:44.644Z</time></trkpt><trkpt lat="44.3740067" lon="12.1983183"><ele>0.0</ele><time>2026-03-28T14:39:46.644Z</time></trkpt><trkpt lat="44.373915" lon="12.19823"><ele>0.0</ele><time>2026-03-28T14:39:48.643Z</time></trkpt><trkpt lat="44.3738233" lon="12.1981417"><ele>0.0</ele><time>2026-03-28T14:39:50.643Z</time></trkpt><trkpt lat="44.3737333" lon="12.1980533"><ele>0.0</ele><time>2026-03-28T14:39:52.643Z</time></trkpt><trkpt lat="44.3736417" lon="12.19797"><ele>0.0</ele><time>2026-03-28T14:39:54.643Z</time></trkpt><trkpt lat="44.373545" lon="12.1978817"><ele>0.0</ele><time>2026-03-28T14:39:56.643Z</time></trkpt><trkpt lat="44.3734433" lon="12.1977883"><ele>0.0</ele><time>2026-03-28T14:39:58.643Z</time></trkpt><trkpt lat="44.373345" lon="12.1976917"><ele>0.0</ele><time>2026-03-28T14:40:00.644Z</time></trkpt><trkpt lat="44.373245" lon="12.1976067"><ele>0.0</ele><time>2026-03-28T14:40:02.643Z</time></trkpt><trkpt lat="44.3731433" lon="12.197525"><ele>0.0</ele><time>2026-03-28T14:40:04.643Z</time></trkpt><trkpt lat="44.3730467" lon="12.19744"><ele>0.0</ele><time>2026-03-28T14:40:06.644Z</time></trkpt><trkpt lat="44.3729533" lon="12.1973533"><ele>0.0</ele><time>2026-03-28T14:40:08.644Z</time></trkpt><trkpt lat="44.3728617" lon="12.1972633"><ele>0.0</ele><time>2026-03-28T14:40:10.644Z</time></trkpt><trkpt lat="44.372765" lon="12.1971767"><ele>0.0</ele><time>2026-03-28T14:40:12.643Z</time></trkpt><trkpt lat="44.3726717" lon="12.197085"><ele>0.0</ele><time>2026-03-28T14:40:14.644Z</time></trkpt><trkpt lat="44.3725767" lon="12.197"><ele>0.0</ele><time>2026-03-28T14:40:16.643Z</time></trkpt><trkpt lat="44.37248" lon="12.196915"><ele>0.0</ele><time>2026-03-28T14:40:18.644Z</time></trkpt><trkpt lat="44.3723817" lon="12.19683"><ele>0.0</ele><time>2026-03-28T14:40:20.643Z</time></trkpt><trkpt lat="44.3722867" lon="12.19674"><ele>0.0</ele><time>2026-03-28T14:40:22.643Z</time></trkpt><trkpt lat="44.37219" lon="12.19665"><ele>0.0</ele><time>2026-03-28T14:40:24.643Z</time></trkpt><trkpt lat="44.37209" lon="12.1965583"><ele>0.0</ele><time>2026-03-28T14:40:26.643Z</time></trkpt><trkpt lat="44.37199" lon="12.1964617"><ele>0.0</ele><time>2026-03-28T14:40:28.643Z</time></trkpt><trkpt lat="44.3718983" lon="12.1963633"><ele>0.0</ele><time>2026-03-28T14:40:30.643Z</time></trkpt><trkpt lat="44.3718033" lon="12.1962683"><ele>0.0</ele><time>2026-03-28T14:40:32.643Z</time></trkpt><trkpt lat="44.37172" lon="12.19616"><ele>0.0</ele><time>2026-03-28T14:40:34.643Z</time></trkpt><trkpt lat="44.37163" lon="12.1960567"><ele>0.0</ele><time>2026-03-28T14:40:36.644Z</time></trkpt><trkpt lat="44.37155" lon="12.19596"><ele>0.0</ele><time>2026-03-28T14:40:38.644Z</time></trkpt><trkpt lat="44.37148" lon="12.1958617"><ele>0.0</ele><time>2026-03-28T14:40:40.643Z</time></trkpt><trkpt lat="44.3714117" lon="12.1957717"><ele>0.0</ele><time>2026-03-28T14:40:42.643Z</time></trkpt><trkpt lat="44.3713267" lon="12.1956717"><ele>0.0</ele><time>2026-03-28T14:40:44.643Z</time></trkpt><trkpt lat="44.3712467" lon="12.1955783"><ele>0.14285714285714285</ele><time>2026-03-28T14:40:46.643Z</time></trkpt><trkpt lat="44.3711583" lon="12.1954883"><ele>0.2857142857142857</ele><time>2026-03-28T14:40:48.643Z</time></trkpt><trkpt lat="44.3711067" lon="12.1954317"><ele>0.42857142857142855</ele><time>2026-03-28T14:40:49.643Z</time></trkpt><trkpt lat="44.371055" lon="12.1953717"><ele>0.5714285714285714</ele><time>2026-03-28T14:40:50.644Z</time></trkpt><trkpt lat="44.371005" lon="12.1953083"><ele>0.7142857142857142</ele><time>2026-03-28T14:40:51.644Z</time></trkpt><trkpt lat="44.3709517" lon="12.1952483"><ele>0.8571428571428571</ele><time>2026-03-28T14:40:52.643Z</time></trkpt><trkpt lat="44.3709" lon="12.1951867"><ele>1.0</ele><time>2026-03-28T14:40:53.643Z</time></trkpt><trkpt lat="44.3708483" lon="12.195125"><ele>0.9999999999999999</ele><time>2026-03-28T14:40:54.643Z</time></trkpt><trkpt lat="44.3708" lon="12.1950617"><ele>1.0</ele><time>2026-03-28T14:40:55.643Z</time></trkpt><trkpt lat="44.3707517" lon="12.195"><ele>1.0</ele><time>2026-03-28T14:40:56.643Z</time></trkpt><trkpt lat="44.3706633" lon="12.1949"><ele>1.0</ele><time>2026-03-28T14:40:58.643Z</time></trkpt><trkpt lat="44.370575" lon="12.19478"><ele>0.9999999999999999</ele><time>2026-03-28T14:41:00.644Z</time></trkpt><trkpt lat="44.37053" lon="12.1947"><ele>1.0</ele><time>2026-03-28T14:41:01.643Z</time></trkpt><trkpt lat="44.3704883" lon="12.1946217"><ele>0.8571428571428571</ele><time>2026-03-28T14:41:02.644Z</time></trkpt><trkpt lat="44.37044" lon="12.1945483"><ele>0.7142857142857142</ele><time>2026-03-28T14:41:03.643Z</time></trkpt><trkpt lat="44.37039" lon="12.19448"><ele>0.5714285714285714</ele><time>2026-03-28T14:41:04.643Z</time></trkpt><trkpt lat="44.37034" lon="12.1944167"><ele>0.42857142857142855</ele><time>2026-03-28T14:41:05.643Z</time></trkpt><trkpt lat="44.3702833" lon="12.1943533"><ele>0.2857142857142857</ele><time>2026-03-28T14:41:06.643Z</time></trkpt><trkpt lat="44.370235" lon="12.194295"><ele>0.14285714285714285</ele><time>2026-03-28T14:41:07.643Z</time></trkpt><trkpt lat="44.3701833" lon="12.1942333"><ele>0.0</ele><time>2026-03-28T14:41:08.643Z</time></trkpt><trkpt lat="44.3701317" lon="12.1941717"><ele>0.0</ele><time>2026-03-28T14:41:09.643Z</time></trkpt><trkpt lat="44.3700833" lon="12.1941117"><ele>0.0</ele><time>2026-03-28T14:41:10.643Z</time></trkpt><trkpt lat="44.3700367" lon="12.19405"><ele>0.0</ele><time>2026-03-28T14:41:11.643Z</time></trkpt><trkpt lat="44.36999" lon="12.1939867"><ele>0.0</ele><time>2026-03-28T14:41:12.643Z</time></trkpt><trkpt lat="44.3699" lon="12.193875"><ele>0.0</ele><time>2026-03-28T14:41:14.643Z</time></trkpt><trkpt lat="44.3698133" lon="12.1937683"><ele>0.0</ele><time>2026-03-28T14:41:16.644Z</time></trkpt><trkpt lat="44.3697317" lon="12.1936567"><ele>0.0</ele><time>2026-03-28T14:41:18.643Z</time></trkpt><trkpt lat="44.3696433" lon="12.193565"><ele>0.0</ele><time>2026-03-28T14:41:20.643Z</time></trkpt><trkpt lat="44.3695617" lon="12.1934583"><ele>0.0</ele><time>2026-03-28T14:41:22.643Z</time></trkpt><trkpt lat="44.3694867" lon="12.193375"><ele>0.0</ele><time>2026-03-28T14:41:24.643Z</time></trkpt><trkpt lat="44.3694183" lon="12.1932667"><ele>0.0</ele><time>2026-03-28T14:41:26.644Z</time></trkpt><trkpt lat="44.3693383" lon="12.193135"><ele>0.0</ele><time>2026-03-28T14:41:28.643Z</time></trkpt><trkpt lat="44.3692917" lon="12.19307"><ele>0.0</ele><time>2026-03-28T14:41:29.643Z</time></trkpt><trkpt lat="44.3692" lon="12.192945"><ele>0.0</ele><time>2026-03-28T14:41:31.643Z</time></trkpt><trkpt lat="44.36911" lon="12.192835"><ele>0.0</ele><time>2026-03-28T14:41:33.643Z</time></trkpt><trkpt lat="44.3690267" lon="12.1927283"><ele>0.0</ele><time>2026-03-28T14:41:35.643Z</time></trkpt><trkpt lat="44.368935" lon="12.1926233"><ele>0.0</ele><time>2026-03-28T14:41:37.643Z</time></trkpt><trkpt lat="44.3688483" lon="12.1925083"><ele>0.0</ele><time>2026-03-28T14:41:39.643Z</time></trkpt><trkpt lat="44.3687667" lon="12.1923883"><ele>0.0</ele><time>2026-03-28T14:41:41.643Z</time></trkpt><trkpt lat="44.3686833" lon="12.1922717"><ele>0.0</ele><time>2026-03-28T14:41:43.643Z</time></trkpt><trkpt lat="44.3686383" lon="12.19221"><ele>0.0</ele><time>2026-03-28T14:41:44.644Z</time></trkpt><trkpt lat="44.3685917" lon="12.19215"><ele>0.0</ele><time>2026-03-28T14:41:45.643Z</time></trkpt><trkpt lat="44.3685067" lon="12.1920317"><ele>0.0</ele><time>2026-03-28T14:41:47.644Z</time></trkpt><trkpt lat="44.3684267" lon="12.1919083"><ele>0.0</ele><time>2026-03-28T14:41:49.644Z</time></trkpt><trkpt lat="44.368345" lon="12.1917917"><ele>0.0</ele><time>2026-03-28T14:41:51.643Z</time></trkpt><trkpt lat="44.3682567" lon="12.1916717"><ele>0.0</ele><time>2026-03-28T14:41:53.643Z</time></trkpt><trkpt lat="44.36821" lon="12.1916067"><ele>0.0</ele><time>2026-03-28T14:41:54.643Z</time></trkpt><trkpt lat="44.3681633" lon="12.1915417"><ele>0.0</ele><time>2026-03-28T14:41:55.643Z</time></trkpt><trkpt lat="44.3681117" lon="12.191475"><ele>0.0</ele><time>2026-03-28T14:41:56.643Z</time></trkpt><trkpt lat="44.36802" lon="12.19135"><ele>0.0</ele><time>2026-03-28T14:41:58.643Z</time></trkpt><trkpt lat="44.36793" lon="12.1912333"><ele>0.25</ele><time>2026-03-28T14:42:00.643Z</time></trkpt><trkpt lat="44.36784" lon="12.1911183"><ele>0.5</ele><time>2026-03-28T14:42:02.643Z</time></trkpt><trkpt lat="44.3677583" lon="12.1910067"><ele>0.75</ele><time>2026-03-28T14:42:04.643Z</time></trkpt><trkpt lat="44.36767" lon="12.190905"><ele>1.0</ele><time>2026-03-28T14:42:06.643Z</time></trkpt><trkpt lat="44.3675883" lon="12.190795"><ele>1.0</ele><time>2026-03-28T14:42:08.643Z</time></trkpt><trkpt lat="44.3675117" lon="12.19068"><ele>1.0</ele><time>2026-03-28T14:42:10.643Z</time></trkpt><trkpt lat="44.367465" lon="12.1906133"><ele>1.0</ele><time>2026-03-28T14:42:11.643Z</time></trkpt><trkpt lat="44.3673833" lon="12.19049"><ele>1.0</ele><time>2026-03-28T14:42:13.643Z</time></trkpt><trkpt lat="44.367295" lon="12.190375"><ele>1.0</ele><time>2026-03-28T14:42:15.644Z</time></trkpt><trkpt lat="44.3672183" lon="12.190255"><ele>1.0</ele><time>2026-03-28T14:42:17.644Z</time></trkpt><trkpt lat="44.3671383" lon="12.1901333"><ele>1.0</ele><time>2026-03-28T14:42:19.643Z</time></trkpt><trkpt lat="44.3670517" lon="12.1900267"><ele>1.0</ele><time>2026-03-28T14:42:21.643Z</time></trkpt><trkpt lat="44.3669783" lon="12.1899167"><ele>1.0</ele><time>2026-03-28T14:42:23.643Z</time></trkpt><trkpt lat="44.3669083" lon="12.1897983"><ele>1.0</ele><time>2026-03-28T14:42:25.643Z</time></trkpt><trkpt lat="44.3668667" lon="12.1897317"><ele>1.0</ele><time>2026-03-28T14:42:26.643Z</time></trkpt><trkpt lat="44.3667817" lon="12.1896067"><ele>1.0</ele><time>2026-03-28T14:42:28.643Z</time></trkpt><trkpt lat="44.3666967" lon="12.1894917"><ele>1.0</ele><time>2026-03-28T14:42:30.644Z</time></trkpt><trkpt lat="44.36661" lon="12.18937"><ele>1.0</ele><time>2026-03-28T14:42:32.644Z</time></trkpt><trkpt lat="44.3665267" lon="12.18925"><ele>0.9999999999999999</ele><time>2026-03-28T14:42:34.644Z</time></trkpt><trkpt lat="44.3664433" lon="12.1891467"><ele>1.0</ele><time>2026-03-28T14:42:36.643Z</time></trkpt><trkpt lat="44.3663683" lon="12.1890267"><ele>1.0</ele><time>2026-03-28T14:42:38.644Z</time></trkpt><trkpt lat="44.3663217" lon="12.188965"><ele>1.0</ele><time>2026-03-28T14:42:39.643Z</time></trkpt><trkpt lat="44.3662733" lon="12.1888917"><ele>0.9999999999999999</ele><time>2026-03-28T14:42:40.644Z</time></trkpt><trkpt lat="44.366225" lon="12.1888083"><ele>1.0</ele><time>2026-03-28T14:42:41.643Z</time></trkpt><trkpt lat="44.3661783" lon="12.18873"><ele>1.1428571428571428</ele><time>2026-03-28T14:42:42.644Z</time></trkpt><trkpt lat="44.36613" lon="12.188655"><ele>1.2857142857142856</ele><time>2026-03-28T14:42:43.644Z</time></trkpt><trkpt lat="44.3660783" lon="12.1885783"><ele>1.4285714285714284</ele><time>2026-03-28T14:42:44.643Z</time></trkpt><trkpt lat="44.3660233" lon="12.1885067"><ele>1.5714285714285714</ele><time>2026-03-28T14:42:45.643Z</time></trkpt><trkpt lat="44.36598" lon="12.1884417"><ele>1.714285714285714</ele><time>2026-03-28T14:42:46.643Z</time></trkpt><trkpt lat="44.3659283" lon="12.1883717"><ele>1.857142857142857</ele><time>2026-03-28T14:42:47.643Z</time></trkpt><trkpt lat="44.3658733" lon="12.1883033"><ele>2.0</ele><time>2026-03-28T14:42:48.643Z</time></trkpt><trkpt lat="44.3658233" lon="12.1882367"><ele>2.2</ele><time>2026-03-28T14:42:49.643Z</time></trkpt><trkpt lat="44.3657317" lon="12.1881283"><ele>2.4000000000000004</ele><time>2026-03-28T14:42:51.643Z</time></trkpt><trkpt lat="44.3656867" lon="12.1880617"><ele>2.5999999999999996</ele><time>2026-03-28T14:42:52.644Z</time></trkpt><trkpt lat="44.36564" lon="12.1880017"><ele>2.8</ele><time>2026-03-28T14:42:53.643Z</time></trkpt><trkpt lat="44.3655567" lon="12.1878783"><ele>3.0</ele><time>2026-03-28T14:42:55.643Z</time></trkpt><trkpt lat="44.3654683" lon="12.18776"><ele>3.0</ele><time>2026-03-28T14:42:57.644Z</time></trkpt><trkpt lat="44.36538" lon="12.1876333"><ele>3.0</ele><time>2026-03-28T14:42:59.643Z</time></trkpt><trkpt lat="44.365335" lon="12.18756"><ele>3.0</ele><time>2026-03-28T14:43:00.643Z</time></trkpt><trkpt lat="44.36529" lon="12.1874967"><ele>3.0</ele><time>2026-03-28T14:43:01.643Z</time></trkpt><trkpt lat="44.3651933" lon="12.18738"><ele>3.0</ele><time>2026-03-28T14:43:03.643Z</time></trkpt><trkpt lat="44.365145" lon="12.18732"><ele>2.6</ele><time>2026-03-28T14:43:04.643Z</time></trkpt><trkpt lat="44.365095" lon="12.1872633"><ele>2.1999999999999997</ele><time>2026-03-28T14:43:05.643Z</time></trkpt><trkpt lat="44.3650067" lon="12.1871533"><ele>1.8</ele><time>2026-03-28T14:43:07.644Z</time></trkpt><trkpt lat="44.3649217" lon="12.187055"><ele>1.4</ele><time>2026-03-28T14:43:09.643Z</time></trkpt><trkpt lat="44.36483" lon="12.1869467"><ele>1.0</ele><time>2026-03-28T14:43:11.643Z</time></trkpt><trkpt lat="44.36478" lon="12.1868917"><ele>1.0</ele><time>2026-03-28T14:43:12.643Z</time></trkpt><trkpt lat="44.3647317" lon="12.1868333"><ele>1.0</ele><time>2026-03-28T14:43:13.644Z</time></trkpt><trkpt lat="44.3646817" lon="12.1867783"><ele>1.0</ele><time>2026-03-28T14:43:14.644Z</time></trkpt><trkpt lat="44.3645817" lon="12.186665"><ele>1.0</ele><time>2026-03-28T14:43:16.643Z</time></trkpt><trkpt lat="44.3644883" lon="12.1865633"><ele>1.0</ele><time>2026-03-28T14:43:18.643Z</time></trkpt><trkpt lat="44.3643967" lon="12.1864683"><ele>1.25</ele><time>2026-03-28T14:43:20.643Z</time></trkpt><trkpt lat="44.3642983" lon="12.1863667"><ele>1.5</ele><time>2026-03-28T14:43:22.643Z</time></trkpt><trkpt lat="44.3642017" lon="12.186265"><ele>1.75</ele><time>2026-03-28T14:43:24.643Z</time></trkpt><trkpt lat="44.364105" lon="12.1861767"><ele>2.0</ele><time>2026-03-28T14:43:26.643Z</time></trkpt><trkpt lat="44.36402" lon="12.1860833"><ele>2.0</ele><time>2026-03-28T14:43:28.643Z</time></trkpt><trkpt lat="44.363925" lon="12.18599"><ele>2.0</ele><time>2026-03-28T14:43:30.644Z</time></trkpt><trkpt lat="44.363875" lon="12.1859333"><ele>2.0</ele><time>2026-03-28T14:43:31.643Z</time></trkpt><trkpt lat="44.36379" lon="12.1858217"><ele>2.0</ele><time>2026-03-28T14:43:33.644Z</time></trkpt><trkpt lat="44.3637117" lon="12.1857133"><ele>2.0</ele><time>2026-03-28T14:43:35.644Z</time></trkpt><trkpt lat="44.363635" lon="12.1856067"><ele>1.8</ele><time>2026-03-28T14:43:37.643Z</time></trkpt><trkpt lat="44.363565" lon="12.1855"><ele>1.6</ele><time>2026-03-28T14:43:39.643Z</time></trkpt><trkpt lat="44.3634983" lon="12.1853933"><ele>1.4000000000000001</ele><time>2026-03-28T14:43:41.643Z</time></trkpt><trkpt lat="44.3634233" lon="12.18528"><ele>1.2000000000000002</ele><time>2026-03-28T14:43:43.644Z</time></trkpt><trkpt lat="44.36335" lon="12.1851717"><ele>1.0</ele><time>2026-03-28T14:43:45.643Z</time></trkpt><trkpt lat="44.3632717" lon="12.1850733"><ele>1.0</ele><time>2026-03-28T14:43:47.643Z</time></trkpt><trkpt lat="44.3631967" lon="12.1849733"><ele>1.0</ele><time>2026-03-28T14:43:49.644Z</time></trkpt><trkpt lat="44.3631167" lon="12.1848617"><ele>1.0</ele><time>2026-03-28T14:43:51.643Z</time></trkpt><trkpt lat="44.3630367" lon="12.1847383"><ele>1.0</ele><time>2026-03-28T14:43:53.643Z</time></trkpt><trkpt lat="44.362955" lon="12.1846183"><ele>1.2000000000000002</ele><time>2026-03-28T14:43:55.643Z</time></trkpt><trkpt lat="44.362865" lon="12.1844983"><ele>1.4000000000000001</ele><time>2026-03-28T14:43:57.643Z</time></trkpt><trkpt lat="44.36277" lon="12.1843867"><ele>1.6</ele><time>2026-03-28T14:43:59.644Z</time></trkpt><trkpt lat="44.36272" lon="12.1843317"><ele>1.8</ele><time>2026-03-28T14:44:00.643Z</time></trkpt><trkpt lat="44.3626717" lon="12.1842683"><ele>2.0</ele><time>2026-03-28T14:44:01.643Z</time></trkpt><trkpt lat="44.3625767" lon="12.1841517"><ele>2.0</ele><time>2026-03-28T14:44:03.643Z</time></trkpt><trkpt lat="44.3625267" lon="12.184095"><ele>2.0</ele><time>2026-03-28T14:44:04.643Z</time></trkpt><trkpt lat="44.3624733" lon="12.1840367"><ele>2.0</ele><time>2026-03-28T14:44:05.643Z</time></trkpt><trkpt lat="44.3624183" lon="12.1839783"><ele>2.0</ele><time>2026-03-28T14:44:06.643Z</time></trkpt><trkpt lat="44.3623183" lon="12.183885"><ele>2.0</ele><time>2026-03-28T14:44:08.644Z</time></trkpt><trkpt lat="44.362215" lon="12.1837767"><ele>2.1666666666666665</ele><time>2026-03-28T14:44:10.643Z</time></trkpt><trkpt lat="44.36216" lon="12.1837117"><ele>2.333333333333333</ele><time>2026-03-28T14:44:11.643Z</time></trkpt><trkpt lat="44.3620583" lon="12.1836083"><ele>2.5</ele><time>2026-03-28T14:44:13.643Z</time></trkpt><trkpt lat="44.3620033" lon="12.1835617"><ele>2.6666666666666665</ele><time>2026-03-28T14:44:14.644Z</time></trkpt><trkpt lat="44.3619" lon="12.1834767"><ele>2.8333333333333335</ele><time>2026-03-28T14:44:16.643Z</time></trkpt><trkpt lat="44.361845" lon="12.1834267"><ele>3.0</ele><time>2026-03-28T14:44:17.643Z</time></trkpt><trkpt lat="44.3617367" lon="12.1833283"><ele>3.0</ele><time>2026-03-28T14:44:19.643Z</time></trkpt><trkpt lat="44.3616283" lon="12.1832367"><ele>3.0</ele><time>2026-03-28T14:44:21.643Z</time></trkpt><trkpt lat="44.361575" lon="12.1831883"><ele>3.0</ele><time>2026-03-28T14:44:22.643Z</time></trkpt><trkpt lat="44.361495" lon="12.1831"><ele>3.0</ele><time>2026-03-28T14:44:24.643Z</time></trkpt><trkpt lat="44.3614083" lon="12.18301"><ele>3.0</ele><time>2026-03-28T14:44:26.643Z</time></trkpt><trkpt lat="44.3613033" lon="12.1829217"><ele>3.0</ele><time>2026-03-28T14:44:28.643Z</time></trkpt><trkpt lat="44.3611983" lon="12.1828467"><ele>3.0</ele><time>2026-03-28T14:44:30.643Z</time></trkpt><trkpt lat="44.3611133" lon="12.182765"><ele>3.0</ele><time>2026-03-28T14:44:32.643Z</time></trkpt><trkpt lat="44.3610017" lon="12.18267"><ele>3.0</ele><time>2026-03-28T14:44:34.643Z</time></trkpt><trkpt lat="44.3609417" lon="12.1826217"><ele>3.0</ele><time>2026-03-28T14:44:35.643Z</time></trkpt><trkpt lat="44.360835" lon="12.1825183"><ele>2.9999999999999996</ele><time>2026-03-28T14:44:37.644Z</time></trkpt><trkpt lat="44.3607733" lon="12.1824717"><ele>3.0</ele><time>2026-03-28T14:44:38.643Z</time></trkpt><trkpt lat="44.3607133" lon="12.1824183"><ele>3.0</ele><time>2026-03-28T14:44:39.643Z</time></trkpt><trkpt lat="44.3606533" lon="12.1823717"><ele>3.0</ele><time>2026-03-28T14:44:40.643Z</time></trkpt><trkpt lat="44.3605933" lon="12.182325"><ele>3.0</ele><time>2026-03-28T14:44:41.643Z</time></trkpt><trkpt lat="44.36053" lon="12.1822767"><ele>2.9999999999999996</ele><time>2026-03-28T14:44:42.643Z</time></trkpt><trkpt lat="44.36047" lon="12.1822217"><ele>3.0</ele><time>2026-03-28T14:44:43.643Z</time></trkpt><trkpt lat="44.3604133" lon="12.18217"><ele>2.9999999999999996</ele><time>2026-03-28T14:44:44.644Z</time></trkpt><trkpt lat="44.3603533" lon="12.1821167"><ele>3.0</ele><time>2026-03-28T14:44:45.644Z</time></trkpt><trkpt lat="44.3602917" lon="12.182055"><ele>3.0</ele><time>2026-03-28T14:44:46.643Z</time></trkpt><trkpt lat="44.3602367" lon="12.1819883"><ele>3.0</ele><time>2026-03-28T14:44:47.643Z</time></trkpt><trkpt lat="44.3601783" lon="12.1819233"><ele>3.0</ele><time>2026-03-28T14:44:48.643Z</time></trkpt><trkpt lat="44.3601217" lon="12.1818617"><ele>2.9999999999999996</ele><time>2026-03-28T14:44:49.643Z</time></trkpt><trkpt lat="44.3600583" lon="12.1817933"><ele>3.0</ele><time>2026-03-28T14:44:50.643Z</time></trkpt><trkpt lat="44.3600033" lon="12.1817083"><ele>2.9999999999999996</ele><time>2026-03-28T14:44:51.643Z</time></trkpt><trkpt lat="44.3599483" lon="12.1816317"><ele>3.0</ele><time>2026-03-28T14:44:52.643Z</time></trkpt><trkpt lat="44.359895" lon="12.1815583"><ele>3.0</ele><time>2026-03-28T14:44:53.644Z</time></trkpt><trkpt lat="44.3598367" lon="12.181495"><ele>3.0</ele><time>2026-03-28T14:44:54.643Z</time></trkpt><trkpt lat="44.3597817" lon="12.1814283"><ele>3.0</ele><time>2026-03-28T14:44:55.644Z</time></trkpt><trkpt lat="44.359735" lon="12.18135"><ele>2.9999999999999996</ele><time>2026-03-28T14:44:56.643Z</time></trkpt><trkpt lat="44.35969" lon="12.181275"><ele>3.0</ele><time>2026-03-28T14:44:57.644Z</time></trkpt><trkpt lat="44.35964" lon="12.1812083"><ele>2.8571428571428568</ele><time>2026-03-28T14:44:58.643Z</time></trkpt><trkpt lat="44.3595883" lon="12.1811417"><ele>2.7142857142857144</ele><time>2026-03-28T14:44:59.644Z</time></trkpt><trkpt lat="44.3595417" lon="12.1810733"><ele>2.571428571428571</ele><time>2026-03-28T14:45:00.643Z</time></trkpt><trkpt lat="44.3594983" lon="12.181"><ele>2.4285714285714284</ele><time>2026-03-28T14:45:01.643Z</time></trkpt><trkpt lat="44.359455" lon="12.180925"><ele>2.2857142857142856</ele><time>2026-03-28T14:45:02.643Z</time></trkpt><trkpt lat="44.3594117" lon="12.180855"><ele>2.142857142857143</ele><time>2026-03-28T14:45:03.644Z</time></trkpt><trkpt lat="44.359365" lon="12.1807883"><ele>2.0</ele><time>2026-03-28T14:45:04.644Z</time></trkpt><trkpt lat="44.359315" lon="12.1807233"><ele>2.4000000000000004</ele><time>2026-03-28T14:45:05.643Z</time></trkpt><trkpt lat="44.3592683" lon="12.1806633"><ele>2.8000000000000003</ele><time>2026-03-28T14:45:06.643Z</time></trkpt><trkpt lat="44.3591767" lon="12.1805367"><ele>3.2</ele><time>2026-03-28T14:45:08.643Z</time></trkpt><trkpt lat="44.359085" lon="12.1804367"><ele>3.6</ele><time>2026-03-28T14:45:10.643Z</time></trkpt><trkpt lat="44.3589867" lon="12.1803417"><ele>4.0</ele><time>2026-03-28T14:45:12.643Z</time></trkpt><trkpt lat="44.3588817" lon="12.1802533"><ele>3.6</ele><time>2026-03-28T14:45:14.643Z</time></trkpt><trkpt lat="44.3587767" lon="12.180175"><ele>3.2</ele><time>2026-03-28T14:45:16.643Z</time></trkpt><trkpt lat="44.3586733" lon="12.1801033"><ele>2.8000000000000003</ele><time>2026-03-28T14:45:18.643Z</time></trkpt><trkpt lat="44.3585733" lon="12.1800317"><ele>2.4000000000000004</ele><time>2026-03-28T14:45:20.643Z</time></trkpt><trkpt lat="44.3584783" lon="12.1799817"><ele>2.0</ele><time>2026-03-28T14:45:22.643Z</time></trkpt><trkpt lat="44.3583717" lon="12.179935"><ele>1.9999999999999998</ele><time>2026-03-28T14:45:24.643Z</time></trkpt><trkpt lat="44.3582517" lon="12.1799017"><ele>2.0</ele><time>2026-03-28T14:45:26.644Z</time></trkpt><trkpt lat="44.3581833" lon="12.17989"><ele>2.0</ele><time>2026-03-28T14:45:27.644Z</time></trkpt><trkpt lat="44.35812" lon="12.179875"><ele>2.0</ele><time>2026-03-28T14:45:28.644Z</time></trkpt><trkpt lat="44.3580533" lon="12.1798633"><ele>1.9999999999999998</ele><time>2026-03-28T14:45:29.643Z</time></trkpt><trkpt lat="44.3579833" lon="12.1798533"><ele>2.0</ele><time>2026-03-28T14:45:30.643Z</time></trkpt><trkpt lat="44.35792" lon="12.1798433"><ele>2.0</ele><time>2026-03-28T14:45:31.644Z</time></trkpt><trkpt lat="44.3578483" lon="12.1798333"><ele>1.9999999999999998</ele><time>2026-03-28T14:45:32.643Z</time></trkpt><trkpt lat="44.35778" lon="12.1798233"><ele>2.0</ele><time>2026-03-28T14:45:33.644Z</time></trkpt><trkpt lat="44.3577167" lon="12.1798117"><ele>2.0</ele><time>2026-03-28T14:45:34.644Z</time></trkpt><trkpt lat="44.3576467" lon="12.1798"><ele>1.9999999999999998</ele><time>2026-03-28T14:45:35.643Z</time></trkpt><trkpt lat="44.3575733" lon="12.179795"><ele>2.0</ele><time>2026-03-28T14:45:36.643Z</time></trkpt><trkpt lat="44.3575033" lon="12.1797883"><ele>2.0</ele><time>2026-03-28T14:45:37.643Z</time></trkpt><trkpt lat="44.3574317" lon="12.1797767"><ele>1.9999999999999998</ele><time>2026-03-28T14:45:38.644Z</time></trkpt><trkpt lat="44.35736" lon="12.1797683"><ele>2.0</ele><time>2026-03-28T14:45:39.643Z</time></trkpt><trkpt lat="44.3572883" lon="12.17976"><ele>2.0</ele><time>2026-03-28T14:45:40.644Z</time></trkpt><trkpt lat="44.3572233" lon="12.1797467"><ele>2.0</ele><time>2026-03-28T14:45:41.643Z</time></trkpt><trkpt lat="44.35716" lon="12.1797283"><ele>1.9999999999999998</ele><time>2026-03-28T14:45:42.644Z</time></trkpt><trkpt lat="44.357035" lon="12.179695"><ele>2.0</ele><time>2026-03-28T14:45:44.643Z</time></trkpt><trkpt lat="44.3569717" lon="12.1796783"><ele>1.9999999999999998</ele><time>2026-03-28T14:45:45.644Z</time></trkpt><trkpt lat="44.35691" lon="12.17966"><ele>2.0</ele><time>2026-03-28T14:45:46.643Z</time></trkpt><trkpt lat="44.3567817" lon="12.179635"><ele>2.0</ele><time>2026-03-28T14:45:48.643Z</time></trkpt><trkpt lat="44.35671" lon="12.1796217"><ele>2.0</ele><time>2026-03-28T14:45:49.643Z</time></trkpt><trkpt lat="44.3566283" lon="12.179605"><ele>1.9999999999999998</ele><time>2026-03-28T14:45:50.643Z</time></trkpt><trkpt lat="44.3565567" lon="12.1795917"><ele>2.0</ele><time>2026-03-28T14:45:51.643Z</time></trkpt><trkpt lat="44.35649" lon="12.1795817"><ele>1.9999999999999998</ele><time>2026-03-28T14:45:52.643Z</time></trkpt><trkpt lat="44.3563767" lon="12.1795417"><ele>2.0</ele><time>2026-03-28T14:45:54.643Z</time></trkpt><trkpt lat="44.3562733" lon="12.179475"><ele>2.0</ele><time>2026-03-28T14:45:56.643Z</time></trkpt><trkpt lat="44.3562167" lon="12.1794283"><ele>2.0</ele><time>2026-03-28T14:45:57.644Z</time></trkpt><trkpt lat="44.356155" lon="12.1793783"><ele>1.9999999999999998</ele><time>2026-03-28T14:45:58.643Z</time></trkpt><trkpt lat="44.356095" lon="12.1793283"><ele>2.0</ele><time>2026-03-28T14:45:59.643Z</time></trkpt><trkpt lat="44.356035" lon="12.1792817"><ele>1.857142857142857</ele><time>2026-03-28T14:46:00.643Z</time></trkpt><trkpt lat="44.355975" lon="12.1792333"><ele>1.714285714285714</ele><time>2026-03-28T14:46:01.643Z</time></trkpt><trkpt lat="44.3559133" lon="12.1791833"><ele>1.5714285714285714</ele><time>2026-03-28T14:46:02.643Z</time></trkpt><trkpt lat="44.3558567" lon="12.1791317"><ele>1.4285714285714284</ele><time>2026-03-28T14:46:03.643Z</time></trkpt><trkpt lat="44.3557933" lon="12.179085"><ele>1.2857142857142856</ele><time>2026-03-28T14:46:04.643Z</time></trkpt><trkpt lat="44.3557267" lon="12.179035"><ele>1.1428571428571428</ele><time>2026-03-28T14:46:05.643Z</time></trkpt><trkpt lat="44.355665" lon="12.178985"><ele>1.0</ele><time>2026-03-28T14:46:06.644Z</time></trkpt><trkpt lat="44.3556033" lon="12.17893"><ele>1.0</ele><time>2026-03-28T14:46:07.643Z</time></trkpt><trkpt lat="44.355545" lon="12.1788767"><ele>0.9999999999999999</ele><time>2026-03-28T14:46:08.643Z</time></trkpt><trkpt lat="44.3554867" lon="12.178825"><ele>1.0</ele><time>2026-03-28T14:46:09.644Z</time></trkpt><trkpt lat="44.35542" lon="12.1787733"><ele>1.0</ele><time>2026-03-28T14:46:10.643Z</time></trkpt><trkpt lat="44.3553617" lon="12.1787183"><ele>0.9999999999999999</ele><time>2026-03-28T14:46:11.643Z</time></trkpt><trkpt lat="44.35531" lon="12.1786583"><ele>1.0</ele><time>2026-03-28T14:46:12.643Z</time></trkpt><trkpt lat="44.3552583" lon="12.1786033"><ele>1.0</ele><time>2026-03-28T14:46:13.643Z</time></trkpt><trkpt lat="44.3552067" lon="12.1785483"><ele>1.0</ele><time>2026-03-28T14:46:14.643Z</time></trkpt><trkpt lat="44.3551033" lon="12.1784433"><ele>1.0</ele><time>2026-03-28T14:46:16.644Z</time></trkpt><trkpt lat="44.3550017" lon="12.178345"><ele>1.0</ele><time>2026-03-28T14:46:18.643Z</time></trkpt><trkpt lat="44.3548967" lon="12.1782517"><ele>1.0</ele><time>2026-03-28T14:46:20.643Z</time></trkpt><trkpt lat="44.3548383" lon="12.178205"><ele>1.0</ele><time>2026-03-28T14:46:21.643Z</time></trkpt><trkpt lat="44.3547783" lon="12.1781583"><ele>1.0</ele><time>2026-03-28T14:46:22.643Z</time></trkpt><trkpt lat="44.35472" lon="12.1781133"><ele>0.9999999999999999</ele><time>2026-03-28T14:46:23.643Z</time></trkpt><trkpt lat="44.354665" lon="12.17807"><ele>1.0</ele><time>2026-03-28T14:46:24.643Z</time></trkpt><trkpt lat="44.3546083" lon="12.178025"><ele>1.0</ele><time>2026-03-28T14:46:25.643Z</time></trkpt><trkpt lat="44.3545483" lon="12.1779883"><ele>0.9999999999999999</ele><time>2026-03-28T14:46:26.643Z</time></trkpt><trkpt lat="44.3544867" lon="12.1779583"><ele>1.0</ele><time>2026-03-28T14:46:27.644Z</time></trkpt><trkpt lat="44.3544267" lon="12.1779283"><ele>1.0</ele><time>2026-03-28T14:46:28.643Z</time></trkpt><trkpt lat="44.354365" lon="12.1778967"><ele>0.9999999999999999</ele><time>2026-03-28T14:46:29.643Z</time></trkpt><trkpt lat="44.3543" lon="12.1778667"><ele>1.0</ele><time>2026-03-28T14:46:30.643Z</time></trkpt><trkpt lat="44.35424" lon="12.177835"><ele>1.0</ele><time>2026-03-28T14:46:31.644Z</time></trkpt><trkpt lat="44.354135" lon="12.177765"><ele>1.0</ele><time>2026-03-28T14:46:33.644Z</time></trkpt><trkpt lat="44.354075" lon="12.17773"><ele>0.9999999999999999</ele><time>2026-03-28T14:46:34.643Z</time></trkpt><trkpt lat="44.3539667" lon="12.177685"><ele>1.0</ele><time>2026-03-28T14:46:36.643Z</time></trkpt><trkpt lat="44.3539067" lon="12.1776583"><ele>0.9999999999999999</ele><time>2026-03-28T14:46:37.643Z</time></trkpt><trkpt lat="44.353845" lon="12.1776367"><ele>1.0</ele><time>2026-03-28T14:46:38.643Z</time></trkpt><trkpt lat="44.35373" lon="12.1775917"><ele>1.0</ele><time>2026-03-28T14:46:40.644Z</time></trkpt><trkpt lat="44.3536633" lon="12.1775583"><ele>1.0</ele><time>2026-03-28T14:46:41.643Z</time></trkpt><trkpt lat="44.3536017" lon="12.17753"><ele>0.9999999999999999</ele><time>2026-03-28T14:46:42.643Z</time></trkpt><trkpt lat="44.3535417" lon="12.1775"><ele>1.0</ele><time>2026-03-28T14:46:43.643Z</time></trkpt><trkpt lat="44.353425" lon="12.1774417"><ele>1.0</ele><time>2026-03-28T14:46:45.643Z</time></trkpt><trkpt lat="44.3533633" lon="12.1774133"><ele>1.0</ele><time>2026-03-28T14:46:46.644Z</time></trkpt><trkpt lat="44.3532433" lon="12.177355"><ele>1.0</ele><time>2026-03-28T14:46:48.643Z</time></trkpt><trkpt lat="44.3531333" lon="12.1773067"><ele>1.0</ele><time>2026-03-28T14:46:50.643Z</time></trkpt><trkpt lat="44.3530167" lon="12.1772467"><ele>1.0</ele><time>2026-03-28T14:46:52.643Z</time></trkpt><trkpt lat="44.3529533" lon="12.1772233"><ele>1.25</ele><time>2026-03-28T14:46:53.643Z</time></trkpt><trkpt lat="44.35284" lon="12.1771683"><ele>1.5</ele><time>2026-03-28T14:46:55.643Z</time></trkpt><trkpt lat="44.35273" lon="12.1771267"><ele>1.75</ele><time>2026-03-28T14:46:57.644Z</time></trkpt><trkpt lat="44.3526233" lon="12.1770817"><ele>2.0</ele><time>2026-03-28T14:46:59.643Z</time></trkpt><trkpt lat="44.352515" lon="12.177035"><ele>2.0</ele><time>2026-03-28T14:47:01.643Z</time></trkpt><trkpt lat="44.3524117" lon="12.1770033"><ele>2.0</ele><time>2026-03-28T14:47:03.643Z</time></trkpt><trkpt lat="44.3523017" lon="12.176975"><ele>2.0</ele><time>2026-03-28T14:47:05.644Z</time></trkpt><trkpt lat="44.3521833" lon="12.1769583"><ele>2.0</ele><time>2026-03-28T14:47:07.643Z</time></trkpt><trkpt lat="44.3520633" lon="12.1769617"><ele>1.8333333333333333</ele><time>2026-03-28T14:47:09.643Z</time></trkpt><trkpt lat="44.3519917" lon="12.1769667"><ele>1.6666666666666665</ele><time>2026-03-28T14:47:10.643Z</time></trkpt><trkpt lat="44.3518683" lon="12.1769883"><ele>1.5</ele><time>2026-03-28T14:47:12.643Z</time></trkpt><trkpt lat="44.3517967" lon="12.177005"><ele>1.3333333333333333</ele><time>2026-03-28T14:47:13.644Z</time></trkpt><trkpt lat="44.3517317" lon="12.1770233"><ele>1.1666666666666665</ele><time>2026-03-28T14:47:14.643Z</time></trkpt><trkpt lat="44.3516683" lon="12.177045"><ele>1.0</ele><time>2026-03-28T14:47:15.643Z</time></trkpt><trkpt lat="44.3516033" lon="12.1770683"><ele>1.0</ele><time>2026-03-28T14:47:16.643Z</time></trkpt><trkpt lat="44.35148" lon="12.1771117"><ele>1.0</ele><time>2026-03-28T14:47:18.643Z</time></trkpt><trkpt lat="44.351375" lon="12.1771567"><ele>1.0</ele><time>2026-03-28T14:47:20.643Z</time></trkpt><trkpt lat="44.3513067" lon="12.1772067"><ele>1.0</ele><time>2026-03-28T14:47:22.643Z</time></trkpt><trkpt lat="44.3512433" lon="12.17729"><ele>1.0</ele><time>2026-03-28T14:47:32.643Z</time></trkpt><trkpt lat="44.3512917" lon="12.1772333"><ele>0.8333333333333333</ele><time>2026-03-28T14:47:36.643Z</time></trkpt><trkpt lat="44.3512367" lon="12.1772867"><ele>0.6666666666666666</ele><time>2026-03-28T14:49:24.643Z</time></trkpt><trkpt lat="44.3511617" lon="12.177345"><ele>0.5</ele><time>2026-03-28T14:49:27.643Z</time></trkpt><trkpt lat="44.35111" lon="12.1774033"><ele>0.3333333333333333</ele><time>2026-03-28T14:49:29.644Z</time></trkpt><trkpt lat="44.3510483" lon="12.1774633"><ele>0.16666666666666666</ele><time>2026-03-28T14:49:31.644Z</time></trkpt><trkpt lat="44.3509833" lon="12.177525"><ele>0.0</ele><time>2026-03-28T14:49:33.645Z</time></trkpt><trkpt lat="44.3509233" lon="12.177595"><ele>0.0</ele><time>2026-03-28T14:49:35.644Z</time></trkpt><trkpt lat="44.3508667" lon="12.1776733"><ele>0.0</ele><time>2026-03-28T14:49:37.644Z</time></trkpt><trkpt lat="44.350815" lon="12.1777567"><ele>0.0</ele><time>2026-03-28T14:49:39.644Z</time></trkpt><trkpt lat="44.350755" lon="12.1778617"><ele>0.0</ele><time>2026-03-28T14:49:41.644Z</time></trkpt><trkpt lat="44.3506883" lon="12.177975"><ele>0.0</ele><time>2026-03-28T14:49:43.644Z</time></trkpt><trkpt lat="44.3506167" lon="12.1780883"><ele>0.0</ele><time>2026-03-28T14:49:45.645Z</time></trkpt><trkpt lat="44.3505533" lon="12.1781867"><ele>0.0</ele><time>2026-03-28T14:49:47.644Z</time></trkpt><trkpt lat="44.3504883" lon="12.1782917"><ele>0.0</ele><time>2026-03-28T14:49:49.644Z</time></trkpt><trkpt lat="44.3504217" lon="12.1783983"><ele>0.0</ele><time>2026-03-28T14:49:51.644Z</time></trkpt><trkpt lat="44.3503633" lon="12.1785117"><ele>0.0</ele><time>2026-03-28T14:49:53.644Z</time></trkpt><trkpt lat="44.350295" lon="12.1786317"><ele>-0.25</ele><time>2026-03-28T14:49:55.644Z</time></trkpt><trkpt lat="44.35023" lon="12.1787517"><ele>-0.5</ele><time>2026-03-28T14:49:57.644Z</time></trkpt><trkpt lat="44.3501583" lon="12.17888"><ele>-0.75</ele><time>2026-03-28T14:49:59.644Z</time></trkpt><trkpt lat="44.3500833" lon="12.1790033"><ele>-1.0</ele><time>2026-03-28T14:50:01.644Z</time></trkpt><trkpt lat="44.35001" lon="12.1791233"><ele>-0.6000000000000001</ele><time>2026-03-28T14:50:03.644Z</time></trkpt><trkpt lat="44.349935" lon="12.1792483"><ele>-0.20000000000000007</ele><time>2026-03-28T14:50:05.644Z</time></trkpt><trkpt lat="44.349865" lon="12.1793583"><ele>0.20000000000000007</ele><time>2026-03-28T14:50:07.644Z</time></trkpt><trkpt lat="44.3497983" lon="12.1794383"><ele>0.6000000000000001</ele><time>2026-03-28T14:50:09.645Z</time></trkpt><trkpt lat="44.3497083" lon="12.1795167"><ele>1.0</ele><time>2026-03-28T14:50:11.645Z</time></trkpt><trkpt lat="44.3496217" lon="12.1795933"><ele>1.0</ele><time>2026-03-28T14:50:13.644Z</time></trkpt><trkpt lat="44.3495283" lon="12.1796517"><ele>1.0</ele><time>2026-03-28T14:50:15.645Z</time></trkpt><trkpt lat="44.3494517" lon="12.179675"><ele>1.0</ele><time>2026-03-28T14:50:17.644Z</time></trkpt><trkpt lat="44.3493367" lon="12.1796967"><ele>1.0</ele><time>2026-03-28T14:50:19.644Z</time></trkpt><trkpt lat="44.349215" lon="12.1797083"><ele>1.0</ele><time>2026-03-28T14:50:21.644Z</time></trkpt><trkpt lat="44.34909" lon="12.179725"><ele>1.0</ele><time>2026-03-28T14:50:23.644Z</time></trkpt><trkpt lat="44.349025" lon="12.1797333"><ele>1.0</ele><time>2026-03-28T14:50:24.644Z</time></trkpt><trkpt lat="44.3489583" lon="12.1797417"><ele>1.0</ele><time>2026-03-28T14:50:25.645Z</time></trkpt><trkpt lat="44.348845" lon="12.17975"><ele>1.0</ele><time>2026-03-28T14:50:27.644Z</time></trkpt><trkpt lat="44.3487217" lon="12.1797633"><ele>1.0</ele><time>2026-03-28T14:50:29.644Z</time></trkpt><trkpt lat="44.3485983" lon="12.1797717"><ele>0.8333333333333333</ele><time>2026-03-28T14:50:31.644Z</time></trkpt><trkpt lat="44.348535" lon="12.1797783"><ele>0.6666666666666666</ele><time>2026-03-28T14:50:32.644Z</time></trkpt><trkpt lat="44.34847" lon="12.17978"><ele>0.5</ele><time>2026-03-28T14:50:33.644Z</time></trkpt><trkpt lat="44.3484067" lon="12.179785"><ele>0.3333333333333333</ele><time>2026-03-28T14:50:34.644Z</time></trkpt><trkpt lat="44.3482783" lon="12.1797917"><ele>0.16666666666666666</ele><time>2026-03-28T14:50:36.644Z</time></trkpt><trkpt lat="44.3482133" lon="12.1797967"><ele>0.0</ele><time>2026-03-28T14:50:37.644Z</time></trkpt><trkpt lat="44.3481483" lon="12.1798033"><ele>0.2</ele><time>2026-03-28T14:50:38.644Z</time></trkpt><trkpt lat="44.3480217" lon="12.1798183"><ele>0.4</ele><time>2026-03-28T14:50:40.644Z</time></trkpt><trkpt lat="44.3479017" lon="12.17983"><ele>0.6000000000000001</ele><time>2026-03-28T14:50:42.645Z</time></trkpt><trkpt lat="44.3477817" lon="12.179835"><ele>0.8</ele><time>2026-03-28T14:50:44.644Z</time></trkpt><trkpt lat="44.3477183" lon="12.17984"><ele>1.0</ele><time>2026-03-28T14:50:45.644Z</time></trkpt><trkpt lat="44.3476017" lon="12.1798483"><ele>0.9999999999999999</ele><time>2026-03-28T14:50:47.645Z</time></trkpt><trkpt lat="44.3475333" lon="12.1798533"><ele>1.0</ele><time>2026-03-28T14:50:48.644Z</time></trkpt><trkpt lat="44.347465" lon="12.179855"><ele>1.0</ele><time>2026-03-28T14:50:49.644Z</time></trkpt><trkpt lat="44.3474017" lon="12.1798517"><ele>1.0</ele><time>2026-03-28T14:50:50.644Z</time></trkpt><trkpt lat="44.34728" lon="12.1798617"><ele>0.9999999999999999</ele><time>2026-03-28T14:50:52.644Z</time></trkpt><trkpt lat="44.3472133" lon="12.1798733"><ele>1.0</ele><time>2026-03-28T14:50:53.644Z</time></trkpt><trkpt lat="44.3470833" lon="12.1798967"><ele>0.8571428571428571</ele><time>2026-03-28T14:50:55.644Z</time></trkpt><trkpt lat="44.3470133" lon="12.179905"><ele>0.7142857142857142</ele><time>2026-03-28T14:50:56.644Z</time></trkpt><trkpt lat="44.3469467" lon="12.1799067"><ele>0.5714285714285714</ele><time>2026-03-28T14:50:57.644Z</time></trkpt><trkpt lat="44.3468783" lon="12.1799133"><ele>0.42857142857142855</ele><time>2026-03-28T14:50:58.644Z</time></trkpt><trkpt lat="44.3468133" lon="12.179915"><ele>0.2857142857142857</ele><time>2026-03-28T14:50:59.645Z</time></trkpt><trkpt lat="44.3467417" lon="12.179925"><ele>0.14285714285714285</ele><time>2026-03-28T14:51:00.644Z</time></trkpt><trkpt lat="44.3466767" lon="12.1799317"><ele>0.0</ele><time>2026-03-28T14:51:01.645Z</time></trkpt><trkpt lat="44.3466067" lon="12.1799367"><ele>0.0</ele><time>2026-03-28T14:51:02.644Z</time></trkpt><trkpt lat="44.346535" lon="12.1799417"><ele>0.0</ele><time>2026-03-28T14:51:03.644Z</time></trkpt><trkpt lat="44.3464667" lon="12.179945"><ele>0.0</ele><time>2026-03-28T14:51:04.645Z</time></trkpt><trkpt lat="44.3464017" lon="12.1799467"><ele>0.0</ele><time>2026-03-28T14:51:05.644Z</time></trkpt><trkpt lat="44.346335" lon="12.1799567"><ele>0.0</ele><time>2026-03-28T14:51:06.644Z</time></trkpt><trkpt lat="44.34627" lon="12.1799667"><ele>0.0</ele><time>2026-03-28T14:51:07.644Z</time></trkpt><trkpt lat="44.346205" lon="12.1799717"><ele>0.0</ele><time>2026-03-28T14:51:08.644Z</time></trkpt><trkpt lat="44.3460783" lon="12.179985"><ele>-0.14285714285714285</ele><time>2026-03-28T14:51:10.644Z</time></trkpt><trkpt lat="44.3460117" lon="12.1799933"><ele>-0.2857142857142857</ele><time>2026-03-28T14:51:11.644Z</time></trkpt><trkpt lat="44.3459467" lon="12.18"><ele>-0.42857142857142855</ele><time>2026-03-28T14:51:12.644Z</time></trkpt><trkpt lat="44.3458833" lon="12.1800117"><ele>-0.5714285714285714</ele><time>2026-03-28T14:51:13.644Z</time></trkpt><trkpt lat="44.3458167" lon="12.18002"><ele>-0.7142857142857142</ele><time>2026-03-28T14:51:14.644Z</time></trkpt><trkpt lat="44.3457533" lon="12.1800233"><ele>-0.8571428571428571</ele><time>2026-03-28T14:51:15.645Z</time></trkpt><trkpt lat="44.34569" lon="12.18003"><ele>-1.0</ele><time>2026-03-28T14:51:16.645Z</time></trkpt><trkpt lat="44.3455667" lon="12.1800417"><ele>-0.8</ele><time>2026-03-28T14:51:18.644Z</time></trkpt><trkpt lat="44.3454417" lon="12.18005"><ele>-0.6000000000000001</ele><time>2026-03-28T14:51:20.644Z</time></trkpt><trkpt lat="44.34532" lon="12.180055"><ele>-0.4</ele><time>2026-03-28T14:51:22.644Z</time></trkpt><trkpt lat="44.3451983" lon="12.1800567"><ele>-0.2</ele><time>2026-03-28T14:51:24.644Z</time></trkpt><trkpt lat="44.345135" lon="12.1800567"><ele>0.0</ele><time>2026-03-28T14:51:25.644Z</time></trkpt><trkpt lat="44.3450167" lon="12.18006"><ele>0.0</ele><time>2026-03-28T14:51:27.645Z</time></trkpt><trkpt lat="44.3448983" lon="12.1800583"><ele>0.0</ele><time>2026-03-28T14:51:29.644Z</time></trkpt><trkpt lat="44.344785" lon="12.1800483"><ele>0.0</ele><time>2026-03-28T14:51:31.644Z</time></trkpt><trkpt lat="44.3446633" lon="12.180035"><ele>0.0</ele><time>2026-03-28T14:51:33.645Z</time></trkpt><trkpt lat="44.34455" lon="12.1800217"><ele>-0.2</ele><time>2026-03-28T14:51:35.644Z</time></trkpt><trkpt lat="44.3444317" lon="12.180005"><ele>-0.4</ele><time>2026-03-28T14:51:37.644Z</time></trkpt><trkpt lat="44.3443633" lon="12.18"><ele>-0.6000000000000001</ele><time>2026-03-28T14:51:38.644Z</time></trkpt><trkpt lat="44.3442983" lon="12.1799917"><ele>-0.8</ele><time>2026-03-28T14:51:39.644Z</time></trkpt><trkpt lat="44.3441767" lon="12.1799817"><ele>-1.0</ele><time>2026-03-28T14:51:41.645Z</time></trkpt><trkpt lat="44.344055" lon="12.1799633"><ele>-1.0</ele><time>2026-03-28T14:51:43.644Z</time></trkpt><trkpt lat="44.3439333" lon="12.179945"><ele>-1.0</ele><time>2026-03-28T14:51:45.645Z</time></trkpt><trkpt lat="44.3438133" lon="12.17993"><ele>-1.0</ele><time>2026-03-28T14:51:47.644Z</time></trkpt><trkpt lat="44.343695" lon="12.1799133"><ele>-1.0</ele><time>2026-03-28T14:51:49.645Z</time></trkpt><trkpt lat="44.3435783" lon="12.1798883"><ele>-1.0</ele><time>2026-03-28T14:51:51.644Z</time></trkpt><trkpt lat="44.343465" lon="12.17986"><ele>-1.0</ele><time>2026-03-28T14:51:53.644Z</time></trkpt><trkpt lat="44.3433483" lon="12.1798383"><ele>-1.0</ele><time>2026-03-28T14:51:55.644Z</time></trkpt><trkpt lat="44.343285" lon="12.17983"><ele>-1.0</ele><time>2026-03-28T14:51:56.644Z</time></trkpt><trkpt lat="44.3431667" lon="12.1798067"><ele>-1.0</ele><time>2026-03-28T14:51:58.644Z</time></trkpt><trkpt lat="44.3430967" lon="12.1798017"><ele>-0.6666666666666666</ele><time>2026-03-28T14:51:59.644Z</time></trkpt><trkpt lat="44.3430267" lon="12.1798"><ele>-0.3333333333333333</ele><time>2026-03-28T14:52:00.644Z</time></trkpt><trkpt lat="44.34296" lon="12.1797883"><ele>0.0</ele><time>2026-03-28T14:52:01.644Z</time></trkpt><trkpt lat="44.342845" lon="12.1797733"><ele>0.3333333333333333</ele><time>2026-03-28T14:52:03.644Z</time></trkpt><trkpt lat="44.3427317" lon="12.17975"><ele>0.6666666666666666</ele><time>2026-03-28T14:52:05.644Z</time></trkpt><trkpt lat="44.3426683" lon="12.1797433"><ele>1.0</ele><time>2026-03-28T14:52:06.644Z</time></trkpt><trkpt lat="44.342555" lon="12.1797283"><ele>0.9999999999999999</ele><time>2026-03-28T14:52:08.644Z</time></trkpt><trkpt lat="44.3424283" lon="12.17972"><ele>1.0</ele><time>2026-03-28T14:52:10.644Z</time></trkpt><trkpt lat="44.342365" lon="12.17972"><ele>1.0</ele><time>2026-03-28T14:52:11.645Z</time></trkpt><trkpt lat="44.3422967" lon="12.179715"><ele>1.0</ele><time>2026-03-28T14:52:12.644Z</time></trkpt><trkpt lat="44.34223" lon="12.17971"><ele>0.9999999999999999</ele><time>2026-03-28T14:52:13.644Z</time></trkpt><trkpt lat="44.3421617" lon="12.17971"><ele>1.0</ele><time>2026-03-28T14:52:14.644Z</time></trkpt><trkpt lat="44.342095" lon="12.1797083"><ele>0.8333333333333333</ele><time>2026-03-28T14:52:15.644Z</time></trkpt><trkpt lat="44.3420267" lon="12.17971"><ele>0.6666666666666666</ele><time>2026-03-28T14:52:16.644Z</time></trkpt><trkpt lat="44.3419617" lon="12.1797067"><ele>0.5</ele><time>2026-03-28T14:52:17.644Z</time></trkpt><trkpt lat="44.341895" lon="12.1797067"><ele>0.3333333333333333</ele><time>2026-03-28T14:52:18.644Z</time></trkpt><trkpt lat="44.34183" lon="12.1797"><ele>0.16666666666666666</ele><time>2026-03-28T14:52:19.644Z</time></trkpt><trkpt lat="44.3417067" lon="12.1797"><ele>0.0</ele><time>2026-03-28T14:52:21.645Z</time></trkpt><trkpt lat="44.3415833" lon="12.1796933"><ele>0.0</ele><time>2026-03-28T14:52:23.644Z</time></trkpt><trkpt lat="44.3414667" lon="12.17969"><ele>0.0</ele><time>2026-03-28T14:52:25.644Z</time></trkpt><trkpt lat="44.3414017" lon="12.1796867"><ele>0.0</ele><time>2026-03-28T14:52:26.644Z</time></trkpt><trkpt lat="44.3413317" lon="12.1796817"><ele>0.0</ele><time>2026-03-28T14:52:27.644Z</time></trkpt><trkpt lat="44.3412617" lon="12.1796783"><ele>0.0</ele><time>2026-03-28T14:52:28.644Z</time></trkpt><trkpt lat="44.3411933" lon="12.1796817"><ele>0.0</ele><time>2026-03-28T14:52:29.644Z</time></trkpt><trkpt lat="44.341125" lon="12.17968"><ele>0.0</ele><time>2026-03-28T14:52:30.644Z</time></trkpt><trkpt lat="44.3410583" lon="12.1796783"><ele>0.0</ele><time>2026-03-28T14:52:31.645Z</time></trkpt><trkpt lat="44.3409867" lon="12.1796783"><ele>0.0</ele><time>2026-03-28T14:52:32.644Z</time></trkpt><trkpt lat="44.3409233" lon="12.17968"><ele>0.0</ele><time>2026-03-28T14:52:33.645Z</time></trkpt><trkpt lat="44.3408583" lon="12.17968"><ele>0.0</ele><time>2026-03-28T14:52:34.644Z</time></trkpt><trkpt lat="44.3407917" lon="12.1796783"><ele>0.0</ele><time>2026-03-28T14:52:35.645Z</time></trkpt><trkpt lat="44.3407217" lon="12.1796767"><ele>0.0</ele><time>2026-03-28T14:52:36.644Z</time></trkpt><trkpt lat="44.34065" lon="12.1796783"><ele>0.0</ele><time>2026-03-28T14:52:37.644Z</time></trkpt><trkpt lat="44.3405833" lon="12.179675"><ele>0.0</ele><time>2026-03-28T14:52:38.644Z</time></trkpt><trkpt lat="44.34052" lon="12.1796717"><ele>0.0</ele><time>2026-03-28T14:52:39.644Z</time></trkpt><trkpt lat="44.3404533" lon="12.1796717"><ele>0.0</ele><time>2026-03-28T14:52:40.644Z</time></trkpt><trkpt lat="44.340385" lon="12.1796733"><ele>0.0</ele><time>2026-03-28T14:52:41.644Z</time></trkpt><trkpt lat="44.3403167" lon="12.1796717"><ele>0.0</ele><time>2026-03-28T14:52:42.644Z</time></trkpt><trkpt lat="44.3402517" lon="12.1796683"><ele>0.0</ele><time>2026-03-28T14:52:43.644Z</time></trkpt><trkpt lat="44.340185" lon="12.17967"><ele>0.0</ele><time>2026-03-28T14:52:44.644Z</time></trkpt><trkpt lat="44.3401183" lon="12.1796667"><ele>0.0</ele><time>2026-03-28T14:52:45.645Z</time></trkpt><trkpt lat="44.3400533" lon="12.1796683"><ele>0.0</ele><time>2026-03-28T14:52:46.644Z</time></trkpt><trkpt lat="44.3399883" lon="12.1796683"><ele>0.0</ele><time>2026-03-28T14:52:47.644Z</time></trkpt><trkpt lat="44.3398667" lon="12.17966"><ele>0.0</ele><time>2026-03-28T14:52:49.644Z</time></trkpt><trkpt lat="44.3397533" lon="12.1796567"><ele>0.0</ele><time>2026-03-28T14:52:51.644Z</time></trkpt><trkpt lat="44.33964" lon="12.1796483"><ele>0.0</ele><time>2026-03-28T14:52:53.645Z</time></trkpt><trkpt lat="44.3395233" lon="12.179645"><ele>0.0</ele><time>2026-03-28T14:52:55.644Z</time></trkpt><trkpt lat="44.33941" lon="12.1796533"><ele>0.0</ele><time>2026-03-28T14:52:57.644Z</time></trkpt><trkpt lat="44.3393033" lon="12.179645"><ele>0.0</ele><time>2026-03-28T14:52:59.644Z</time></trkpt><trkpt lat="44.3392033" lon="12.1796483"><ele>0.0</ele><time>2026-03-28T14:53:01.644Z</time></trkpt><trkpt lat="44.339095" lon="12.1796367"><ele>0.0</ele><time>2026-03-28T14:53:03.644Z</time></trkpt><trkpt lat="44.3389883" lon="12.1796367"><ele>0.0</ele><time>2026-03-28T14:53:05.644Z</time></trkpt><trkpt lat="44.3388733" lon="12.1796233"><ele>0.0</ele><time>2026-03-28T14:53:07.644Z</time></trkpt><trkpt lat="44.33877" lon="12.1796217"><ele>0.0</ele><time>2026-03-28T14:53:09.644Z</time></trkpt><trkpt lat="44.3386617" lon="12.1796183"><ele>0.0</ele><time>2026-03-28T14:53:11.644Z</time></trkpt><trkpt lat="44.338555" lon="12.179615"><ele>0.0</ele><time>2026-03-28T14:53:13.644Z</time></trkpt><trkpt lat="44.3384417" lon="12.179615"><ele>0.0</ele><time>2026-03-28T14:53:15.644Z</time></trkpt><trkpt lat="44.3383317" lon="12.1796117"><ele>0.0</ele><time>2026-03-28T14:53:17.644Z</time></trkpt><trkpt lat="44.3382167" lon="12.1796183"><ele>0.0</ele><time>2026-03-28T14:53:19.645Z</time></trkpt><trkpt lat="44.3380983" lon="12.179625"><ele>-0.25</ele><time>2026-03-28T14:53:21.645Z</time></trkpt><trkpt lat="44.3379817" lon="12.1796383"><ele>-0.5</ele><time>2026-03-28T14:53:23.644Z</time></trkpt><trkpt lat="44.33787" lon="12.1796533"><ele>-0.75</ele><time>2026-03-28T14:53:25.644Z</time></trkpt><trkpt lat="44.3377517" lon="12.1796683"><ele>-1.0</ele><time>2026-03-28T14:53:27.644Z</time></trkpt><trkpt lat="44.33764" lon="12.1796917"><ele>-1.0</ele><time>2026-03-28T14:53:29.644Z</time></trkpt><trkpt lat="44.337525" lon="12.1797133"><ele>-1.0</ele><time>2026-03-28T14:53:31.644Z</time></trkpt><trkpt lat="44.3374067" lon="12.1797317"><ele>-1.0</ele><time>2026-03-28T14:53:33.644Z</time></trkpt><trkpt lat="44.3372917" lon="12.179755"><ele>-1.0</ele><time>2026-03-28T14:53:35.644Z</time></trkpt><trkpt lat="44.337165" lon="12.179775"><ele>-0.8</ele><time>2026-03-28T14:53:37.644Z</time></trkpt><trkpt lat="44.337095" lon="12.17979"><ele>-0.6000000000000001</ele><time>2026-03-28T14:53:38.644Z</time></trkpt><trkpt lat="44.3370233" lon="12.179805"><ele>-0.4</ele><time>2026-03-28T14:53:39.644Z</time></trkpt><trkpt lat="44.3369" lon="12.1798367"><ele>-0.2</ele><time>2026-03-28T14:53:41.644Z</time></trkpt><trkpt lat="44.3368383" lon="12.1798633"><ele>0.0</ele><time>2026-03-28T14:53:42.645Z</time></trkpt><trkpt lat="44.3367217" lon="12.1799117"><ele>0.0</ele><time>2026-03-28T14:53:44.644Z</time></trkpt><trkpt lat="44.336595" lon="12.17995"><ele>0.0</ele><time>2026-03-28T14:53:46.644Z</time></trkpt><trkpt lat="44.3365267" lon="12.1799717"><ele>0.0</ele><time>2026-03-28T14:53:47.644Z</time></trkpt><trkpt lat="44.3364633" lon="12.1799933"><ele>0.0</ele><time>2026-03-28T14:53:48.644Z</time></trkpt><trkpt lat="44.3363983" lon="12.18001"><ele>0.0</ele><time>2026-03-28T14:53:49.644Z</time></trkpt><trkpt lat="44.33633" lon="12.18003"><ele>0.0</ele><time>2026-03-28T14:53:50.644Z</time></trkpt><trkpt lat="44.33626" lon="12.1800583"><ele>-0.3333333333333333</ele><time>2026-03-28T14:53:51.645Z</time></trkpt><trkpt lat="44.3361967" lon="12.1800833"><ele>-0.6666666666666666</ele><time>2026-03-28T14:53:52.644Z</time></trkpt><trkpt lat="44.3361333" lon="12.18011"><ele>-1.0</ele><time>2026-03-28T14:53:53.644Z</time></trkpt><trkpt lat="44.3360667" lon="12.18014"><ele>-1.3333333333333333</ele><time>2026-03-28T14:53:54.644Z</time></trkpt><trkpt lat="44.3360017" lon="12.1801683"><ele>-1.6666666666666665</ele><time>2026-03-28T14:53:55.644Z</time></trkpt><trkpt lat="44.3358833" lon="12.1802283"><ele>-2.0</ele><time>2026-03-28T14:53:57.645Z</time></trkpt><trkpt lat="44.3358217" lon="12.18026"><ele>-2.0</ele><time>2026-03-28T14:53:58.644Z</time></trkpt><trkpt lat="44.33576" lon="12.1802883"><ele>-1.9999999999999998</ele><time>2026-03-28T14:53:59.644Z</time></trkpt><trkpt lat="44.3356983" lon="12.1803133"><ele>-2.0</ele><time>2026-03-28T14:54:00.645Z</time></trkpt><trkpt lat="44.3356333" lon="12.180345"><ele>-2.0</ele><time>2026-03-28T14:54:01.644Z</time></trkpt><trkpt lat="44.3355683" lon="12.1803733"><ele>-1.9999999999999998</ele><time>2026-03-28T14:54:02.644Z</time></trkpt><trkpt lat="44.3355017" lon="12.1804017"><ele>-2.0</ele><time>2026-03-28T14:54:03.644Z</time></trkpt><trkpt lat="44.3354333" lon="12.1804333"><ele>-2.0</ele><time>2026-03-28T14:54:04.645Z</time></trkpt><trkpt lat="44.3353683" lon="12.1804633"><ele>-1.857142857142857</ele><time>2026-03-28T14:54:05.644Z</time></trkpt><trkpt lat="44.3353067" lon="12.180495"><ele>-1.714285714285714</ele><time>2026-03-28T14:54:06.644Z</time></trkpt><trkpt lat="44.3352433" lon="12.1805217"><ele>-1.5714285714285714</ele><time>2026-03-28T14:54:07.644Z</time></trkpt><trkpt lat="44.3351767" lon="12.18055"><ele>-1.4285714285714284</ele><time>2026-03-28T14:54:08.645Z</time></trkpt><trkpt lat="44.3351117" lon="12.1805767"><ele>-1.2857142857142856</ele><time>2026-03-28T14:54:09.645Z</time></trkpt><trkpt lat="44.3350483" lon="12.1806067"><ele>-1.1428571428571428</ele><time>2026-03-28T14:54:10.644Z</time></trkpt><trkpt lat="44.3349833" lon="12.1806367"><ele>-1.0</ele><time>2026-03-28T14:54:11.644Z</time></trkpt><trkpt lat="44.3349217" lon="12.180665"><ele>-0.9999999999999999</ele><time>2026-03-28T14:54:12.644Z</time></trkpt><trkpt lat="44.334855" lon="12.1806917"><ele>-1.0</ele><time>2026-03-28T14:54:13.645Z</time></trkpt><trkpt lat="44.3347933" lon="12.1807133"><ele>-1.0</ele><time>2026-03-28T14:54:14.644Z</time></trkpt><trkpt lat="44.3347317" lon="12.180735"><ele>-1.0</ele><time>2026-03-28T14:54:15.645Z</time></trkpt><trkpt lat="44.3346133" lon="12.18078"><ele>-0.9999999999999999</ele><time>2026-03-28T14:54:17.644Z</time></trkpt><trkpt lat="44.3345467" lon="12.1808033"><ele>-1.0</ele><time>2026-03-28T14:54:18.645Z</time></trkpt><trkpt lat="44.3344783" lon="12.1808283"><ele>-0.9999999999999999</ele><time>2026-03-28T14:54:19.644Z</time></trkpt><trkpt lat="44.3344167" lon="12.1808517"><ele>-1.0</ele><time>2026-03-28T14:54:20.644Z</time></trkpt><trkpt lat="44.334355" lon="12.18087"><ele>-1.0</ele><time>2026-03-28T14:54:21.644Z</time></trkpt><trkpt lat="44.3342883" lon="12.180885"><ele>-1.0</ele><time>2026-03-28T14:54:22.644Z</time></trkpt><trkpt lat="44.3342183" lon="12.1809"><ele>-0.9999999999999999</ele><time>2026-03-28T14:54:23.644Z</time></trkpt><trkpt lat="44.33409" lon="12.1809267"><ele>-1.0</ele><time>2026-03-28T14:54:25.644Z</time></trkpt><trkpt lat="44.3340233" lon="12.1809417"><ele>-1.0</ele><time>2026-03-28T14:54:26.644Z</time></trkpt><trkpt lat="44.3339533" lon="12.1809533"><ele>-1.0</ele><time>2026-03-28T14:54:27.644Z</time></trkpt><trkpt lat="44.3338883" lon="12.180965"><ele>-1.0</ele><time>2026-03-28T14:54:28.645Z</time></trkpt><trkpt lat="44.3337717" lon="12.1809917"><ele>-1.0</ele><time>2026-03-28T14:54:30.644Z</time></trkpt><trkpt lat="44.3336533" lon="12.1810267"><ele>-1.0</ele><time>2026-03-28T14:54:32.644Z</time></trkpt><trkpt lat="44.3335283" lon="12.1810633"><ele>-0.8</ele><time>2026-03-28T14:54:34.644Z</time></trkpt><trkpt lat="44.3334083" lon="12.1811133"><ele>-0.6000000000000001</ele><time>2026-03-28T14:54:36.644Z</time></trkpt><trkpt lat="44.3333383" lon="12.1811367"><ele>-0.4</ele><time>2026-03-28T14:54:37.645Z</time></trkpt><trkpt lat="44.333275" lon="12.1811667"><ele>-0.2</ele><time>2026-03-28T14:54:38.644Z</time></trkpt><trkpt lat="44.3331517" lon="12.18123"><ele>0.0</ele><time>2026-03-28T14:54:40.644Z</time></trkpt><trkpt lat="44.3330917" lon="12.1812583"><ele>0.3333333333333333</ele><time>2026-03-28T14:54:41.644Z</time></trkpt><trkpt lat="44.3330317" lon="12.181295"><ele>0.6666666666666666</ele><time>2026-03-28T14:54:42.644Z</time></trkpt><trkpt lat="44.3329733" lon="12.181335"><ele>1.0</ele><time>2026-03-28T14:54:43.645Z</time></trkpt><trkpt lat="44.3329117" lon="12.1813767"><ele>1.3333333333333333</ele><time>2026-03-28T14:54:44.644Z</time></trkpt><trkpt lat="44.3328533" lon="12.1814167"><ele>1.6666666666666665</ele><time>2026-03-28T14:54:45.644Z</time></trkpt><trkpt lat="44.332745" lon="12.1814967"><ele>2.0</ele><time>2026-03-28T14:54:47.644Z</time></trkpt><trkpt lat="44.33269" lon="12.18154"><ele>2.0</ele><time>2026-03-28T14:54:48.644Z</time></trkpt><trkpt lat="44.332635" lon="12.181585"><ele>2.0</ele><time>2026-03-28T14:54:49.644Z</time></trkpt><trkpt lat="44.3325317" lon="12.1816767"><ele>2.0</ele><time>2026-03-28T14:54:51.644Z</time></trkpt><trkpt lat="44.332425" lon="12.1817617"><ele>2.0</ele><time>2026-03-28T14:54:53.644Z</time></trkpt><trkpt lat="44.3323667" lon="12.1818033"><ele>2.0</ele><time>2026-03-28T14:54:54.644Z</time></trkpt><trkpt lat="44.3322417" lon="12.181895"><ele>1.8333333333333333</ele><time>2026-03-28T14:54:56.644Z</time></trkpt><trkpt lat="44.3321667" lon="12.1819417"><ele>1.6666666666666665</ele><time>2026-03-28T14:54:57.644Z</time></trkpt><trkpt lat="44.3320967" lon="12.18199"><ele>1.5</ele><time>2026-03-28T14:54:58.645Z</time></trkpt><trkpt lat="44.3320217" lon="12.1820367"><ele>1.3333333333333333</ele><time>2026-03-28T14:54:59.645Z</time></trkpt><trkpt lat="44.3319517" lon="12.1820783"><ele>1.1666666666666665</ele><time>2026-03-28T14:55:00.644Z</time></trkpt><trkpt lat="44.331885" lon="12.1821217"><ele>1.0</ele><time>2026-03-28T14:55:01.644Z</time></trkpt><trkpt lat="44.3318217" lon="12.18216"><ele>0.9999999999999999</ele><time>2026-03-28T14:55:02.644Z</time></trkpt><trkpt lat="44.331755" lon="12.1821967"><ele>1.0</ele><time>2026-03-28T14:55:03.644Z</time></trkpt><trkpt lat="44.3316933" lon="12.18223"><ele>1.0</ele><time>2026-03-28T14:55:04.645Z</time></trkpt><trkpt lat="44.3316317" lon="12.1822683"><ele>1.0</ele><time>2026-03-28T14:55:05.644Z</time></trkpt><trkpt lat="44.3315233" lon="12.182335"><ele>0.9999999999999999</ele><time>2026-03-28T14:55:07.644Z</time></trkpt><trkpt lat="44.3314117" lon="12.182405"><ele>1.0</ele><time>2026-03-28T14:55:09.644Z</time></trkpt><trkpt lat="44.3312883" lon="12.1824667"><ele>1.0</ele><time>2026-03-28T14:55:11.644Z</time></trkpt><trkpt lat="44.331175" lon="12.1825233"><ele>1.0</ele><time>2026-03-28T14:55:13.644Z</time></trkpt><trkpt lat="44.3310567" lon="12.1825833"><ele>1.0</ele><time>2026-03-28T14:55:15.644Z</time></trkpt><trkpt lat="44.3309967" lon="12.1826133"><ele>1.0</ele><time>2026-03-28T14:55:16.645Z</time></trkpt><trkpt lat="44.3308833" lon="12.1826733"><ele>1.0</ele><time>2026-03-28T14:55:18.644Z</time></trkpt><trkpt lat="44.3308233" lon="12.1827033"><ele>1.0</ele><time>2026-03-28T14:55:19.644Z</time></trkpt><trkpt lat="44.330765" lon="12.1827383"><ele>1.0</ele><time>2026-03-28T14:55:20.644Z</time></trkpt><trkpt lat="44.3306483" lon="12.1827967"><ele>1.0</ele><time>2026-03-28T14:55:22.644Z</time></trkpt><trkpt lat="44.3305867" lon="12.18283"><ele>1.0</ele><time>2026-03-28T14:55:23.644Z</time></trkpt><trkpt lat="44.33047" lon="12.1828967"><ele>1.0</ele><time>2026-03-28T14:55:25.645Z</time></trkpt><trkpt lat="44.3303567" lon="12.1829617"><ele>1.1666666666666665</ele><time>2026-03-28T14:55:27.644Z</time></trkpt><trkpt lat="44.3302433" lon="12.1830233"><ele>1.3333333333333333</ele><time>2026-03-28T14:55:29.645Z</time></trkpt><trkpt lat="44.33018" lon="12.1830533"><ele>1.5</ele><time>2026-03-28T14:55:30.644Z</time></trkpt><trkpt lat="44.3301133" lon="12.1830783"><ele>1.6666666666666665</ele><time>2026-03-28T14:55:31.644Z</time></trkpt><trkpt lat="44.3300517" lon="12.1831"><ele>1.8333333333333333</ele><time>2026-03-28T14:55:32.644Z</time></trkpt><trkpt lat="44.3299867" lon="12.1831333"><ele>2.0</ele><time>2026-03-28T14:55:33.644Z</time></trkpt><trkpt lat="44.3299233" lon="12.183165"><ele>1.857142857142857</ele><time>2026-03-28T14:55:34.644Z</time></trkpt><trkpt lat="44.3298567" lon="12.1831917"><ele>1.714285714285714</ele><time>2026-03-28T14:55:35.644Z</time></trkpt><trkpt lat="44.32979" lon="12.1832167"><ele>1.5714285714285714</ele><time>2026-03-28T14:55:36.645Z</time></trkpt><trkpt lat="44.3297283" lon="12.1832433"><ele>1.4285714285714284</ele><time>2026-03-28T14:55:37.645Z</time></trkpt><trkpt lat="44.32966" lon="12.1832717"><ele>1.2857142857142856</ele><time>2026-03-28T14:55:38.644Z</time></trkpt><trkpt lat="44.3295933" lon="12.1832933"><ele>1.1428571428571428</ele><time>2026-03-28T14:55:39.644Z</time></trkpt><trkpt lat="44.3295267" lon="12.1833133"><ele>1.0</ele><time>2026-03-28T14:55:40.644Z</time></trkpt><trkpt lat="44.3294583" lon="12.1833283"><ele>0.9999999999999999</ele><time>2026-03-28T14:55:41.644Z</time></trkpt><trkpt lat="44.3293917" lon="12.1833467"><ele>1.0</ele><time>2026-03-28T14:55:42.645Z</time></trkpt><trkpt lat="44.3293217" lon="12.18336"><ele>1.0</ele><time>2026-03-28T14:55:43.644Z</time></trkpt><trkpt lat="44.3292567" lon="12.1833767"><ele>1.0</ele><time>2026-03-28T14:55:44.644Z</time></trkpt><trkpt lat="44.3291933" lon="12.1833917"><ele>0.9999999999999999</ele><time>2026-03-28T14:55:45.644Z</time></trkpt><trkpt lat="44.3290717" lon="12.1834217"><ele>1.0</ele><time>2026-03-28T14:55:47.645Z</time></trkpt><trkpt lat="44.3290017" lon="12.1834383"><ele>1.2000000000000002</ele><time>2026-03-28T14:55:48.644Z</time></trkpt><trkpt lat="44.3288767" lon="12.183455"><ele>1.4000000000000001</ele><time>2026-03-28T14:55:50.644Z</time></trkpt><trkpt lat="44.3287567" lon="12.1834833"><ele>1.6</ele><time>2026-03-28T14:55:52.644Z</time></trkpt><trkpt lat="44.3286933" lon="12.1835"><ele>1.8</ele><time>2026-03-28T14:55:53.644Z</time></trkpt><trkpt lat="44.3285683" lon="12.183525"><ele>2.0</ele><time>2026-03-28T14:55:55.644Z</time></trkpt><trkpt lat="44.3284467" lon="12.18355"><ele>1.9999999999999998</ele><time>2026-03-28T14:55:57.644Z</time></trkpt><trkpt lat="44.328325" lon="12.1835817"><ele>2.0</ele><time>2026-03-28T14:55:59.644Z</time></trkpt><trkpt lat="44.3282583" lon="12.1836033"><ele>2.0</ele><time>2026-03-28T14:56:00.644Z</time></trkpt><trkpt lat="44.328195" lon="12.18362"><ele>2.0</ele><time>2026-03-28T14:56:01.644Z</time></trkpt><trkpt lat="44.3281333" lon="12.1836417"><ele>1.9999999999999998</ele><time>2026-03-28T14:56:02.644Z</time></trkpt><trkpt lat="44.3280133" lon="12.1836933"><ele>2.0</ele><time>2026-03-28T14:56:04.644Z</time></trkpt><trkpt lat="44.3279467" lon="12.1837017"><ele>2.1666666666666665</ele><time>2026-03-28T14:56:05.644Z</time></trkpt><trkpt lat="44.3278233" lon="12.1837317"><ele>2.333333333333333</ele><time>2026-03-28T14:56:07.644Z</time></trkpt><trkpt lat="44.32776" lon="12.18375"><ele>2.5</ele><time>2026-03-28T14:56:08.644Z</time></trkpt><trkpt lat="44.3276433" lon="12.1837933"><ele>2.6666666666666665</ele><time>2026-03-28T14:56:10.645Z</time></trkpt><trkpt lat="44.32758" lon="12.1838167"><ele>2.8333333333333335</ele><time>2026-03-28T14:56:11.644Z</time></trkpt><trkpt lat="44.3275167" lon="12.18384"><ele>3.0</ele><time>2026-03-28T14:56:12.644Z</time></trkpt><trkpt lat="44.3274533" lon="12.18386"><ele>3.0</ele><time>2026-03-28T14:56:13.644Z</time></trkpt><trkpt lat="44.3273883" lon="12.1838817"><ele>3.0</ele><time>2026-03-28T14:56:14.644Z</time></trkpt><trkpt lat="44.327325" lon="12.183905"><ele>3.0</ele><time>2026-03-28T14:56:15.645Z</time></trkpt><trkpt lat="44.3272567" lon="12.183925"><ele>3.0</ele><time>2026-03-28T14:56:16.644Z</time></trkpt><trkpt lat="44.3271867" lon="12.1839417"><ele>3.0</ele><time>2026-03-28T14:56:17.644Z</time></trkpt><trkpt lat="44.3270717" lon="12.183985"><ele>3.0</ele><time>2026-03-28T14:56:19.644Z</time></trkpt><trkpt lat="44.3269533" lon="12.1840283"><ele>2.6</ele><time>2026-03-28T14:56:21.644Z</time></trkpt><trkpt lat="44.3268217" lon="12.184065"><ele>2.1999999999999997</ele><time>2026-03-28T14:56:23.644Z</time></trkpt><trkpt lat="44.3267567" lon="12.1840883"><ele>1.8</ele><time>2026-03-28T14:56:24.645Z</time></trkpt><trkpt lat="44.3266417" lon="12.1841333"><ele>1.4</ele><time>2026-03-28T14:56:26.645Z</time></trkpt><trkpt lat="44.32658" lon="12.18416"><ele>1.0</ele><time>2026-03-28T14:56:27.644Z</time></trkpt><trkpt lat="44.32646" lon="12.1841983"><ele>0.9999999999999999</ele><time>2026-03-28T14:56:29.644Z</time></trkpt><trkpt lat="44.326335" lon="12.184235"><ele>1.0</ele><time>2026-03-28T14:56:31.645Z</time></trkpt><trkpt lat="44.3262717" lon="12.1842517"><ele>1.0</ele><time>2026-03-28T14:56:32.645Z</time></trkpt><trkpt lat="44.326205" lon="12.1842717"><ele>1.0</ele><time>2026-03-28T14:56:33.645Z</time></trkpt><trkpt lat="44.3260883" lon="12.1843133"><ele>0.9999999999999999</ele><time>2026-03-28T14:56:35.644Z</time></trkpt><trkpt lat="44.3260217" lon="12.1843333"><ele>1.0</ele><time>2026-03-28T14:56:36.644Z</time></trkpt><trkpt lat="44.32596" lon="12.1843583"><ele>1.0</ele><time>2026-03-28T14:56:37.644Z</time></trkpt><trkpt lat="44.32584" lon="12.184395"><ele>1.0</ele><time>2026-03-28T14:56:39.644Z</time></trkpt><trkpt lat="44.325775" lon="12.1844067"><ele>1.0</ele><time>2026-03-28T14:56:40.644Z</time></trkpt><trkpt lat="44.3256417" lon="12.18445"><ele>1.0</ele><time>2026-03-28T14:56:42.645Z</time></trkpt><trkpt lat="44.32558" lon="12.184475"><ele>1.0</ele><time>2026-03-28T14:56:43.644Z</time></trkpt><trkpt lat="44.325515" lon="12.184495"><ele>1.1666666666666665</ele><time>2026-03-28T14:56:44.645Z</time></trkpt><trkpt lat="44.325395" lon="12.1845417"><ele>1.3333333333333333</ele><time>2026-03-28T14:56:46.644Z</time></trkpt><trkpt lat="44.32533" lon="12.1845667"><ele>1.5</ele><time>2026-03-28T14:56:47.644Z</time></trkpt><trkpt lat="44.325265" lon="12.1845917"><ele>1.6666666666666665</ele><time>2026-03-28T14:56:48.644Z</time></trkpt><trkpt lat="44.3252017" lon="12.1846167"><ele>1.8333333333333333</ele><time>2026-03-28T14:56:49.644Z</time></trkpt><trkpt lat="44.3251383" lon="12.184645"><ele>2.0</ele><time>2026-03-28T14:56:50.644Z</time></trkpt><trkpt lat="44.3250167" lon="12.1846933"><ele>1.9999999999999998</ele><time>2026-03-28T14:56:52.644Z</time></trkpt><trkpt lat="44.32489" lon="12.184745"><ele>2.0</ele><time>2026-03-28T14:56:54.644Z</time></trkpt><trkpt lat="44.3248183" lon="12.1847733"><ele>2.0</ele><time>2026-03-28T14:56:55.645Z</time></trkpt><trkpt lat="44.3247533" lon="12.1847933"><ele>2.0</ele><time>2026-03-28T14:56:56.644Z</time></trkpt><trkpt lat="44.3246867" lon="12.1848133"><ele>1.9999999999999998</ele><time>2026-03-28T14:56:57.644Z</time></trkpt><trkpt lat="44.32462" lon="12.184835"><ele>2.0</ele><time>2026-03-28T14:56:58.644Z</time></trkpt><trkpt lat="44.3245583" lon="12.1848617"><ele>2.0</ele><time>2026-03-28T14:56:59.644Z</time></trkpt><trkpt lat="44.3244417" lon="12.18491"><ele>2.0</ele><time>2026-03-28T14:57:01.645Z</time></trkpt><trkpt lat="44.3243217" lon="12.18496"><ele>2.0</ele><time>2026-03-28T14:57:03.644Z</time></trkpt><trkpt lat="44.3242567" lon="12.184985"><ele>2.0</ele><time>2026-03-28T14:57:04.644Z</time></trkpt><trkpt lat="44.3241933" lon="12.1850033"><ele>2.0</ele><time>2026-03-28T14:57:05.644Z</time></trkpt><trkpt lat="44.3240683" lon="12.1850533"><ele>2.0</ele><time>2026-03-28T14:57:07.644Z</time></trkpt><trkpt lat="44.3240017" lon="12.1850817"><ele>2.0</ele><time>2026-03-28T14:57:08.644Z</time></trkpt><trkpt lat="44.3238783" lon="12.18513"><ele>2.0</ele><time>2026-03-28T14:57:10.644Z</time></trkpt><trkpt lat="44.3237617" lon="12.18518"><ele>2.0</ele><time>2026-03-28T14:57:12.644Z</time></trkpt><trkpt lat="44.32369" lon="12.1851983"><ele>2.0</ele><time>2026-03-28T14:57:13.644Z</time></trkpt><trkpt lat="44.32361" lon="12.185225"><ele>1.857142857142857</ele><time>2026-03-28T14:57:14.644Z</time></trkpt><trkpt lat="44.3235417" lon="12.18525"><ele>1.714285714285714</ele><time>2026-03-28T14:57:15.644Z</time></trkpt><trkpt lat="44.3234683" lon="12.1852733"><ele>1.5714285714285714</ele><time>2026-03-28T14:57:16.644Z</time></trkpt><trkpt lat="44.3233983" lon="12.1852967"><ele>1.4285714285714284</ele><time>2026-03-28T14:57:17.644Z</time></trkpt><trkpt lat="44.3233267" lon="12.1853233"><ele>1.2857142857142856</ele><time>2026-03-28T14:57:18.644Z</time></trkpt><trkpt lat="44.3232583" lon="12.18535"><ele>1.1428571428571428</ele><time>2026-03-28T14:57:19.644Z</time></trkpt><trkpt lat="44.32319" lon="12.1853817"><ele>1.0</ele><time>2026-03-28T14:57:20.644Z</time></trkpt><trkpt lat="44.3231233" lon="12.1854083"><ele>1.0</ele><time>2026-03-28T14:57:21.644Z</time></trkpt><trkpt lat="44.3230533" lon="12.1854317"><ele>0.9999999999999999</ele><time>2026-03-28T14:57:22.644Z</time></trkpt><trkpt lat="44.322985" lon="12.185455"><ele>1.0</ele><time>2026-03-28T14:57:23.645Z</time></trkpt><trkpt lat="44.3229183" lon="12.1854833"><ele>1.0</ele><time>2026-03-28T14:57:24.644Z</time></trkpt><trkpt lat="44.322855" lon="12.1855117"><ele>0.9999999999999999</ele><time>2026-03-28T14:57:25.644Z</time></trkpt><trkpt lat="44.3227917" lon="12.18554"><ele>1.0</ele><time>2026-03-28T14:57:26.644Z</time></trkpt><trkpt lat="44.322725" lon="12.185565"><ele>1.0</ele><time>2026-03-28T14:57:27.644Z</time></trkpt><trkpt lat="44.3226567" lon="12.18558"><ele>1.0</ele><time>2026-03-28T14:57:28.644Z</time></trkpt><trkpt lat="44.322595" lon="12.1856033"><ele>0.9999999999999999</ele><time>2026-03-28T14:57:29.644Z</time></trkpt><trkpt lat="44.3225317" lon="12.1856317"><ele>1.0</ele><time>2026-03-28T14:57:30.645Z</time></trkpt><trkpt lat="44.3224667" lon="12.18566"><ele>1.0</ele><time>2026-03-28T14:57:31.645Z</time></trkpt><trkpt lat="44.322395" lon="12.1856767"><ele>0.9999999999999999</ele><time>2026-03-28T14:57:32.644Z</time></trkpt><trkpt lat="44.3223283" lon="12.1857017"><ele>1.0</ele><time>2026-03-28T14:57:33.644Z</time></trkpt><trkpt lat="44.3222583" lon="12.185725"><ele>1.0</ele><time>2026-03-28T14:57:34.644Z</time></trkpt><trkpt lat="44.3221933" lon="12.18575"><ele>1.3333333333333333</ele><time>2026-03-28T14:57:35.644Z</time></trkpt><trkpt lat="44.3221233" lon="12.1857683"><ele>1.6666666666666665</ele><time>2026-03-28T14:57:36.645Z</time></trkpt><trkpt lat="44.32205" lon="12.185785"><ele>2.0</ele><time>2026-03-28T14:57:37.644Z</time></trkpt><trkpt lat="44.3219783" lon="12.1858017"><ele>2.3333333333333335</ele><time>2026-03-28T14:57:38.644Z</time></trkpt><trkpt lat="44.321915" lon="12.1858183"><ele>2.6666666666666665</ele><time>2026-03-28T14:57:39.644Z</time></trkpt><trkpt lat="44.321795" lon="12.1858517"><ele>3.0</ele><time>2026-03-28T14:57:41.644Z</time></trkpt><trkpt lat="44.321675" lon="12.1858883"><ele>3.0</ele><time>2026-03-28T14:57:43.644Z</time></trkpt><trkpt lat="44.3215533" lon="12.1859233"><ele>3.0</ele><time>2026-03-28T14:57:45.644Z</time></trkpt><trkpt lat="44.3214883" lon="12.1859417"><ele>3.0</ele><time>2026-03-28T14:57:46.644Z</time></trkpt><trkpt lat="44.3214233" lon="12.185955"><ele>3.0</ele><time>2026-03-28T14:57:47.645Z</time></trkpt><trkpt lat="44.321295" lon="12.18599"><ele>3.0</ele><time>2026-03-28T14:57:49.644Z</time></trkpt><trkpt lat="44.3211767" lon="12.18602"><ele>2.714285714285714</ele><time>2026-03-28T14:57:51.645Z</time></trkpt><trkpt lat="44.3211133" lon="12.1860367"><ele>2.4285714285714284</ele><time>2026-03-28T14:57:52.644Z</time></trkpt><trkpt lat="44.32105" lon="12.1860517"><ele>2.142857142857143</ele><time>2026-03-28T14:57:53.644Z</time></trkpt><trkpt lat="44.320975" lon="12.18607"><ele>1.857142857142857</ele><time>2026-03-28T14:57:54.644Z</time></trkpt><trkpt lat="44.320905" lon="12.18609"><ele>1.5714285714285712</ele><time>2026-03-28T14:57:55.644Z</time></trkpt><trkpt lat="44.32084" lon="12.18611"><ele>1.2857142857142856</ele><time>2026-03-28T14:57:56.645Z</time></trkpt><trkpt lat="44.32077" lon="12.186125"><ele>1.0</ele><time>2026-03-28T14:57:57.644Z</time></trkpt><trkpt lat="44.3207017" lon="12.1861433"><ele>0.9999999999999999</ele><time>2026-03-28T14:57:58.644Z</time></trkpt><trkpt lat="44.32058" lon="12.1861767"><ele>1.0</ele><time>2026-03-28T14:58:00.644Z</time></trkpt><trkpt lat="44.3205167" lon="12.18619"><ele>1.0</ele><time>2026-03-28T14:58:01.645Z</time></trkpt><trkpt lat="44.32045" lon="12.1862017"><ele>1.0</ele><time>2026-03-28T14:58:02.644Z</time></trkpt><trkpt lat="44.32033" lon="12.1862283"><ele>0.9999999999999999</ele><time>2026-03-28T14:58:04.644Z</time></trkpt><trkpt lat="44.3202667" lon="12.18624"><ele>1.0</ele><time>2026-03-28T14:58:05.644Z</time></trkpt><trkpt lat="44.3201467" lon="12.1862617"><ele>1.1666666666666665</ele><time>2026-03-28T14:58:07.645Z</time></trkpt><trkpt lat="44.3200767" lon="12.1862733"><ele>1.3333333333333333</ele><time>2026-03-28T14:58:08.644Z</time></trkpt><trkpt lat="44.31997" lon="12.186315"><ele>1.5</ele><time>2026-03-28T14:58:10.644Z</time></trkpt><trkpt lat="44.3198567" lon="12.1863517"><ele>1.6666666666666665</ele><time>2026-03-28T14:58:12.645Z</time></trkpt><trkpt lat="44.31979" lon="12.186375"><ele>1.8333333333333333</ele><time>2026-03-28T14:58:13.644Z</time></trkpt><trkpt lat="44.31972" lon="12.18639"><ele>2.0</ele><time>2026-03-28T14:58:14.644Z</time></trkpt><trkpt lat="44.3196583" lon="12.18641"><ele>2.333333333333333</ele><time>2026-03-28T14:58:15.644Z</time></trkpt><trkpt lat="44.3195917" lon="12.186425"><ele>2.6666666666666665</ele><time>2026-03-28T14:58:16.645Z</time></trkpt><trkpt lat="44.3194683" lon="12.1864483"><ele>3.0</ele><time>2026-03-28T14:58:18.645Z</time></trkpt><trkpt lat="44.319355" lon="12.1864867"><ele>3.333333333333333</ele><time>2026-03-28T14:58:20.644Z</time></trkpt><trkpt lat="44.3192917" lon="12.1865"><ele>3.6666666666666665</ele><time>2026-03-28T14:58:21.644Z</time></trkpt><trkpt lat="44.3192233" lon="12.1865133"><ele>4.0</ele><time>2026-03-28T14:58:22.645Z</time></trkpt><trkpt lat="44.31916" lon="12.1865283"><ele>4.0</ele><time>2026-03-28T14:58:23.644Z</time></trkpt><trkpt lat="44.3190483" lon="12.1865633"><ele>4.0</ele><time>2026-03-28T14:58:25.644Z</time></trkpt><trkpt lat="44.3189433" lon="12.1865933"><ele>4.0</ele><time>2026-03-28T14:58:27.644Z</time></trkpt><trkpt lat="44.3188467" lon="12.1866167"><ele>4.0</ele><time>2026-03-28T14:58:29.645Z</time></trkpt><trkpt lat="44.31874" lon="12.1866433"><ele>4.0</ele><time>2026-03-28T14:58:31.645Z</time></trkpt><trkpt lat="44.3186283" lon="12.1866567"><ele>4.166666666666666</ele><time>2026-03-28T14:58:33.644Z</time></trkpt><trkpt lat="44.3185633" lon="12.1866683"><ele>4.333333333333333</ele><time>2026-03-28T14:58:34.644Z</time></trkpt><trkpt lat="44.3184567" lon="12.1866933"><ele>4.5</ele><time>2026-03-28T14:58:36.644Z</time></trkpt><trkpt lat="44.3183533" lon="12.1867033"><ele>4.666666666666667</ele><time>2026-03-28T14:58:38.644Z</time></trkpt><trkpt lat="44.3182667" lon="12.1867083"><ele>4.833333333333334</ele><time>2026-03-28T14:58:40.644Z</time></trkpt><trkpt lat="44.3182" lon="12.1867033"><ele>5.0</ele><time>2026-03-28T14:58:41.644Z</time></trkpt><trkpt lat="44.31809" lon="12.1867017"><ele>5.0</ele><time>2026-03-28T14:58:43.645Z</time></trkpt><trkpt lat="44.31797" lon="12.18669"><ele>5.0</ele><time>2026-03-28T14:58:45.644Z</time></trkpt><trkpt lat="44.3178583" lon="12.18666"><ele>5.0</ele><time>2026-03-28T14:58:47.645Z</time></trkpt><trkpt lat="44.3177567" lon="12.1866017"><ele>5.0</ele><time>2026-03-28T14:58:49.644Z</time></trkpt><trkpt lat="44.3176417" lon="12.1865583"><ele>5.0</ele><time>2026-03-28T14:58:51.645Z</time></trkpt><trkpt lat="44.31758" lon="12.186535"><ele>5.0</ele><time>2026-03-28T14:58:52.644Z</time></trkpt><trkpt lat="44.31746" lon="12.18649"><ele>5.0</ele><time>2026-03-28T14:58:54.644Z</time></trkpt><trkpt lat="44.317345" lon="12.1864483"><ele>5.0</ele><time>2026-03-28T14:58:56.644Z</time></trkpt><trkpt lat="44.3172467" lon="12.1864067"><ele>5.0</ele><time>2026-03-28T14:58:58.644Z</time></trkpt><trkpt lat="44.31714" lon="12.1863417"><ele>5.0</ele><time>2026-03-28T14:59:00.645Z</time></trkpt><trkpt lat="44.3170433" lon="12.1862967"><ele>5.0</ele><time>2026-03-28T14:59:02.644Z</time></trkpt><trkpt lat="44.31695" lon="12.1862517"><ele>5.0</ele><time>2026-03-28T14:59:04.644Z</time></trkpt><trkpt lat="44.3168717" lon="12.1862217"><ele>5.0</ele><time>2026-03-28T14:59:06.644Z</time></trkpt><trkpt lat="44.316795" lon="12.18621"><ele>5.0</ele><time>2026-03-28T14:59:07.644Z</time></trkpt><trkpt lat="44.316735" lon="12.1862683"><ele>5.0</ele><time>2026-03-28T14:59:09.644Z</time></trkpt><trkpt lat="44.31672" lon="12.1863683"><ele>5.0</ele><time>2026-03-28T14:59:11.644Z</time></trkpt><trkpt lat="44.31671" lon="12.1864767"><ele>5.0</ele><time>2026-03-28T14:59:13.645Z</time></trkpt><trkpt lat="44.31669" lon="12.18658"><ele>5.0</ele><time>2026-03-28T14:59:15.644Z</time></trkpt><trkpt lat="44.316665" lon="12.1866933"><ele>5.0</ele><time>2026-03-28T14:59:17.645Z</time></trkpt><trkpt lat="44.3166383" lon="12.1868233"><ele>5.0</ele><time>2026-03-28T14:59:19.644Z</time></trkpt><trkpt lat="44.316625" lon="12.186935"><ele>5.0</ele><time>2026-03-28T14:59:21.644Z</time></trkpt><trkpt lat="44.316615" lon="12.1870367"><ele>5.166666666666667</ele><time>2026-03-28T14:59:23.645Z</time></trkpt><trkpt lat="44.3165983" lon="12.187145"><ele>5.333333333333334</ele><time>2026-03-28T14:59:25.644Z</time></trkpt><trkpt lat="44.31658" lon="12.187265"><ele>5.5</ele><time>2026-03-28T14:59:27.644Z</time></trkpt><trkpt lat="44.3165617" lon="12.1873817"><ele>5.666666666666667</ele><time>2026-03-28T14:59:29.644Z</time></trkpt><trkpt lat="44.31654" lon="12.1875233"><ele>5.833333333333333</ele><time>2026-03-28T14:59:31.644Z</time></trkpt><trkpt lat="44.31653" lon="12.18765"><ele>6.0</ele><time>2026-03-28T14:59:33.644Z</time></trkpt><trkpt lat="44.31652" lon="12.1877717"><ele>6.0</ele><time>2026-03-28T14:59:35.644Z</time></trkpt><trkpt lat="44.31652" lon="12.187885"><ele>6.0</ele><time>2026-03-28T14:59:37.644Z</time></trkpt><trkpt lat="44.3165067" lon="12.187995"><ele>6.0</ele><time>2026-03-28T14:59:39.645Z</time></trkpt><trkpt lat="44.3164917" lon="12.1881017"><ele>6.0</ele><time>2026-03-28T14:59:41.645Z</time></trkpt><trkpt lat="44.3164783" lon="12.1882117"><ele>6.0</ele><time>2026-03-28T14:59:43.644Z</time></trkpt><trkpt lat="44.3164433" lon="12.1883117"><ele>6.0</ele><time>2026-03-28T14:59:45.644Z</time></trkpt><trkpt lat="44.3164333" lon="12.1884217"><ele>6.0</ele><time>2026-03-28T14:59:47.644Z</time></trkpt><trkpt lat="44.316425" lon="12.18854"><ele>6.0</ele><time>2026-03-28T14:59:49.644Z</time></trkpt><trkpt lat="44.3164067" lon="12.1887"><ele>6.0</ele><time>2026-03-28T14:59:51.644Z</time></trkpt><trkpt lat="44.3163733" lon="12.1888517"><ele>6.0</ele><time>2026-03-28T14:59:53.644Z</time></trkpt><trkpt lat="44.3163483" lon="12.1889967"><ele>6.0</ele><time>2026-03-28T14:59:55.644Z</time></trkpt><trkpt lat="44.316315" lon="12.189145"><ele>5.5</ele><time>2026-03-28T14:59:57.644Z</time></trkpt><trkpt lat="44.31628" lon="12.189305"><ele>5.0</ele><time>2026-03-28T14:59:59.644Z</time></trkpt><trkpt lat="44.31625" lon="12.1894517"><ele>4.5</ele><time>2026-03-28T15:00:01.644Z</time></trkpt><trkpt lat="44.3162167" lon="12.1896083"><ele>4.0</ele><time>2026-03-28T15:00:03.644Z</time></trkpt><trkpt lat="44.316185" lon="12.1897617"><ele>3.75</ele><time>2026-03-28T15:00:05.644Z</time></trkpt><trkpt lat="44.3161583" lon="12.189915"><ele>3.5</ele><time>2026-03-28T15:00:07.645Z</time></trkpt><trkpt lat="44.31614" lon="12.1900783"><ele>3.25</ele><time>2026-03-28T15:00:09.644Z</time></trkpt><trkpt lat="44.31611" lon="12.1902367"><ele>3.0</ele><time>2026-03-28T15:00:11.644Z</time></trkpt><trkpt lat="44.3160783" lon="12.19039"><ele>3.0</ele><time>2026-03-28T15:00:13.644Z</time></trkpt><trkpt lat="44.3160517" lon="12.190545"><ele>3.0</ele><time>2026-03-28T15:00:15.644Z</time></trkpt><trkpt lat="44.3160233" lon="12.1907"><ele>3.0</ele><time>2026-03-28T15:00:17.644Z</time></trkpt><trkpt lat="44.3160017" lon="12.1908617"><ele>3.0</ele><time>2026-03-28T15:00:19.644Z</time></trkpt><trkpt lat="44.3159933" lon="12.1910183"><ele>3.0</ele><time>2026-03-28T15:00:21.644Z</time></trkpt><trkpt lat="44.3159983" lon="12.1911817"><ele>3.0</ele><time>2026-03-28T15:00:23.645Z</time></trkpt><trkpt lat="44.3160133" lon="12.1913533"><ele>3.0</ele><time>2026-03-28T15:00:25.644Z</time></trkpt><trkpt lat="44.31602" lon="12.1914533"><ele>3.0</ele><time>2026-03-28T15:00:26.644Z</time></trkpt><trkpt lat="44.316035" lon="12.1915483"><ele>3.0</ele><time>2026-03-28T15:00:27.644Z</time></trkpt><trkpt lat="44.3160533" lon="12.1916433"><ele>3.0</ele><time>2026-03-28T15:00:28.644Z</time></trkpt><trkpt lat="44.316075" lon="12.1917417"><ele>3.0</ele><time>2026-03-28T15:00:29.644Z</time></trkpt><trkpt lat="44.3160983" lon="12.1918367"><ele>3.0</ele><time>2026-03-28T15:00:30.645Z</time></trkpt><trkpt lat="44.3161233" lon="12.1919233"><ele>3.0</ele><time>2026-03-28T15:00:31.644Z</time></trkpt><trkpt lat="44.3161767" lon="12.1920817"><ele>3.0</ele><time>2026-03-28T15:00:33.644Z</time></trkpt><trkpt lat="44.316205" lon="12.192165"><ele>3.0</ele><time>2026-03-28T15:00:34.644Z</time></trkpt><trkpt lat="44.3162333" lon="12.1922467"><ele>2.9999999999999996</ele><time>2026-03-28T15:00:35.644Z</time></trkpt><trkpt lat="44.3162617" lon="12.19233"><ele>3.0</ele><time>2026-03-28T15:00:36.645Z</time></trkpt><trkpt lat="44.316295" lon="12.1924167"><ele>3.0</ele><time>2026-03-28T15:00:37.644Z</time></trkpt><trkpt lat="44.3163267" lon="12.192505"><ele>3.0</ele><time>2026-03-28T15:00:38.644Z</time></trkpt><trkpt lat="44.3163567" lon="12.1925867"><ele>3.0</ele><time>2026-03-28T15:00:39.644Z</time></trkpt><trkpt lat="44.3163917" lon="12.1926717"><ele>2.9999999999999996</ele><time>2026-03-28T15:00:40.645Z</time></trkpt><trkpt lat="44.316425" lon="12.192755"><ele>3.0</ele><time>2026-03-28T15:00:41.644Z</time></trkpt><trkpt lat="44.3164833" lon="12.1929117"><ele>2.9999999999999996</ele><time>2026-03-28T15:00:43.644Z</time></trkpt><trkpt lat="44.3165167" lon="12.1929933"><ele>3.0</ele><time>2026-03-28T15:00:44.644Z</time></trkpt><trkpt lat="44.31655" lon="12.1930783"><ele>3.0</ele><time>2026-03-28T15:00:45.644Z</time></trkpt><trkpt lat="44.3165833" lon="12.1931633"><ele>3.0</ele><time>2026-03-28T15:00:46.644Z</time></trkpt><trkpt lat="44.3166167" lon="12.193255"><ele>3.0</ele><time>2026-03-28T15:00:47.644Z</time></trkpt><trkpt lat="44.31665" lon="12.193345"><ele>2.9999999999999996</ele><time>2026-03-28T15:00:48.644Z</time></trkpt><trkpt lat="44.316685" lon="12.193425"><ele>3.0</ele><time>2026-03-28T15:00:49.645Z</time></trkpt><trkpt lat="44.316715" lon="12.1935067"><ele>2.5</ele><time>2026-03-28T15:00:50.644Z</time></trkpt><trkpt lat="44.3167467" lon="12.1935917"><ele>2.0</ele><time>2026-03-28T15:00:51.644Z</time></trkpt><trkpt lat="44.3167767" lon="12.1936767"><ele>1.5</ele><time>2026-03-28T15:00:52.644Z</time></trkpt><trkpt lat="44.3168017" lon="12.1937633"><ele>1.0</ele><time>2026-03-28T15:00:53.644Z</time></trkpt><trkpt lat="44.3168267" lon="12.1938517"><ele>0.5</ele><time>2026-03-28T15:00:54.644Z</time></trkpt><trkpt lat="44.3168483" lon="12.1939417"><ele>0.0</ele><time>2026-03-28T15:00:55.645Z</time></trkpt><trkpt lat="44.31688" lon="12.1941117"><ele>0.0</ele><time>2026-03-28T15:00:57.644Z</time></trkpt><trkpt lat="44.3168967" lon="12.1942033"><ele>0.0</ele><time>2026-03-28T15:00:58.644Z</time></trkpt><trkpt lat="44.3169083" lon="12.19429"><ele>0.0</ele><time>2026-03-28T15:00:59.645Z</time></trkpt><trkpt lat="44.316925" lon="12.194405"><ele>0.0</ele><time>2026-03-28T15:01:00.644Z</time></trkpt><trkpt lat="44.31693" lon="12.1945017"><ele>0.0</ele><time>2026-03-28T15:01:01.645Z</time></trkpt><trkpt lat="44.316935" lon="12.1945917"><ele>0.0</ele><time>2026-03-28T15:01:02.644Z</time></trkpt><trkpt lat="44.3169483" lon="12.1946983"><ele>0.0</ele><time>2026-03-28T15:01:03.644Z</time></trkpt><trkpt lat="44.3169517" lon="12.1947883"><ele>0.16666666666666666</ele><time>2026-03-28T15:01:04.644Z</time></trkpt><trkpt lat="44.3169567" lon="12.19488"><ele>0.3333333333333333</ele><time>2026-03-28T15:01:05.644Z</time></trkpt><trkpt lat="44.3169633" lon="12.1949767"><ele>0.5</ele><time>2026-03-28T15:01:06.645Z</time></trkpt><trkpt lat="44.316975" lon="12.19515"><ele>0.6666666666666666</ele><time>2026-03-28T15:01:08.644Z</time></trkpt><trkpt lat="44.3169833" lon="12.1953233"><ele>0.8333333333333333</ele><time>2026-03-28T15:01:10.644Z</time></trkpt><trkpt lat="44.31699" lon="12.1954133"><ele>1.0</ele><time>2026-03-28T15:01:11.644Z</time></trkpt><trkpt lat="44.3169917" lon="12.1955067"><ele>1.4</ele><time>2026-03-28T15:01:12.644Z</time></trkpt><trkpt lat="44.316985" lon="12.19568"><ele>1.8</ele><time>2026-03-28T15:01:14.645Z</time></trkpt><trkpt lat="44.31698" lon="12.19577"><ele>2.1999999999999997</ele><time>2026-03-28T15:01:15.644Z</time></trkpt><trkpt lat="44.3169817" lon="12.1959533"><ele>2.6</ele><time>2026-03-28T15:01:17.644Z</time></trkpt><trkpt lat="44.3169817" lon="12.19605"><ele>3.0</ele><time>2026-03-28T15:01:18.644Z</time></trkpt><trkpt lat="44.3169767" lon="12.19615"><ele>2.9999999999999996</ele><time>2026-03-28T15:01:19.644Z</time></trkpt><trkpt lat="44.3169683" lon="12.1962417"><ele>3.0</ele><time>2026-03-28T15:01:20.644Z</time></trkpt><trkpt lat="44.3169617" lon="12.1963333"><ele>3.0</ele><time>2026-03-28T15:01:21.644Z</time></trkpt><trkpt lat="44.3169533" lon="12.1964267"><ele>3.0</ele><time>2026-03-28T15:01:22.644Z</time></trkpt><trkpt lat="44.3169483" lon="12.1965233"><ele>3.0</ele><time>2026-03-28T15:01:23.644Z</time></trkpt><trkpt lat="44.3169433" lon="12.1966183"><ele>2.9999999999999996</ele><time>2026-03-28T15:01:24.644Z</time></trkpt><trkpt lat="44.3169367" lon="12.1967133"><ele>3.0</ele><time>2026-03-28T15:01:25.644Z</time></trkpt><trkpt lat="44.3169283" lon="12.1968017"><ele>3.0</ele><time>2026-03-28T15:01:26.645Z</time></trkpt><trkpt lat="44.316915" lon="12.196975"><ele>3.0</ele><time>2026-03-28T15:01:28.645Z</time></trkpt><trkpt lat="44.31691" lon="12.1970633"><ele>3.0</ele><time>2026-03-28T15:01:29.645Z</time></trkpt><trkpt lat="44.3168967" lon="12.197235"><ele>3.0</ele><time>2026-03-28T15:01:31.645Z</time></trkpt><trkpt lat="44.3168817" lon="12.1974067"><ele>3.0</ele><time>2026-03-28T15:01:33.644Z</time></trkpt><trkpt lat="44.3168733" lon="12.1975817"><ele>3.0</ele><time>2026-03-28T15:01:35.644Z</time></trkpt><trkpt lat="44.3168633" lon="12.1977433"><ele>3.0</ele><time>2026-03-28T15:01:37.644Z</time></trkpt><trkpt lat="44.3168567" lon="12.1979033"><ele>3.0</ele><time>2026-03-28T15:01:39.645Z</time></trkpt><trkpt lat="44.3168583" lon="12.1980717"><ele>3.0</ele><time>2026-03-28T15:01:41.644Z</time></trkpt><trkpt lat="44.3168717" lon="12.1982417"><ele>2.8</ele><time>2026-03-28T15:01:43.644Z</time></trkpt><trkpt lat="44.3168717" lon="12.1983383"><ele>2.5999999999999996</ele><time>2026-03-28T15:01:44.644Z</time></trkpt><trkpt lat="44.31688" lon="12.1984367"><ele>2.4000000000000004</ele><time>2026-03-28T15:01:45.644Z</time></trkpt><trkpt lat="44.3168817" lon="12.1985367"><ele>2.2</ele><time>2026-03-28T15:01:46.645Z</time></trkpt><trkpt lat="44.3168917" lon="12.1987083"><ele>2.0</ele><time>2026-03-28T15:01:48.644Z</time></trkpt><trkpt lat="44.3168917" lon="12.19887"><ele>1.8333333333333333</ele><time>2026-03-28T15:01:50.644Z</time></trkpt><trkpt lat="44.3168883" lon="12.1990317"><ele>1.6666666666666665</ele><time>2026-03-28T15:01:52.645Z</time></trkpt><trkpt lat="44.3168983" lon="12.1992"><ele>1.5</ele><time>2026-03-28T15:01:54.644Z</time></trkpt><trkpt lat="44.316905" lon="12.1993017"><ele>1.3333333333333333</ele><time>2026-03-28T15:01:55.644Z</time></trkpt><trkpt lat="44.3169117" lon="12.199395"><ele>1.1666666666666665</ele><time>2026-03-28T15:01:56.645Z</time></trkpt><trkpt lat="44.31692" lon="12.1994933"><ele>1.0</ele><time>2026-03-28T15:01:57.644Z</time></trkpt><trkpt lat="44.3169317" lon="12.1996733"><ele>0.9999999999999999</ele><time>2026-03-28T15:01:59.644Z</time></trkpt><trkpt lat="44.31693" lon="12.1997683"><ele>1.0</ele><time>2026-03-28T15:02:00.644Z</time></trkpt><trkpt lat="44.316925" lon="12.1998617"><ele>1.0</ele><time>2026-03-28T15:02:01.645Z</time></trkpt><trkpt lat="44.3169233" lon="12.1999517"><ele>1.0</ele><time>2026-03-28T15:02:02.644Z</time></trkpt><trkpt lat="44.316925" lon="12.20012"><ele>0.9999999999999999</ele><time>2026-03-28T15:02:04.644Z</time></trkpt><trkpt lat="44.3169383" lon="12.200285"><ele>1.0</ele><time>2026-03-28T15:02:06.644Z</time></trkpt><trkpt lat="44.316955" lon="12.20045"><ele>1.25</ele><time>2026-03-28T15:02:08.645Z</time></trkpt><trkpt lat="44.31698" lon="12.20061"><ele>1.5</ele><time>2026-03-28T15:02:10.644Z</time></trkpt><trkpt lat="44.317015" lon="12.200775"><ele>1.75</ele><time>2026-03-28T15:02:12.644Z</time></trkpt><trkpt lat="44.3170567" lon="12.200935"><ele>2.0</ele><time>2026-03-28T15:02:14.645Z</time></trkpt><trkpt lat="44.3170983" lon="12.20108"><ele>2.0</ele><time>2026-03-28T15:02:16.645Z</time></trkpt><trkpt lat="44.3171483" lon="12.20122"><ele>2.0</ele><time>2026-03-28T15:02:18.644Z</time></trkpt><trkpt lat="44.3172067" lon="12.2013633"><ele>2.0</ele><time>2026-03-28T15:02:20.644Z</time></trkpt><trkpt lat="44.317285" lon="12.2015067"><ele>2.0</ele><time>2026-03-28T15:02:22.644Z</time></trkpt><trkpt lat="44.31733" lon="12.20159"><ele>2.0</ele><time>2026-03-28T15:02:23.644Z</time></trkpt><trkpt lat="44.3173667" lon="12.20167"><ele>2.0</ele><time>2026-03-28T15:02:24.644Z</time></trkpt><trkpt lat="44.3174383" lon="12.2018183"><ele>2.0</ele><time>2026-03-28T15:02:26.644Z</time></trkpt><trkpt lat="44.3174767" lon="12.2018917"><ele>2.0</ele><time>2026-03-28T15:02:27.644Z</time></trkpt><trkpt lat="44.3175417" lon="12.2020283"><ele>2.0</ele><time>2026-03-28T15:02:29.645Z</time></trkpt><trkpt lat="44.3176083" lon="12.2021567"><ele>2.0</ele><time>2026-03-28T15:02:31.644Z</time></trkpt><trkpt lat="44.31766" lon="12.2022933"><ele>1.8333333333333333</ele><time>2026-03-28T15:02:33.644Z</time></trkpt><trkpt lat="44.3176933" lon="12.2023833"><ele>1.6666666666666665</ele><time>2026-03-28T15:02:34.644Z</time></trkpt><trkpt lat="44.31771" lon="12.2024683"><ele>1.5</ele><time>2026-03-28T15:02:35.644Z</time></trkpt><trkpt lat="44.3177217" lon="12.202555"><ele>1.3333333333333333</ele><time>2026-03-28T15:02:36.644Z</time></trkpt><trkpt lat="44.3177283" lon="12.2027233"><ele>1.1666666666666665</ele><time>2026-03-28T15:02:38.644Z</time></trkpt><trkpt lat="44.31772" lon="12.202875"><ele>1.0</ele><time>2026-03-28T15:02:40.645Z</time></trkpt><trkpt lat="44.317695" lon="12.2030033"><ele>1.0</ele><time>2026-03-28T15:02:42.644Z</time></trkpt><trkpt lat="44.31765" lon="12.2030867"><ele>0.9999999999999999</ele><time>2026-03-28T15:02:44.644Z</time></trkpt><trkpt lat="44.31759" lon="12.2031167"><ele>1.0</ele><time>2026-03-28T15:02:46.644Z</time></trkpt><trkpt lat="44.317525" lon="12.2030983"><ele>1.0</ele><time>2026-03-28T15:02:48.644Z</time></trkpt><trkpt lat="44.3174483" lon="12.203065"><ele>0.9999999999999999</ele><time>2026-03-28T15:02:50.644Z</time></trkpt><trkpt lat="44.3173733" lon="12.2030367"><ele>1.0</ele><time>2026-03-28T15:02:52.644Z</time></trkpt><trkpt lat="44.3172867" lon="12.20303"><ele>1.0</ele><time>2026-03-28T15:02:54.644Z</time></trkpt><trkpt lat="44.3171883" lon="12.2030317"><ele>0.6000000000000001</ele><time>2026-03-28T15:02:56.644Z</time></trkpt><trkpt lat="44.3170817" lon="12.2030267"><ele>0.20000000000000007</ele><time>2026-03-28T15:02:58.644Z</time></trkpt><trkpt lat="44.3169783" lon="12.2030267"><ele>-0.20000000000000007</ele><time>2026-03-28T15:03:00.644Z</time></trkpt><trkpt lat="44.3168767" lon="12.2030317"><ele>-0.6000000000000001</ele><time>2026-03-28T15:03:02.644Z</time></trkpt><trkpt lat="44.3167783" lon="12.2030333"><ele>-1.0</ele><time>2026-03-28T15:03:04.645Z</time></trkpt><trkpt lat="44.316675" lon="12.2030333"><ele>-1.0</ele><time>2026-03-28T15:03:06.644Z</time></trkpt><trkpt lat="44.31657" lon="12.2030333"><ele>-1.0</ele><time>2026-03-28T15:03:08.644Z</time></trkpt><trkpt lat="44.3164633" lon="12.203035"><ele>-1.0</ele><time>2026-03-28T15:03:10.644Z</time></trkpt><trkpt lat="44.3163517" lon="12.203045"><ele>-1.0</ele><time>2026-03-28T15:03:12.644Z</time></trkpt><trkpt lat="44.316245" lon="12.20305"><ele>-1.0</ele><time>2026-03-28T15:03:14.644Z</time></trkpt><trkpt lat="44.316145" lon="12.20305"><ele>-0.6000000000000001</ele><time>2026-03-28T15:03:16.644Z</time></trkpt><trkpt lat="44.31604" lon="12.2030533"><ele>-0.20000000000000007</ele><time>2026-03-28T15:03:18.644Z</time></trkpt><trkpt lat="44.3159383" lon="12.20306"><ele>0.20000000000000007</ele><time>2026-03-28T15:03:20.645Z</time></trkpt><trkpt lat="44.315835" lon="12.2030667"><ele>0.6000000000000001</ele><time>2026-03-28T15:03:22.645Z</time></trkpt><trkpt lat="44.3157217" lon="12.2030767"><ele>1.0</ele><time>2026-03-28T15:03:24.644Z</time></trkpt><trkpt lat="44.3156083" lon="12.20308"><ele>1.25</ele><time>2026-03-28T15:03:26.644Z</time></trkpt><trkpt lat="44.3154917" lon="12.2030833"><ele>1.5</ele><time>2026-03-28T15:03:28.645Z</time></trkpt><trkpt lat="44.3153683" lon="12.20309"><ele>1.75</ele><time>2026-03-28T15:03:30.644Z</time></trkpt><trkpt lat="44.3152517" lon="12.203095"><ele>2.0</ele><time>2026-03-28T15:03:32.644Z</time></trkpt><trkpt lat="44.31513" lon="12.203095"><ele>2.0</ele><time>2026-03-28T15:03:34.644Z</time></trkpt><trkpt lat="44.31502" lon="12.2031033"><ele>2.0</ele><time>2026-03-28T15:03:36.644Z</time></trkpt><trkpt lat="44.3148933" lon="12.2030933"><ele>2.0</ele><time>2026-03-28T15:03:38.644Z</time></trkpt><trkpt lat="44.3147817" lon="12.2031017"><ele>2.0</ele><time>2026-03-28T15:03:40.644Z</time></trkpt><trkpt lat="44.3146617" lon="12.203105"><ele>1.9999999999999998</ele><time>2026-03-28T15:03:42.644Z</time></trkpt><trkpt lat="44.3145917" lon="12.2031117"><ele>2.0</ele><time>2026-03-28T15:03:43.644Z</time></trkpt><trkpt lat="44.3145233" lon="12.2031117"><ele>2.0</ele><time>2026-03-28T15:03:44.644Z</time></trkpt><trkpt lat="44.3144583" lon="12.203115"><ele>2.0</ele><time>2026-03-28T15:03:45.644Z</time></trkpt><trkpt lat="44.3143933" lon="12.203115"><ele>1.9999999999999998</ele><time>2026-03-28T15:03:46.644Z</time></trkpt><trkpt lat="44.3142733" lon="12.2031183"><ele>2.0</ele><time>2026-03-28T15:03:48.644Z</time></trkpt><trkpt lat="44.3142083" lon="12.2031217"><ele>2.0</ele><time>2026-03-28T15:03:49.644Z</time></trkpt><trkpt lat="44.314145" lon="12.2031217"><ele>1.9999999999999998</ele><time>2026-03-28T15:03:50.645Z</time></trkpt><trkpt lat="44.3140817" lon="12.203125"><ele>2.0</ele><time>2026-03-28T15:03:51.644Z</time></trkpt><trkpt lat="44.31401" lon="12.2031317"><ele>2.0</ele><time>2026-03-28T15:03:52.645Z</time></trkpt><trkpt lat="44.3139417" lon="12.203135"><ele>1.9999999999999998</ele><time>2026-03-28T15:03:53.644Z</time></trkpt><trkpt lat="44.3138783" lon="12.203135"><ele>2.0</ele><time>2026-03-28T15:03:54.644Z</time></trkpt><trkpt lat="44.313805" lon="12.2031367"><ele>2.0</ele><time>2026-03-28T15:03:55.644Z</time></trkpt><trkpt lat="44.313735" lon="12.203135"><ele>1.8333333333333333</ele><time>2026-03-28T15:03:56.644Z</time></trkpt><trkpt lat="44.31367" lon="12.2031383"><ele>1.6666666666666665</ele><time>2026-03-28T15:03:57.644Z</time></trkpt><trkpt lat="44.3135983" lon="12.203145"><ele>1.5</ele><time>2026-03-28T15:03:58.645Z</time></trkpt><trkpt lat="44.3135267" lon="12.2031483"><ele>1.3333333333333333</ele><time>2026-03-28T15:03:59.644Z</time></trkpt><trkpt lat="44.31346" lon="12.2031517"><ele>1.1666666666666665</ele><time>2026-03-28T15:04:00.644Z</time></trkpt><trkpt lat="44.31334" lon="12.2031483"><ele>1.0</ele><time>2026-03-28T15:04:02.645Z</time></trkpt><trkpt lat="44.3132233" lon="12.2031467"><ele>1.0</ele><time>2026-03-28T15:04:04.645Z</time></trkpt><trkpt lat="44.31311" lon="12.2031417"><ele>1.0</ele><time>2026-03-28T15:04:06.644Z</time></trkpt><trkpt lat="44.3129917" lon="12.2031417"><ele>1.0</ele><time>2026-03-28T15:04:08.644Z</time></trkpt><trkpt lat="44.312885" lon="12.2031383"><ele>1.0</ele><time>2026-03-28T15:04:10.644Z</time></trkpt><trkpt lat="44.3127683" lon="12.203135"><ele>0.9999999999999999</ele><time>2026-03-28T15:04:12.644Z</time></trkpt><trkpt lat="44.3126983" lon="12.203135"><ele>1.0</ele><time>2026-03-28T15:04:13.644Z</time></trkpt><trkpt lat="44.3126317" lon="12.2031333"><ele>1.0</ele><time>2026-03-28T15:04:14.644Z</time></trkpt><trkpt lat="44.3125667" lon="12.2031317"><ele>1.0</ele><time>2026-03-28T15:04:15.644Z</time></trkpt><trkpt lat="44.3125" lon="12.2031317"><ele>0.9999999999999999</ele><time>2026-03-28T15:04:16.644Z</time></trkpt><trkpt lat="44.3123733" lon="12.203135"><ele>1.0</ele><time>2026-03-28T15:04:18.644Z</time></trkpt><trkpt lat="44.3123067" lon="12.2031367"><ele>0.9999999999999999</ele><time>2026-03-28T15:04:19.644Z</time></trkpt><trkpt lat="44.3122383" lon="12.2031367"><ele>1.0</ele><time>2026-03-28T15:04:20.644Z</time></trkpt><trkpt lat="44.3121733" lon="12.2031367"><ele>1.0</ele><time>2026-03-28T15:04:21.645Z</time></trkpt><trkpt lat="44.3121083" lon="12.2031367"><ele>1.0</ele><time>2026-03-28T15:04:22.644Z</time></trkpt><trkpt lat="44.31204" lon="12.2031367"><ele>0.9999999999999999</ele><time>2026-03-28T15:04:23.644Z</time></trkpt><trkpt lat="44.31192" lon="12.2031367"><ele>1.0</ele><time>2026-03-28T15:04:25.645Z</time></trkpt><trkpt lat="44.311805" lon="12.2031367"><ele>1.0</ele><time>2026-03-28T15:04:27.644Z</time></trkpt><trkpt lat="44.3117383" lon="12.2031367"><ele>1.0</ele><time>2026-03-28T15:04:28.644Z</time></trkpt><trkpt lat="44.3116183" lon="12.2031417"><ele>1.0</ele><time>2026-03-28T15:04:30.645Z</time></trkpt><trkpt lat="44.3115083" lon="12.2031333"><ele>1.0</ele><time>2026-03-28T15:04:32.644Z</time></trkpt><trkpt lat="44.311445" lon="12.2031267"><ele>1.0</ele><time>2026-03-28T15:04:33.644Z</time></trkpt><trkpt lat="44.3113317" lon="12.2031333"><ele>1.0</ele><time>2026-03-28T15:04:35.645Z</time></trkpt><trkpt lat="44.3112083" lon="12.2031433"><ele>1.0</ele><time>2026-03-28T15:04:37.645Z</time></trkpt><trkpt lat="44.31109" lon="12.2031667"><ele>1.0</ele><time>2026-03-28T15:04:39.644Z</time></trkpt><trkpt lat="44.31097" lon="12.2031983"><ele>1.0</ele><time>2026-03-28T15:04:41.644Z</time></trkpt><trkpt lat="44.3109067" lon="12.2032183"><ele>1.0</ele><time>2026-03-28T15:04:42.644Z</time></trkpt><trkpt lat="44.31084" lon="12.203245"><ele>1.0</ele><time>2026-03-28T15:04:43.644Z</time></trkpt><trkpt lat="44.31078" lon="12.2032717"><ele>1.0</ele><time>2026-03-28T15:04:44.644Z</time></trkpt><trkpt lat="44.3106583" lon="12.2033233"><ele>1.0</ele><time>2026-03-28T15:04:46.644Z</time></trkpt><trkpt lat="44.3105967" lon="12.2033533"><ele>1.0</ele><time>2026-03-28T15:04:47.644Z</time></trkpt><trkpt lat="44.310485" lon="12.203415"><ele>1.0</ele><time>2026-03-28T15:04:49.644Z</time></trkpt><trkpt lat="44.3103717" lon="12.2034867"><ele>1.0</ele><time>2026-03-28T15:04:51.644Z</time></trkpt><trkpt lat="44.310265" lon="12.2035417"><ele>1.0</ele><time>2026-03-28T15:04:53.645Z</time></trkpt><trkpt lat="44.3101583" lon="12.2036033"><ele>1.0</ele><time>2026-03-28T15:04:55.644Z</time></trkpt><trkpt lat="44.3100517" lon="12.2036717"><ele>1.0</ele><time>2026-03-28T15:04:57.645Z</time></trkpt><trkpt lat="44.3099467" lon="12.2037317"><ele>1.0</ele><time>2026-03-28T15:04:59.645Z</time></trkpt><trkpt lat="44.3098383" lon="12.2037967"><ele>1.0</ele><time>2026-03-28T15:05:01.644Z</time></trkpt><trkpt lat="44.3097383" lon="12.2038667"><ele>1.0</ele><time>2026-03-28T15:05:03.645Z</time></trkpt><trkpt lat="44.3096383" lon="12.20393"><ele>1.0</ele><time>2026-03-28T15:05:05.644Z</time></trkpt><trkpt lat="44.309535" lon="12.2039883"><ele>1.25</ele><time>2026-03-28T15:05:07.644Z</time></trkpt><trkpt lat="44.309435" lon="12.2040417"><ele>1.5</ele><time>2026-03-28T15:05:09.644Z</time></trkpt><trkpt lat="44.3093217" lon="12.2041133"><ele>1.75</ele><time>2026-03-28T15:05:11.644Z</time></trkpt><trkpt lat="44.30921" lon="12.2041733"><ele>2.0</ele><time>2026-03-28T15:05:13.644Z</time></trkpt><trkpt lat="44.3090983" lon="12.2042333"><ele>2.0</ele><time>2026-03-28T15:05:15.644Z</time></trkpt><trkpt lat="44.3089833" lon="12.2042917"><ele>2.0</ele><time>2026-03-28T15:05:17.644Z</time></trkpt><trkpt lat="44.3088767" lon="12.2043467"><ele>2.0</ele><time>2026-03-28T15:05:19.645Z</time></trkpt><trkpt lat="44.3087783" lon="12.2044067"><ele>2.0</ele><time>2026-03-28T15:05:21.645Z</time></trkpt><trkpt lat="44.308675" lon="12.204465"><ele>1.8</ele><time>2026-03-28T15:05:23.645Z</time></trkpt><trkpt lat="44.3085667" lon="12.2045267"><ele>1.6</ele><time>2026-03-28T15:05:25.644Z</time></trkpt><trkpt lat="44.3084717" lon="12.2045933"><ele>1.4000000000000001</ele><time>2026-03-28T15:05:27.645Z</time></trkpt><trkpt lat="44.3083717" lon="12.2046583"><ele>1.2000000000000002</ele><time>2026-03-28T15:05:29.644Z</time></trkpt><trkpt lat="44.3082767" lon="12.2047233"><ele>1.0</ele><time>2026-03-28T15:05:31.644Z</time></trkpt><trkpt lat="44.3082167" lon="12.204755"><ele>1.0</ele><time>2026-03-28T15:05:32.644Z</time></trkpt><trkpt lat="44.3081517" lon="12.204785"><ele>1.0</ele><time>2026-03-28T15:05:33.645Z</time></trkpt><trkpt lat="44.3080917" lon="12.20482"><ele>1.0</ele><time>2026-03-28T15:05:34.644Z</time></trkpt><trkpt lat="44.3079817" lon="12.2048833"><ele>1.0</ele><time>2026-03-28T15:05:36.644Z</time></trkpt><trkpt lat="44.307885" lon="12.20494"><ele>1.0</ele><time>2026-03-28T15:05:38.644Z</time></trkpt><trkpt lat="44.307795" lon="12.2049817"><ele>0.9999999999999999</ele><time>2026-03-28T15:05:40.645Z</time></trkpt><trkpt lat="44.3077117" lon="12.2050267"><ele>1.0</ele><time>2026-03-28T15:05:42.645Z</time></trkpt><trkpt lat="44.307635" lon="12.2050767"><ele>1.0</ele><time>2026-03-28T15:05:44.644Z</time></trkpt><trkpt lat="44.30756" lon="12.2051183"><ele>1.0</ele><time>2026-03-28T15:05:46.644Z</time></trkpt><trkpt lat="44.307475" lon="12.2051683"><ele>0.9999999999999999</ele><time>2026-03-28T15:05:48.644Z</time></trkpt><trkpt lat="44.30739" lon="12.2052117"><ele>1.0</ele><time>2026-03-28T15:05:50.644Z</time></trkpt><trkpt lat="44.3073033" lon="12.20526"><ele>1.2000000000000002</ele><time>2026-03-28T15:05:52.644Z</time></trkpt><trkpt lat="44.30722" lon="12.2052933"><ele>1.4000000000000001</ele><time>2026-03-28T15:05:54.644Z</time></trkpt><trkpt lat="44.3071317" lon="12.205315"><ele>1.6</ele><time>2026-03-28T15:05:56.644Z</time></trkpt><trkpt lat="44.3070367" lon="12.2053283"><ele>1.8</ele><time>2026-03-28T15:05:58.644Z</time></trkpt><trkpt lat="44.3069417" lon="12.205335"><ele>2.0</ele><time>2026-03-28T15:06:00.644Z</time></trkpt><trkpt lat="44.3068467" lon="12.205335"><ele>2.0</ele><time>2026-03-28T15:06:02.644Z</time></trkpt><trkpt lat="44.306745" lon="12.2053233"><ele>2.0</ele><time>2026-03-28T15:06:04.644Z</time></trkpt><trkpt lat="44.30663" lon="12.205295"><ele>2.0</ele><time>2026-03-28T15:06:06.645Z</time></trkpt><trkpt lat="44.3065183" lon="12.2052533"><ele>2.0</ele><time>2026-03-28T15:06:08.645Z</time></trkpt><trkpt lat="44.3064133" lon="12.2051983"><ele>2.0</ele><time>2026-03-28T15:06:10.644Z</time></trkpt><trkpt lat="44.306305" lon="12.2051283"><ele>1.9999999999999998</ele><time>2026-03-28T15:06:12.645Z</time></trkpt><trkpt lat="44.3062483" lon="12.2050883"><ele>2.0</ele><time>2026-03-28T15:06:13.645Z</time></trkpt><trkpt lat="44.3061883" lon="12.2050567"><ele>2.0</ele><time>2026-03-28T15:06:14.645Z</time></trkpt><trkpt lat="44.30609" lon="12.204995"><ele>2.0</ele><time>2026-03-28T15:06:16.645Z</time></trkpt><trkpt lat="44.3060017" lon="12.20493"><ele>1.9999999999999998</ele><time>2026-03-28T15:06:18.644Z</time></trkpt><trkpt lat="44.3059133" lon="12.20488"><ele>2.0</ele><time>2026-03-28T15:06:20.644Z</time></trkpt><trkpt lat="44.3058217" lon="12.2048183"><ele>2.0</ele><time>2026-03-28T15:06:22.644Z</time></trkpt><trkpt lat="44.3057333" lon="12.2047567"><ele>2.0</ele><time>2026-03-28T15:06:24.644Z</time></trkpt><trkpt lat="44.3056483" lon="12.204685"><ele>2.0</ele><time>2026-03-28T15:06:26.644Z</time></trkpt><trkpt lat="44.30556" lon="12.20462"><ele>2.0</ele><time>2026-03-28T15:06:28.644Z</time></trkpt><trkpt lat="44.30547" lon="12.2045583"><ele>2.0</ele><time>2026-03-28T15:06:30.645Z</time></trkpt><trkpt lat="44.305385" lon="12.2044933"><ele>2.0</ele><time>2026-03-28T15:06:32.644Z</time></trkpt><trkpt lat="44.3052933" lon="12.2044283"><ele>2.0</ele><time>2026-03-28T15:06:34.645Z</time></trkpt><trkpt lat="44.3052" lon="12.204365"><ele>2.0</ele><time>2026-03-28T15:06:36.645Z</time></trkpt><trkpt lat="44.3051183" lon="12.2042933"><ele>2.0</ele><time>2026-03-28T15:06:38.644Z</time></trkpt><trkpt lat="44.3050283" lon="12.204225"><ele>2.0</ele><time>2026-03-28T15:06:40.644Z</time></trkpt><trkpt lat="44.3049317" lon="12.2041667"><ele>1.9999999999999998</ele><time>2026-03-28T15:06:42.645Z</time></trkpt><trkpt lat="44.304845" lon="12.2041017"><ele>2.0</ele><time>2026-03-28T15:06:44.644Z</time></trkpt><trkpt lat="44.30474" lon="12.2040333"><ele>2.0</ele><time>2026-03-28T15:06:46.644Z</time></trkpt><trkpt lat="44.3046817" lon="12.204"><ele>2.0</ele><time>2026-03-28T15:06:47.644Z</time></trkpt><trkpt lat="44.3045883" lon="12.2039317"><ele>1.9999999999999998</ele><time>2026-03-28T15:06:49.644Z</time></trkpt><trkpt lat="44.30453" lon="12.20389"><ele>2.0</ele><time>2026-03-28T15:06:50.644Z</time></trkpt><trkpt lat="44.3044317" lon="12.20382"><ele>2.2</ele><time>2026-03-28T15:06:52.644Z</time></trkpt><trkpt lat="44.30434" lon="12.2037433"><ele>2.4000000000000004</ele><time>2026-03-28T15:06:54.645Z</time></trkpt><trkpt lat="44.3042483" lon="12.203665"><ele>2.5999999999999996</ele><time>2026-03-28T15:06:56.644Z</time></trkpt><trkpt lat="44.3041533" lon="12.203585"><ele>2.8</ele><time>2026-03-28T15:06:58.644Z</time></trkpt><trkpt lat="44.304055" lon="12.2035133"><ele>3.0</ele><time>2026-03-28T15:07:00.644Z</time></trkpt><trkpt lat="44.3039533" lon="12.20344"><ele>3.0</ele><time>2026-03-28T15:07:02.644Z</time></trkpt><trkpt lat="44.3038567" lon="12.2033733"><ele>3.0</ele><time>2026-03-28T15:07:04.644Z</time></trkpt><trkpt lat="44.3037567" lon="12.2033083"><ele>3.0</ele><time>2026-03-28T15:07:06.644Z</time></trkpt><trkpt lat="44.3036583" lon="12.203235"><ele>3.0</ele><time>2026-03-28T15:07:08.644Z</time></trkpt><trkpt lat="44.3035467" lon="12.2031683"><ele>2.8</ele><time>2026-03-28T15:07:10.644Z</time></trkpt><trkpt lat="44.3034583" lon="12.2030933"><ele>2.5999999999999996</ele><time>2026-03-28T15:07:12.644Z</time></trkpt><trkpt lat="44.30336" lon="12.2030233"><ele>2.4000000000000004</ele><time>2026-03-28T15:07:14.645Z</time></trkpt><trkpt lat="44.303265" lon="12.2029583"><ele>2.2</ele><time>2026-03-28T15:07:16.644Z</time></trkpt><trkpt lat="44.303165" lon="12.2028983"><ele>2.0</ele><time>2026-03-28T15:07:18.644Z</time></trkpt><trkpt lat="44.3030633" lon="12.2028317"><ele>2.0</ele><time>2026-03-28T15:07:20.644Z</time></trkpt><trkpt lat="44.3029633" lon="12.2027617"><ele>2.0</ele><time>2026-03-28T15:07:22.644Z</time></trkpt><trkpt lat="44.3028667" lon="12.202695"><ele>2.0</ele><time>2026-03-28T15:07:24.644Z</time></trkpt><trkpt lat="44.3027767" lon="12.2026217"><ele>2.0</ele><time>2026-03-28T15:07:26.645Z</time></trkpt><trkpt lat="44.3027133" lon="12.2025867"><ele>2.0</ele><time>2026-03-28T15:07:27.644Z</time></trkpt><trkpt lat="44.302625" lon="12.20253"><ele>2.0</ele><time>2026-03-28T15:07:29.644Z</time></trkpt><trkpt lat="44.302535" lon="12.20247"><ele>2.0</ele><time>2026-03-28T15:07:31.644Z</time></trkpt><trkpt lat="44.30245" lon="12.2024067"><ele>2.0</ele><time>2026-03-28T15:07:33.644Z</time></trkpt><trkpt lat="44.302365" lon="12.202325"><ele>2.0</ele><time>2026-03-28T15:07:35.645Z</time></trkpt><trkpt lat="44.3022817" lon="12.2022517"><ele>2.0</ele><time>2026-03-28T15:07:37.645Z</time></trkpt><trkpt lat="44.3021933" lon="12.2021683"><ele>2.2</ele><time>2026-03-28T15:07:39.645Z</time></trkpt><trkpt lat="44.3021" lon="12.2020933"><ele>2.4000000000000004</ele><time>2026-03-28T15:07:41.644Z</time></trkpt><trkpt lat="44.3020067" lon="12.2020217"><ele>2.5999999999999996</ele><time>2026-03-28T15:07:43.644Z</time></trkpt><trkpt lat="44.30192" lon="12.2019467"><ele>2.8</ele><time>2026-03-28T15:07:45.644Z</time></trkpt><trkpt lat="44.3018483" lon="12.2018617"><ele>3.0</ele><time>2026-03-28T15:07:47.644Z</time></trkpt><trkpt lat="44.3017867" lon="12.201775"><ele>3.0</ele><time>2026-03-28T15:07:49.644Z</time></trkpt><trkpt lat="44.3017317" lon="12.20173"><ele>3.0</ele><time>2026-03-28T15:07:50.644Z</time></trkpt><trkpt lat="44.301645" lon="12.2016467"><ele>3.0</ele><time>2026-03-28T15:07:52.644Z</time></trkpt><trkpt lat="44.3015617" lon="12.2015467"><ele>3.0</ele><time>2026-03-28T15:07:54.644Z</time></trkpt><trkpt lat="44.3014683" lon="12.201455"><ele>3.0</ele><time>2026-03-28T15:07:56.645Z</time></trkpt><trkpt lat="44.3013783" lon="12.20137"><ele>3.2</ele><time>2026-03-28T15:07:58.644Z</time></trkpt><trkpt lat="44.3012917" lon="12.2012783"><ele>3.4</ele><time>2026-03-28T15:08:00.644Z</time></trkpt><trkpt lat="44.3012133" lon="12.2011533"><ele>3.6000000000000005</ele><time>2026-03-28T15:08:02.644Z</time></trkpt><trkpt lat="44.30114" lon="12.20104"><ele>3.8000000000000003</ele><time>2026-03-28T15:08:04.645Z</time></trkpt><trkpt lat="44.3010717" lon="12.2009233"><ele>4.0</ele><time>2026-03-28T15:08:06.645Z</time></trkpt><trkpt lat="44.301005" lon="12.2008217"><ele>4.0</ele><time>2026-03-28T15:08:08.645Z</time></trkpt><trkpt lat="44.3009433" lon="12.200715"><ele>4.0</ele><time>2026-03-28T15:08:10.644Z</time></trkpt><trkpt lat="44.3008767" lon="12.2006133"><ele>4.0</ele><time>2026-03-28T15:08:12.644Z</time></trkpt><trkpt lat="44.300815" lon="12.2004967"><ele>4.0</ele><time>2026-03-28T15:08:14.644Z</time></trkpt><trkpt lat="44.300755" lon="12.2003833"><ele>4.0</ele><time>2026-03-28T15:08:16.644Z</time></trkpt><trkpt lat="44.30069" lon="12.200255"><ele>4.0</ele><time>2026-03-28T15:08:18.644Z</time></trkpt><trkpt lat="44.30063" lon="12.2001233"><ele>4.0</ele><time>2026-03-28T15:08:20.644Z</time></trkpt><trkpt lat="44.3005683" lon="12.2000033"><ele>4.0</ele><time>2026-03-28T15:08:22.644Z</time></trkpt><trkpt lat="44.3005017" lon="12.1998683"><ele>4.0</ele><time>2026-03-28T15:08:24.645Z</time></trkpt><trkpt lat="44.30043" lon="12.1997333"><ele>4.2</ele><time>2026-03-28T15:08:26.644Z</time></trkpt><trkpt lat="44.3003733" lon="12.1996267"><ele>4.4</ele><time>2026-03-28T15:08:28.645Z</time></trkpt><trkpt lat="44.3003283" lon="12.1995333"><ele>4.6</ele><time>2026-03-28T15:08:30.644Z</time></trkpt><trkpt lat="44.3002817" lon="12.1994183"><ele>4.8</ele><time>2026-03-28T15:08:32.644Z</time></trkpt><trkpt lat="44.3002233" lon="12.1993033"><ele>5.0</ele><time>2026-03-28T15:08:34.644Z</time></trkpt><trkpt lat="44.300165" lon="12.1991833"><ele>5.0</ele><time>2026-03-28T15:08:36.644Z</time></trkpt><trkpt lat="44.3001083" lon="12.1990767"><ele>5.0</ele><time>2026-03-28T15:08:38.644Z</time></trkpt><trkpt lat="44.30005" lon="12.1989483"><ele>5.0</ele><time>2026-03-28T15:08:40.644Z</time></trkpt><trkpt lat="44.29999" lon="12.1988233"><ele>5.0</ele><time>2026-03-28T15:08:42.644Z</time></trkpt><trkpt lat="44.2999267" lon="12.198685"><ele>5.0</ele><time>2026-03-28T15:08:44.644Z</time></trkpt><trkpt lat="44.2998733" lon="12.1985483"><ele>5.0</ele><time>2026-03-28T15:08:46.644Z</time></trkpt><trkpt lat="44.2998233" lon="12.19843"><ele>5.0</ele><time>2026-03-28T15:08:48.644Z</time></trkpt><trkpt lat="44.2997717" lon="12.1982967"><ele>5.0</ele><time>2026-03-28T15:08:50.645Z</time></trkpt><trkpt lat="44.299725" lon="12.1981567"><ele>5.0</ele><time>2026-03-28T15:08:52.645Z</time></trkpt><trkpt lat="44.2996783" lon="12.1980183"><ele>5.0</ele><time>2026-03-28T15:08:54.644Z</time></trkpt><trkpt lat="44.2996383" lon="12.1978933"><ele>4.8</ele><time>2026-03-28T15:08:56.644Z</time></trkpt><trkpt lat="44.2996017" lon="12.197775"><ele>4.6</ele><time>2026-03-28T15:08:58.644Z</time></trkpt><trkpt lat="44.2995617" lon="12.1976683"><ele>4.4</ele><time>2026-03-28T15:09:00.644Z</time></trkpt><trkpt lat="44.29951" lon="12.1975483"><ele>4.2</ele><time>2026-03-28T15:09:02.644Z</time></trkpt><trkpt lat="44.2994583" lon="12.197415"><ele>4.0</ele><time>2026-03-28T15:09:04.645Z</time></trkpt><trkpt lat="44.299405" lon="12.19728"><ele>4.0</ele><time>2026-03-28T15:09:06.644Z</time></trkpt><trkpt lat="44.2993517" lon="12.1971433"><ele>4.0</ele><time>2026-03-28T15:09:08.644Z</time></trkpt><trkpt lat="44.2993" lon="12.19701"><ele>4.0</ele><time>2026-03-28T15:09:10.644Z</time></trkpt><trkpt lat="44.2992467" lon="12.19686"><ele>4.0</ele><time>2026-03-28T15:09:12.644Z</time></trkpt><trkpt lat="44.2992017" lon="12.1967267"><ele>4.0</ele><time>2026-03-28T15:09:14.644Z</time></trkpt><trkpt lat="44.299155" lon="12.1966067"><ele>4.2</ele><time>2026-03-28T15:09:16.644Z</time></trkpt><trkpt lat="44.2991083" lon="12.1964817"><ele>4.4</ele><time>2026-03-28T15:09:18.645Z</time></trkpt><trkpt lat="44.2990667" lon="12.1963617"><ele>4.6</ele><time>2026-03-28T15:09:20.644Z</time></trkpt><trkpt lat="44.2990217" lon="12.1962433"><ele>4.8</ele><time>2026-03-28T15:09:22.644Z</time></trkpt><trkpt lat="44.2989733" lon="12.1961217"><ele>5.0</ele><time>2026-03-28T15:09:24.645Z</time></trkpt><trkpt lat="44.2989233" lon="12.1960033"><ele>4.8</ele><time>2026-03-28T15:09:26.644Z</time></trkpt><trkpt lat="44.2988633" lon="12.1958833"><ele>4.6</ele><time>2026-03-28T15:09:28.644Z</time></trkpt><trkpt lat="44.2987983" lon="12.1957733"><ele>4.4</ele><time>2026-03-28T15:09:30.645Z</time></trkpt><trkpt lat="44.29874" lon="12.195635"><ele>4.2</ele><time>2026-03-28T15:09:32.644Z</time></trkpt><trkpt lat="44.298675" lon="12.1954817"><ele>4.0</ele><time>2026-03-28T15:09:34.644Z</time></trkpt><trkpt lat="44.2986233" lon="12.1953517"><ele>4.0</ele><time>2026-03-28T15:09:36.644Z</time></trkpt><trkpt lat="44.2985617" lon="12.1952233"><ele>4.0</ele><time>2026-03-28T15:09:38.644Z</time></trkpt><trkpt lat="44.2985167" lon="12.1950983"><ele>4.0</ele><time>2026-03-28T15:09:40.644Z</time></trkpt><trkpt lat="44.298465" lon="12.194985"><ele>4.0</ele><time>2026-03-28T15:09:42.644Z</time></trkpt><trkpt lat="44.298405" lon="12.19485"><ele>4.0</ele><time>2026-03-28T15:09:44.644Z</time></trkpt><trkpt lat="44.2983583" lon="12.19472"><ele>4.2</ele><time>2026-03-28T15:09:46.645Z</time></trkpt><trkpt lat="44.2983083" lon="12.1946083"><ele>4.4</ele><time>2026-03-28T15:09:48.644Z</time></trkpt><trkpt lat="44.2982483" lon="12.19451"><ele>4.6</ele><time>2026-03-28T15:09:50.644Z</time></trkpt><trkpt lat="44.2981967" lon="12.194405"><ele>4.8</ele><time>2026-03-28T15:09:52.644Z</time></trkpt><trkpt lat="44.2981417" lon="12.1942617"><ele>5.0</ele><time>2026-03-28T15:09:54.644Z</time></trkpt><trkpt lat="44.2980833" lon="12.1940967"><ele>4.666666666666667</ele><time>2026-03-28T15:09:56.644Z</time></trkpt><trkpt lat="44.2980483" lon="12.1940117"><ele>4.333333333333334</ele><time>2026-03-28T15:09:57.644Z</time></trkpt><trkpt lat="44.298025" lon="12.193925"><ele>4.0</ele><time>2026-03-28T15:09:58.644Z</time></trkpt><trkpt lat="44.298" lon="12.1938417"><ele>3.666666666666667</ele><time>2026-03-28T15:09:59.644Z</time></trkpt><trkpt lat="44.29795" lon="12.1936933"><ele>3.3333333333333335</ele><time>2026-03-28T15:10:01.644Z</time></trkpt><trkpt lat="44.29791" lon="12.193535"><ele>3.0</ele><time>2026-03-28T15:10:03.644Z</time></trkpt><trkpt lat="44.2978733" lon="12.1934367"><ele>2.9999999999999996</ele><time>2026-03-28T15:10:05.644Z</time></trkpt><trkpt lat="44.2978383" lon="12.1933633"><ele>3.0</ele><time>2026-03-28T15:10:08.644Z</time></trkpt><trkpt lat="44.2978533" lon="12.1934733"><ele>3.0</ele><time>2026-03-28T15:10:13.644Z</time></trkpt><trkpt lat="44.2978833" lon="12.1935833"><ele>3.0</ele><time>2026-03-28T15:10:16.644Z</time></trkpt><trkpt lat="44.29791" lon="12.193675"><ele>3.0</ele><time>2026-03-28T15:10:18.645Z</time></trkpt><trkpt lat="44.2979267" lon="12.193765"><ele>2.9999999999999996</ele><time>2026-03-28T15:10:20.644Z</time></trkpt><trkpt lat="44.2979017" lon="12.1938567"><ele>3.0</ele><time>2026-03-28T15:10:22.644Z</time></trkpt><trkpt lat="44.2978467" lon="12.1939183"><ele>3.0</ele><time>2026-03-28T15:10:24.644Z</time></trkpt><trkpt lat="44.2978033" lon="12.193995"><ele>3.0</ele><time>2026-03-28T15:10:26.644Z</time></trkpt><trkpt lat="44.2977317" lon="12.1940633"><ele>3.0</ele><time>2026-03-28T15:10:28.645Z</time></trkpt><trkpt lat="44.2976467" lon="12.1941267"><ele>3.0</ele><time>2026-03-28T15:10:30.644Z</time></trkpt><trkpt lat="44.29757" lon="12.1941883"><ele>3.0</ele><time>2026-03-28T15:10:32.644Z</time></trkpt><trkpt lat="44.2974967" lon="12.194245"><ele>3.0</ele><time>2026-03-28T15:10:34.644Z</time></trkpt><trkpt lat="44.297425" lon="12.1942867"><ele>3.0</ele><time>2026-03-28T15:10:36.644Z</time></trkpt><trkpt lat="44.2973367" lon="12.1943183"><ele>3.0</ele><time>2026-03-28T15:10:38.644Z</time></trkpt><trkpt lat="44.2972533" lon="12.1943367"><ele>3.0</ele><time>2026-03-28T15:10:40.644Z</time></trkpt><trkpt lat="44.2971667" lon="12.1943367"><ele>3.0</ele><time>2026-03-28T15:10:42.645Z</time></trkpt><trkpt lat="44.29707" lon="12.1943317"><ele>3.0</ele><time>2026-03-28T15:10:44.644Z</time></trkpt><trkpt lat="44.2969733" lon="12.1943217"><ele>2.8</ele><time>2026-03-28T15:10:46.644Z</time></trkpt><trkpt lat="44.296875" lon="12.1943067"><ele>2.5999999999999996</ele><time>2026-03-28T15:10:48.644Z</time></trkpt><trkpt lat="44.296775" lon="12.1942917"><ele>2.4000000000000004</ele><time>2026-03-28T15:10:50.644Z</time></trkpt><trkpt lat="44.296665" lon="12.1942683"><ele>2.2</ele><time>2026-03-28T15:10:52.644Z</time></trkpt><trkpt lat="44.2965467" lon="12.1942483"><ele>2.0</ele><time>2026-03-28T15:10:54.645Z</time></trkpt><trkpt lat="44.2964333" lon="12.1942183"><ele>2.2</ele><time>2026-03-28T15:10:56.644Z</time></trkpt><trkpt lat="44.2963167" lon="12.1941967"><ele>2.4000000000000004</ele><time>2026-03-28T15:10:58.644Z</time></trkpt><trkpt lat="44.2962083" lon="12.19417"><ele>2.5999999999999996</ele><time>2026-03-28T15:11:00.644Z</time></trkpt><trkpt lat="44.2961033" lon="12.19413"><ele>2.8</ele><time>2026-03-28T15:11:02.644Z</time></trkpt><trkpt lat="44.296005" lon="12.1940833"><ele>3.0</ele><time>2026-03-28T15:11:04.645Z</time></trkpt><trkpt lat="44.2959017" lon="12.1940567"><ele>3.0</ele><time>2026-03-28T15:11:06.645Z</time></trkpt><trkpt lat="44.295795" lon="12.1940367"><ele>3.0</ele><time>2026-03-28T15:11:08.644Z</time></trkpt><trkpt lat="44.2956867" lon="12.1940183"><ele>3.0</ele><time>2026-03-28T15:11:10.645Z</time></trkpt><trkpt lat="44.2955833" lon="12.1939933"><ele>3.0</ele><time>2026-03-28T15:11:12.645Z</time></trkpt><trkpt lat="44.2954783" lon="12.1939583"><ele>3.0</ele><time>2026-03-28T15:11:14.644Z</time></trkpt><trkpt lat="44.295355" lon="12.193915"><ele>2.8</ele><time>2026-03-28T15:11:16.644Z</time></trkpt><trkpt lat="44.29524" lon="12.19387"><ele>2.5999999999999996</ele><time>2026-03-28T15:11:18.644Z</time></trkpt><trkpt lat="44.2951783" lon="12.1938483"><ele>2.4000000000000004</ele><time>2026-03-28T15:11:19.644Z</time></trkpt><trkpt lat="44.2950617" lon="12.1938167"><ele>2.2</ele><time>2026-03-28T15:11:21.644Z</time></trkpt><trkpt lat="44.294955" lon="12.1937833"><ele>2.0</ele><time>2026-03-28T15:11:23.645Z</time></trkpt><trkpt lat="44.2948617" lon="12.1937483"><ele>1.8</ele><time>2026-03-28T15:11:25.644Z</time></trkpt><trkpt lat="44.2947517" lon="12.1937183"><ele>1.6</ele><time>2026-03-28T15:11:27.644Z</time></trkpt><trkpt lat="44.2946333" lon="12.1936833"><ele>1.4000000000000001</ele><time>2026-03-28T15:11:29.644Z</time></trkpt><trkpt lat="44.29457" lon="12.1936717"><ele>1.2000000000000002</ele><time>2026-03-28T15:11:30.644Z</time></trkpt><trkpt lat="44.2944517" lon="12.1936417"><ele>1.0</ele><time>2026-03-28T15:11:32.644Z</time></trkpt><trkpt lat="44.2943883" lon="12.19363"><ele>1.0</ele><time>2026-03-28T15:11:33.645Z</time></trkpt><trkpt lat="44.2942767" lon="12.1935883"><ele>1.0</ele><time>2026-03-28T15:11:35.644Z</time></trkpt><trkpt lat="44.294165" lon="12.1935467"><ele>1.0</ele><time>2026-03-28T15:11:37.644Z</time></trkpt><trkpt lat="44.2940533" lon="12.1935183"><ele>1.0</ele><time>2026-03-28T15:11:39.644Z</time></trkpt><trkpt lat="44.2939417" lon="12.1934833"><ele>1.25</ele><time>2026-03-28T15:11:41.644Z</time></trkpt><trkpt lat="44.2938283" lon="12.19346"><ele>1.5</ele><time>2026-03-28T15:11:43.645Z</time></trkpt><trkpt lat="44.29372" lon="12.1934283"><ele>1.75</ele><time>2026-03-28T15:11:45.644Z</time></trkpt><trkpt lat="44.2936167" lon="12.19339"><ele>2.0</ele><time>2026-03-28T15:11:47.644Z</time></trkpt><trkpt lat="44.2935017" lon="12.1933517"><ele>1.9999999999999998</ele><time>2026-03-28T15:11:49.645Z</time></trkpt><trkpt lat="44.2934383" lon="12.1933333"><ele>2.0</ele><time>2026-03-28T15:11:50.645Z</time></trkpt><trkpt lat="44.2933717" lon="12.193315"><ele>2.0</ele><time>2026-03-28T15:11:51.645Z</time></trkpt><trkpt lat="44.2933083" lon="12.1932967"><ele>2.0</ele><time>2026-03-28T15:11:52.646Z</time></trkpt><trkpt lat="44.2932467" lon="12.1932783"><ele>1.9999999999999998</ele><time>2026-03-28T15:11:53.645Z</time></trkpt><trkpt lat="44.29313" lon="12.1932433"><ele>2.0</ele><time>2026-03-28T15:11:55.645Z</time></trkpt><trkpt lat="44.2930117" lon="12.1932083"><ele>2.2</ele><time>2026-03-28T15:11:57.645Z</time></trkpt><trkpt lat="44.2929017" lon="12.193175"><ele>2.4000000000000004</ele><time>2026-03-28T15:11:59.645Z</time></trkpt><trkpt lat="44.29279" lon="12.1931417"><ele>2.5999999999999996</ele><time>2026-03-28T15:12:01.645Z</time></trkpt><trkpt lat="44.292675" lon="12.19311"><ele>2.8</ele><time>2026-03-28T15:12:03.645Z</time></trkpt><trkpt lat="44.2926133" lon="12.1930883"><ele>3.0</ele><time>2026-03-28T15:12:04.645Z</time></trkpt><trkpt lat="44.2924917" lon="12.19305"><ele>3.2</ele><time>2026-03-28T15:12:06.645Z</time></trkpt><trkpt lat="44.29243" lon="12.1930317"><ele>3.4</ele><time>2026-03-28T15:12:07.645Z</time></trkpt><trkpt lat="44.29231" lon="12.1929917"><ele>3.6000000000000005</ele><time>2026-03-28T15:12:09.645Z</time></trkpt><trkpt lat="44.2922" lon="12.1929567"><ele>3.8000000000000003</ele><time>2026-03-28T15:12:11.646Z</time></trkpt><trkpt lat="44.2920817" lon="12.1929267"><ele>4.0</ele><time>2026-03-28T15:12:13.645Z</time></trkpt><trkpt lat="44.2920167" lon="12.19291"><ele>3.5</ele><time>2026-03-28T15:12:14.645Z</time></trkpt><trkpt lat="44.2919033" lon="12.192875"><ele>3.0</ele><time>2026-03-28T15:12:16.645Z</time></trkpt><trkpt lat="44.2917783" lon="12.1928367"><ele>2.5</ele><time>2026-03-28T15:12:18.645Z</time></trkpt><trkpt lat="44.2916633" lon="12.1927933"><ele>2.0</ele><time>2026-03-28T15:12:20.645Z</time></trkpt><trkpt lat="44.2915633" lon="12.1927583"><ele>2.0</ele><time>2026-03-28T15:12:22.645Z</time></trkpt><trkpt lat="44.2914617" lon="12.1927267"><ele>2.0</ele><time>2026-03-28T15:12:24.646Z</time></trkpt><trkpt lat="44.291355" lon="12.1926917"><ele>2.0</ele><time>2026-03-28T15:12:26.646Z</time></trkpt><trkpt lat="44.29126" lon="12.1926533"><ele>2.0</ele><time>2026-03-28T15:12:28.645Z</time></trkpt><trkpt lat="44.2911617" lon="12.1926267"><ele>2.0</ele><time>2026-03-28T15:12:30.645Z</time></trkpt><trkpt lat="44.2910517" lon="12.1925867"><ele>2.25</ele><time>2026-03-28T15:12:32.645Z</time></trkpt><trkpt lat="44.2909367" lon="12.1925467"><ele>2.5</ele><time>2026-03-28T15:12:34.645Z</time></trkpt><trkpt lat="44.2908283" lon="12.1925167"><ele>2.75</ele><time>2026-03-28T15:12:36.646Z</time></trkpt><trkpt lat="44.29071" lon="12.1924867"><ele>3.0</ele><time>2026-03-28T15:12:38.645Z</time></trkpt><trkpt lat="44.2906017" lon="12.192455"><ele>2.8</ele><time>2026-03-28T15:12:40.645Z</time></trkpt><trkpt lat="44.2905017" lon="12.192435"><ele>2.5999999999999996</ele><time>2026-03-28T15:12:42.645Z</time></trkpt><trkpt lat="44.2903967" lon="12.1924217"><ele>2.4000000000000004</ele><time>2026-03-28T15:12:44.645Z</time></trkpt><trkpt lat="44.2902933" lon="12.1923833"><ele>2.2</ele><time>2026-03-28T15:12:46.646Z</time></trkpt><trkpt lat="44.29018" lon="12.19234"><ele>2.0</ele><time>2026-03-28T15:12:48.645Z</time></trkpt><trkpt lat="44.29007" lon="12.1923067"><ele>2.0</ele><time>2026-03-28T15:12:50.646Z</time></trkpt><trkpt lat="44.2899617" lon="12.19228"><ele>2.0</ele><time>2026-03-28T15:12:52.646Z</time></trkpt><trkpt lat="44.289845" lon="12.1922367"><ele>2.0</ele><time>2026-03-28T15:12:54.646Z</time></trkpt><trkpt lat="44.2897183" lon="12.1921917"><ele>2.0</ele><time>2026-03-28T15:12:56.645Z</time></trkpt><trkpt lat="44.2896033" lon="12.192145"><ele>1.75</ele><time>2026-03-28T15:12:58.645Z</time></trkpt><trkpt lat="44.28949" lon="12.1921017"><ele>1.5</ele><time>2026-03-28T15:13:00.645Z</time></trkpt><trkpt lat="44.2893783" lon="12.19206"><ele>1.25</ele><time>2026-03-28T15:13:02.645Z</time></trkpt><trkpt lat="44.2892567" lon="12.1920117"><ele>1.0</ele><time>2026-03-28T15:13:04.645Z</time></trkpt><trkpt lat="44.2891367" lon="12.1919667"><ele>1.0</ele><time>2026-03-28T15:13:06.645Z</time></trkpt><trkpt lat="44.28902" lon="12.1919217"><ele>1.0</ele><time>2026-03-28T15:13:08.646Z</time></trkpt><trkpt lat="44.2889083" lon="12.1918783"><ele>1.0</ele><time>2026-03-28T15:13:10.645Z</time></trkpt><trkpt lat="44.2887983" lon="12.1918333"><ele>1.0</ele><time>2026-03-28T15:13:12.645Z</time></trkpt><trkpt lat="44.2886883" lon="12.19179"><ele>1.4</ele><time>2026-03-28T15:13:14.645Z</time></trkpt><trkpt lat="44.2885683" lon="12.1917517"><ele>1.8</ele><time>2026-03-28T15:13:16.645Z</time></trkpt><trkpt lat="44.2885067" lon="12.19173"><ele>2.1999999999999997</ele><time>2026-03-28T15:13:17.645Z</time></trkpt><trkpt lat="44.2883983" lon="12.1916867"><ele>2.6</ele><time>2026-03-28T15:13:19.645Z</time></trkpt><trkpt lat="44.288305" lon="12.1916567"><ele>3.0</ele><time>2026-03-28T15:13:21.645Z</time></trkpt><trkpt lat="44.2881917" lon="12.1916233"><ele>3.25</ele><time>2026-03-28T15:13:23.645Z</time></trkpt><trkpt lat="44.2880783" lon="12.1915683"><ele>3.5</ele><time>2026-03-28T15:13:25.645Z</time></trkpt><trkpt lat="44.2879667" lon="12.1915217"><ele>3.75</ele><time>2026-03-28T15:13:27.645Z</time></trkpt><trkpt lat="44.2878567" lon="12.1914783"><ele>4.0</ele><time>2026-03-28T15:13:29.645Z</time></trkpt><trkpt lat="44.2877533" lon="12.1914333"><ele>4.0</ele><time>2026-03-28T15:13:31.646Z</time></trkpt><trkpt lat="44.28765" lon="12.1913967"><ele>4.0</ele><time>2026-03-28T15:13:33.645Z</time></trkpt><trkpt lat="44.287545" lon="12.1913517"><ele>4.0</ele><time>2026-03-28T15:13:35.645Z</time></trkpt><trkpt lat="44.2874417" lon="12.19131"><ele>4.0</ele><time>2026-03-28T15:13:37.645Z</time></trkpt><trkpt lat="44.2873333" lon="12.1912833"><ele>4.0</ele><time>2026-03-28T15:13:39.645Z</time></trkpt><trkpt lat="44.2872617" lon="12.19126"><ele>3.8000000000000003</ele><time>2026-03-28T15:13:40.646Z</time></trkpt><trkpt lat="44.2871917" lon="12.1912367"><ele>3.6000000000000005</ele><time>2026-03-28T15:13:41.646Z</time></trkpt><trkpt lat="44.2870933" lon="12.191185"><ele>3.4</ele><time>2026-03-28T15:13:43.645Z</time></trkpt><trkpt lat="44.2869883" lon="12.19115"><ele>3.2</ele><time>2026-03-28T15:13:45.645Z</time></trkpt><trkpt lat="44.2868683" lon="12.1911217"><ele>3.0</ele><time>2026-03-28T15:13:47.645Z</time></trkpt><trkpt lat="44.28676" lon="12.191075"><ele>3.0</ele><time>2026-03-28T15:13:49.646Z</time></trkpt><trkpt lat="44.2866567" lon="12.191035"><ele>3.0</ele><time>2026-03-28T15:13:51.645Z</time></trkpt><trkpt lat="44.2865533" lon="12.1910067"><ele>3.0</ele><time>2026-03-28T15:13:53.645Z</time></trkpt><trkpt lat="44.286455" lon="12.19097"><ele>3.0</ele><time>2026-03-28T15:13:55.645Z</time></trkpt><trkpt lat="44.2863333" lon="12.1909333"><ele>3.0</ele><time>2026-03-28T15:13:57.645Z</time></trkpt><trkpt lat="44.2862217" lon="12.190895"><ele>3.2</ele><time>2026-03-28T15:13:59.645Z</time></trkpt><trkpt lat="44.28612" lon="12.19086"><ele>3.4</ele><time>2026-03-28T15:14:01.645Z</time></trkpt><trkpt lat="44.2860117" lon="12.1908317"><ele>3.6000000000000005</ele><time>2026-03-28T15:14:03.645Z</time></trkpt><trkpt lat="44.28591" lon="12.190805"><ele>3.8000000000000003</ele><time>2026-03-28T15:14:05.645Z</time></trkpt><trkpt lat="44.2858" lon="12.1907783"><ele>4.0</ele><time>2026-03-28T15:14:07.646Z</time></trkpt><trkpt lat="44.2856967" lon="12.1907333"><ele>4.0</ele><time>2026-03-28T15:14:09.645Z</time></trkpt><trkpt lat="44.2856033" lon="12.1906883"><ele>4.0</ele><time>2026-03-28T15:14:11.646Z</time></trkpt><trkpt lat="44.2854917" lon="12.1906617"><ele>4.0</ele><time>2026-03-28T15:14:13.646Z</time></trkpt><trkpt lat="44.2853683" lon="12.19064"><ele>4.0</ele><time>2026-03-28T15:14:15.646Z</time></trkpt><trkpt lat="44.2852383" lon="12.1906083"><ele>3.833333333333333</ele><time>2026-03-28T15:14:17.645Z</time></trkpt><trkpt lat="44.2851267" lon="12.19059"><ele>3.6666666666666665</ele><time>2026-03-28T15:14:19.645Z</time></trkpt><trkpt lat="44.2850117" lon="12.1905467"><ele>3.5</ele><time>2026-03-28T15:14:21.645Z</time></trkpt><trkpt lat="44.2849483" lon="12.19053"><ele>3.333333333333333</ele><time>2026-03-28T15:14:22.645Z</time></trkpt><trkpt lat="44.2848817" lon="12.1905083"><ele>3.1666666666666665</ele><time>2026-03-28T15:14:23.645Z</time></trkpt><trkpt lat="44.28482" lon="12.19049"><ele>3.0</ele><time>2026-03-28T15:14:24.645Z</time></trkpt><trkpt lat="44.2846883" lon="12.1904633"><ele>3.0</ele><time>2026-03-28T15:14:26.645Z</time></trkpt><trkpt lat="44.28462" lon="12.1904433"><ele>3.0</ele><time>2026-03-28T15:14:27.645Z</time></trkpt><trkpt lat="44.2845517" lon="12.190425"><ele>3.0</ele><time>2026-03-28T15:14:28.646Z</time></trkpt><trkpt lat="44.2844867" lon="12.1904"><ele>3.0</ele><time>2026-03-28T15:14:29.645Z</time></trkpt><trkpt lat="44.2844267" lon="12.1903717"><ele>3.0</ele><time>2026-03-28T15:14:30.645Z</time></trkpt><trkpt lat="44.28431" lon="12.1903333"><ele>3.0</ele><time>2026-03-28T15:14:32.645Z</time></trkpt><trkpt lat="44.2841967" lon="12.1902983"><ele>3.0</ele><time>2026-03-28T15:14:34.646Z</time></trkpt><trkpt lat="44.284095" lon="12.19026"><ele>3.0</ele><time>2026-03-28T15:14:36.645Z</time></trkpt><trkpt lat="44.284" lon="12.1902317"><ele>3.0</ele><time>2026-03-28T15:14:38.645Z</time></trkpt><trkpt lat="44.2839" lon="12.190195"><ele>3.0</ele><time>2026-03-28T15:14:40.645Z</time></trkpt><trkpt lat="44.2837933" lon="12.190165"><ele>3.0</ele><time>2026-03-28T15:14:42.646Z</time></trkpt><trkpt lat="44.2836967" lon="12.1901333"><ele>3.2</ele><time>2026-03-28T15:14:44.645Z</time></trkpt><trkpt lat="44.2836333" lon="12.19012"><ele>3.4</ele><time>2026-03-28T15:14:45.646Z</time></trkpt><trkpt lat="44.2835683" lon="12.1901083"><ele>3.6000000000000005</ele><time>2026-03-28T15:14:46.645Z</time></trkpt><trkpt lat="44.2834433" lon="12.1900783"><ele>3.8000000000000003</ele><time>2026-03-28T15:14:48.646Z</time></trkpt><trkpt lat="44.2833233" lon="12.19005"><ele>4.0</ele><time>2026-03-28T15:14:50.645Z</time></trkpt><trkpt lat="44.28321" lon="12.1900233"><ele>4.0</ele><time>2026-03-28T15:14:52.645Z</time></trkpt><trkpt lat="44.2831167" lon="12.1899967"><ele>4.0</ele><time>2026-03-28T15:14:54.645Z</time></trkpt><trkpt lat="44.28302" lon="12.18997"><ele>4.0</ele><time>2026-03-28T15:14:56.645Z</time></trkpt><trkpt lat="44.2829233" lon="12.1899367"><ele>4.0</ele><time>2026-03-28T15:14:58.645Z</time></trkpt><trkpt lat="44.2828283" lon="12.1899"><ele>4.0</ele><time>2026-03-28T15:15:00.645Z</time></trkpt><trkpt lat="44.2827333" lon="12.1898683"><ele>3.9999999999999996</ele><time>2026-03-28T15:15:02.646Z</time></trkpt><trkpt lat="44.2826667" lon="12.189845"><ele>4.0</ele><time>2026-03-28T15:15:04.645Z</time></trkpt><trkpt lat="44.2825783" lon="12.1898167"><ele>4.0</ele><time>2026-03-28T15:15:17.645Z</time></trkpt><trkpt lat="44.282515" lon="12.1897917"><ele>4.0</ele><time>2026-03-28T15:15:20.646Z</time></trkpt><trkpt lat="44.2824483" lon="12.1897433"><ele>3.9999999999999996</ele><time>2026-03-28T15:15:23.646Z</time></trkpt><trkpt lat="44.2823583" lon="12.1896983"><ele>4.0</ele><time>2026-03-28T15:15:26.645Z</time></trkpt><trkpt lat="44.2822933" lon="12.1896633"><ele>4.2</ele><time>2026-03-28T15:15:28.645Z</time></trkpt><trkpt lat="44.2822067" lon="12.1896267"><ele>4.4</ele><time>2026-03-28T15:15:30.645Z</time></trkpt><trkpt lat="44.28212" lon="12.18959"><ele>4.6</ele><time>2026-03-28T15:15:32.646Z</time></trkpt><trkpt lat="44.282025" lon="12.18956"><ele>4.8</ele><time>2026-03-28T15:15:34.645Z</time></trkpt><trkpt lat="44.2819317" lon="12.189525"><ele>5.0</ele><time>2026-03-28T15:15:36.646Z</time></trkpt><trkpt lat="44.281795" lon="12.18947"><ele>5.0</ele><time>2026-03-28T15:15:39.645Z</time></trkpt><trkpt lat="44.2817067" lon="12.1894367"><ele>5.0</ele><time>2026-03-28T15:15:41.645Z</time></trkpt><trkpt lat="44.2816167" lon="12.1893983"><ele>5.0</ele><time>2026-03-28T15:15:43.645Z</time></trkpt><trkpt lat="44.2815267" lon="12.1893683"><ele>5.0</ele><time>2026-03-28T15:15:45.645Z</time></trkpt><trkpt lat="44.2814367" lon="12.1893333"><ele>5.0</ele><time>2026-03-28T15:15:47.645Z</time></trkpt><trkpt lat="44.2813417" lon="12.189295"><ele>5.0</ele><time>2026-03-28T15:15:49.645Z</time></trkpt><trkpt lat="44.2812433" lon="12.18926"><ele>5.0</ele><time>2026-03-28T15:15:51.645Z</time></trkpt><trkpt lat="44.2811433" lon="12.1892283"><ele>5.0</ele><time>2026-03-28T15:15:53.645Z</time></trkpt><trkpt lat="44.28104" lon="12.1891933"><ele>5.0</ele><time>2026-03-28T15:15:55.645Z</time></trkpt><trkpt lat="44.280935" lon="12.1891567"><ele>5.0</ele><time>2026-03-28T15:15:57.645Z</time></trkpt><trkpt lat="44.28083" lon="12.18912"><ele>5.0</ele><time>2026-03-28T15:15:59.645Z</time></trkpt><trkpt lat="44.280725" lon="12.1890817"><ele>5.0</ele><time>2026-03-28T15:16:01.645Z</time></trkpt><trkpt lat="44.280625" lon="12.1890383"><ele>5.0</ele><time>2026-03-28T15:16:03.645Z</time></trkpt><trkpt lat="44.2805233" lon="12.1890133"><ele>5.0</ele><time>2026-03-28T15:16:05.645Z</time></trkpt><trkpt lat="44.28042" lon="12.1889783"><ele>5.0</ele><time>2026-03-28T15:16:07.645Z</time></trkpt><trkpt lat="44.2803217" lon="12.1889317"><ele>5.0</ele><time>2026-03-28T15:16:09.645Z</time></trkpt><trkpt lat="44.2802183" lon="12.1888917"><ele>5.0</ele><time>2026-03-28T15:16:11.645Z</time></trkpt><trkpt lat="44.28011" lon="12.18884"><ele>5.0</ele><time>2026-03-28T15:16:13.645Z</time></trkpt><trkpt lat="44.2800117" lon="12.1888067"><ele>5.0</ele><time>2026-03-28T15:16:15.646Z</time></trkpt><trkpt lat="44.27991" lon="12.1887667"><ele>5.0</ele><time>2026-03-28T15:16:17.645Z</time></trkpt><trkpt lat="44.27981" lon="12.1887317"><ele>4.8</ele><time>2026-03-28T15:16:19.645Z</time></trkpt><trkpt lat="44.2797133" lon="12.1886883"><ele>4.6</ele><time>2026-03-28T15:16:21.645Z</time></trkpt><trkpt lat="44.2796217" lon="12.1886483"><ele>4.4</ele><time>2026-03-28T15:16:23.645Z</time></trkpt><trkpt lat="44.279525" lon="12.18861"><ele>4.2</ele><time>2026-03-28T15:16:25.645Z</time></trkpt><trkpt lat="44.2794217" lon="12.1885683"><ele>4.0</ele><time>2026-03-28T15:16:27.645Z</time></trkpt><trkpt lat="44.2793117" lon="12.188525"><ele>4.0</ele><time>2026-03-28T15:16:29.645Z</time></trkpt><trkpt lat="44.279245" lon="12.18851"><ele>4.0</ele><time>2026-03-28T15:16:30.645Z</time></trkpt><trkpt lat="44.2791467" lon="12.1884667"><ele>4.0</ele><time>2026-03-28T15:16:32.645Z</time></trkpt><trkpt lat="44.2790583" lon="12.188425"><ele>4.0</ele><time>2026-03-28T15:16:34.645Z</time></trkpt><trkpt lat="44.2789483" lon="12.1883817"><ele>4.0</ele><time>2026-03-28T15:16:36.645Z</time></trkpt><trkpt lat="44.2788533" lon="12.1883367"><ele>4.2</ele><time>2026-03-28T15:16:38.645Z</time></trkpt><trkpt lat="44.2787617" lon="12.1882967"><ele>4.4</ele><time>2026-03-28T15:16:40.645Z</time></trkpt><trkpt lat="44.27864" lon="12.1882583"><ele>4.6</ele><time>2026-03-28T15:16:42.645Z</time></trkpt><trkpt lat="44.2785767" lon="12.1882417"><ele>4.8</ele><time>2026-03-28T15:16:43.646Z</time></trkpt><trkpt lat="44.2784617" lon="12.1882067"><ele>5.0</ele><time>2026-03-28T15:16:45.645Z</time></trkpt><trkpt lat="44.278355" lon="12.18817"><ele>5.2</ele><time>2026-03-28T15:16:47.646Z</time></trkpt><trkpt lat="44.2782483" lon="12.1881417"><ele>5.4</ele><time>2026-03-28T15:16:49.645Z</time></trkpt><trkpt lat="44.278145" lon="12.1881067"><ele>5.6</ele><time>2026-03-28T15:16:51.645Z</time></trkpt><trkpt lat="44.2780367" lon="12.188065"><ele>5.8</ele><time>2026-03-28T15:16:53.646Z</time></trkpt><trkpt lat="44.27793" lon="12.1880233"><ele>6.0</ele><time>2026-03-28T15:16:55.645Z</time></trkpt><trkpt lat="44.27782" lon="12.1879883"><ele>6.0</ele><time>2026-03-28T15:16:57.645Z</time></trkpt><trkpt lat="44.277705" lon="12.1879483"><ele>6.0</ele><time>2026-03-28T15:16:59.645Z</time></trkpt><trkpt lat="44.277585" lon="12.1879083"><ele>6.0</ele><time>2026-03-28T15:17:01.645Z</time></trkpt><trkpt lat="44.277465" lon="12.1878717"><ele>6.0</ele><time>2026-03-28T15:17:03.645Z</time></trkpt><trkpt lat="44.2773483" lon="12.1878333"><ele>6.0</ele><time>2026-03-28T15:17:05.645Z</time></trkpt><trkpt lat="44.2772867" lon="12.187815"><ele>6.0</ele><time>2026-03-28T15:17:06.645Z</time></trkpt><trkpt lat="44.27717" lon="12.1877717"><ele>6.0</ele><time>2026-03-28T15:17:08.645Z</time></trkpt><trkpt lat="44.2770483" lon="12.1877333"><ele>6.0</ele><time>2026-03-28T15:17:10.645Z</time></trkpt><trkpt lat="44.2769317" lon="12.187695"><ele>6.0</ele><time>2026-03-28T15:17:12.645Z</time></trkpt><trkpt lat="44.2768083" lon="12.1876567"><ele>5.833333333333333</ele><time>2026-03-28T15:17:14.645Z</time></trkpt><trkpt lat="44.2767467" lon="12.1876383"><ele>5.666666666666667</ele><time>2026-03-28T15:17:15.645Z</time></trkpt><trkpt lat="44.276685" lon="12.18762"><ele>5.5</ele><time>2026-03-28T15:17:16.645Z</time></trkpt><trkpt lat="44.2766233" lon="12.1876"><ele>5.333333333333334</ele><time>2026-03-28T15:17:17.646Z</time></trkpt><trkpt lat="44.2765067" lon="12.1875583"><ele>5.166666666666667</ele><time>2026-03-28T15:17:19.645Z</time></trkpt><trkpt lat="44.2763867" lon="12.187515"><ele>5.0</ele><time>2026-03-28T15:17:21.645Z</time></trkpt><trkpt lat="44.2762733" lon="12.187475"><ele>5.0</ele><time>2026-03-28T15:17:23.645Z</time></trkpt><trkpt lat="44.2761733" lon="12.1874467"><ele>5.0</ele><time>2026-03-28T15:17:25.645Z</time></trkpt><trkpt lat="44.2760667" lon="12.18741"><ele>5.0</ele><time>2026-03-28T15:17:27.645Z</time></trkpt><trkpt lat="44.27596" lon="12.1873767"><ele>5.0</ele><time>2026-03-28T15:17:29.645Z</time></trkpt><trkpt lat="44.2758667" lon="12.18734"><ele>5.0</ele><time>2026-03-28T15:17:31.645Z</time></trkpt><trkpt lat="44.2757633" lon="12.1872983"><ele>5.0</ele><time>2026-03-28T15:17:33.645Z</time></trkpt><trkpt lat="44.2756567" lon="12.18726"><ele>5.0</ele><time>2026-03-28T15:17:35.645Z</time></trkpt><trkpt lat="44.27554" lon="12.1872267"><ele>5.0</ele><time>2026-03-28T15:17:37.646Z</time></trkpt><trkpt lat="44.2754133" lon="12.1871883"><ele>5.0</ele><time>2026-03-28T15:17:39.645Z</time></trkpt><trkpt lat="44.2753467" lon="12.1871733"><ele>5.0</ele><time>2026-03-28T15:17:40.645Z</time></trkpt><trkpt lat="44.2752767" lon="12.1871567"><ele>5.0</ele><time>2026-03-28T15:17:41.645Z</time></trkpt><trkpt lat="44.2751583" lon="12.1871167"><ele>5.0</ele><time>2026-03-28T15:17:43.646Z</time></trkpt><trkpt lat="44.2750383" lon="12.1870817"><ele>5.0</ele><time>2026-03-28T15:17:45.645Z</time></trkpt><trkpt lat="44.27492" lon="12.1870433"><ele>5.0</ele><time>2026-03-28T15:17:47.645Z</time></trkpt><trkpt lat="44.27481" lon="12.18701"><ele>4.75</ele><time>2026-03-28T15:17:49.645Z</time></trkpt><trkpt lat="44.2746967" lon="12.18697"><ele>4.5</ele><time>2026-03-28T15:17:51.645Z</time></trkpt><trkpt lat="44.274575" lon="12.1869333"><ele>4.25</ele><time>2026-03-28T15:17:53.646Z</time></trkpt><trkpt lat="44.2744633" lon="12.1868883"><ele>4.0</ele><time>2026-03-28T15:17:55.645Z</time></trkpt><trkpt lat="44.2743583" lon="12.18685"><ele>4.0</ele><time>2026-03-28T15:17:57.646Z</time></trkpt><trkpt lat="44.2742433" lon="12.1868117"><ele>4.0</ele><time>2026-03-28T15:17:59.645Z</time></trkpt><trkpt lat="44.2741317" lon="12.1867767"><ele>4.0</ele><time>2026-03-28T15:18:01.645Z</time></trkpt><trkpt lat="44.2740217" lon="12.18675"><ele>4.0</ele><time>2026-03-28T15:18:03.645Z</time></trkpt><trkpt lat="44.2739067" lon="12.186715"><ele>4.2</ele><time>2026-03-28T15:18:05.645Z</time></trkpt><trkpt lat="44.2737933" lon="12.186675"><ele>4.4</ele><time>2026-03-28T15:18:07.645Z</time></trkpt><trkpt lat="44.27373" lon="12.1866567"><ele>4.6</ele><time>2026-03-28T15:18:08.645Z</time></trkpt><trkpt lat="44.27361" lon="12.1866183"><ele>4.8</ele><time>2026-03-28T15:18:10.646Z</time></trkpt><trkpt lat="44.2735483" lon="12.1866"><ele>5.0</ele><time>2026-03-28T15:18:11.645Z</time></trkpt><trkpt lat="44.2734317" lon="12.1865633"><ele>5.0</ele><time>2026-03-28T15:18:13.645Z</time></trkpt><trkpt lat="44.27331" lon="12.18652"><ele>5.0</ele><time>2026-03-28T15:18:15.645Z</time></trkpt><trkpt lat="44.2732383" lon="12.1864983"><ele>5.0</ele><time>2026-03-28T15:18:16.645Z</time></trkpt><trkpt lat="44.27317" lon="12.1864767"><ele>5.0</ele><time>2026-03-28T15:18:17.645Z</time></trkpt><trkpt lat="44.2731033" lon="12.1864567"><ele>5.0</ele><time>2026-03-28T15:18:18.646Z</time></trkpt><trkpt lat="44.27299" lon="12.186425"><ele>4.6</ele><time>2026-03-28T15:18:20.645Z</time></trkpt><trkpt lat="44.2729267" lon="12.1864067"><ele>4.2</ele><time>2026-03-28T15:18:21.645Z</time></trkpt><trkpt lat="44.2728083" lon="12.1863633"><ele>3.8</ele><time>2026-03-28T15:18:23.645Z</time></trkpt><trkpt lat="44.2726867" lon="12.1863167"><ele>3.4</ele><time>2026-03-28T15:18:25.645Z</time></trkpt><trkpt lat="44.2725667" lon="12.18627"><ele>3.0</ele><time>2026-03-28T15:18:27.645Z</time></trkpt><trkpt lat="44.2725033" lon="12.1862467"><ele>2.9999999999999996</ele><time>2026-03-28T15:18:28.645Z</time></trkpt><trkpt lat="44.2724383" lon="12.186225"><ele>3.0</ele><time>2026-03-28T15:18:29.645Z</time></trkpt><trkpt lat="44.2723733" lon="12.1861983"><ele>3.0</ele><time>2026-03-28T15:18:30.645Z</time></trkpt><trkpt lat="44.27231" lon="12.1861733"><ele>3.0</ele><time>2026-03-28T15:18:31.646Z</time></trkpt><trkpt lat="44.2722467" lon="12.1861533"><ele>3.0</ele><time>2026-03-28T15:18:32.645Z</time></trkpt><trkpt lat="44.2721817" lon="12.186135"><ele>2.9999999999999996</ele><time>2026-03-28T15:18:33.646Z</time></trkpt><trkpt lat="44.2721133" lon="12.18612"><ele>3.0</ele><time>2026-03-28T15:18:34.645Z</time></trkpt><trkpt lat="44.27205" lon="12.1861"><ele>3.3333333333333335</ele><time>2026-03-28T15:18:35.645Z</time></trkpt><trkpt lat="44.271985" lon="12.18608"><ele>3.666666666666667</ele><time>2026-03-28T15:18:36.645Z</time></trkpt><trkpt lat="44.2718667" lon="12.18604"><ele>4.0</ele><time>2026-03-28T15:18:38.645Z</time></trkpt><trkpt lat="44.27175" lon="12.1859983"><ele>4.333333333333334</ele><time>2026-03-28T15:18:40.645Z</time></trkpt><trkpt lat="44.2716883" lon="12.1859783"><ele>4.666666666666667</ele><time>2026-03-28T15:18:41.645Z</time></trkpt><trkpt lat="44.2716267" lon="12.18596"><ele>5.0</ele><time>2026-03-28T15:18:42.646Z</time></trkpt><trkpt lat="44.2715" lon="12.18592"><ele>5.0</ele><time>2026-03-28T15:18:44.645Z</time></trkpt><trkpt lat="44.2714383" lon="12.1859017"><ele>5.0</ele><time>2026-03-28T15:18:45.645Z</time></trkpt><trkpt lat="44.2713233" lon="12.1858617"><ele>5.0</ele><time>2026-03-28T15:18:47.645Z</time></trkpt><trkpt lat="44.2712167" lon="12.1858217"><ele>5.0</ele><time>2026-03-28T15:18:49.646Z</time></trkpt><trkpt lat="44.271115" lon="12.1857783"><ele>5.0</ele><time>2026-03-28T15:18:51.645Z</time></trkpt><trkpt lat="44.2710267" lon="12.1857317"><ele>5.2</ele><time>2026-03-28T15:18:53.645Z</time></trkpt><trkpt lat="44.27093" lon="12.1856733"><ele>5.4</ele><time>2026-03-28T15:18:55.646Z</time></trkpt><trkpt lat="44.2708283" lon="12.185625"><ele>5.6</ele><time>2026-03-28T15:18:57.645Z</time></trkpt><trkpt lat="44.2707283" lon="12.1855833"><ele>5.8</ele><time>2026-03-28T15:18:59.645Z</time></trkpt><trkpt lat="44.2706267" lon="12.1855417"><ele>6.0</ele><time>2026-03-28T15:19:01.645Z</time></trkpt><trkpt lat="44.270525" lon="12.1855017"><ele>6.0</ele><time>2026-03-28T15:19:03.645Z</time></trkpt><trkpt lat="44.2704183" lon="12.18547"><ele>6.0</ele><time>2026-03-28T15:19:05.646Z</time></trkpt><trkpt lat="44.2703167" lon="12.1854283"><ele>6.0</ele><time>2026-03-28T15:19:07.645Z</time></trkpt><trkpt lat="44.2702133" lon="12.18537"><ele>6.0</ele><time>2026-03-28T15:19:09.646Z</time></trkpt><trkpt lat="44.2701167" lon="12.1853167"><ele>6.0</ele><time>2026-03-28T15:19:11.645Z</time></trkpt><trkpt lat="44.2700067" lon="12.185265"><ele>6.0</ele><time>2026-03-28T15:19:13.645Z</time></trkpt><trkpt lat="44.2698917" lon="12.1852233"><ele>6.0</ele><time>2026-03-28T15:19:15.645Z</time></trkpt><trkpt lat="44.26983" lon="12.1851967"><ele>6.0</ele><time>2026-03-28T15:19:16.646Z</time></trkpt><trkpt lat="44.2697683" lon="12.1851733"><ele>6.0</ele><time>2026-03-28T15:19:17.645Z</time></trkpt><trkpt lat="44.2697067" lon="12.18515"><ele>6.0</ele><time>2026-03-28T15:19:18.645Z</time></trkpt><trkpt lat="44.2696433" lon="12.1851317"><ele>6.0</ele><time>2026-03-28T15:19:19.645Z</time></trkpt><trkpt lat="44.269525" lon="12.1850933"><ele>5.8</ele><time>2026-03-28T15:19:21.645Z</time></trkpt><trkpt lat="44.2694083" lon="12.1850483"><ele>5.6</ele><time>2026-03-28T15:19:23.645Z</time></trkpt><trkpt lat="44.2693117" lon="12.1850033"><ele>5.4</ele><time>2026-03-28T15:19:25.645Z</time></trkpt><trkpt lat="44.2692033" lon="12.18496"><ele>5.2</ele><time>2026-03-28T15:19:27.645Z</time></trkpt><trkpt lat="44.2690983" lon="12.18492"><ele>5.0</ele><time>2026-03-28T15:19:29.645Z</time></trkpt><trkpt lat="44.269035" lon="12.1848917"><ele>5.2</ele><time>2026-03-28T15:19:30.645Z</time></trkpt><trkpt lat="44.26894" lon="12.1848317"><ele>5.4</ele><time>2026-03-28T15:19:32.645Z</time></trkpt><trkpt lat="44.2688517" lon="12.18479"><ele>5.6</ele><time>2026-03-28T15:19:34.646Z</time></trkpt><trkpt lat="44.2687817" lon="12.1847517"><ele>5.8</ele><time>2026-03-28T15:19:36.645Z</time></trkpt><trkpt lat="44.2686933" lon="12.1847217"><ele>6.0</ele><time>2026-03-28T15:19:38.645Z</time></trkpt><trkpt lat="44.2686" lon="12.184695"><ele>6.0</ele><time>2026-03-28T15:19:40.645Z</time></trkpt><trkpt lat="44.2684867" lon="12.1846683"><ele>6.0</ele><time>2026-03-28T15:19:42.645Z</time></trkpt><trkpt lat="44.2683817" lon="12.1846317"><ele>6.0</ele><time>2026-03-28T15:19:44.645Z</time></trkpt><trkpt lat="44.2682783" lon="12.184585"><ele>6.0</ele><time>2026-03-28T15:19:46.645Z</time></trkpt><trkpt lat="44.2681733" lon="12.1845467"><ele>6.0</ele><time>2026-03-28T15:19:48.645Z</time></trkpt><trkpt lat="44.2680683" lon="12.1845083"><ele>6.199999999999999</ele><time>2026-03-28T15:19:50.645Z</time></trkpt><trkpt lat="44.2679683" lon="12.184475"><ele>6.3999999999999995</ele><time>2026-03-28T15:19:52.645Z</time></trkpt><trkpt lat="44.2678683" lon="12.1844317"><ele>6.6</ele><time>2026-03-28T15:19:54.645Z</time></trkpt><trkpt lat="44.26776" lon="12.1843867"><ele>6.8</ele><time>2026-03-28T15:19:56.645Z</time></trkpt><trkpt lat="44.2676567" lon="12.1843467"><ele>7.0</ele><time>2026-03-28T15:19:58.646Z</time></trkpt><trkpt lat="44.2675567" lon="12.184305"><ele>7.0</ele><time>2026-03-28T15:20:00.646Z</time></trkpt><trkpt lat="44.2674433" lon="12.18426"><ele>6.999999999999999</ele><time>2026-03-28T15:20:02.645Z</time></trkpt><trkpt lat="44.2673433" lon="12.1842217"><ele>6.999999999999999</ele><time>2026-03-28T15:20:04.645Z</time></trkpt><trkpt lat="44.267245" lon="12.1841767"><ele>7.0</ele><time>2026-03-28T15:20:06.646Z</time></trkpt><trkpt lat="44.267145" lon="12.1841367"><ele>7.0</ele><time>2026-03-28T15:20:08.645Z</time></trkpt><trkpt lat="44.2670367" lon="12.1840967"><ele>7.0</ele><time>2026-03-28T15:20:10.645Z</time></trkpt><trkpt lat="44.26693" lon="12.1840583"><ele>6.999999999999999</ele><time>2026-03-28T15:20:12.645Z</time></trkpt><trkpt lat="44.266825" lon="12.18402"><ele>6.999999999999999</ele><time>2026-03-28T15:20:14.645Z</time></trkpt><trkpt lat="44.2667283" lon="12.183985"><ele>7.0</ele><time>2026-03-28T15:20:16.645Z</time></trkpt><trkpt lat="44.2666383" lon="12.1839383"><ele>7.0</ele><time>2026-03-28T15:20:18.646Z</time></trkpt><trkpt lat="44.2665283" lon="12.1839017"><ele>7.0</ele><time>2026-03-28T15:20:20.646Z</time></trkpt><trkpt lat="44.2664133" lon="12.18388"><ele>6.999999999999999</ele><time>2026-03-28T15:20:22.645Z</time></trkpt><trkpt lat="44.26631" lon="12.1838383"><ele>6.999999999999999</ele><time>2026-03-28T15:20:24.645Z</time></trkpt><trkpt lat="44.2662033" lon="12.1838"><ele>7.0</ele><time>2026-03-28T15:20:26.645Z</time></trkpt><trkpt lat="44.2660967" lon="12.1837617"><ele>7.0</ele><time>2026-03-28T15:20:28.646Z</time></trkpt><trkpt lat="44.265995" lon="12.183725"><ele>7.0</ele><time>2026-03-28T15:20:30.645Z</time></trkpt><trkpt lat="44.2658817" lon="12.1836917"><ele>6.999999999999999</ele><time>2026-03-28T15:20:32.646Z</time></trkpt><trkpt lat="44.26579" lon="12.1836583"><ele>6.999999999999999</ele><time>2026-03-28T15:20:34.645Z</time></trkpt><trkpt lat="44.265715" lon="12.1836283"><ele>7.0</ele><time>2026-03-28T15:20:36.645Z</time></trkpt><trkpt lat="44.2656183" lon="12.1836017"><ele>7.0</ele><time>2026-03-28T15:20:38.645Z</time></trkpt><trkpt lat="44.2655183" lon="12.18356"><ele>7.0</ele><time>2026-03-28T15:20:40.645Z</time></trkpt><trkpt lat="44.2654033" lon="12.18353"><ele>7.0</ele><time>2026-03-28T15:20:42.646Z</time></trkpt><trkpt lat="44.2652983" lon="12.1834867"><ele>7.0</ele><time>2026-03-28T15:20:44.645Z</time></trkpt><trkpt lat="44.265185" lon="12.1834517"><ele>7.0</ele><time>2026-03-28T15:20:46.645Z</time></trkpt><trkpt lat="44.2650717" lon="12.1834133"><ele>7.0</ele><time>2026-03-28T15:20:48.646Z</time></trkpt><trkpt lat="44.264965" lon="12.1833717"><ele>7.0</ele><time>2026-03-28T15:20:50.645Z</time></trkpt><trkpt lat="44.2648533" lon="12.1833417"><ele>7.0</ele><time>2026-03-28T15:20:52.645Z</time></trkpt><trkpt lat="44.2647417" lon="12.183305"><ele>7.0</ele><time>2026-03-28T15:20:54.645Z</time></trkpt><trkpt lat="44.264625" lon="12.18327"><ele>6.8</ele><time>2026-03-28T15:20:56.645Z</time></trkpt><trkpt lat="44.26451" lon="12.18324"><ele>6.6</ele><time>2026-03-28T15:20:58.645Z</time></trkpt><trkpt lat="44.2644" lon="12.1831967"><ele>6.3999999999999995</ele><time>2026-03-28T15:21:00.645Z</time></trkpt><trkpt lat="44.2642867" lon="12.1831633"><ele>6.199999999999999</ele><time>2026-03-28T15:21:02.645Z</time></trkpt><trkpt lat="44.2641883" lon="12.1831317"><ele>6.0</ele><time>2026-03-28T15:21:04.645Z</time></trkpt><trkpt lat="44.2640833" lon="12.1831017"><ele>6.0</ele><time>2026-03-28T15:21:06.645Z</time></trkpt><trkpt lat="44.2639733" lon="12.1830717"><ele>6.0</ele><time>2026-03-28T15:21:08.646Z</time></trkpt><trkpt lat="44.2638633" lon="12.1830333"><ele>6.0</ele><time>2026-03-28T15:21:10.645Z</time></trkpt><trkpt lat="44.2637517" lon="12.1829883"><ele>6.0</ele><time>2026-03-28T15:21:12.645Z</time></trkpt><trkpt lat="44.2636867" lon="12.18297"><ele>6.0</ele><time>2026-03-28T15:21:13.646Z</time></trkpt><trkpt lat="44.263575" lon="12.1829333"><ele>6.0</ele><time>2026-03-28T15:21:15.646Z</time></trkpt><trkpt lat="44.2634617" lon="12.182895"><ele>6.0</ele><time>2026-03-28T15:21:17.645Z</time></trkpt><trkpt lat="44.263365" lon="12.1828583"><ele>6.0</ele><time>2026-03-28T15:21:19.645Z</time></trkpt><trkpt lat="44.2632667" lon="12.1828033"><ele>6.0</ele><time>2026-03-28T15:21:21.645Z</time></trkpt><trkpt lat="44.2631483" lon="12.18277"><ele>6.0</ele><time>2026-03-28T15:21:23.645Z</time></trkpt><trkpt lat="44.2630367" lon="12.1827283"><ele>6.199999999999999</ele><time>2026-03-28T15:21:25.645Z</time></trkpt><trkpt lat="44.2629267" lon="12.1826967"><ele>6.3999999999999995</ele><time>2026-03-28T15:21:27.646Z</time></trkpt><trkpt lat="44.2628217" lon="12.1826667"><ele>6.6</ele><time>2026-03-28T15:21:29.645Z</time></trkpt><trkpt lat="44.2627283" lon="12.1826383"><ele>6.8</ele><time>2026-03-28T15:21:31.645Z</time></trkpt><trkpt lat="44.262635" lon="12.1826067"><ele>7.0</ele><time>2026-03-28T15:21:33.645Z</time></trkpt><trkpt lat="44.2625467" lon="12.1825733"><ele>7.0</ele><time>2026-03-28T15:21:35.645Z</time></trkpt><trkpt lat="44.262475" lon="12.182545"><ele>7.0</ele><time>2026-03-28T15:21:37.645Z</time></trkpt><trkpt lat="44.26241" lon="12.1825233"><ele>7.0</ele><time>2026-03-28T15:21:39.646Z</time></trkpt><trkpt lat="44.2623317" lon="12.1824983"><ele>7.0</ele><time>2026-03-28T15:21:42.645Z</time></trkpt><trkpt lat="44.2622683" lon="12.1824717"><ele>7.0</ele><time>2026-03-28T15:21:45.645Z</time></trkpt><trkpt lat="44.2622017" lon="12.1824433"><ele>7.0</ele><time>2026-03-28T15:21:49.646Z</time></trkpt><trkpt lat="44.2621267" lon="12.1824"><ele>7.0</ele><time>2026-03-28T15:21:53.646Z</time></trkpt><trkpt lat="44.2620317" lon="12.182365"><ele>7.000000000000001</ele><time>2026-03-28T15:24:18.645Z</time></trkpt><trkpt lat="44.2619683" lon="12.182345"><ele>7.0</ele><time>2026-03-28T15:24:21.646Z</time></trkpt><trkpt lat="44.2618967" lon="12.1823267"><ele>7.0</ele><time>2026-03-28T15:24:24.645Z</time></trkpt><trkpt lat="44.26182" lon="12.1823017"><ele>7.0</ele><time>2026-03-28T15:24:27.645Z</time></trkpt><trkpt lat="44.2617433" lon="12.1822783"><ele>7.000000000000001</ele><time>2026-03-28T15:24:30.645Z</time></trkpt><trkpt lat="44.26167" lon="12.182255"><ele>7.0</ele><time>2026-03-28T15:24:33.646Z</time></trkpt><trkpt lat="44.2615883" lon="12.1822283"><ele>7.000000000000001</ele><time>2026-03-28T15:24:36.645Z</time></trkpt><trkpt lat="44.2615117" lon="12.1822083"><ele>7.0</ele><time>2026-03-28T15:24:39.645Z</time></trkpt><trkpt lat="44.2614267" lon="12.1821833"><ele>7.0</ele><time>2026-03-28T15:24:42.645Z</time></trkpt><trkpt lat="44.2613433" lon="12.18216"><ele>7.0</ele><time>2026-03-28T15:24:45.645Z</time></trkpt><trkpt lat="44.261275" lon="12.1821433"><ele>7.000000000000001</ele><time>2026-03-28T15:24:47.645Z</time></trkpt><trkpt lat="44.2612117" lon="12.1821317"><ele>7.0</ele><time>2026-03-28T15:24:49.645Z</time></trkpt><trkpt lat="44.2611183" lon="12.1821083"><ele>7.000000000000001</ele><time>2026-03-28T15:24:52.645Z</time></trkpt><trkpt lat="44.26103" lon="12.18207"><ele>7.0</ele><time>2026-03-28T15:24:55.645Z</time></trkpt><trkpt lat="44.260965" lon="12.1820483"><ele>7.0</ele><time>2026-03-28T15:24:57.645Z</time></trkpt><trkpt lat="44.2608783" lon="12.1820217"><ele>7.0</ele><time>2026-03-28T15:25:00.645Z</time></trkpt><trkpt lat="44.2608117" lon="12.1820017"><ele>7.000000000000001</ele><time>2026-03-28T15:25:02.646Z</time></trkpt><trkpt lat="44.260725" lon="12.1819667"><ele>7.0</ele><time>2026-03-28T15:25:05.645Z</time></trkpt><trkpt lat="44.26066" lon="12.1819483"><ele>7.166666666666667</ele><time>2026-03-28T15:25:07.645Z</time></trkpt><trkpt lat="44.26057" lon="12.181915"><ele>7.333333333333334</ele><time>2026-03-28T15:25:10.645Z</time></trkpt><trkpt lat="44.2604817" lon="12.18189"><ele>7.5</ele><time>2026-03-28T15:25:13.645Z</time></trkpt><trkpt lat="44.2603967" lon="12.1818617"><ele>7.666666666666666</ele><time>2026-03-28T15:25:16.645Z</time></trkpt><trkpt lat="44.2603183" lon="12.1818267"><ele>7.833333333333333</ele><time>2026-03-28T15:25:19.645Z</time></trkpt><trkpt lat="44.2602283" lon="12.1817917"><ele>8.0</ele><time>2026-03-28T15:25:22.645Z</time></trkpt><trkpt lat="44.2601617" lon="12.1817683"><ele>8.0</ele><time>2026-03-28T15:25:24.645Z</time></trkpt><trkpt lat="44.2601" lon="12.18175"><ele>7.999999999999999</ele><time>2026-03-28T15:25:26.645Z</time></trkpt><trkpt lat="44.2600383" lon="12.1817233"><ele>8.0</ele><time>2026-03-28T15:25:28.645Z</time></trkpt><trkpt lat="44.2599683" lon="12.1816967"><ele>8.0</ele><time>2026-03-28T15:25:30.645Z</time></trkpt><trkpt lat="44.259895" lon="12.181675"><ele>7.999999999999999</ele><time>2026-03-28T15:25:32.646Z</time></trkpt><trkpt lat="44.25983" lon="12.1816517"><ele>8.0</ele><time>2026-03-28T15:25:34.646Z</time></trkpt><trkpt lat="44.2597617" lon="12.1816333"><ele>8.0</ele><time>2026-03-28T15:25:36.645Z</time></trkpt><trkpt lat="44.25969" lon="12.1816067"><ele>8.142857142857142</ele><time>2026-03-28T15:25:38.645Z</time></trkpt><trkpt lat="44.25962" lon="12.18158"><ele>8.285714285714285</ele><time>2026-03-28T15:25:40.646Z</time></trkpt><trkpt lat="44.2595467" lon="12.1815583"><ele>8.428571428571429</ele><time>2026-03-28T15:25:42.645Z</time></trkpt><trkpt lat="44.2594783" lon="12.1815383"><ele>8.571428571428571</ele><time>2026-03-28T15:25:44.645Z</time></trkpt><trkpt lat="44.25941" lon="12.1815133"><ele>8.714285714285715</ele><time>2026-03-28T15:25:46.645Z</time></trkpt><trkpt lat="44.259335" lon="12.181485"><ele>8.857142857142858</ele><time>2026-03-28T15:25:48.645Z</time></trkpt><trkpt lat="44.25926" lon="12.181455"><ele>9.0</ele><time>2026-03-28T15:25:50.645Z</time></trkpt><trkpt lat="44.2591833" lon="12.1814283"><ele>9.0</ele><time>2026-03-28T15:25:52.645Z</time></trkpt><trkpt lat="44.259105" lon="12.1814067"><ele>9.0</ele><time>2026-03-28T15:25:54.647Z</time></trkpt><trkpt lat="44.2590217" lon="12.1813767"><ele>9.0</ele><time>2026-03-28T15:25:56.647Z</time></trkpt><trkpt lat="44.258935" lon="12.1813433"><ele>9.0</ele><time>2026-03-28T15:25:58.646Z</time></trkpt><trkpt lat="44.2588517" lon="12.1813117"><ele>9.0</ele><time>2026-03-28T15:26:00.646Z</time></trkpt><trkpt lat="44.25876" lon="12.18128"><ele>9.0</ele><time>2026-03-28T15:26:02.646Z</time></trkpt><trkpt lat="44.2586717" lon="12.1812517"><ele>8.8</ele><time>2026-03-28T15:26:04.646Z</time></trkpt><trkpt lat="44.258575" lon="12.1812183"><ele>8.600000000000001</ele><time>2026-03-28T15:26:06.646Z</time></trkpt><trkpt lat="44.2584817" lon="12.1811917"><ele>8.4</ele><time>2026-03-28T15:26:08.646Z</time></trkpt><trkpt lat="44.2583917" lon="12.181165"><ele>8.200000000000001</ele><time>2026-03-28T15:26:10.646Z</time></trkpt><trkpt lat="44.2582717" lon="12.18114"><ele>8.0</ele><time>2026-03-28T15:26:12.647Z</time></trkpt><trkpt lat="44.2581683" lon="12.1811033"><ele>8.0</ele><time>2026-03-28T15:26:14.646Z</time></trkpt><trkpt lat="44.2580717" lon="12.1810733"><ele>8.0</ele><time>2026-03-28T15:26:16.646Z</time></trkpt><trkpt lat="44.25798" lon="12.18103"><ele>8.0</ele><time>2026-03-28T15:26:18.646Z</time></trkpt><trkpt lat="44.2578967" lon="12.1809967"><ele>8.0</ele><time>2026-03-28T15:26:20.646Z</time></trkpt><trkpt lat="44.2578133" lon="12.1809667"><ele>8.0</ele><time>2026-03-28T15:26:22.647Z</time></trkpt><trkpt lat="44.2577233" lon="12.1809433"><ele>8.0</ele><time>2026-03-28T15:26:24.646Z</time></trkpt><trkpt lat="44.2576383" lon="12.180905"><ele>8.0</ele><time>2026-03-28T15:26:26.646Z</time></trkpt><trkpt lat="44.257555" lon="12.1808617"><ele>8.0</ele><time>2026-03-28T15:26:28.646Z</time></trkpt><trkpt lat="44.2574583" lon="12.180825"><ele>8.0</ele><time>2026-03-28T15:26:30.647Z</time></trkpt><trkpt lat="44.2573517" lon="12.1807917"><ele>8.0</ele><time>2026-03-28T15:26:32.646Z</time></trkpt><trkpt lat="44.257245" lon="12.1807617"><ele>8.200000000000001</ele><time>2026-03-28T15:26:34.646Z</time></trkpt><trkpt lat="44.2571367" lon="12.18073"><ele>8.4</ele><time>2026-03-28T15:26:36.646Z</time></trkpt><trkpt lat="44.257025" lon="12.180695"><ele>8.600000000000001</ele><time>2026-03-28T15:26:38.646Z</time></trkpt><trkpt lat="44.2569233" lon="12.1806717"><ele>8.8</ele><time>2026-03-28T15:26:40.647Z</time></trkpt><trkpt lat="44.2568167" lon="12.1806383"><ele>9.0</ele><time>2026-03-28T15:26:42.646Z</time></trkpt><trkpt lat="44.25671" lon="12.1806017"><ele>9.2</ele><time>2026-03-28T15:26:44.646Z</time></trkpt><trkpt lat="44.2566133" lon="12.1805633"><ele>9.4</ele><time>2026-03-28T15:26:46.646Z</time></trkpt><trkpt lat="44.2565167" lon="12.180525"><ele>9.6</ele><time>2026-03-28T15:26:48.647Z</time></trkpt><trkpt lat="44.2564217" lon="12.1804883"><ele>9.8</ele><time>2026-03-28T15:26:50.646Z</time></trkpt><trkpt lat="44.256315" lon="12.1804533"><ele>10.0</ele><time>2026-03-28T15:26:52.646Z</time></trkpt><trkpt lat="44.25621" lon="12.1804233"><ele>10.0</ele><time>2026-03-28T15:26:54.646Z</time></trkpt><trkpt lat="44.25611" lon="12.1803867"><ele>10.0</ele><time>2026-03-28T15:26:56.646Z</time></trkpt><trkpt lat="44.2560083" lon="12.1803583"><ele>10.0</ele><time>2026-03-28T15:26:58.646Z</time></trkpt><trkpt lat="44.255905" lon="12.180325"><ele>10.0</ele><time>2026-03-28T15:27:00.647Z</time></trkpt><trkpt lat="44.2558033" lon="12.1802883"><ele>10.0</ele><time>2026-03-28T15:27:02.646Z</time></trkpt><trkpt lat="44.2557117" lon="12.180255"><ele>10.4</ele><time>2026-03-28T15:27:04.647Z</time></trkpt><trkpt lat="44.25561" lon="12.1802283"><ele>10.8</ele><time>2026-03-28T15:27:06.646Z</time></trkpt><trkpt lat="44.2555083" lon="12.1801867"><ele>11.2</ele><time>2026-03-28T15:27:08.646Z</time></trkpt><trkpt lat="44.2554083" lon="12.18015"><ele>11.6</ele><time>2026-03-28T15:27:10.646Z</time></trkpt><trkpt lat="44.2553017" lon="12.18012"><ele>12.0</ele><time>2026-03-28T15:27:12.646Z</time></trkpt><trkpt lat="44.2552017" lon="12.1800817"><ele>12.0</ele><time>2026-03-28T15:27:14.647Z</time></trkpt><trkpt lat="44.2551067" lon="12.18004"><ele>12.0</ele><time>2026-03-28T15:27:16.646Z</time></trkpt><trkpt lat="44.2550183" lon="12.1800167"><ele>12.0</ele><time>2026-03-28T15:27:18.647Z</time></trkpt><trkpt lat="44.2549367" lon="12.17998"><ele>12.0</ele><time>2026-03-28T15:27:20.646Z</time></trkpt><trkpt lat="44.25484" lon="12.1799267"><ele>12.0</ele><time>2026-03-28T15:27:23.646Z</time></trkpt><trkpt lat="44.25476" lon="12.17988"><ele>11.4</ele><time>2026-03-28T15:27:25.646Z</time></trkpt><trkpt lat="44.2546683" lon="12.1798267"><ele>10.799999999999999</ele><time>2026-03-28T15:27:27.646Z</time></trkpt><trkpt lat="44.2545567" lon="12.179805"><ele>10.2</ele><time>2026-03-28T15:27:29.646Z</time></trkpt><trkpt lat="44.2544417" lon="12.179765"><ele>9.6</ele><time>2026-03-28T15:27:31.646Z</time></trkpt><trkpt lat="44.2543783" lon="12.1797433"><ele>9.0</ele><time>2026-03-28T15:27:32.646Z</time></trkpt><trkpt lat="44.254315" lon="12.17972"><ele>9.0</ele><time>2026-03-28T15:27:33.646Z</time></trkpt><trkpt lat="44.25425" lon="12.1796983"><ele>9.0</ele><time>2026-03-28T15:27:34.647Z</time></trkpt><trkpt lat="44.254185" lon="12.1796767"><ele>9.0</ele><time>2026-03-28T15:27:35.647Z</time></trkpt><trkpt lat="44.2541233" lon="12.179655"><ele>9.0</ele><time>2026-03-28T15:27:36.647Z</time></trkpt><trkpt lat="44.25401" lon="12.17961"><ele>9.0</ele><time>2026-03-28T15:27:38.647Z</time></trkpt><trkpt lat="44.253905" lon="12.17956"><ele>9.0</ele><time>2026-03-28T15:27:40.646Z</time></trkpt><trkpt lat="44.25379" lon="12.17952"><ele>9.25</ele><time>2026-03-28T15:27:42.646Z</time></trkpt><trkpt lat="44.2536767" lon="12.1794733"><ele>9.5</ele><time>2026-03-28T15:27:44.647Z</time></trkpt><trkpt lat="44.25356" lon="12.1794317"><ele>9.75</ele><time>2026-03-28T15:27:46.646Z</time></trkpt><trkpt lat="44.2534467" lon="12.1793883"><ele>10.0</ele><time>2026-03-28T15:27:48.646Z</time></trkpt><trkpt lat="44.2533217" lon="12.17934"><ele>10.0</ele><time>2026-03-28T15:27:50.646Z</time></trkpt><trkpt lat="44.2531983" lon="12.1792983"><ele>10.0</ele><time>2026-03-28T15:27:52.647Z</time></trkpt><trkpt lat="44.2530833" lon="12.1792567"><ele>10.0</ele><time>2026-03-28T15:27:54.646Z</time></trkpt><trkpt lat="44.25302" lon="12.1792417"><ele>10.0</ele><time>2026-03-28T15:27:55.646Z</time></trkpt><trkpt lat="44.2529117" lon="12.1792167"><ele>10.0</ele><time>2026-03-28T15:27:57.646Z</time></trkpt><trkpt lat="44.2528017" lon="12.1791833"><ele>10.2</ele><time>2026-03-28T15:27:59.646Z</time></trkpt><trkpt lat="44.2526967" lon="12.1791517"><ele>10.4</ele><time>2026-03-28T15:28:01.646Z</time></trkpt><trkpt lat="44.2526333" lon="12.1791383"><ele>10.600000000000001</ele><time>2026-03-28T15:28:02.646Z</time></trkpt><trkpt lat="44.2525167" lon="12.1791067"><ele>10.8</ele><time>2026-03-28T15:28:04.646Z</time></trkpt><trkpt lat="44.2524033" lon="12.179075"><ele>11.0</ele><time>2026-03-28T15:28:06.646Z</time></trkpt><trkpt lat="44.2522917" lon="12.1790333"><ele>10.600000000000001</ele><time>2026-03-28T15:28:08.646Z</time></trkpt><trkpt lat="44.2521717" lon="12.179005"><ele>10.200000000000001</ele><time>2026-03-28T15:28:10.646Z</time></trkpt><trkpt lat="44.2520617" lon="12.1789633"><ele>9.8</ele><time>2026-03-28T15:28:12.647Z</time></trkpt><trkpt lat="44.25196" lon="12.17892"><ele>9.4</ele><time>2026-03-28T15:28:14.646Z</time></trkpt><trkpt lat="44.2518617" lon="12.1788733"><ele>9.0</ele><time>2026-03-28T15:28:16.647Z</time></trkpt><trkpt lat="44.2517533" lon="12.1788333"><ele>9.0</ele><time>2026-03-28T15:28:18.646Z</time></trkpt><trkpt lat="44.251655" lon="12.178795"><ele>9.0</ele><time>2026-03-28T15:28:20.646Z</time></trkpt><trkpt lat="44.2515633" lon="12.178755"><ele>9.0</ele><time>2026-03-28T15:28:22.646Z</time></trkpt><trkpt lat="44.2514733" lon="12.1787283"><ele>9.0</ele><time>2026-03-28T15:28:24.646Z</time></trkpt><trkpt lat="44.2513583" lon="12.1786917"><ele>9.0</ele><time>2026-03-28T15:28:26.646Z</time></trkpt><trkpt lat="44.25125" lon="12.1786433"><ele>8.8</ele><time>2026-03-28T15:28:28.647Z</time></trkpt><trkpt lat="44.2511417" lon="12.1786067"><ele>8.600000000000001</ele><time>2026-03-28T15:28:30.646Z</time></trkpt><trkpt lat="44.251035" lon="12.1785733"><ele>8.4</ele><time>2026-03-28T15:28:32.647Z</time></trkpt><trkpt lat="44.25093" lon="12.1785433"><ele>8.200000000000001</ele><time>2026-03-28T15:28:34.646Z</time></trkpt><trkpt lat="44.2508217" lon="12.1785217"><ele>8.0</ele><time>2026-03-28T15:28:36.646Z</time></trkpt><trkpt lat="44.2507133" lon="12.1784883"><ele>8.4</ele><time>2026-03-28T15:28:38.646Z</time></trkpt><trkpt lat="44.2506" lon="12.1784533"><ele>8.8</ele><time>2026-03-28T15:28:40.646Z</time></trkpt><trkpt lat="44.2504867" lon="12.178415"><ele>9.2</ele><time>2026-03-28T15:28:42.647Z</time></trkpt><trkpt lat="44.2503683" lon="12.1783683"><ele>9.6</ele><time>2026-03-28T15:28:44.647Z</time></trkpt><trkpt lat="44.2503067" lon="12.178345"><ele>10.0</ele><time>2026-03-28T15:28:45.646Z</time></trkpt><trkpt lat="44.2501917" lon="12.1783133"><ele>10.0</ele><time>2026-03-28T15:28:47.647Z</time></trkpt><trkpt lat="44.2500783" lon="12.1782817"><ele>10.0</ele><time>2026-03-28T15:28:49.646Z</time></trkpt><trkpt lat="44.2499567" lon="12.17824"><ele>10.0</ele><time>2026-03-28T15:28:51.647Z</time></trkpt><trkpt lat="44.2498933" lon="12.1782183"><ele>10.0</ele><time>2026-03-28T15:28:52.646Z</time></trkpt><trkpt lat="44.2497883" lon="12.1781833"><ele>10.0</ele><time>2026-03-28T15:28:54.646Z</time></trkpt><trkpt lat="44.249675" lon="12.1781517"><ele>10.6</ele><time>2026-03-28T15:28:56.647Z</time></trkpt><trkpt lat="44.24956" lon="12.1781083"><ele>11.2</ele><time>2026-03-28T15:28:58.647Z</time></trkpt><trkpt lat="44.2494517" lon="12.178065"><ele>11.8</ele><time>2026-03-28T15:29:00.646Z</time></trkpt><trkpt lat="44.249345" lon="12.1780283"><ele>12.4</ele><time>2026-03-28T15:29:02.646Z</time></trkpt><trkpt lat="44.2492433" lon="12.1779883"><ele>13.0</ele><time>2026-03-28T15:29:04.646Z</time></trkpt><trkpt lat="44.249135" lon="12.1779517"><ele>13.0</ele><time>2026-03-28T15:29:06.646Z</time></trkpt><trkpt lat="44.249025" lon="12.1779083"><ele>13.0</ele><time>2026-03-28T15:29:08.646Z</time></trkpt><trkpt lat="44.248915" lon="12.1778667"><ele>13.0</ele><time>2026-03-28T15:29:10.646Z</time></trkpt><trkpt lat="44.248815" lon="12.17784"><ele>13.0</ele><time>2026-03-28T15:29:12.646Z</time></trkpt><trkpt lat="44.24871" lon="12.1777983"><ele>13.0</ele><time>2026-03-28T15:29:14.646Z</time></trkpt><trkpt lat="44.248605" lon="12.177755"><ele>12.600000000000001</ele><time>2026-03-28T15:29:16.646Z</time></trkpt><trkpt lat="44.2484967" lon="12.177715"><ele>12.200000000000001</ele><time>2026-03-28T15:29:18.646Z</time></trkpt><trkpt lat="44.2484333" lon="12.177695"><ele>11.8</ele><time>2026-03-28T15:29:19.646Z</time></trkpt><trkpt lat="44.2483667" lon="12.1776767"><ele>11.4</ele><time>2026-03-28T15:29:20.646Z</time></trkpt><trkpt lat="44.2482517" lon="12.1776433"><ele>11.0</ele><time>2026-03-28T15:29:22.647Z</time></trkpt><trkpt lat="44.2481417" lon="12.1776017"><ele>10.8</ele><time>2026-03-28T15:29:24.646Z</time></trkpt><trkpt lat="44.2480367" lon="12.1775617"><ele>10.600000000000001</ele><time>2026-03-28T15:29:26.647Z</time></trkpt><trkpt lat="44.2479183" lon="12.1775233"><ele>10.4</ele><time>2026-03-28T15:29:28.646Z</time></trkpt><trkpt lat="44.247805" lon="12.1774833"><ele>10.2</ele><time>2026-03-28T15:29:30.646Z</time></trkpt><trkpt lat="44.2477083" lon="12.1774417"><ele>10.0</ele><time>2026-03-28T15:29:32.646Z</time></trkpt><trkpt lat="44.2476033" lon="12.1774083"><ele>10.0</ele><time>2026-03-28T15:29:34.646Z</time></trkpt><trkpt lat="44.2475" lon="12.17737"><ele>10.0</ele><time>2026-03-28T15:29:36.646Z</time></trkpt><trkpt lat="44.2474383" lon="12.17735"><ele>10.0</ele><time>2026-03-28T15:29:37.646Z</time></trkpt><trkpt lat="44.2473767" lon="12.1773283"><ele>10.0</ele><time>2026-03-28T15:29:38.646Z</time></trkpt><trkpt lat="44.247265" lon="12.1772933"><ele>10.0</ele><time>2026-03-28T15:29:40.646Z</time></trkpt><trkpt lat="44.2471533" lon="12.1772583"><ele>10.25</ele><time>2026-03-28T15:29:42.646Z</time></trkpt><trkpt lat="44.2470417" lon="12.1772133"><ele>10.5</ele><time>2026-03-28T15:29:44.646Z</time></trkpt><trkpt lat="44.2469317" lon="12.1771683"><ele>10.75</ele><time>2026-03-28T15:29:46.646Z</time></trkpt><trkpt lat="44.246815" lon="12.17713"><ele>11.0</ele><time>2026-03-28T15:29:48.646Z</time></trkpt><trkpt lat="44.2467017" lon="12.177095"><ele>11.0</ele><time>2026-03-28T15:29:50.646Z</time></trkpt><trkpt lat="44.2465867" lon="12.1770633"><ele>11.0</ele><time>2026-03-28T15:29:52.646Z</time></trkpt><trkpt lat="44.2464633" lon="12.1770433"><ele>11.0</ele><time>2026-03-28T15:29:54.646Z</time></trkpt><trkpt lat="44.2464" lon="12.1770433"><ele>11.0</ele><time>2026-03-28T15:29:55.646Z</time></trkpt><trkpt lat="44.2462733" lon="12.177045"><ele>11.0</ele><time>2026-03-28T15:29:57.646Z</time></trkpt><trkpt lat="44.2461533" lon="12.1770483"><ele>11.200000000000001</ele><time>2026-03-28T15:29:59.646Z</time></trkpt><trkpt lat="44.24604" lon="12.1770417"><ele>11.4</ele><time>2026-03-28T15:30:01.646Z</time></trkpt><trkpt lat="44.2459733" lon="12.1770383"><ele>11.6</ele><time>2026-03-28T15:30:02.646Z</time></trkpt><trkpt lat="44.2458617" lon="12.17702"><ele>11.8</ele><time>2026-03-28T15:30:04.646Z</time></trkpt><trkpt lat="44.2457483" lon="12.1769883"><ele>12.0</ele><time>2026-03-28T15:30:06.646Z</time></trkpt><trkpt lat="44.2456467" lon="12.1769433"><ele>11.8</ele><time>2026-03-28T15:30:08.646Z</time></trkpt><trkpt lat="44.2455483" lon="12.1768933"><ele>11.6</ele><time>2026-03-28T15:30:10.646Z</time></trkpt><trkpt lat="44.245445" lon="12.1768483"><ele>11.4</ele><time>2026-03-28T15:30:12.647Z</time></trkpt><trkpt lat="44.2453483" lon="12.1768017"><ele>11.200000000000001</ele><time>2026-03-28T15:30:14.646Z</time></trkpt><trkpt lat="44.2452433" lon="12.1767433"><ele>11.0</ele><time>2026-03-28T15:30:16.646Z</time></trkpt><trkpt lat="44.245135" lon="12.1766783"><ele>11.0</ele><time>2026-03-28T15:30:18.647Z</time></trkpt><trkpt lat="44.245035" lon="12.1765967"><ele>11.0</ele><time>2026-03-28T15:30:20.646Z</time></trkpt><trkpt lat="44.2449733" lon="12.176545"><ele>11.0</ele><time>2026-03-28T15:30:21.646Z</time></trkpt><trkpt lat="44.2449017" lon="12.1765017"><ele>11.0</ele><time>2026-03-28T15:30:22.646Z</time></trkpt><trkpt lat="44.24484" lon="12.176465"><ele>11.0</ele><time>2026-03-28T15:30:23.646Z</time></trkpt><trkpt lat="44.24478" lon="12.1764317"><ele>11.0</ele><time>2026-03-28T15:30:24.647Z</time></trkpt><trkpt lat="44.2446667" lon="12.1763783"><ele>11.200000000000001</ele><time>2026-03-28T15:30:26.646Z</time></trkpt><trkpt lat="44.244605" lon="12.176355"><ele>11.4</ele><time>2026-03-28T15:30:27.646Z</time></trkpt><trkpt lat="44.2445" lon="12.1763067"><ele>11.6</ele><time>2026-03-28T15:30:29.646Z</time></trkpt><trkpt lat="44.2443817" lon="12.17626"><ele>11.8</ele><time>2026-03-28T15:30:31.647Z</time></trkpt><trkpt lat="44.2443183" lon="12.17624"><ele>12.0</ele><time>2026-03-28T15:30:32.646Z</time></trkpt><trkpt lat="44.244205" lon="12.1762067"><ele>12.0</ele><time>2026-03-28T15:30:34.646Z</time></trkpt><trkpt lat="44.2440983" lon="12.1761767"><ele>12.0</ele><time>2026-03-28T15:30:36.646Z</time></trkpt><trkpt lat="44.243975" lon="12.1761367"><ele>12.0</ele><time>2026-03-28T15:30:38.646Z</time></trkpt><trkpt lat="44.2438683" lon="12.1760933"><ele>12.0</ele><time>2026-03-28T15:30:40.647Z</time></trkpt><trkpt lat="44.2437583" lon="12.1760467"><ele>11.75</ele><time>2026-03-28T15:30:42.646Z</time></trkpt><trkpt lat="44.2436417" lon="12.1760067"><ele>11.5</ele><time>2026-03-28T15:30:44.646Z</time></trkpt><trkpt lat="44.2435233" lon="12.17597"><ele>11.25</ele><time>2026-03-28T15:30:46.647Z</time></trkpt><trkpt lat="44.2434117" lon="12.175935"><ele>11.0</ele><time>2026-03-28T15:30:48.646Z</time></trkpt><trkpt lat="44.2433133" lon="12.1759033"><ele>11.0</ele><time>2026-03-28T15:30:50.647Z</time></trkpt><trkpt lat="44.243215" lon="12.1758683"><ele>11.0</ele><time>2026-03-28T15:30:52.646Z</time></trkpt><trkpt lat="44.243115" lon="12.175835"><ele>11.0</ele><time>2026-03-28T15:30:54.646Z</time></trkpt><trkpt lat="44.24301" lon="12.1758017"><ele>11.0</ele><time>2026-03-28T15:30:56.646Z</time></trkpt><trkpt lat="44.2429083" lon="12.175755"><ele>11.0</ele><time>2026-03-28T15:30:58.646Z</time></trkpt><trkpt lat="44.24281" lon="12.175715"><ele>11.0</ele><time>2026-03-28T15:31:00.646Z</time></trkpt><trkpt lat="44.2427233" lon="12.1756833"><ele>11.0</ele><time>2026-03-28T15:31:02.646Z</time></trkpt><trkpt lat="44.2426483" lon="12.1756567"><ele>11.0</ele><time>2026-03-28T15:31:04.646Z</time></trkpt><trkpt lat="44.2425767" lon="12.1756267"><ele>11.0</ele><time>2026-03-28T15:31:07.646Z</time></trkpt><trkpt lat="44.2424983" lon="12.1755717"><ele>11.0</ele><time>2026-03-28T15:31:10.646Z</time></trkpt><trkpt lat="44.2424283" lon="12.1755517"><ele>11.0</ele><time>2026-03-28T15:31:12.646Z</time></trkpt><trkpt lat="44.2423583" lon="12.1755433"><ele>11.200000000000001</ele><time>2026-03-28T15:31:14.646Z</time></trkpt><trkpt lat="44.24229" lon="12.1755133"><ele>11.4</ele><time>2026-03-28T15:31:16.646Z</time></trkpt><trkpt lat="44.2422033" lon="12.1754833"><ele>11.6</ele><time>2026-03-28T15:31:18.646Z</time></trkpt><trkpt lat="44.2421117" lon="12.1754483"><ele>11.8</ele><time>2026-03-28T15:31:20.646Z</time></trkpt><trkpt lat="44.2420083" lon="12.1754133"><ele>12.0</ele><time>2026-03-28T15:31:22.646Z</time></trkpt><trkpt lat="44.2418867" lon="12.1753817"><ele>12.0</ele><time>2026-03-28T15:31:24.646Z</time></trkpt><trkpt lat="44.2417817" lon="12.1753483"><ele>12.0</ele><time>2026-03-28T15:31:26.646Z</time></trkpt><trkpt lat="44.24168" lon="12.175325"><ele>12.0</ele><time>2026-03-28T15:31:28.646Z</time></trkpt><trkpt lat="44.241585" lon="12.17529"><ele>12.0</ele><time>2026-03-28T15:31:30.647Z</time></trkpt><trkpt lat="44.2414883" lon="12.175255"><ele>12.0</ele><time>2026-03-28T15:31:32.646Z</time></trkpt><trkpt lat="44.2413833" lon="12.1752183"><ele>12.2</ele><time>2026-03-28T15:31:34.646Z</time></trkpt><trkpt lat="44.2412717" lon="12.1751867"><ele>12.399999999999999</ele><time>2026-03-28T15:31:36.646Z</time></trkpt><trkpt lat="44.2411783" lon="12.1751467"><ele>12.600000000000001</ele><time>2026-03-28T15:31:38.647Z</time></trkpt><trkpt lat="44.2410733" lon="12.1751067"><ele>12.8</ele><time>2026-03-28T15:31:40.646Z</time></trkpt><trkpt lat="44.240965" lon="12.1750683"><ele>13.0</ele><time>2026-03-28T15:31:42.646Z</time></trkpt><trkpt lat="44.2408567" lon="12.175035"><ele>13.0</ele><time>2026-03-28T15:31:44.646Z</time></trkpt><trkpt lat="44.24075" lon="12.1749933"><ele>13.0</ele><time>2026-03-28T15:31:46.646Z</time></trkpt><trkpt lat="44.2406483" lon="12.17495"><ele>13.0</ele><time>2026-03-28T15:31:48.647Z</time></trkpt><trkpt lat="44.2405383" lon="12.1749117"><ele>13.0</ele><time>2026-03-28T15:31:50.646Z</time></trkpt><trkpt lat="44.240425" lon="12.1748667"><ele>13.0</ele><time>2026-03-28T15:31:52.647Z</time></trkpt><trkpt lat="44.24031" lon="12.1748267"><ele>12.8</ele><time>2026-03-28T15:31:54.646Z</time></trkpt><trkpt lat="44.240195" lon="12.174795"><ele>12.600000000000001</ele><time>2026-03-28T15:31:56.646Z</time></trkpt><trkpt lat="44.240085" lon="12.1747467"><ele>12.399999999999999</ele><time>2026-03-28T15:31:58.646Z</time></trkpt><trkpt lat="44.2400233" lon="12.1747267"><ele>12.2</ele><time>2026-03-28T15:31:59.646Z</time></trkpt><trkpt lat="44.239905" lon="12.1746817"><ele>12.0</ele><time>2026-03-28T15:32:01.647Z</time></trkpt><trkpt lat="44.2397867" lon="12.1746433"><ele>12.0</ele><time>2026-03-28T15:32:03.646Z</time></trkpt><trkpt lat="44.2396583" lon="12.1746133"><ele>12.0</ele><time>2026-03-28T15:32:05.646Z</time></trkpt><trkpt lat="44.239595" lon="12.1745983"><ele>12.0</ele><time>2026-03-28T15:32:06.647Z</time></trkpt><trkpt lat="44.2395333" lon="12.1745783"><ele>12.0</ele><time>2026-03-28T15:32:07.646Z</time></trkpt><trkpt lat="44.2394183" lon="12.1745433"><ele>12.0</ele><time>2026-03-28T15:32:09.646Z</time></trkpt><trkpt lat="44.2393033" lon="12.1745"><ele>12.0</ele><time>2026-03-28T15:32:11.646Z</time></trkpt><trkpt lat="44.239185" lon="12.1744667"><ele>12.0</ele><time>2026-03-28T15:32:13.647Z</time></trkpt><trkpt lat="44.2390667" lon="12.1744233"><ele>12.0</ele><time>2026-03-28T15:32:15.646Z</time></trkpt><trkpt lat="44.2389483" lon="12.1743833"><ele>12.0</ele><time>2026-03-28T15:32:17.646Z</time></trkpt><trkpt lat="44.2388317" lon="12.1743433"><ele>12.0</ele><time>2026-03-28T15:32:19.646Z</time></trkpt><trkpt lat="44.2387183" lon="12.1743067"><ele>12.0</ele><time>2026-03-28T15:32:21.646Z</time></trkpt><trkpt lat="44.2386" lon="12.17427"><ele>12.0</ele><time>2026-03-28T15:32:23.647Z</time></trkpt><trkpt lat="44.2385383" lon="12.1742483"><ele>12.0</ele><time>2026-03-28T15:32:24.646Z</time></trkpt><trkpt lat="44.2384767" lon="12.1742283"><ele>12.0</ele><time>2026-03-28T15:32:25.646Z</time></trkpt><trkpt lat="44.238415" lon="12.1742083"><ele>12.0</ele><time>2026-03-28T15:32:26.646Z</time></trkpt><trkpt lat="44.2383033" lon="12.17416"><ele>12.0</ele><time>2026-03-28T15:32:28.647Z</time></trkpt><trkpt lat="44.23819" lon="12.1741233"><ele>12.0</ele><time>2026-03-28T15:32:30.646Z</time></trkpt><trkpt lat="44.2380767" lon="12.1740767"><ele>12.0</ele><time>2026-03-28T15:32:32.647Z</time></trkpt><trkpt lat="44.2379667" lon="12.1740283"><ele>12.0</ele><time>2026-03-28T15:32:34.647Z</time></trkpt><trkpt lat="44.2378467" lon="12.1739933"><ele>12.166666666666666</ele><time>2026-03-28T15:32:36.647Z</time></trkpt><trkpt lat="44.237785" lon="12.1739733"><ele>12.333333333333332</ele><time>2026-03-28T15:32:37.646Z</time></trkpt><trkpt lat="44.237665" lon="12.1739333"><ele>12.5</ele><time>2026-03-28T15:32:39.646Z</time></trkpt><trkpt lat="44.2376017" lon="12.1739117"><ele>12.666666666666666</ele><time>2026-03-28T15:32:40.647Z</time></trkpt><trkpt lat="44.2375333" lon="12.1738933"><ele>12.833333333333332</ele><time>2026-03-28T15:32:41.646Z</time></trkpt><trkpt lat="44.23747" lon="12.17387"><ele>13.0</ele><time>2026-03-28T15:32:42.646Z</time></trkpt><trkpt lat="44.2374017" lon="12.1738483"><ele>13.0</ele><time>2026-03-28T15:32:43.646Z</time></trkpt><trkpt lat="44.23734" lon="12.1738267"><ele>13.0</ele><time>2026-03-28T15:32:44.646Z</time></trkpt><trkpt lat="44.2372317" lon="12.1737833"><ele>13.0</ele><time>2026-03-28T15:32:46.646Z</time></trkpt><trkpt lat="44.2371217" lon="12.173745"><ele>13.0</ele><time>2026-03-28T15:32:48.646Z</time></trkpt><trkpt lat="44.237" lon="12.173705"><ele>13.0</ele><time>2026-03-28T15:32:50.646Z</time></trkpt><trkpt lat="44.2369267" lon="12.1736883"><ele>12.8</ele><time>2026-03-28T15:32:51.646Z</time></trkpt><trkpt lat="44.23686" lon="12.1736683"><ele>12.600000000000001</ele><time>2026-03-28T15:32:52.646Z</time></trkpt><trkpt lat="44.2367433" lon="12.1736333"><ele>12.399999999999999</ele><time>2026-03-28T15:32:54.646Z</time></trkpt><trkpt lat="44.236645" lon="12.1736017"><ele>12.2</ele><time>2026-03-28T15:32:56.646Z</time></trkpt><trkpt lat="44.2365417" lon="12.17357"><ele>12.0</ele><time>2026-03-28T15:32:58.646Z</time></trkpt><trkpt lat="44.2364467" lon="12.17353"><ele>12.0</ele><time>2026-03-28T15:33:00.646Z</time></trkpt><trkpt lat="44.2363483" lon="12.1734933"><ele>12.0</ele><time>2026-03-28T15:33:02.646Z</time></trkpt><trkpt lat="44.2362367" lon="12.173465"><ele>12.0</ele><time>2026-03-28T15:33:04.646Z</time></trkpt><trkpt lat="44.2361317" lon="12.1734333"><ele>12.0</ele><time>2026-03-28T15:33:06.646Z</time></trkpt><trkpt lat="44.2360367" lon="12.1733967"><ele>12.0</ele><time>2026-03-28T15:33:08.646Z</time></trkpt><trkpt lat="44.235945" lon="12.173365"><ele>12.0</ele><time>2026-03-28T15:33:10.646Z</time></trkpt><trkpt lat="44.235845" lon="12.1733317"><ele>12.0</ele><time>2026-03-28T15:33:12.646Z</time></trkpt><trkpt lat="44.2357433" lon="12.173295"><ele>12.0</ele><time>2026-03-28T15:33:14.646Z</time></trkpt><trkpt lat="44.2356317" lon="12.1732583"><ele>12.0</ele><time>2026-03-28T15:33:16.646Z</time></trkpt><trkpt lat="44.23552" lon="12.1732183"><ele>12.0</ele><time>2026-03-28T15:33:18.646Z</time></trkpt><trkpt lat="44.2353983" lon="12.17318"><ele>12.2</ele><time>2026-03-28T15:33:20.646Z</time></trkpt><trkpt lat="44.2352783" lon="12.173135"><ele>12.399999999999999</ele><time>2026-03-28T15:33:22.646Z</time></trkpt><trkpt lat="44.235215" lon="12.17312"><ele>12.600000000000001</ele><time>2026-03-28T15:33:23.646Z</time></trkpt><trkpt lat="44.2350983" lon="12.173085"><ele>12.8</ele><time>2026-03-28T15:33:25.646Z</time></trkpt><trkpt lat="44.23498" lon="12.173035"><ele>13.0</ele><time>2026-03-28T15:33:27.647Z</time></trkpt><trkpt lat="44.2348567" lon="12.1729933"><ele>13.0</ele><time>2026-03-28T15:33:29.646Z</time></trkpt><trkpt lat="44.2347933" lon="12.172975"><ele>13.0</ele><time>2026-03-28T15:33:30.646Z</time></trkpt><trkpt lat="44.2347317" lon="12.1729533"><ele>13.0</ele><time>2026-03-28T15:33:31.646Z</time></trkpt><trkpt lat="44.2346633" lon="12.1729333"><ele>13.0</ele><time>2026-03-28T15:33:32.646Z</time></trkpt><trkpt lat="44.2346" lon="12.1729083"><ele>13.0</ele><time>2026-03-28T15:33:33.646Z</time></trkpt><trkpt lat="44.2345367" lon="12.1728817"><ele>13.0</ele><time>2026-03-28T15:33:34.646Z</time></trkpt><trkpt lat="44.2344767" lon="12.172855"><ele>13.0</ele><time>2026-03-28T15:33:35.646Z</time></trkpt><trkpt lat="44.234365" lon="12.17281"><ele>13.0</ele><time>2026-03-28T15:33:37.646Z</time></trkpt><trkpt lat="44.234245" lon="12.1727683"><ele>13.0</ele><time>2026-03-28T15:33:39.646Z</time></trkpt><trkpt lat="44.2341783" lon="12.172745"><ele>13.0</ele><time>2026-03-28T15:33:40.647Z</time></trkpt><trkpt lat="44.2341117" lon="12.1727217"><ele>13.0</ele><time>2026-03-28T15:33:41.646Z</time></trkpt><trkpt lat="44.2339883" lon="12.1726767"><ele>13.0</ele><time>2026-03-28T15:33:43.646Z</time></trkpt><trkpt lat="44.23387" lon="12.1726383"><ele>12.8</ele><time>2026-03-28T15:33:45.646Z</time></trkpt><trkpt lat="44.23376" lon="12.1725883"><ele>12.600000000000001</ele><time>2026-03-28T15:33:47.647Z</time></trkpt><trkpt lat="44.23364" lon="12.1725467"><ele>12.399999999999999</ele><time>2026-03-28T15:33:49.646Z</time></trkpt><trkpt lat="44.2335767" lon="12.1725283"><ele>12.2</ele><time>2026-03-28T15:33:50.646Z</time></trkpt><trkpt lat="44.233455" lon="12.17248"><ele>12.0</ele><time>2026-03-28T15:33:52.646Z</time></trkpt><trkpt lat="44.2333933" lon="12.1724567"><ele>12.0</ele><time>2026-03-28T15:33:53.646Z</time></trkpt><trkpt lat="44.2332733" lon="12.1724117"><ele>12.0</ele><time>2026-03-28T15:33:55.646Z</time></trkpt><trkpt lat="44.233155" lon="12.1723733"><ele>12.0</ele><time>2026-03-28T15:33:57.647Z</time></trkpt><trkpt lat="44.2330467" lon="12.172325"><ele>12.0</ele><time>2026-03-28T15:33:59.647Z</time></trkpt><trkpt lat="44.2329867" lon="12.1722983"><ele>12.0</ele><time>2026-03-28T15:34:00.646Z</time></trkpt><trkpt lat="44.2328667" lon="12.1722483"><ele>12.166666666666666</ele><time>2026-03-28T15:34:02.647Z</time></trkpt><trkpt lat="44.2327983" lon="12.1722317"><ele>12.333333333333332</ele><time>2026-03-28T15:34:03.646Z</time></trkpt><trkpt lat="44.2327317" lon="12.172205"><ele>12.5</ele><time>2026-03-28T15:34:04.646Z</time></trkpt><trkpt lat="44.2326683" lon="12.1721767"><ele>12.666666666666666</ele><time>2026-03-28T15:34:05.646Z</time></trkpt><trkpt lat="44.2326017" lon="12.1721533"><ele>12.833333333333332</ele><time>2026-03-28T15:34:06.646Z</time></trkpt><trkpt lat="44.2324917" lon="12.1721067"><ele>13.0</ele><time>2026-03-28T15:34:08.646Z</time></trkpt><trkpt lat="44.2323717" lon="12.172065"><ele>12.999999999999998</ele><time>2026-03-28T15:34:10.646Z</time></trkpt><trkpt lat="44.232265" lon="12.1720317"><ele>13.0</ele><time>2026-03-28T15:34:12.646Z</time></trkpt><trkpt lat="44.2321433" lon="12.1719817"><ele>13.0</ele><time>2026-03-28T15:34:14.646Z</time></trkpt><trkpt lat="44.2320767" lon="12.1719633"><ele>13.0</ele><time>2026-03-28T15:34:15.646Z</time></trkpt><trkpt lat="44.2320117" lon="12.1719417"><ele>12.999999999999998</ele><time>2026-03-28T15:34:16.647Z</time></trkpt><trkpt lat="44.2319483" lon="12.17192"><ele>13.0</ele><time>2026-03-28T15:34:17.646Z</time></trkpt><trkpt lat="44.231885" lon="12.1718933"><ele>13.0</ele><time>2026-03-28T15:34:18.646Z</time></trkpt><trkpt lat="44.2317667" lon="12.1718483"><ele>13.0</ele><time>2026-03-28T15:34:20.646Z</time></trkpt><trkpt lat="44.231655" lon="12.1717983"><ele>13.0</ele><time>2026-03-28T15:34:22.646Z</time></trkpt><trkpt lat="44.2315917" lon="12.1717783"><ele>13.0</ele><time>2026-03-28T15:34:23.646Z</time></trkpt><trkpt lat="44.23153" lon="12.171755"><ele>13.0</ele><time>2026-03-28T15:34:24.646Z</time></trkpt><trkpt lat="44.2314083" lon="12.17171"><ele>13.166666666666666</ele><time>2026-03-28T15:34:26.646Z</time></trkpt><trkpt lat="44.231345" lon="12.1716883"><ele>13.333333333333332</ele><time>2026-03-28T15:34:27.646Z</time></trkpt><trkpt lat="44.2312817" lon="12.171665"><ele>13.5</ele><time>2026-03-28T15:34:28.646Z</time></trkpt><trkpt lat="44.23122" lon="12.1716433"><ele>13.666666666666668</ele><time>2026-03-28T15:34:29.646Z</time></trkpt><trkpt lat="44.2311533" lon="12.1716233"><ele>13.833333333333334</ele><time>2026-03-28T15:34:30.646Z</time></trkpt><trkpt lat="44.23103" lon="12.1715883"><ele>14.0</ele><time>2026-03-28T15:34:32.646Z</time></trkpt><trkpt lat="44.2309083" lon="12.1715467"><ele>14.000000000000002</ele><time>2026-03-28T15:34:34.646Z</time></trkpt><trkpt lat="44.230845" lon="12.171525"><ele>14.0</ele><time>2026-03-28T15:34:35.646Z</time></trkpt><trkpt lat="44.2307283" lon="12.1714783"><ele>14.0</ele><time>2026-03-28T15:34:37.647Z</time></trkpt><trkpt lat="44.2306617" lon="12.17145"><ele>14.0</ele><time>2026-03-28T15:34:38.646Z</time></trkpt><trkpt lat="44.2305983" lon="12.1714267"><ele>14.000000000000002</ele><time>2026-03-28T15:34:39.646Z</time></trkpt><trkpt lat="44.230525" lon="12.171405"><ele>14.0</ele><time>2026-03-28T15:34:40.646Z</time></trkpt><trkpt lat="44.2304583" lon="12.1713817"><ele>13.714285714285714</ele><time>2026-03-28T15:34:41.646Z</time></trkpt><trkpt lat="44.2303933" lon="12.1713567"><ele>13.428571428571429</ele><time>2026-03-28T15:34:42.646Z</time></trkpt><trkpt lat="44.2303233" lon="12.17133"><ele>13.142857142857142</ele><time>2026-03-28T15:34:43.646Z</time></trkpt><trkpt lat="44.2302567" lon="12.171305"><ele>12.857142857142858</ele><time>2026-03-28T15:34:44.647Z</time></trkpt><trkpt lat="44.2301917" lon="12.1712817"><ele>12.571428571428571</ele><time>2026-03-28T15:34:45.646Z</time></trkpt><trkpt lat="44.2301233" lon="12.1712567"><ele>12.285714285714285</ele><time>2026-03-28T15:34:46.647Z</time></trkpt><trkpt lat="44.2300617" lon="12.1712317"><ele>12.0</ele><time>2026-03-28T15:34:47.646Z</time></trkpt><trkpt lat="44.23" lon="12.1712083"><ele>12.0</ele><time>2026-03-28T15:34:48.646Z</time></trkpt><trkpt lat="44.2299367" lon="12.1711833"><ele>12.0</ele><time>2026-03-28T15:34:49.646Z</time></trkpt><trkpt lat="44.2298717" lon="12.1711583"><ele>12.0</ele><time>2026-03-28T15:34:50.646Z</time></trkpt><trkpt lat="44.2297583" lon="12.17111"><ele>12.0</ele><time>2026-03-28T15:34:52.647Z</time></trkpt><trkpt lat="44.22964" lon="12.17106"><ele>12.0</ele><time>2026-03-28T15:34:54.646Z</time></trkpt><trkpt lat="44.2295767" lon="12.1710317"><ele>12.0</ele><time>2026-03-28T15:34:55.646Z</time></trkpt><trkpt lat="44.2294567" lon="12.170985"><ele>11.999999999999998</ele><time>2026-03-28T15:34:57.646Z</time></trkpt><trkpt lat="44.2293917" lon="12.170955"><ele>12.0</ele><time>2026-03-28T15:34:58.646Z</time></trkpt><trkpt lat="44.22933" lon="12.1709333"><ele>12.0</ele><time>2026-03-28T15:34:59.646Z</time></trkpt><trkpt lat="44.2292633" lon="12.1709133"><ele>12.0</ele><time>2026-03-28T15:35:00.646Z</time></trkpt><trkpt lat="44.2291933" lon="12.170895"><ele>12.0</ele><time>2026-03-28T15:35:01.646Z</time></trkpt><trkpt lat="44.2291283" lon="12.1708717"><ele>11.999999999999998</ele><time>2026-03-28T15:35:02.647Z</time></trkpt><trkpt lat="44.22906" lon="12.1708467"><ele>12.0</ele><time>2026-03-28T15:35:03.646Z</time></trkpt><trkpt lat="44.2289983" lon="12.170825"><ele>11.999999999999998</ele><time>2026-03-28T15:35:04.646Z</time></trkpt><trkpt lat="44.2289333" lon="12.1708017"><ele>12.0</ele><time>2026-03-28T15:35:05.646Z</time></trkpt><trkpt lat="44.2288633" lon="12.1707867"><ele>12.0</ele><time>2026-03-28T15:35:06.646Z</time></trkpt><trkpt lat="44.2287967" lon="12.1707733"><ele>12.0</ele><time>2026-03-28T15:35:07.646Z</time></trkpt><trkpt lat="44.2287283" lon="12.1707633"><ele>12.0</ele><time>2026-03-28T15:35:08.646Z</time></trkpt><trkpt lat="44.2286617" lon="12.1707533"><ele>11.999999999999998</ele><time>2026-03-28T15:35:09.646Z</time></trkpt><trkpt lat="44.2285933" lon="12.1707417"><ele>12.0</ele><time>2026-03-28T15:35:10.646Z</time></trkpt><trkpt lat="44.2284617" lon="12.1707183"><ele>12.0</ele><time>2026-03-28T15:35:12.646Z</time></trkpt><trkpt lat="44.2283917" lon="12.170705"><ele>12.0</ele><time>2026-03-28T15:35:13.646Z</time></trkpt><trkpt lat="44.2282633" lon="12.1706867"><ele>12.0</ele><time>2026-03-28T15:35:15.647Z</time></trkpt><trkpt lat="44.228145" lon="12.1706583"><ele>12.0</ele><time>2026-03-28T15:35:17.646Z</time></trkpt><trkpt lat="44.2280783" lon="12.17064"><ele>12.0</ele><time>2026-03-28T15:35:18.646Z</time></trkpt><trkpt lat="44.2280133" lon="12.1706217"><ele>12.0</ele><time>2026-03-28T15:35:19.646Z</time></trkpt><trkpt lat="44.2279483" lon="12.170605"><ele>12.0</ele><time>2026-03-28T15:35:20.647Z</time></trkpt><trkpt lat="44.22788" lon="12.1705917"><ele>12.0</ele><time>2026-03-28T15:35:21.646Z</time></trkpt><trkpt lat="44.2278183" lon="12.17057"><ele>12.0</ele><time>2026-03-28T15:35:22.646Z</time></trkpt><trkpt lat="44.2277017" lon="12.1705267"><ele>12.0</ele><time>2026-03-28T15:35:24.646Z</time></trkpt><trkpt lat="44.227635" lon="12.1705117"><ele>12.0</ele><time>2026-03-28T15:35:25.646Z</time></trkpt><trkpt lat="44.2275117" lon="12.1704833"><ele>11.999999999999998</ele><time>2026-03-28T15:35:27.646Z</time></trkpt><trkpt lat="44.2274483" lon="12.1704683"><ele>12.0</ele><time>2026-03-28T15:35:28.646Z</time></trkpt><trkpt lat="44.2273867" lon="12.17045"><ele>12.0</ele><time>2026-03-28T15:35:29.647Z</time></trkpt><trkpt lat="44.2273217" lon="12.1704217"><ele>12.0</ele><time>2026-03-28T15:35:30.646Z</time></trkpt><trkpt lat="44.2272583" lon="12.1703967"><ele>12.0</ele><time>2026-03-28T15:35:31.646Z</time></trkpt><trkpt lat="44.2271967" lon="12.1703717"><ele>11.999999999999998</ele><time>2026-03-28T15:35:32.646Z</time></trkpt><trkpt lat="44.2270783" lon="12.170325"><ele>12.0</ele><time>2026-03-28T15:35:34.647Z</time></trkpt><trkpt lat="44.2269567" lon="12.1703"><ele>12.399999999999999</ele><time>2026-03-28T15:35:36.646Z</time></trkpt><trkpt lat="44.226845" lon="12.1702567"><ele>12.799999999999999</ele><time>2026-03-28T15:35:38.647Z</time></trkpt><trkpt lat="44.2267833" lon="12.17023"><ele>13.2</ele><time>2026-03-28T15:35:39.647Z</time></trkpt><trkpt lat="44.2267233" lon="12.1702"><ele>13.6</ele><time>2026-03-28T15:35:40.646Z</time></trkpt><trkpt lat="44.22662" lon="12.1701683"><ele>14.0</ele><time>2026-03-28T15:35:42.647Z</time></trkpt><trkpt lat="44.2265017" lon="12.1701267"><ele>14.25</ele><time>2026-03-28T15:35:44.646Z</time></trkpt><trkpt lat="44.2263767" lon="12.1700867"><ele>14.5</ele><time>2026-03-28T15:35:46.646Z</time></trkpt><trkpt lat="44.2262567" lon="12.170035"><ele>14.75</ele><time>2026-03-28T15:35:48.646Z</time></trkpt><trkpt lat="44.2261417" lon="12.17"><ele>15.0</ele><time>2026-03-28T15:35:50.647Z</time></trkpt><trkpt lat="44.2260483" lon="12.16996"><ele>15.0</ele><time>2026-03-28T15:35:52.646Z</time></trkpt><trkpt lat="44.2259617" lon="12.1699217"><ele>15.0</ele><time>2026-03-28T15:35:54.646Z</time></trkpt><trkpt lat="44.2258483" lon="12.16988"><ele>15.0</ele><time>2026-03-28T15:35:56.646Z</time></trkpt><trkpt lat="44.225785" lon="12.1698617"><ele>15.0</ele><time>2026-03-28T15:35:57.646Z</time></trkpt><trkpt lat="44.22567" lon="12.169825"><ele>15.0</ele><time>2026-03-28T15:35:59.647Z</time></trkpt><trkpt lat="44.22556" lon="12.1697883"><ele>14.6</ele><time>2026-03-28T15:36:01.646Z</time></trkpt><trkpt lat="44.22545" lon="12.1697567"><ele>14.2</ele><time>2026-03-28T15:36:03.646Z</time></trkpt><trkpt lat="44.2253433" lon="12.1697217"><ele>13.8</ele><time>2026-03-28T15:36:05.646Z</time></trkpt><trkpt lat="44.2252333" lon="12.169685"><ele>13.4</ele><time>2026-03-28T15:36:07.647Z</time></trkpt><trkpt lat="44.225135" lon="12.1696433"><ele>13.0</ele><time>2026-03-28T15:36:09.646Z</time></trkpt><trkpt lat="44.2250217" lon="12.16961"><ele>13.0</ele><time>2026-03-28T15:36:11.646Z</time></trkpt><trkpt lat="44.2249083" lon="12.1695733"><ele>13.0</ele><time>2026-03-28T15:36:13.646Z</time></trkpt><trkpt lat="44.2247917" lon="12.1695317"><ele>13.0</ele><time>2026-03-28T15:36:15.646Z</time></trkpt><trkpt lat="44.2246767" lon="12.1694983"><ele>13.0</ele><time>2026-03-28T15:36:17.647Z</time></trkpt><trkpt lat="44.2245617" lon="12.1694617"><ele>13.2</ele><time>2026-03-28T15:36:19.646Z</time></trkpt><trkpt lat="44.2244517" lon="12.1694233"><ele>13.4</ele><time>2026-03-28T15:36:21.646Z</time></trkpt><trkpt lat="44.2243433" lon="12.1693733"><ele>13.599999999999998</ele><time>2026-03-28T15:36:23.646Z</time></trkpt><trkpt lat="44.2242433" lon="12.1693183"><ele>13.799999999999999</ele><time>2026-03-28T15:36:25.647Z</time></trkpt><trkpt lat="44.224155" lon="12.169245"><ele>14.0</ele><time>2026-03-28T15:36:27.646Z</time></trkpt><trkpt lat="44.2240617" lon="12.169165"><ele>14.2</ele><time>2026-03-28T15:36:29.646Z</time></trkpt><trkpt lat="44.2239667" lon="12.169085"><ele>14.399999999999999</ele><time>2026-03-28T15:36:31.646Z</time></trkpt><trkpt lat="44.2238817" lon="12.1689983"><ele>14.6</ele><time>2026-03-28T15:36:33.646Z</time></trkpt><trkpt lat="44.2238" lon="12.1689133"><ele>14.8</ele><time>2026-03-28T15:36:35.646Z</time></trkpt><trkpt lat="44.2237217" lon="12.16884"><ele>15.0</ele><time>2026-03-28T15:36:37.646Z</time></trkpt><trkpt lat="44.2236617" lon="12.1687633"><ele>15.0</ele><time>2026-03-28T15:36:39.646Z</time></trkpt><trkpt lat="44.223595" lon="12.1686983"><ele>15.0</ele><time>2026-03-28T15:36:41.647Z</time></trkpt><trkpt lat="44.2235367" lon="12.1686317"><ele>15.0</ele><time>2026-03-28T15:36:43.646Z</time></trkpt><trkpt lat="44.22348" lon="12.1685817"><ele>15.0</ele><time>2026-03-28T15:36:45.646Z</time></trkpt><trkpt lat="44.223415" lon="12.168515"><ele>15.0</ele><time>2026-03-28T15:36:47.646Z</time></trkpt><trkpt lat="44.223345" lon="12.1684467"><ele>15.0</ele><time>2026-03-28T15:36:49.646Z</time></trkpt><trkpt lat="44.22328" lon="12.1683883"><ele>15.0</ele><time>2026-03-28T15:36:51.646Z</time></trkpt><trkpt lat="44.2232167" lon="12.1683317"><ele>15.0</ele><time>2026-03-28T15:36:53.647Z</time></trkpt><trkpt lat="44.2231383" lon="12.168285"><ele>15.0</ele><time>2026-03-28T15:36:55.646Z</time></trkpt><trkpt lat="44.22306" lon="12.1682433"><ele>15.0</ele><time>2026-03-28T15:36:57.646Z</time></trkpt><trkpt lat="44.2229917" lon="12.1682133"><ele>15.0</ele><time>2026-03-28T15:36:59.646Z</time></trkpt><trkpt lat="44.222915" lon="12.1682033"><ele>15.0</ele><time>2026-03-28T15:37:01.646Z</time></trkpt><trkpt lat="44.222845" lon="12.1681967"><ele>15.333333333333334</ele><time>2026-03-28T15:37:03.646Z</time></trkpt><trkpt lat="44.222775" lon="12.1681933"><ele>15.666666666666668</ele><time>2026-03-28T15:37:05.646Z</time></trkpt><trkpt lat="44.2226933" lon="12.1681967"><ele>16.0</ele><time>2026-03-28T15:37:07.646Z</time></trkpt><trkpt lat="44.2226183" lon="12.1681967"><ele>16.333333333333336</ele><time>2026-03-28T15:37:09.646Z</time></trkpt><trkpt lat="44.2225333" lon="12.1681933"><ele>16.666666666666668</ele><time>2026-03-28T15:37:11.647Z</time></trkpt><trkpt lat="44.2224533" lon="12.1681933"><ele>17.0</ele><time>2026-03-28T15:37:13.646Z</time></trkpt><trkpt lat="44.2223717" lon="12.1682017"><ele>17.0</ele><time>2026-03-28T15:37:15.646Z</time></trkpt><trkpt lat="44.22228" lon="12.1681967"><ele>17.0</ele><time>2026-03-28T15:37:17.646Z</time></trkpt><trkpt lat="44.22219" lon="12.1681933"><ele>17.0</ele><time>2026-03-28T15:37:19.646Z</time></trkpt><trkpt lat="44.2220967" lon="12.1681867"><ele>17.0</ele><time>2026-03-28T15:37:21.646Z</time></trkpt><trkpt lat="44.2219933" lon="12.16818"><ele>17.0</ele><time>2026-03-28T15:37:23.646Z</time></trkpt><trkpt lat="44.2218817" lon="12.1681767"><ele>16.6</ele><time>2026-03-28T15:37:25.647Z</time></trkpt><trkpt lat="44.22176" lon="12.168175"><ele>16.2</ele><time>2026-03-28T15:37:27.646Z</time></trkpt><trkpt lat="44.2216333" lon="12.1681667"><ele>15.8</ele><time>2026-03-28T15:37:29.646Z</time></trkpt><trkpt lat="44.2215633" lon="12.1681583"><ele>15.4</ele><time>2026-03-28T15:37:30.646Z</time></trkpt><trkpt lat="44.22149" lon="12.16815"><ele>15.0</ele><time>2026-03-28T15:37:31.647Z</time></trkpt><trkpt lat="44.221415" lon="12.1681433"><ele>15.0</ele><time>2026-03-28T15:37:32.646Z</time></trkpt><trkpt lat="44.2213333" lon="12.168135"><ele>15.0</ele><time>2026-03-28T15:37:33.646Z</time></trkpt><trkpt lat="44.22125" lon="12.1681267"><ele>15.0</ele><time>2026-03-28T15:37:34.646Z</time></trkpt><trkpt lat="44.2211617" lon="12.1681183"><ele>15.0</ele><time>2026-03-28T15:37:35.646Z</time></trkpt><trkpt lat="44.2210717" lon="12.16811"><ele>15.0</ele><time>2026-03-28T15:37:36.646Z</time></trkpt><trkpt lat="44.22098" lon="12.1681033"><ele>15.0</ele><time>2026-03-28T15:37:37.646Z</time></trkpt><trkpt lat="44.2208867" lon="12.1680933"><ele>15.0</ele><time>2026-03-28T15:37:38.647Z</time></trkpt><trkpt lat="44.2207917" lon="12.1680817"><ele>15.0</ele><time>2026-03-28T15:37:39.647Z</time></trkpt><trkpt lat="44.2206933" lon="12.16807"><ele>15.0</ele><time>2026-03-28T15:37:40.646Z</time></trkpt><trkpt lat="44.2205967" lon="12.168055"><ele>15.0</ele><time>2026-03-28T15:37:41.646Z</time></trkpt><trkpt lat="44.2205017" lon="12.168035"><ele>15.0</ele><time>2026-03-28T15:37:42.646Z</time></trkpt><trkpt lat="44.220415" lon="12.16801"><ele>15.0</ele><time>2026-03-28T15:37:43.646Z</time></trkpt><trkpt lat="44.22033" lon="12.1679817"><ele>15.0</ele><time>2026-03-28T15:37:44.646Z</time></trkpt><trkpt lat="44.2202417" lon="12.16795"><ele>15.0</ele><time>2026-03-28T15:37:45.646Z</time></trkpt><trkpt lat="44.2201567" lon="12.1679217"><ele>15.0</ele><time>2026-03-28T15:37:46.646Z</time></trkpt><trkpt lat="44.22007" lon="12.1678983"><ele>15.0</ele><time>2026-03-28T15:37:47.646Z</time></trkpt><trkpt lat="44.21998" lon="12.1678717"><ele>15.0</ele><time>2026-03-28T15:37:48.646Z</time></trkpt><trkpt lat="44.21989" lon="12.167845"><ele>15.0</ele><time>2026-03-28T15:37:49.646Z</time></trkpt><trkpt lat="44.2198067" lon="12.167825"><ele>15.0</ele><time>2026-03-28T15:37:50.646Z</time></trkpt><trkpt lat="44.2197267" lon="12.1678033"><ele>15.0</ele><time>2026-03-28T15:37:51.646Z</time></trkpt><trkpt lat="44.2196533" lon="12.1677783"><ele>15.0</ele><time>2026-03-28T15:37:52.646Z</time></trkpt><trkpt lat="44.2195767" lon="12.167755"><ele>15.0</ele><time>2026-03-28T15:37:53.646Z</time></trkpt><trkpt lat="44.2195033" lon="12.1677367"><ele>15.0</ele><time>2026-03-28T15:37:54.647Z</time></trkpt><trkpt lat="44.2194367" lon="12.1677183"><ele>15.0</ele><time>2026-03-28T15:37:55.647Z</time></trkpt><trkpt lat="44.2193683" lon="12.1676967"><ele>15.0</ele><time>2026-03-28T15:37:56.647Z</time></trkpt><trkpt lat="44.2193033" lon="12.167675"><ele>15.0</ele><time>2026-03-28T15:37:57.646Z</time></trkpt><trkpt lat="44.2192383" lon="12.167655"><ele>15.0</ele><time>2026-03-28T15:37:58.646Z</time></trkpt><trkpt lat="44.2191217" lon="12.1676133"><ele>15.0</ele><time>2026-03-28T15:38:00.646Z</time></trkpt><trkpt lat="44.219055" lon="12.16759"><ele>15.0</ele><time>2026-03-28T15:38:01.647Z</time></trkpt><trkpt lat="44.2189917" lon="12.1675717"><ele>15.0</ele><time>2026-03-28T15:38:02.646Z</time></trkpt><trkpt lat="44.2188717" lon="12.167535"><ele>15.0</ele><time>2026-03-28T15:38:04.646Z</time></trkpt><trkpt lat="44.21881" lon="12.1675167"><ele>15.0</ele><time>2026-03-28T15:38:05.646Z</time></trkpt><trkpt lat="44.2187433" lon="12.167495"><ele>15.0</ele><time>2026-03-28T15:38:06.646Z</time></trkpt><trkpt lat="44.218675" lon="12.16747"><ele>15.0</ele><time>2026-03-28T15:38:07.646Z</time></trkpt><trkpt lat="44.21861" lon="12.167445"><ele>15.0</ele><time>2026-03-28T15:38:08.647Z</time></trkpt><trkpt lat="44.2184833" lon="12.1674117"><ele>15.0</ele><time>2026-03-28T15:38:10.646Z</time></trkpt><trkpt lat="44.218415" lon="12.1673867"><ele>15.0</ele><time>2026-03-28T15:38:11.646Z</time></trkpt><trkpt lat="44.218345" lon="12.1673633"><ele>15.0</ele><time>2026-03-28T15:38:12.648Z</time></trkpt><trkpt lat="44.2182183" lon="12.1673233"><ele>15.0</ele><time>2026-03-28T15:38:14.648Z</time></trkpt><trkpt lat="44.218155" lon="12.1673033"><ele>15.0</ele><time>2026-03-28T15:38:15.647Z</time></trkpt><trkpt lat="44.21809" lon="12.1672883"><ele>15.0</ele><time>2026-03-28T15:38:16.647Z</time></trkpt><trkpt lat="44.21802" lon="12.167265"><ele>15.285714285714286</ele><time>2026-03-28T15:38:17.647Z</time></trkpt><trkpt lat="44.2179533" lon="12.1672433"><ele>15.57142857142857</ele><time>2026-03-28T15:38:18.647Z</time></trkpt><trkpt lat="44.21789" lon="12.1672233"><ele>15.857142857142856</ele><time>2026-03-28T15:38:19.648Z</time></trkpt><trkpt lat="44.2178217" lon="12.1672033"><ele>16.142857142857142</ele><time>2026-03-28T15:38:20.647Z</time></trkpt><trkpt lat="44.2177533" lon="12.1671833"><ele>16.428571428571427</ele><time>2026-03-28T15:38:21.648Z</time></trkpt><trkpt lat="44.2176817" lon="12.1671617"><ele>16.71428571428571</ele><time>2026-03-28T15:38:22.647Z</time></trkpt><trkpt lat="44.2176183" lon="12.167145"><ele>17.0</ele><time>2026-03-28T15:38:23.647Z</time></trkpt><trkpt lat="44.2174917" lon="12.1671167"><ele>17.0</ele><time>2026-03-28T15:38:25.647Z</time></trkpt><trkpt lat="44.217375" lon="12.1670683"><ele>17.0</ele><time>2026-03-28T15:38:27.647Z</time></trkpt><trkpt lat="44.2173017" lon="12.1670467"><ele>17.0</ele><time>2026-03-28T15:38:28.647Z</time></trkpt><trkpt lat="44.2172317" lon="12.1670267"><ele>17.0</ele><time>2026-03-28T15:38:29.647Z</time></trkpt><trkpt lat="44.2171667" lon="12.1670033"><ele>17.0</ele><time>2026-03-28T15:38:30.647Z</time></trkpt><trkpt lat="44.2170467" lon="12.1669483"><ele>16.8</ele><time>2026-03-28T15:38:32.647Z</time></trkpt><trkpt lat="44.2169217" lon="12.1669117"><ele>16.6</ele><time>2026-03-28T15:38:34.647Z</time></trkpt><trkpt lat="44.2168567" lon="12.1668883"><ele>16.400000000000002</ele><time>2026-03-28T15:38:35.647Z</time></trkpt><trkpt lat="44.2167333" lon="12.1668517"><ele>16.2</ele><time>2026-03-28T15:38:37.647Z</time></trkpt><trkpt lat="44.2166683" lon="12.1668383"><ele>16.0</ele><time>2026-03-28T15:38:38.647Z</time></trkpt><trkpt lat="44.2166017" lon="12.1668167"><ele>16.0</ele><time>2026-03-28T15:38:39.647Z</time></trkpt><trkpt lat="44.216535" lon="12.166795"><ele>15.999999999999998</ele><time>2026-03-28T15:38:40.647Z</time></trkpt><trkpt lat="44.2164667" lon="12.1667717"><ele>16.0</ele><time>2026-03-28T15:38:41.647Z</time></trkpt><trkpt lat="44.2164" lon="12.1667483"><ele>16.0</ele><time>2026-03-28T15:38:42.647Z</time></trkpt><trkpt lat="44.2163283" lon="12.1667283"><ele>15.999999999999998</ele><time>2026-03-28T15:38:43.647Z</time></trkpt><trkpt lat="44.21626" lon="12.1667033"><ele>16.0</ele><time>2026-03-28T15:38:44.648Z</time></trkpt><trkpt lat="44.2161917" lon="12.1666817"><ele>16.0</ele><time>2026-03-28T15:38:45.647Z</time></trkpt><trkpt lat="44.216125" lon="12.1666617"><ele>15.857142857142856</ele><time>2026-03-28T15:38:46.648Z</time></trkpt><trkpt lat="44.2160533" lon="12.1666417"><ele>15.714285714285712</ele><time>2026-03-28T15:38:47.647Z</time></trkpt><trkpt lat="44.2159917" lon="12.1666217"><ele>15.571428571428571</ele><time>2026-03-28T15:38:48.647Z</time></trkpt><trkpt lat="44.2159267" lon="12.1666033"><ele>15.428571428571427</ele><time>2026-03-28T15:38:49.648Z</time></trkpt><trkpt lat="44.2158617" lon="12.1665917"><ele>15.285714285714285</ele><time>2026-03-28T15:38:50.647Z</time></trkpt><trkpt lat="44.2157967" lon="12.1665733"><ele>15.142857142857142</ele><time>2026-03-28T15:38:51.647Z</time></trkpt><trkpt lat="44.2157283" lon="12.166555"><ele>15.0</ele><time>2026-03-28T15:38:52.647Z</time></trkpt><trkpt lat="44.215655" lon="12.1665317"><ele>15.0</ele><time>2026-03-28T15:38:53.648Z</time></trkpt><trkpt lat="44.215585" lon="12.1665067"><ele>15.0</ele><time>2026-03-28T15:38:54.647Z</time></trkpt><trkpt lat="44.2155167" lon="12.1664817"><ele>15.0</ele><time>2026-03-28T15:38:55.647Z</time></trkpt><trkpt lat="44.21545" lon="12.1664617"><ele>15.0</ele><time>2026-03-28T15:38:56.647Z</time></trkpt><trkpt lat="44.2153783" lon="12.1664383"><ele>15.0</ele><time>2026-03-28T15:38:57.647Z</time></trkpt><trkpt lat="44.215315" lon="12.166415"><ele>15.0</ele><time>2026-03-28T15:38:58.647Z</time></trkpt><trkpt lat="44.2152467" lon="12.1663883"><ele>15.0</ele><time>2026-03-28T15:38:59.647Z</time></trkpt><trkpt lat="44.2151733" lon="12.1663683"><ele>15.0</ele><time>2026-03-28T15:39:00.647Z</time></trkpt><trkpt lat="44.2151033" lon="12.1663317"><ele>15.0</ele><time>2026-03-28T15:39:01.647Z</time></trkpt><trkpt lat="44.2150383" lon="12.16628"><ele>15.0</ele><time>2026-03-28T15:39:02.647Z</time></trkpt><trkpt lat="44.214975" lon="12.1662267"><ele>15.0</ele><time>2026-03-28T15:39:03.647Z</time></trkpt><trkpt lat="44.2149133" lon="12.166155"><ele>15.0</ele><time>2026-03-28T15:39:04.648Z</time></trkpt><trkpt lat="44.2148583" lon="12.1660717"><ele>15.0</ele><time>2026-03-28T15:39:05.648Z</time></trkpt><trkpt lat="44.2148217" lon="12.165975"><ele>15.0</ele><time>2026-03-28T15:39:06.647Z</time></trkpt><trkpt lat="44.21479" lon="12.165885"><ele>15.0</ele><time>2026-03-28T15:39:07.648Z</time></trkpt><trkpt lat="44.2147667" lon="12.1657917"><ele>15.0</ele><time>2026-03-28T15:39:08.647Z</time></trkpt><trkpt lat="44.2147467" lon="12.16569"><ele>15.0</ele><time>2026-03-28T15:39:09.647Z</time></trkpt><trkpt lat="44.2147283" lon="12.1655817"><ele>15.0</ele><time>2026-03-28T15:39:10.647Z</time></trkpt><trkpt lat="44.214705" lon="12.1654817"><ele>15.0</ele><time>2026-03-28T15:39:11.647Z</time></trkpt><trkpt lat="44.214685" lon="12.1653833"><ele>15.0</ele><time>2026-03-28T15:39:12.647Z</time></trkpt><trkpt lat="44.2146633" lon="12.1652833"><ele>15.142857142857142</ele><time>2026-03-28T15:39:13.647Z</time></trkpt><trkpt lat="44.21464" lon="12.1651933"><ele>15.285714285714285</ele><time>2026-03-28T15:39:14.647Z</time></trkpt><trkpt lat="44.2146167" lon="12.1651067"><ele>15.428571428571427</ele><time>2026-03-28T15:39:15.647Z</time></trkpt><trkpt lat="44.2145967" lon="12.1650067"><ele>15.571428571428571</ele><time>2026-03-28T15:39:16.647Z</time></trkpt><trkpt lat="44.21457" lon="12.1649133"><ele>15.714285714285712</ele><time>2026-03-28T15:39:17.647Z</time></trkpt><trkpt lat="44.2145517" lon="12.1648217"><ele>15.857142857142856</ele><time>2026-03-28T15:39:18.647Z</time></trkpt><trkpt lat="44.2145283" lon="12.1647233"><ele>16.0</ele><time>2026-03-28T15:39:19.648Z</time></trkpt><trkpt lat="44.21451" lon="12.16463"><ele>16.142857142857142</ele><time>2026-03-28T15:39:20.647Z</time></trkpt><trkpt lat="44.2144933" lon="12.1645317"><ele>16.285714285714285</ele><time>2026-03-28T15:39:21.647Z</time></trkpt><trkpt lat="44.2144767" lon="12.164435"><ele>16.428571428571427</ele><time>2026-03-28T15:39:22.647Z</time></trkpt><trkpt lat="44.2144567" lon="12.16434"><ele>16.57142857142857</ele><time>2026-03-28T15:39:23.647Z</time></trkpt><trkpt lat="44.2144367" lon="12.1642483"><ele>16.714285714285715</ele><time>2026-03-28T15:39:24.647Z</time></trkpt><trkpt lat="44.2144167" lon="12.1641533"><ele>16.857142857142854</ele><time>2026-03-28T15:39:25.647Z</time></trkpt><trkpt lat="44.2143967" lon="12.1640567"><ele>17.0</ele><time>2026-03-28T15:39:26.648Z</time></trkpt><trkpt lat="44.2143733" lon="12.1639617"><ele>16.999999999999996</ele><time>2026-03-28T15:39:27.647Z</time></trkpt><trkpt lat="44.2143483" lon="12.1638683"><ele>17.0</ele><time>2026-03-28T15:39:28.647Z</time></trkpt><trkpt lat="44.2143283" lon="12.16378"><ele>17.0</ele><time>2026-03-28T15:39:29.648Z</time></trkpt><trkpt lat="44.2143083" lon="12.1636817"><ele>17.0</ele><time>2026-03-28T15:39:30.647Z</time></trkpt><trkpt lat="44.2142917" lon="12.1635817"><ele>17.0</ele><time>2026-03-28T15:39:31.647Z</time></trkpt><trkpt lat="44.21427" lon="12.1634883"><ele>16.999999999999996</ele><time>2026-03-28T15:39:32.647Z</time></trkpt><trkpt lat="44.2142483" lon="12.1633933"><ele>17.0</ele><time>2026-03-28T15:39:33.648Z</time></trkpt><trkpt lat="44.2142267" lon="12.1632983"><ele>16.999999999999996</ele><time>2026-03-28T15:39:34.647Z</time></trkpt><trkpt lat="44.2142067" lon="12.1632067"><ele>17.0</ele><time>2026-03-28T15:39:35.647Z</time></trkpt><trkpt lat="44.2141867" lon="12.163115"><ele>17.0</ele><time>2026-03-28T15:39:36.647Z</time></trkpt><trkpt lat="44.214165" lon="12.1630283"><ele>17.0</ele><time>2026-03-28T15:39:37.647Z</time></trkpt><trkpt lat="44.2141433" lon="12.162935"><ele>17.0</ele><time>2026-03-28T15:39:38.647Z</time></trkpt><trkpt lat="44.2141217" lon="12.16283"><ele>16.999999999999996</ele><time>2026-03-28T15:39:39.647Z</time></trkpt><trkpt lat="44.2141017" lon="12.1627233"><ele>17.0</ele><time>2026-03-28T15:39:40.647Z</time></trkpt><trkpt lat="44.21408" lon="12.1626183"><ele>17.0</ele><time>2026-03-28T15:39:41.647Z</time></trkpt><trkpt lat="44.2140617" lon="12.1625133"><ele>17.0</ele><time>2026-03-28T15:39:42.648Z</time></trkpt><trkpt lat="44.2140583" lon="12.162135"><ele>17.0</ele><time>2026-03-28T15:39:45.143Z</time></trkpt><trkpt lat="44.21401" lon="12.1620683"><ele>17.0</ele><time>2026-03-28T15:39:46.143Z</time></trkpt><trkpt lat="44.2138533" lon="12.1619467"><ele>17.2</ele><time>2026-03-28T15:39:47.643Z</time></trkpt><trkpt lat="44.2138367" lon="12.1618567"><ele>17.4</ele><time>2026-03-28T15:39:48.643Z</time></trkpt><trkpt lat="44.213795" lon="12.16177"><ele>17.6</ele><time>2026-03-28T15:39:49.643Z</time></trkpt><trkpt lat="44.21379" lon="12.1616183"><ele>17.8</ele><time>2026-03-28T15:39:51.643Z</time></trkpt><trkpt lat="44.2137733" lon="12.16146"><ele>18.0</ele><time>2026-03-28T15:39:53.643Z</time></trkpt><trkpt lat="44.2137533" lon="12.1612967"><ele>18.0</ele><time>2026-03-28T15:39:55.643Z</time></trkpt><trkpt lat="44.2137217" lon="12.1611283"><ele>18.0</ele><time>2026-03-28T15:39:57.643Z</time></trkpt><trkpt lat="44.2137067" lon="12.1610383"><ele>18.0</ele><time>2026-03-28T15:39:58.643Z</time></trkpt><trkpt lat="44.21369" lon="12.1609467"><ele>18.0</ele><time>2026-03-28T15:39:59.643Z</time></trkpt><trkpt lat="44.2136767" lon="12.1608467"><ele>18.0</ele><time>2026-03-28T15:40:00.644Z</time></trkpt><trkpt lat="44.213655" lon="12.1607417"><ele>18.0</ele><time>2026-03-28T15:40:01.643Z</time></trkpt><trkpt lat="44.21364" lon="12.160645"><ele>17.857142857142858</ele><time>2026-03-28T15:40:02.643Z</time></trkpt><trkpt lat="44.21362" lon="12.1605433"><ele>17.714285714285715</ele><time>2026-03-28T15:40:03.643Z</time></trkpt><trkpt lat="44.2136" lon="12.1604467"><ele>17.57142857142857</ele><time>2026-03-28T15:40:04.644Z</time></trkpt><trkpt lat="44.2135833" lon="12.1603483"><ele>17.42857142857143</ele><time>2026-03-28T15:40:05.643Z</time></trkpt><trkpt lat="44.2135583" lon="12.1602517"><ele>17.285714285714285</ele><time>2026-03-28T15:40:06.643Z</time></trkpt><trkpt lat="44.2135333" lon="12.160155"><ele>17.142857142857142</ele><time>2026-03-28T15:40:07.643Z</time></trkpt><trkpt lat="44.2135167" lon="12.160055"><ele>17.0</ele><time>2026-03-28T15:40:08.643Z</time></trkpt><trkpt lat="44.2134933" lon="12.159965"><ele>16.999999999999996</ele><time>2026-03-28T15:40:09.643Z</time></trkpt><trkpt lat="44.2134717" lon="12.1598717"><ele>17.0</ele><time>2026-03-28T15:40:10.644Z</time></trkpt><trkpt lat="44.21345" lon="12.1597717"><ele>17.0</ele><time>2026-03-28T15:40:11.643Z</time></trkpt><trkpt lat="44.2134317" lon="12.159675"><ele>17.0</ele><time>2026-03-28T15:40:12.643Z</time></trkpt><trkpt lat="44.213415" lon="12.1595833"><ele>17.0</ele><time>2026-03-28T15:40:13.643Z</time></trkpt><trkpt lat="44.2133967" lon="12.1594933"><ele>16.999999999999996</ele><time>2026-03-28T15:40:14.643Z</time></trkpt><trkpt lat="44.2133767" lon="12.1594067"><ele>17.0</ele><time>2026-03-28T15:40:15.643Z</time></trkpt><trkpt lat="44.2133367" lon="12.15924"><ele>17.0</ele><time>2026-03-28T15:40:17.643Z</time></trkpt><trkpt lat="44.2133" lon="12.1590783"><ele>17.0</ele><time>2026-03-28T15:40:19.643Z</time></trkpt><trkpt lat="44.2132683" lon="12.1589117"><ele>17.0</ele><time>2026-03-28T15:40:21.643Z</time></trkpt><trkpt lat="44.2132483" lon="12.1588267"><ele>17.0</ele><time>2026-03-28T15:40:22.643Z</time></trkpt><trkpt lat="44.2132167" lon="12.1586833"><ele>17.0</ele><time>2026-03-28T15:40:24.644Z</time></trkpt><trkpt lat="44.2131767" lon="12.1585433"><ele>17.0</ele><time>2026-03-28T15:40:26.643Z</time></trkpt><trkpt lat="44.2131433" lon="12.158365"><ele>17.0</ele><time>2026-03-28T15:40:28.644Z</time></trkpt><trkpt lat="44.2131267" lon="12.15827"><ele>17.0</ele><time>2026-03-28T15:40:29.643Z</time></trkpt><trkpt lat="44.2131083" lon="12.1581767"><ele>17.0</ele><time>2026-03-28T15:40:30.643Z</time></trkpt><trkpt lat="44.2130883" lon="12.1580933"><ele>17.0</ele><time>2026-03-28T15:40:31.643Z</time></trkpt><trkpt lat="44.2130717" lon="12.1580067"><ele>17.0</ele><time>2026-03-28T15:40:32.644Z</time></trkpt><trkpt lat="44.2130417" lon="12.157845"><ele>17.0</ele><time>2026-03-28T15:40:34.643Z</time></trkpt><trkpt lat="44.2130033" lon="12.1576867"><ele>17.0</ele><time>2026-03-28T15:40:36.643Z</time></trkpt><trkpt lat="44.212965" lon="12.157515"><ele>17.0</ele><time>2026-03-28T15:40:38.643Z</time></trkpt><trkpt lat="44.2129233" lon="12.1573567"><ele>17.0</ele><time>2026-03-28T15:40:40.643Z</time></trkpt><trkpt lat="44.212905" lon="12.15727"><ele>17.0</ele><time>2026-03-28T15:40:41.643Z</time></trkpt><trkpt lat="44.21287" lon="12.1571117"><ele>17.0</ele><time>2026-03-28T15:40:43.643Z</time></trkpt><trkpt lat="44.2128567" lon="12.15702"><ele>17.0</ele><time>2026-03-28T15:40:44.643Z</time></trkpt><trkpt lat="44.2128167" lon="12.1568633"><ele>17.0</ele><time>2026-03-28T15:40:46.644Z</time></trkpt><trkpt lat="44.2127817" lon="12.1566967"><ele>17.0</ele><time>2026-03-28T15:40:48.643Z</time></trkpt><trkpt lat="44.21276" lon="12.15661"><ele>17.0</ele><time>2026-03-28T15:40:49.644Z</time></trkpt><trkpt lat="44.2127367" lon="12.1565283"><ele>17.0</ele><time>2026-03-28T15:40:50.643Z</time></trkpt><trkpt lat="44.2127167" lon="12.1564367"><ele>17.0</ele><time>2026-03-28T15:40:51.643Z</time></trkpt><trkpt lat="44.2127" lon="12.1563467"><ele>17.0</ele><time>2026-03-28T15:40:52.643Z</time></trkpt><trkpt lat="44.212685" lon="12.15626"><ele>17.0</ele><time>2026-03-28T15:40:53.643Z</time></trkpt><trkpt lat="44.2126467" lon="12.1560967"><ele>17.0</ele><time>2026-03-28T15:40:55.643Z</time></trkpt><trkpt lat="44.2126167" lon="12.1559333"><ele>17.0</ele><time>2026-03-28T15:40:57.644Z</time></trkpt><trkpt lat="44.2125983" lon="12.155845"><ele>17.0</ele><time>2026-03-28T15:40:58.643Z</time></trkpt><trkpt lat="44.2125767" lon="12.1557533"><ele>17.166666666666668</ele><time>2026-03-28T15:40:59.643Z</time></trkpt><trkpt lat="44.2125533" lon="12.1556617"><ele>17.333333333333336</ele><time>2026-03-28T15:41:00.643Z</time></trkpt><trkpt lat="44.21253" lon="12.1555783"><ele>17.5</ele><time>2026-03-28T15:41:01.643Z</time></trkpt><trkpt lat="44.21249" lon="12.1554133"><ele>17.666666666666668</ele><time>2026-03-28T15:41:03.643Z</time></trkpt><trkpt lat="44.2124483" lon="12.1552483"><ele>17.833333333333332</ele><time>2026-03-28T15:41:05.644Z</time></trkpt><trkpt lat="44.2124283" lon="12.1551617"><ele>18.0</ele><time>2026-03-28T15:41:06.643Z</time></trkpt><trkpt lat="44.2124083" lon="12.1550733"><ele>18.000000000000004</ele><time>2026-03-28T15:41:07.643Z</time></trkpt><trkpt lat="44.2123883" lon="12.1549883"><ele>18.0</ele><time>2026-03-28T15:41:08.643Z</time></trkpt><trkpt lat="44.2123667" lon="12.1549033"><ele>18.0</ele><time>2026-03-28T15:41:09.643Z</time></trkpt><trkpt lat="44.2123467" lon="12.1548183"><ele>18.0</ele><time>2026-03-28T15:41:10.644Z</time></trkpt><trkpt lat="44.2123283" lon="12.1547333"><ele>18.0</ele><time>2026-03-28T15:41:11.644Z</time></trkpt><trkpt lat="44.2123067" lon="12.15465"><ele>18.000000000000004</ele><time>2026-03-28T15:41:12.643Z</time></trkpt><trkpt lat="44.2122683" lon="12.1544917"><ele>18.0</ele><time>2026-03-28T15:41:14.643Z</time></trkpt><trkpt lat="44.2122267" lon="12.15433"><ele>18.0</ele><time>2026-03-28T15:41:16.644Z</time></trkpt><trkpt lat="44.2122067" lon="12.1542433"><ele>18.0</ele><time>2026-03-28T15:41:17.643Z</time></trkpt><trkpt lat="44.2121717" lon="12.1540767"><ele>18.0</ele><time>2026-03-28T15:41:19.644Z</time></trkpt><trkpt lat="44.21213" lon="12.1539117"><ele>18.0</ele><time>2026-03-28T15:41:21.643Z</time></trkpt><trkpt lat="44.21211" lon="12.1538217"><ele>18.0</ele><time>2026-03-28T15:41:22.643Z</time></trkpt><trkpt lat="44.21209" lon="12.1537333"><ele>18.0</ele><time>2026-03-28T15:41:23.643Z</time></trkpt><trkpt lat="44.21207" lon="12.1536483"><ele>18.0</ele><time>2026-03-28T15:41:24.644Z</time></trkpt><trkpt lat="44.2120283" lon="12.1534817"><ele>18.0</ele><time>2026-03-28T15:41:26.644Z</time></trkpt><trkpt lat="44.211995" lon="12.1533283"><ele>18.0</ele><time>2026-03-28T15:41:28.643Z</time></trkpt><trkpt lat="44.211955" lon="12.153195"><ele>18.0</ele><time>2026-03-28T15:41:30.643Z</time></trkpt><trkpt lat="44.211915" lon="12.1530533"><ele>18.0</ele><time>2026-03-28T15:41:32.644Z</time></trkpt><trkpt lat="44.211895" lon="12.1529667"><ele>18.0</ele><time>2026-03-28T15:41:33.643Z</time></trkpt><trkpt lat="44.2118733" lon="12.1528733"><ele>18.0</ele><time>2026-03-28T15:41:34.643Z</time></trkpt><trkpt lat="44.21183" lon="12.152695"><ele>18.0</ele><time>2026-03-28T15:41:36.643Z</time></trkpt><trkpt lat="44.2118083" lon="12.1525933"><ele>18.0</ele><time>2026-03-28T15:41:37.643Z</time></trkpt><trkpt lat="44.21179" lon="12.1524917"><ele>18.0</ele><time>2026-03-28T15:41:38.643Z</time></trkpt><trkpt lat="44.21177" lon="12.1524"><ele>18.000000000000004</ele><time>2026-03-28T15:41:39.644Z</time></trkpt><trkpt lat="44.21175" lon="12.1523017"><ele>18.0</ele><time>2026-03-28T15:41:40.643Z</time></trkpt><trkpt lat="44.21173" lon="12.152205"><ele>18.0</ele><time>2026-03-28T15:41:41.643Z</time></trkpt><trkpt lat="44.2117117" lon="12.1521033"><ele>18.0</ele><time>2026-03-28T15:41:42.643Z</time></trkpt><trkpt lat="44.2116967" lon="12.1520083"><ele>18.0</ele><time>2026-03-28T15:41:43.644Z</time></trkpt><trkpt lat="44.2116833" lon="12.15191"><ele>18.000000000000004</ele><time>2026-03-28T15:41:44.643Z</time></trkpt><trkpt lat="44.2116717" lon="12.1518017"><ele>18.0</ele><time>2026-03-28T15:41:45.643Z</time></trkpt><trkpt lat="44.2116633" lon="12.1516917"><ele>18.000000000000004</ele><time>2026-03-28T15:41:46.644Z</time></trkpt><trkpt lat="44.2116483" lon="12.151595"><ele>18.0</ele><time>2026-03-28T15:41:47.643Z</time></trkpt><trkpt lat="44.2116333" lon="12.1514883"><ele>18.0</ele><time>2026-03-28T15:41:48.644Z</time></trkpt><trkpt lat="44.2116167" lon="12.1513867"><ele>18.0</ele><time>2026-03-28T15:41:49.643Z</time></trkpt><trkpt lat="44.2115983" lon="12.1512917"><ele>18.0</ele><time>2026-03-28T15:41:50.643Z</time></trkpt><trkpt lat="44.2115817" lon="12.1512"><ele>18.000000000000004</ele><time>2026-03-28T15:41:51.643Z</time></trkpt><trkpt lat="44.2115633" lon="12.1511117"><ele>18.0</ele><time>2026-03-28T15:41:52.643Z</time></trkpt><trkpt lat="44.2115483" lon="12.15102"><ele>18.000000000000004</ele><time>2026-03-28T15:41:53.643Z</time></trkpt><trkpt lat="44.21153" lon="12.1509267"><ele>18.0</ele><time>2026-03-28T15:41:54.643Z</time></trkpt><trkpt lat="44.2115133" lon="12.1508217"><ele>18.0</ele><time>2026-03-28T15:41:55.643Z</time></trkpt><trkpt lat="44.2114883" lon="12.1507267"><ele>18.0</ele><time>2026-03-28T15:41:56.643Z</time></trkpt><trkpt lat="44.2114683" lon="12.1506283"><ele>18.0</ele><time>2026-03-28T15:41:57.643Z</time></trkpt><trkpt lat="44.2114417" lon="12.1505383"><ele>18.000000000000004</ele><time>2026-03-28T15:41:58.644Z</time></trkpt><trkpt lat="44.2114167" lon="12.15045"><ele>18.0</ele><time>2026-03-28T15:41:59.644Z</time></trkpt><trkpt lat="44.2113967" lon="12.150355"><ele>18.166666666666668</ele><time>2026-03-28T15:42:00.643Z</time></trkpt><trkpt lat="44.2113783" lon="12.1502667"><ele>18.333333333333332</ele><time>2026-03-28T15:42:01.643Z</time></trkpt><trkpt lat="44.2113567" lon="12.1501767"><ele>18.5</ele><time>2026-03-28T15:42:02.643Z</time></trkpt><trkpt lat="44.211335" lon="12.1500867"><ele>18.666666666666664</ele><time>2026-03-28T15:42:03.644Z</time></trkpt><trkpt lat="44.21129" lon="12.1499233"><ele>18.833333333333332</ele><time>2026-03-28T15:42:05.643Z</time></trkpt><trkpt lat="44.2112683" lon="12.1498317"><ele>19.0</ele><time>2026-03-28T15:42:06.643Z</time></trkpt><trkpt lat="44.211245" lon="12.149745"><ele>19.0</ele><time>2026-03-28T15:42:07.643Z</time></trkpt><trkpt lat="44.2112317" lon="12.1496433"><ele>19.0</ele><time>2026-03-28T15:42:08.643Z</time></trkpt><trkpt lat="44.21121" lon="12.1495517"><ele>19.0</ele><time>2026-03-28T15:42:09.643Z</time></trkpt><trkpt lat="44.211185" lon="12.1494667"><ele>19.0</ele><time>2026-03-28T15:42:10.644Z</time></trkpt><trkpt lat="44.2111667" lon="12.1493733"><ele>19.0</ele><time>2026-03-28T15:42:11.643Z</time></trkpt><trkpt lat="44.21115" lon="12.1492833"><ele>19.0</ele><time>2026-03-28T15:42:12.643Z</time></trkpt><trkpt lat="44.2111333" lon="12.1491933"><ele>19.0</ele><time>2026-03-28T15:42:13.643Z</time></trkpt><trkpt lat="44.2111" lon="12.149035"><ele>19.0</ele><time>2026-03-28T15:42:15.644Z</time></trkpt><trkpt lat="44.2110833" lon="12.14894"><ele>19.0</ele><time>2026-03-28T15:42:16.643Z</time></trkpt><trkpt lat="44.21106" lon="12.1488483"><ele>19.0</ele><time>2026-03-28T15:42:17.644Z</time></trkpt><trkpt lat="44.2110367" lon="12.14875"><ele>19.0</ele><time>2026-03-28T15:42:18.644Z</time></trkpt><trkpt lat="44.211015" lon="12.1486533"><ele>19.0</ele><time>2026-03-28T15:42:19.643Z</time></trkpt><trkpt lat="44.2109917" lon="12.1485567"><ele>19.0</ele><time>2026-03-28T15:42:20.644Z</time></trkpt><trkpt lat="44.2109667" lon="12.1484617"><ele>19.0</ele><time>2026-03-28T15:42:21.643Z</time></trkpt><trkpt lat="44.2109417" lon="12.1483667"><ele>19.0</ele><time>2026-03-28T15:42:22.644Z</time></trkpt><trkpt lat="44.21092" lon="12.1482717"><ele>19.0</ele><time>2026-03-28T15:42:23.643Z</time></trkpt><trkpt lat="44.210885" lon="12.1481117"><ele>19.0</ele><time>2026-03-28T15:42:25.643Z</time></trkpt><trkpt lat="44.21085" lon="12.1479533"><ele>19.0</ele><time>2026-03-28T15:42:27.643Z</time></trkpt><trkpt lat="44.2108167" lon="12.1477983"><ele>19.0</ele><time>2026-03-28T15:42:29.643Z</time></trkpt><trkpt lat="44.2107783" lon="12.147645"><ele>19.0</ele><time>2026-03-28T15:42:31.643Z</time></trkpt><trkpt lat="44.2107467" lon="12.1474967"><ele>19.0</ele><time>2026-03-28T15:42:33.643Z</time></trkpt><trkpt lat="44.2107117" lon="12.14735"><ele>19.0</ele><time>2026-03-28T15:42:35.644Z</time></trkpt><trkpt lat="44.21068" lon="12.1472183"><ele>19.0</ele><time>2026-03-28T15:42:37.643Z</time></trkpt><trkpt lat="44.2106483" lon="12.1471033"><ele>19.0</ele><time>2026-03-28T15:42:39.644Z</time></trkpt><trkpt lat="44.2106183" lon="12.1470033"><ele>19.0</ele><time>2026-03-28T15:42:41.644Z</time></trkpt><trkpt lat="44.210595" lon="12.1469117"><ele>19.0</ele><time>2026-03-28T15:42:43.643Z</time></trkpt><trkpt lat="44.210565" lon="12.1468067"><ele>19.0</ele><time>2026-03-28T15:42:45.644Z</time></trkpt><trkpt lat="44.21052" lon="12.14661"><ele>19.0</ele><time>2026-03-28T15:42:48.643Z</time></trkpt><trkpt lat="44.210485" lon="12.1464967"><ele>19.0</ele><time>2026-03-28T15:42:50.643Z</time></trkpt><trkpt lat="44.2104483" lon="12.14638"><ele>19.0</ele><time>2026-03-28T15:42:52.643Z</time></trkpt><trkpt lat="44.2104083" lon="12.1462217"><ele>19.0</ele><time>2026-03-28T15:42:54.643Z</time></trkpt><trkpt lat="44.2103967" lon="12.1461283"><ele>19.0</ele><time>2026-03-28T15:42:55.643Z</time></trkpt><trkpt lat="44.2103867" lon="12.1460267"><ele>19.0</ele><time>2026-03-28T15:42:56.644Z</time></trkpt><trkpt lat="44.2103733" lon="12.14594"><ele>19.0</ele><time>2026-03-28T15:42:57.643Z</time></trkpt><trkpt lat="44.21034" lon="12.1457817"><ele>19.0</ele><time>2026-03-28T15:42:59.643Z</time></trkpt><trkpt lat="44.2103083" lon="12.1456217"><ele>19.0</ele><time>2026-03-28T15:43:01.643Z</time></trkpt><trkpt lat="44.210275" lon="12.1454567"><ele>19.0</ele><time>2026-03-28T15:43:03.643Z</time></trkpt><trkpt lat="44.2102417" lon="12.1453"><ele>19.0</ele><time>2026-03-28T15:43:05.643Z</time></trkpt><trkpt lat="44.210205" lon="12.1451483"><ele>19.0</ele><time>2026-03-28T15:43:07.643Z</time></trkpt><trkpt lat="44.2101683" lon="12.1449967"><ele>19.0</ele><time>2026-03-28T15:43:09.643Z</time></trkpt><trkpt lat="44.2101517" lon="12.1449083"><ele>19.0</ele><time>2026-03-28T15:43:10.643Z</time></trkpt><trkpt lat="44.2101167" lon="12.1447617"><ele>19.0</ele><time>2026-03-28T15:43:12.643Z</time></trkpt><trkpt lat="44.2100783" lon="12.1446083"><ele>19.0</ele><time>2026-03-28T15:43:14.643Z</time></trkpt><trkpt lat="44.21004" lon="12.1444483"><ele>19.0</ele><time>2026-03-28T15:43:16.643Z</time></trkpt><trkpt lat="44.2100067" lon="12.144285"><ele>19.25</ele><time>2026-03-28T15:43:18.643Z</time></trkpt><trkpt lat="44.2099733" lon="12.1441267"><ele>19.5</ele><time>2026-03-28T15:43:20.644Z</time></trkpt><trkpt lat="44.2099367" lon="12.14397"><ele>19.75</ele><time>2026-03-28T15:43:22.643Z</time></trkpt><trkpt lat="44.2099" lon="12.14381"><ele>20.0</ele><time>2026-03-28T15:43:24.643Z</time></trkpt><trkpt lat="44.2098667" lon="12.1436633"><ele>20.2</ele><time>2026-03-28T15:43:26.643Z</time></trkpt><trkpt lat="44.2098333" lon="12.1435183"><ele>20.4</ele><time>2026-03-28T15:43:28.643Z</time></trkpt><trkpt lat="44.2098083" lon="12.143375"><ele>20.6</ele><time>2026-03-28T15:43:30.643Z</time></trkpt><trkpt lat="44.20978" lon="12.1432283"><ele>20.8</ele><time>2026-03-28T15:43:32.644Z</time></trkpt><trkpt lat="44.20975" lon="12.1430833"><ele>21.0</ele><time>2026-03-28T15:43:34.643Z</time></trkpt><trkpt lat="44.2097117" lon="12.14293"><ele>21.200000000000003</ele><time>2026-03-28T15:43:36.643Z</time></trkpt><trkpt lat="44.2096817" lon="12.142815"><ele>21.400000000000002</ele><time>2026-03-28T15:43:38.643Z</time></trkpt><trkpt lat="44.2096533" lon="12.1426933"><ele>21.6</ele><time>2026-03-28T15:43:40.643Z</time></trkpt><trkpt lat="44.20963" lon="12.14256"><ele>21.8</ele><time>2026-03-28T15:43:42.643Z</time></trkpt><trkpt lat="44.20962" lon="12.142415"><ele>22.0</ele><time>2026-03-28T15:43:44.643Z</time></trkpt><trkpt lat="44.2096" lon="12.1422783"><ele>22.0</ele><time>2026-03-28T15:43:46.643Z</time></trkpt><trkpt lat="44.20955" lon="12.14215"><ele>22.0</ele><time>2026-03-28T15:43:48.644Z</time></trkpt><trkpt lat="44.2094817" lon="12.1420267"><ele>22.0</ele><time>2026-03-28T15:43:50.643Z</time></trkpt><trkpt lat="44.209405" lon="12.14192"><ele>22.0</ele><time>2026-03-28T15:43:52.643Z</time></trkpt><trkpt lat="44.209325" lon="12.1418017"><ele>22.0</ele><time>2026-03-28T15:43:54.644Z</time></trkpt><trkpt lat="44.2092433" lon="12.1416983"><ele>22.0</ele><time>2026-03-28T15:43:56.643Z</time></trkpt><trkpt lat="44.20916" lon="12.1415917"><ele>22.0</ele><time>2026-03-28T15:43:58.643Z</time></trkpt><trkpt lat="44.2090783" lon="12.14148"><ele>22.0</ele><time>2026-03-28T15:44:00.643Z</time></trkpt><trkpt lat="44.2089933" lon="12.1413683"><ele>22.0</ele><time>2026-03-28T15:44:02.643Z</time></trkpt><trkpt lat="44.208905" lon="12.14126"><ele>21.75</ele><time>2026-03-28T15:44:04.643Z</time></trkpt><trkpt lat="44.2088183" lon="12.1411517"><ele>21.5</ele><time>2026-03-28T15:44:06.643Z</time></trkpt><trkpt lat="44.2087333" lon="12.14104"><ele>21.25</ele><time>2026-03-28T15:44:08.643Z</time></trkpt><trkpt lat="44.208645" lon="12.140925"><ele>21.0</ele><time>2026-03-28T15:44:10.643Z</time></trkpt><trkpt lat="44.2085583" lon="12.1408083"><ele>21.0</ele><time>2026-03-28T15:44:12.643Z</time></trkpt><trkpt lat="44.2084717" lon="12.1406917"><ele>21.0</ele><time>2026-03-28T15:44:14.643Z</time></trkpt><trkpt lat="44.2083867" lon="12.1405767"><ele>21.0</ele><time>2026-03-28T15:44:16.643Z</time></trkpt><trkpt lat="44.208305" lon="12.1404583"><ele>21.0</ele><time>2026-03-28T15:44:18.644Z</time></trkpt><trkpt lat="44.2082283" lon="12.1403433"><ele>21.25</ele><time>2026-03-28T15:44:20.643Z</time></trkpt><trkpt lat="44.2081533" lon="12.1402233"><ele>21.5</ele><time>2026-03-28T15:44:22.644Z</time></trkpt><trkpt lat="44.2080733" lon="12.1401067"><ele>21.75</ele><time>2026-03-28T15:44:24.644Z</time></trkpt><trkpt lat="44.2079867" lon="12.1399983"><ele>22.0</ele><time>2026-03-28T15:44:26.644Z</time></trkpt><trkpt lat="44.2079" lon="12.1398883"><ele>21.833333333333332</ele><time>2026-03-28T15:44:28.643Z</time></trkpt><trkpt lat="44.207855" lon="12.1398267"><ele>21.666666666666664</ele><time>2026-03-28T15:44:29.643Z</time></trkpt><trkpt lat="44.207765" lon="12.1397117"><ele>21.5</ele><time>2026-03-28T15:44:31.643Z</time></trkpt><trkpt lat="44.2077167" lon="12.1396483"><ele>21.333333333333332</ele><time>2026-03-28T15:44:32.643Z</time></trkpt><trkpt lat="44.2076267" lon="12.1395283"><ele>21.166666666666668</ele><time>2026-03-28T15:44:34.643Z</time></trkpt><trkpt lat="44.20758" lon="12.1394683"><ele>21.0</ele><time>2026-03-28T15:44:35.643Z</time></trkpt><trkpt lat="44.2074883" lon="12.1393467"><ele>21.0</ele><time>2026-03-28T15:44:37.643Z</time></trkpt><trkpt lat="44.2074417" lon="12.1392867"><ele>21.0</ele><time>2026-03-28T15:44:38.643Z</time></trkpt><trkpt lat="44.2073917" lon="12.139225"><ele>21.0</ele><time>2026-03-28T15:44:39.643Z</time></trkpt><trkpt lat="44.207345" lon="12.13916"><ele>21.0</ele><time>2026-03-28T15:44:40.643Z</time></trkpt><trkpt lat="44.2072567" lon="12.1390333"><ele>21.0</ele><time>2026-03-28T15:44:42.644Z</time></trkpt><trkpt lat="44.207165" lon="12.1389233"><ele>21.0</ele><time>2026-03-28T15:44:44.643Z</time></trkpt><trkpt lat="44.207115" lon="12.1388633"><ele>21.25</ele><time>2026-03-28T15:44:45.643Z</time></trkpt><trkpt lat="44.2070367" lon="12.13876"><ele>21.5</ele><time>2026-03-28T15:44:47.643Z</time></trkpt><trkpt lat="44.2069683" lon="12.1386467"><ele>21.75</ele><time>2026-03-28T15:44:49.643Z</time></trkpt><trkpt lat="44.2069033" lon="12.1385067"><ele>22.0</ele><time>2026-03-28T15:44:51.644Z</time></trkpt><trkpt lat="44.2068267" lon="12.13838"><ele>22.0</ele><time>2026-03-28T15:44:53.643Z</time></trkpt><trkpt lat="44.2067417" lon="12.138255"><ele>22.0</ele><time>2026-03-28T15:44:55.643Z</time></trkpt><trkpt lat="44.2066967" lon="12.13819"><ele>22.0</ele><time>2026-03-28T15:44:56.644Z</time></trkpt><trkpt lat="44.20665" lon="12.1381267"><ele>22.0</ele><time>2026-03-28T15:44:57.644Z</time></trkpt><trkpt lat="44.206605" lon="12.1380633"><ele>22.0</ele><time>2026-03-28T15:44:58.643Z</time></trkpt><trkpt lat="44.2065567" lon="12.1380017"><ele>22.0</ele><time>2026-03-28T15:44:59.643Z</time></trkpt><trkpt lat="44.2065117" lon="12.1379383"><ele>22.0</ele><time>2026-03-28T15:45:00.643Z</time></trkpt><trkpt lat="44.2064383" lon="12.13781"><ele>21.75</ele><time>2026-03-28T15:45:02.643Z</time></trkpt><trkpt lat="44.2063517" lon="12.1377067"><ele>21.5</ele><time>2026-03-28T15:45:04.644Z</time></trkpt><trkpt lat="44.2062567" lon="12.1375983"><ele>21.25</ele><time>2026-03-28T15:45:06.644Z</time></trkpt><trkpt lat="44.2061667" lon="12.1374867"><ele>21.0</ele><time>2026-03-28T15:45:08.643Z</time></trkpt><trkpt lat="44.20608" lon="12.137375"><ele>21.4</ele><time>2026-03-28T15:45:10.643Z</time></trkpt><trkpt lat="44.2060033" lon="12.1372767"><ele>21.8</ele><time>2026-03-28T15:45:12.643Z</time></trkpt><trkpt lat="44.2059283" lon="12.1371817"><ele>22.2</ele><time>2026-03-28T15:45:14.643Z</time></trkpt><trkpt lat="44.2058567" lon="12.137085"><ele>22.599999999999998</ele><time>2026-03-28T15:45:16.644Z</time></trkpt><trkpt lat="44.20579" lon="12.1369883"><ele>23.0</ele><time>2026-03-28T15:45:18.643Z</time></trkpt><trkpt lat="44.2057467" lon="12.1368917"><ele>23.0</ele><time>2026-03-28T15:45:20.643Z</time></trkpt><trkpt lat="44.2057267" lon="12.1368017"><ele>23.0</ele><time>2026-03-28T15:45:22.643Z</time></trkpt><trkpt lat="44.2057283" lon="12.136655"><ele>23.0</ele><time>2026-03-28T15:45:25.643Z</time></trkpt><trkpt lat="44.2057333" lon="12.136545"><ele>23.0</ele><time>2026-03-28T15:45:27.643Z</time></trkpt><trkpt lat="44.2057583" lon="12.1364383"><ele>23.0</ele><time>2026-03-28T15:45:29.644Z</time></trkpt><trkpt lat="44.2057933" lon="12.1363417"><ele>23.0</ele><time>2026-03-28T15:45:31.643Z</time></trkpt><trkpt lat="44.20583" lon="12.1362417"><ele>22.833333333333336</ele><time>2026-03-28T15:45:33.643Z</time></trkpt><trkpt lat="44.2058733" lon="12.1361333"><ele>22.666666666666668</ele><time>2026-03-28T15:45:35.644Z</time></trkpt><trkpt lat="44.2059183" lon="12.1360367"><ele>22.5</ele><time>2026-03-28T15:45:37.643Z</time></trkpt><trkpt lat="44.2059567" lon="12.13593"><ele>22.333333333333332</ele><time>2026-03-28T15:45:39.643Z</time></trkpt><trkpt lat="44.20599" lon="12.135835"><ele>22.166666666666664</ele><time>2026-03-28T15:45:41.643Z</time></trkpt><trkpt lat="44.2060267" lon="12.1357333"><ele>22.0</ele><time>2026-03-28T15:45:43.643Z</time></trkpt><trkpt lat="44.20606" lon="12.1356267"><ele>21.857142857142858</ele><time>2026-03-28T15:45:45.643Z</time></trkpt><trkpt lat="44.206105" lon="12.1355383"><ele>21.714285714285715</ele><time>2026-03-28T15:45:47.644Z</time></trkpt><trkpt lat="44.206145" lon="12.1354633"><ele>21.57142857142857</ele><time>2026-03-28T15:45:49.644Z</time></trkpt><trkpt lat="44.2062" lon="12.1353883"><ele>21.42857142857143</ele><time>2026-03-28T15:45:52.643Z</time></trkpt><trkpt lat="44.20623" lon="12.1353067"><ele>21.285714285714285</ele><time>2026-03-28T15:45:55.643Z</time></trkpt><trkpt lat="44.2061717" lon="12.1353517"><ele>21.142857142857142</ele><time>2026-03-28T15:46:03.643Z</time></trkpt><trkpt lat="44.2061317" lon="12.1354333"><ele>21.0</ele><time>2026-03-28T15:46:06.643Z</time></trkpt><trkpt lat="44.20611" lon="12.13553"><ele>21.0</ele><time>2026-03-28T15:46:10.643Z</time></trkpt><trkpt lat="44.2060667" lon="12.1356117"><ele>21.0</ele><time>2026-03-28T15:46:14.643Z</time></trkpt><trkpt lat="44.2060183" lon="12.1357"><ele>21.0</ele><time>2026-03-28T15:46:18.644Z</time></trkpt><trkpt lat="44.2059783" lon="12.1357767"><ele>21.0</ele><time>2026-03-28T15:46:21.643Z</time></trkpt><trkpt lat="44.20594" lon="12.1358633"><ele>21.0</ele><time>2026-03-28T15:46:24.643Z</time></trkpt><trkpt lat="44.2058833" lon="12.1359683"><ele>21.0</ele><time>2026-03-28T15:46:27.643Z</time></trkpt><trkpt lat="44.2058467" lon="12.13605"><ele>21.166666666666668</ele><time>2026-03-28T15:46:29.643Z</time></trkpt><trkpt lat="44.2058117" lon="12.1361383"><ele>21.333333333333332</ele><time>2026-03-28T15:46:32.643Z</time></trkpt><trkpt lat="44.205775" lon="12.1362333"><ele>21.5</ele><time>2026-03-28T15:46:35.643Z</time></trkpt><trkpt lat="44.20573" lon="12.1363317"><ele>21.666666666666664</ele><time>2026-03-28T15:46:39.644Z</time></trkpt><trkpt lat="44.2056883" lon="12.1364217"><ele>21.833333333333332</ele><time>2026-03-28T15:46:42.643Z</time></trkpt><trkpt lat="44.20563" lon="12.1364833"><ele>22.0</ele><time>2026-03-28T15:46:45.644Z</time></trkpt><trkpt lat="44.2055617" lon="12.1365233"><ele>22.5</ele><time>2026-03-28T15:46:47.644Z</time></trkpt><trkpt lat="44.205485" lon="12.1365233"><ele>23.0</ele><time>2026-03-28T15:46:49.643Z</time></trkpt><trkpt lat="44.20541" lon="12.1364733"><ele>23.5</ele><time>2026-03-28T15:46:51.644Z</time></trkpt><trkpt lat="44.20534" lon="12.1363983"><ele>24.0</ele><time>2026-03-28T15:46:53.644Z</time></trkpt><trkpt lat="44.2052733" lon="12.1363233"><ele>24.500000000000004</ele><time>2026-03-28T15:46:55.643Z</time></trkpt><trkpt lat="44.2052083" lon="12.1362383"><ele>25.0</ele><time>2026-03-28T15:46:57.643Z</time></trkpt><trkpt lat="44.2051517" lon="12.136165"><ele>25.000000000000004</ele><time>2026-03-28T15:46:59.643Z</time></trkpt><trkpt lat="44.2050933" lon="12.1360967"><ele>25.0</ele><time>2026-03-28T15:47:01.643Z</time></trkpt><trkpt lat="44.20505" lon="12.1360267"><ele>25.0</ele><time>2026-03-28T15:47:03.643Z</time></trkpt><trkpt lat="44.2049983" lon="12.13596"><ele>25.0</ele><time>2026-03-28T15:47:05.644Z</time></trkpt><trkpt lat="44.2049317" lon="12.1358883"><ele>25.000000000000004</ele><time>2026-03-28T15:47:07.643Z</time></trkpt><trkpt lat="44.2048767" lon="12.13581"><ele>25.0</ele><time>2026-03-28T15:47:09.643Z</time></trkpt><trkpt lat="44.2048033" lon="12.1357267"><ele>24.8</ele><time>2026-03-28T15:47:11.644Z</time></trkpt><trkpt lat="44.2047367" lon="12.1356383"><ele>24.6</ele><time>2026-03-28T15:47:13.643Z</time></trkpt><trkpt lat="44.20466" lon="12.1355567"><ele>24.4</ele><time>2026-03-28T15:47:15.643Z</time></trkpt><trkpt lat="44.2045733" lon="12.1354617"><ele>24.2</ele><time>2026-03-28T15:47:17.643Z</time></trkpt><trkpt lat="44.20449" lon="12.135375"><ele>24.0</ele><time>2026-03-28T15:47:19.643Z</time></trkpt><trkpt lat="44.204415" lon="12.1353017"><ele>24.0</ele><time>2026-03-28T15:47:21.643Z</time></trkpt><trkpt lat="44.20434" lon="12.135235"><ele>24.0</ele><time>2026-03-28T15:47:23.643Z</time></trkpt><trkpt lat="44.2042733" lon="12.135175"><ele>24.0</ele><time>2026-03-28T15:47:25.644Z</time></trkpt><trkpt lat="44.2042083" lon="12.135125"><ele>24.0</ele><time>2026-03-28T15:47:27.643Z</time></trkpt><trkpt lat="44.2041783" lon="12.135045"><ele>24.0</ele><time>2026-03-28T15:47:28.643Z</time></trkpt><trkpt lat="44.2041167" lon="12.13493"><ele>24.0</ele><time>2026-03-28T15:47:30.644Z</time></trkpt><trkpt lat="44.2040433" lon="12.134845"><ele>23.799999999999997</ele><time>2026-03-28T15:47:32.643Z</time></trkpt><trkpt lat="44.2039633" lon="12.1347767"><ele>23.599999999999998</ele><time>2026-03-28T15:47:34.644Z</time></trkpt><trkpt lat="44.2038667" lon="12.134735"><ele>23.4</ele><time>2026-03-28T15:47:36.643Z</time></trkpt><trkpt lat="44.2037683" lon="12.134695"><ele>23.2</ele><time>2026-03-28T15:47:38.643Z</time></trkpt><trkpt lat="44.2036717" lon="12.13466"><ele>23.0</ele><time>2026-03-28T15:47:40.643Z</time></trkpt><trkpt lat="44.203565" lon="12.1346183"><ele>23.0</ele><time>2026-03-28T15:47:42.644Z</time></trkpt><trkpt lat="44.2034583" lon="12.1345433"><ele>23.0</ele><time>2026-03-28T15:47:44.644Z</time></trkpt><trkpt lat="44.203365" lon="12.1344633"><ele>23.0</ele><time>2026-03-28T15:47:46.644Z</time></trkpt><trkpt lat="44.2032933" lon="12.13437"><ele>23.0</ele><time>2026-03-28T15:47:48.644Z</time></trkpt><trkpt lat="44.2032483" lon="12.1342483"><ele>23.0</ele><time>2026-03-28T15:47:50.643Z</time></trkpt><trkpt lat="44.2032033" lon="12.134125"><ele>23.0</ele><time>2026-03-28T15:47:52.643Z</time></trkpt><trkpt lat="44.2031417" lon="12.13401"><ele>23.0</ele><time>2026-03-28T15:47:54.644Z</time></trkpt><trkpt lat="44.2030767" lon="12.1338983"><ele>23.0</ele><time>2026-03-28T15:47:56.643Z</time></trkpt><trkpt lat="44.20301" lon="12.1338083"><ele>23.0</ele><time>2026-03-28T15:47:58.643Z</time></trkpt><trkpt lat="44.202935" lon="12.1337283"><ele>23.0</ele><time>2026-03-28T15:48:00.643Z</time></trkpt><trkpt lat="44.2028633" lon="12.1336583"><ele>23.0</ele><time>2026-03-28T15:48:02.644Z</time></trkpt><trkpt lat="44.202785" lon="12.13361"><ele>23.0</ele><time>2026-03-28T15:48:04.643Z</time></trkpt><trkpt lat="44.2027" lon="12.1335583"><ele>23.0</ele><time>2026-03-28T15:48:06.643Z</time></trkpt><trkpt lat="44.2025917" lon="12.1335183"><ele>23.0</ele><time>2026-03-28T15:48:08.643Z</time></trkpt><trkpt lat="44.2024883" lon="12.133495"><ele>23.0</ele><time>2026-03-28T15:48:10.643Z</time></trkpt><trkpt lat="44.202385" lon="12.1334717"><ele>22.799999999999997</ele><time>2026-03-28T15:48:12.643Z</time></trkpt><trkpt lat="44.2022883" lon="12.13346"><ele>22.6</ele><time>2026-03-28T15:48:14.643Z</time></trkpt><trkpt lat="44.2021867" lon="12.1334517"><ele>22.4</ele><time>2026-03-28T15:48:16.643Z</time></trkpt><trkpt lat="44.2020767" lon="12.1334383"><ele>22.200000000000003</ele><time>2026-03-28T15:48:18.643Z</time></trkpt><trkpt lat="44.20196" lon="12.1334283"><ele>22.0</ele><time>2026-03-28T15:48:20.643Z</time></trkpt><trkpt lat="44.201855" lon="12.1334167"><ele>22.0</ele><time>2026-03-28T15:48:22.644Z</time></trkpt><trkpt lat="44.20174" lon="12.133405"><ele>22.0</ele><time>2026-03-28T15:48:24.644Z</time></trkpt><trkpt lat="44.2016467" lon="12.13339"><ele>22.0</ele><time>2026-03-28T15:48:26.643Z</time></trkpt><trkpt lat="44.2015467" lon="12.1333767"><ele>22.0</ele><time>2026-03-28T15:48:28.644Z</time></trkpt><trkpt lat="44.20146" lon="12.13337"><ele>22.0</ele><time>2026-03-28T15:48:30.644Z</time></trkpt><trkpt lat="44.2013533" lon="12.13336"><ele>22.400000000000002</ele><time>2026-03-28T15:48:32.644Z</time></trkpt><trkpt lat="44.2012567" lon="12.13334"><ele>22.8</ele><time>2026-03-28T15:48:34.644Z</time></trkpt><trkpt lat="44.20115" lon="12.1333217"><ele>23.2</ele><time>2026-03-28T15:48:36.644Z</time></trkpt><trkpt lat="44.2010383" lon="12.1333067"><ele>23.6</ele><time>2026-03-28T15:48:38.644Z</time></trkpt><trkpt lat="44.20094" lon="12.133295"><ele>24.0</ele><time>2026-03-28T15:48:40.645Z</time></trkpt><trkpt lat="44.20084" lon="12.133285"><ele>24.0</ele><time>2026-03-28T15:48:42.644Z</time></trkpt><trkpt lat="44.2007433" lon="12.133275"><ele>24.0</ele><time>2026-03-28T15:48:44.645Z</time></trkpt><trkpt lat="44.2006617" lon="12.13326"><ele>24.0</ele><time>2026-03-28T15:48:46.644Z</time></trkpt><trkpt lat="44.2005667" lon="12.1332283"><ele>24.0</ele><time>2026-03-28T15:48:48.645Z</time></trkpt><trkpt lat="44.20046" lon="12.1331883"><ele>24.0</ele><time>2026-03-28T15:48:50.644Z</time></trkpt><trkpt lat="44.2003583" lon="12.1331567"><ele>23.799999999999997</ele><time>2026-03-28T15:48:52.644Z</time></trkpt><trkpt lat="44.2002517" lon="12.133115"><ele>23.599999999999998</ele><time>2026-03-28T15:48:54.645Z</time></trkpt><trkpt lat="44.2001517" lon="12.1330717"><ele>23.4</ele><time>2026-03-28T15:48:56.644Z</time></trkpt><trkpt lat="44.2000467" lon="12.1330283"><ele>23.2</ele><time>2026-03-28T15:48:58.644Z</time></trkpt><trkpt lat="44.199935" lon="12.1329933"><ele>23.0</ele><time>2026-03-28T15:49:00.645Z</time></trkpt><trkpt lat="44.1998217" lon="12.1329533"><ele>23.599999999999998</ele><time>2026-03-28T15:49:02.644Z</time></trkpt><trkpt lat="44.1997233" lon="12.1329117"><ele>24.2</ele><time>2026-03-28T15:49:04.645Z</time></trkpt><trkpt lat="44.1996233" lon="12.13287"><ele>24.8</ele><time>2026-03-28T15:49:06.644Z</time></trkpt><trkpt lat="44.1995233" lon="12.13283"><ele>25.4</ele><time>2026-03-28T15:49:08.644Z</time></trkpt><trkpt lat="44.1994283" lon="12.13279"><ele>26.0</ele><time>2026-03-28T15:49:10.645Z</time></trkpt><trkpt lat="44.1993467" lon="12.1327433"><ele>25.999999999999996</ele><time>2026-03-28T15:49:12.645Z</time></trkpt><trkpt lat="44.1992733" lon="12.1327067"><ele>26.0</ele><time>2026-03-28T15:49:14.644Z</time></trkpt><trkpt lat="44.1991983" lon="12.132665"><ele>26.0</ele><time>2026-03-28T15:49:16.644Z</time></trkpt><trkpt lat="44.1991467" lon="12.1326033"><ele>26.0</ele><time>2026-03-28T15:49:18.644Z</time></trkpt><trkpt lat="44.1990717" lon="12.1325483"><ele>25.999999999999996</ele><time>2026-03-28T15:49:20.644Z</time></trkpt><trkpt lat="44.198995" lon="12.1324967"><ele>26.0</ele><time>2026-03-28T15:49:22.644Z</time></trkpt><trkpt lat="44.198875" lon="12.1324267"><ele>26.200000000000003</ele><time>2026-03-28T15:49:24.645Z</time></trkpt><trkpt lat="44.19881" lon="12.1323917"><ele>26.400000000000002</ele><time>2026-03-28T15:49:25.644Z</time></trkpt><trkpt lat="44.19875" lon="12.13236"><ele>26.6</ele><time>2026-03-28T15:49:26.644Z</time></trkpt><trkpt lat="44.1986467" lon="12.1322967"><ele>26.8</ele><time>2026-03-28T15:49:28.644Z</time></trkpt><trkpt lat="44.1985417" lon="12.13224"><ele>27.0</ele><time>2026-03-28T15:49:30.644Z</time></trkpt><trkpt lat="44.1984333" lon="12.1321833"><ele>27.0</ele><time>2026-03-28T15:49:32.644Z</time></trkpt><trkpt lat="44.1983267" lon="12.1321333"><ele>27.0</ele><time>2026-03-28T15:49:34.644Z</time></trkpt><trkpt lat="44.1982167" lon="12.1320867"><ele>27.0</ele><time>2026-03-28T15:49:36.644Z</time></trkpt><trkpt lat="44.1981067" lon="12.1320383"><ele>27.0</ele><time>2026-03-28T15:49:38.644Z</time></trkpt><trkpt lat="44.1980033" lon="12.1319867"><ele>26.8</ele><time>2026-03-28T15:49:40.645Z</time></trkpt><trkpt lat="44.1979067" lon="12.131925"><ele>26.6</ele><time>2026-03-28T15:49:42.644Z</time></trkpt><trkpt lat="44.19781" lon="12.1318617"><ele>26.400000000000002</ele><time>2026-03-28T15:49:44.644Z</time></trkpt><trkpt lat="44.1977117" lon="12.1318017"><ele>26.200000000000003</ele><time>2026-03-28T15:49:46.645Z</time></trkpt><trkpt lat="44.1976117" lon="12.1317317"><ele>26.0</ele><time>2026-03-28T15:49:48.644Z</time></trkpt><trkpt lat="44.1975267" lon="12.1316583"><ele>26.0</ele><time>2026-03-28T15:49:50.644Z</time></trkpt><trkpt lat="44.1974383" lon="12.1316067"><ele>26.0</ele><time>2026-03-28T15:49:52.644Z</time></trkpt><trkpt lat="44.1973417" lon="12.1315583"><ele>26.0</ele><time>2026-03-28T15:49:54.645Z</time></trkpt><trkpt lat="44.197255" lon="12.1315267"><ele>26.0</ele><time>2026-03-28T15:49:56.644Z</time></trkpt><trkpt lat="44.1971633" lon="12.1314967"><ele>26.0</ele><time>2026-03-28T15:49:58.645Z</time></trkpt><trkpt lat="44.19708" lon="12.13146"><ele>26.166666666666664</ele><time>2026-03-28T15:50:00.644Z</time></trkpt><trkpt lat="44.197005" lon="12.131415"><ele>26.333333333333332</ele><time>2026-03-28T15:50:02.644Z</time></trkpt><trkpt lat="44.19694" lon="12.13136"><ele>26.5</ele><time>2026-03-28T15:50:04.644Z</time></trkpt><trkpt lat="44.1968717" lon="12.1313"><ele>26.666666666666664</ele><time>2026-03-28T15:50:06.644Z</time></trkpt><trkpt lat="44.1967883" lon="12.1312667"><ele>26.833333333333332</ele><time>2026-03-28T15:50:08.645Z</time></trkpt><trkpt lat="44.1966983" lon="12.1312317"><ele>27.0</ele><time>2026-03-28T15:50:10.644Z</time></trkpt><trkpt lat="44.196615" lon="12.1311683"><ele>27.0</ele><time>2026-03-28T15:50:12.644Z</time></trkpt><trkpt lat="44.1965433" lon="12.1310967"><ele>27.0</ele><time>2026-03-28T15:50:14.644Z</time></trkpt><trkpt lat="44.1964883" lon="12.1310167"><ele>27.0</ele><time>2026-03-28T15:50:16.645Z</time></trkpt><trkpt lat="44.1964467" lon="12.130905"><ele>27.0</ele><time>2026-03-28T15:50:18.644Z</time></trkpt><trkpt lat="44.19642" lon="12.13079"><ele>27.0</ele><time>2026-03-28T15:50:20.644Z</time></trkpt><trkpt lat="44.1964233" lon="12.1306933"><ele>27.0</ele><time>2026-03-28T15:50:22.645Z</time></trkpt><trkpt lat="44.1964417" lon="12.130585"><ele>26.833333333333332</ele><time>2026-03-28T15:50:24.644Z</time></trkpt><trkpt lat="44.1964717" lon="12.1304983"><ele>26.666666666666664</ele><time>2026-03-28T15:50:26.644Z</time></trkpt><trkpt lat="44.196505" lon="12.1304067"><ele>26.5</ele><time>2026-03-28T15:50:32.645Z</time></trkpt><trkpt lat="44.1964333" lon="12.1303133"><ele>26.333333333333332</ele><time>2026-03-28T15:50:37.645Z</time></trkpt><trkpt lat="44.1963783" lon="12.1302517"><ele>26.166666666666664</ele><time>2026-03-28T15:50:39.644Z</time></trkpt><trkpt lat="44.19632" lon="12.1302183"><ele>26.0</ele><time>2026-03-28T15:50:40.645Z</time></trkpt><trkpt lat="44.1962033" lon="12.1302233"><ele>26.8</ele><time>2026-03-28T15:50:42.644Z</time></trkpt><trkpt lat="44.1960917" lon="12.1302467"><ele>27.6</ele><time>2026-03-28T15:50:44.644Z</time></trkpt><trkpt lat="44.19599" lon="12.130295"><ele>28.4</ele><time>2026-03-28T15:50:46.644Z</time></trkpt><trkpt lat="44.1959067" lon="12.130365"><ele>29.2</ele><time>2026-03-28T15:50:48.644Z</time></trkpt><trkpt lat="44.195805" lon="12.130445"><ele>30.0</ele><time>2026-03-28T15:50:50.644Z</time></trkpt><trkpt lat="44.1957233" lon="12.13049"><ele>29.4</ele><time>2026-03-28T15:50:52.644Z</time></trkpt><trkpt lat="44.1956183" lon="12.1304883"><ele>28.8</ele><time>2026-03-28T15:50:54.644Z</time></trkpt><trkpt lat="44.1955083" lon="12.13046"><ele>28.200000000000003</ele><time>2026-03-28T15:50:56.644Z</time></trkpt><trkpt lat="44.195385" lon="12.1304333"><ele>27.6</ele><time>2026-03-28T15:50:58.644Z</time></trkpt><trkpt lat="44.1953217" lon="12.1304183"><ele>27.0</ele><time>2026-03-28T15:50:59.644Z</time></trkpt><trkpt lat="44.1951983" lon="12.1303917"><ele>27.0</ele><time>2026-03-28T15:51:01.644Z</time></trkpt><trkpt lat="44.1950833" lon="12.1303683"><ele>27.000000000000004</ele><time>2026-03-28T15:51:03.644Z</time></trkpt><trkpt lat="44.1949933" lon="12.1303483"><ele>27.000000000000004</ele><time>2026-03-28T15:51:05.644Z</time></trkpt><trkpt lat="44.1949133" lon="12.1303267"><ele>27.0</ele><time>2026-03-28T15:51:07.644Z</time></trkpt><trkpt lat="44.1948283" lon="12.1302967"><ele>27.0</ele><time>2026-03-28T15:51:09.644Z</time></trkpt><trkpt lat="44.19474" lon="12.13027"><ele>27.0</ele><time>2026-03-28T15:51:11.645Z</time></trkpt><trkpt lat="44.1946333" lon="12.13023"><ele>27.000000000000004</ele><time>2026-03-28T15:51:13.644Z</time></trkpt><trkpt lat="44.1945317" lon="12.130185"><ele>27.000000000000004</ele><time>2026-03-28T15:51:15.645Z</time></trkpt><trkpt lat="44.1944283" lon="12.1301483"><ele>27.0</ele><time>2026-03-28T15:51:17.644Z</time></trkpt><trkpt lat="44.1943367" lon="12.1301217"><ele>27.0</ele><time>2026-03-28T15:51:19.645Z</time></trkpt><trkpt lat="44.19425" lon="12.1301"><ele>27.0</ele><time>2026-03-28T15:51:21.645Z</time></trkpt><trkpt lat="44.1941733" lon="12.1300867"><ele>27.000000000000004</ele><time>2026-03-28T15:51:23.645Z</time></trkpt><trkpt lat="44.19409" lon="12.1300683"><ele>27.000000000000004</ele><time>2026-03-28T15:51:25.644Z</time></trkpt><trkpt lat="44.194" lon="12.1300383"><ele>27.0</ele><time>2026-03-28T15:51:27.644Z</time></trkpt><trkpt lat="44.19391" lon="12.1300133"><ele>27.0</ele><time>2026-03-28T15:51:29.644Z</time></trkpt><trkpt lat="44.1938083" lon="12.1299733"><ele>27.0</ele><time>2026-03-28T15:51:31.644Z</time></trkpt><trkpt lat="44.1937167" lon="12.129935"><ele>27.0</ele><time>2026-03-28T15:51:33.644Z</time></trkpt><trkpt lat="44.19364" lon="12.1299033"><ele>27.0</ele><time>2026-03-28T15:51:35.644Z</time></trkpt><trkpt lat="44.1935733" lon="12.1298633"><ele>27.0</ele><time>2026-03-28T15:51:37.645Z</time></trkpt><trkpt lat="44.1934567" lon="12.1298567"><ele>27.0</ele><time>2026-03-28T15:51:40.648Z</time></trkpt><trkpt lat="44.19341" lon="12.1297967"><ele>27.0</ele><time>2026-03-28T15:51:41.648Z</time></trkpt><trkpt lat="44.1933767" lon="12.1296567"><ele>27.333333333333332</ele><time>2026-03-28T15:51:42.648Z</time></trkpt><trkpt lat="44.193385" lon="12.129515"><ele>27.666666666666664</ele><time>2026-03-28T15:51:44.648Z</time></trkpt><trkpt lat="44.19343" lon="12.129395"><ele>28.0</ele><time>2026-03-28T15:51:46.648Z</time></trkpt><trkpt lat="44.1934617" lon="12.1293183"><ele>28.333333333333332</ele><time>2026-03-28T15:51:48.649Z</time></trkpt><trkpt lat="44.1935117" lon="12.1292283"><ele>28.666666666666664</ele><time>2026-03-28T15:51:51.648Z</time></trkpt><trkpt lat="44.193545" lon="12.1291283"><ele>29.0</ele><time>2026-03-28T15:51:54.648Z</time></trkpt><trkpt lat="44.193565" lon="12.1290217"><ele>29.5</ele><time>2026-03-28T15:51:58.648Z</time></trkpt><trkpt lat="44.1936" lon="12.1289483"><ele>30.0</ele><time>2026-03-28T15:52:01.648Z</time></trkpt><trkpt lat="44.193715" lon="12.1286817"><ele>30.5</ele><time>2026-03-28T15:52:07.648Z</time></trkpt><trkpt lat="44.1936283" lon="12.128725"><ele>31.0</ele><time>2026-03-28T15:52:18.649Z</time></trkpt><trkpt lat="44.193595" lon="12.128815"><ele>31.000000000000004</ele><time>2026-03-28T15:52:21.648Z</time></trkpt><trkpt lat="44.1935683" lon="12.1289033"><ele>31.0</ele><time>2026-03-28T15:52:23.649Z</time></trkpt><trkpt lat="44.1935283" lon="12.1290233"><ele>31.0</ele><time>2026-03-28T15:52:26.648Z</time></trkpt><trkpt lat="44.1934917" lon="12.1291183"><ele>31.0</ele><time>2026-03-28T15:52:28.648Z</time></trkpt><trkpt lat="44.1934517" lon="12.1292183"><ele>31.000000000000004</ele><time>2026-03-28T15:52:30.649Z</time></trkpt><trkpt lat="44.193395" lon="12.1293167"><ele>31.0</ele><time>2026-03-28T15:52:32.648Z</time></trkpt><trkpt lat="44.1933567" lon="12.1294017"><ele>31.0</ele><time>2026-03-28T15:52:34.648Z</time></trkpt><trkpt lat="44.1933167" lon="12.1294833"><ele>31.000000000000004</ele><time>2026-03-28T15:52:36.648Z</time></trkpt><trkpt lat="44.1932817" lon="12.1295567"><ele>31.0</ele><time>2026-03-28T15:52:38.649Z</time></trkpt><trkpt lat="44.1932317" lon="12.1296117"><ele>31.0</ele><time>2026-03-28T15:52:40.648Z</time></trkpt><trkpt lat="44.1931633" lon="12.1296217"><ele>31.000000000000004</ele><time>2026-03-28T15:52:42.648Z</time></trkpt><trkpt lat="44.1930833" lon="12.1296117"><ele>31.0</ele><time>2026-03-28T15:52:44.648Z</time></trkpt><trkpt lat="44.193005" lon="12.1295967"><ele>31.0</ele><time>2026-03-28T15:52:46.648Z</time></trkpt><trkpt lat="44.192925" lon="12.1295717"><ele>31.0</ele><time>2026-03-28T15:52:48.648Z</time></trkpt><trkpt lat="44.1928317" lon="12.129545"><ele>31.0</ele><time>2026-03-28T15:52:50.648Z</time></trkpt><trkpt lat="44.19274" lon="12.1295133"><ele>31.0</ele><time>2026-03-28T15:52:52.648Z</time></trkpt><trkpt lat="44.19265" lon="12.1294817"><ele>31.0</ele><time>2026-03-28T15:52:54.648Z</time></trkpt><trkpt lat="44.1925667" lon="12.12946"><ele>31.0</ele><time>2026-03-28T15:52:56.648Z</time></trkpt><trkpt lat="44.19248" lon="12.1294283"><ele>31.0</ele><time>2026-03-28T15:52:58.648Z</time></trkpt><trkpt lat="44.19239" lon="12.1294"><ele>31.0</ele><time>2026-03-28T15:53:00.648Z</time></trkpt><trkpt lat="44.1922933" lon="12.1293633"><ele>31.0</ele><time>2026-03-28T15:53:02.648Z</time></trkpt><trkpt lat="44.1921983" lon="12.1293283"><ele>31.0</ele><time>2026-03-28T15:53:04.648Z</time></trkpt><trkpt lat="44.192115" lon="12.1292933"><ele>31.0</ele><time>2026-03-28T15:53:06.648Z</time></trkpt><trkpt lat="44.1920333" lon="12.12926"><ele>30.8</ele><time>2026-03-28T15:53:08.648Z</time></trkpt><trkpt lat="44.1919567" lon="12.1292233"><ele>30.6</ele><time>2026-03-28T15:53:10.648Z</time></trkpt><trkpt lat="44.1918533" lon="12.1291917"><ele>30.4</ele><time>2026-03-28T15:53:13.648Z</time></trkpt><trkpt lat="44.1917433" lon="12.1291617"><ele>30.2</ele><time>2026-03-28T15:53:15.648Z</time></trkpt><trkpt lat="44.191635" lon="12.1291417"><ele>30.0</ele><time>2026-03-28T15:53:17.648Z</time></trkpt><trkpt lat="44.19152" lon="12.1291233"><ele>29.8</ele><time>2026-03-28T15:53:19.648Z</time></trkpt><trkpt lat="44.1914183" lon="12.12909"><ele>29.6</ele><time>2026-03-28T15:53:21.648Z</time></trkpt><trkpt lat="44.1913483" lon="12.1290533"><ele>29.4</ele><time>2026-03-28T15:53:23.648Z</time></trkpt><trkpt lat="44.1912717" lon="12.1290167"><ele>29.2</ele><time>2026-03-28T15:53:25.648Z</time></trkpt><trkpt lat="44.1911633" lon="12.1289883"><ele>29.0</ele><time>2026-03-28T15:53:27.648Z</time></trkpt><trkpt lat="44.1910683" lon="12.12897"><ele>29.0</ele><time>2026-03-28T15:53:29.648Z</time></trkpt><trkpt lat="44.1909467" lon="12.1289617"><ele>29.0</ele><time>2026-03-28T15:53:31.648Z</time></trkpt><trkpt lat="44.19088" lon="12.1289633"><ele>29.0</ele><time>2026-03-28T15:53:32.648Z</time></trkpt><trkpt lat="44.1907617" lon="12.128965"><ele>29.0</ele><time>2026-03-28T15:53:34.649Z</time></trkpt><trkpt lat="44.190645" lon="12.1289633"><ele>29.0</ele><time>2026-03-28T15:53:36.648Z</time></trkpt><trkpt lat="44.1905517" lon="12.1289517"><ele>29.0</ele><time>2026-03-28T15:53:38.648Z</time></trkpt><trkpt lat="44.1904567" lon="12.12894"><ele>29.0</ele><time>2026-03-28T15:53:40.648Z</time></trkpt><trkpt lat="44.1903767" lon="12.128925"><ele>29.0</ele><time>2026-03-28T15:53:42.648Z</time></trkpt><trkpt lat="44.1902833" lon="12.1289083"><ele>29.0</ele><time>2026-03-28T15:53:44.648Z</time></trkpt><trkpt lat="44.1901933" lon="12.1289017"><ele>29.0</ele><time>2026-03-28T15:53:46.649Z</time></trkpt><trkpt lat="44.19009" lon="12.1289033"><ele>28.999999999999996</ele><time>2026-03-28T15:53:48.648Z</time></trkpt><trkpt lat="44.1900033" lon="12.1288933"><ele>29.0</ele><time>2026-03-28T15:53:50.648Z</time></trkpt><trkpt lat="44.1899117" lon="12.128875"><ele>29.0</ele><time>2026-03-28T15:53:52.648Z</time></trkpt><trkpt lat="44.18981" lon="12.1288533"><ele>29.0</ele><time>2026-03-28T15:53:54.648Z</time></trkpt><trkpt lat="44.1897317" lon="12.12882"><ele>28.999999999999996</ele><time>2026-03-28T15:53:56.649Z</time></trkpt><trkpt lat="44.1896683" lon="12.1287783"><ele>29.0</ele><time>2026-03-28T15:53:58.648Z</time></trkpt><trkpt lat="44.1895983" lon="12.128745"><ele>29.166666666666664</ele><time>2026-03-28T15:54:00.648Z</time></trkpt><trkpt lat="44.1895117" lon="12.1287083"><ele>29.333333333333332</ele><time>2026-03-28T15:54:02.649Z</time></trkpt><trkpt lat="44.1894383" lon="12.12868"><ele>29.5</ele><time>2026-03-28T15:54:04.648Z</time></trkpt><trkpt lat="44.1893683" lon="12.1286517"><ele>29.666666666666664</ele><time>2026-03-28T15:54:06.649Z</time></trkpt><trkpt lat="44.1892983" lon="12.128625"><ele>29.833333333333332</ele><time>2026-03-28T15:54:08.648Z</time></trkpt><trkpt lat="44.189225" lon="12.128605"><ele>30.0</ele><time>2026-03-28T15:54:10.649Z</time></trkpt><trkpt lat="44.1891483" lon="12.12859"><ele>30.0</ele><time>2026-03-28T15:54:12.648Z</time></trkpt><trkpt lat="44.189085" lon="12.1285467"><ele>30.0</ele><time>2026-03-28T15:54:15.649Z</time></trkpt><trkpt lat="44.18902" lon="12.1285317"><ele>30.0</ele><time>2026-03-28T15:54:18.649Z</time></trkpt><trkpt lat="44.1889517" lon="12.12855"><ele>30.0</ele><time>2026-03-28T15:54:21.648Z</time></trkpt><trkpt lat="44.18889" lon="12.1285767"><ele>30.0</ele><time>2026-03-28T15:54:24.648Z</time></trkpt><trkpt lat="44.1887867" lon="12.1285933"><ele>30.0</ele><time>2026-03-28T15:54:27.648Z</time></trkpt><trkpt lat="44.188705" lon="12.1285883"><ele>30.2</ele><time>2026-03-28T15:54:29.648Z</time></trkpt><trkpt lat="44.1886283" lon="12.1285833"><ele>30.4</ele><time>2026-03-28T15:54:31.648Z</time></trkpt><trkpt lat="44.188545" lon="12.1285967"><ele>30.6</ele><time>2026-03-28T15:54:33.648Z</time></trkpt><trkpt lat="44.1884567" lon="12.1286017"><ele>30.8</ele><time>2026-03-28T15:54:35.648Z</time></trkpt><trkpt lat="44.18834" lon="12.12861"><ele>31.0</ele><time>2026-03-28T15:54:37.648Z</time></trkpt><trkpt lat="44.1882433" lon="12.1286167"><ele>31.166666666666668</ele><time>2026-03-28T15:54:39.648Z</time></trkpt><trkpt lat="44.1881583" lon="12.1286283"><ele>31.333333333333336</ele><time>2026-03-28T15:54:41.649Z</time></trkpt><trkpt lat="44.1880583" lon="12.12864"><ele>31.5</ele><time>2026-03-28T15:54:43.648Z</time></trkpt><trkpt lat="44.187975" lon="12.12861"><ele>31.666666666666664</ele><time>2026-03-28T15:54:45.648Z</time></trkpt><trkpt lat="44.18791" lon="12.1285767"><ele>31.833333333333332</ele><time>2026-03-28T15:54:47.648Z</time></trkpt><trkpt lat="44.1878467" lon="12.1285283"><ele>32.0</ele><time>2026-03-28T15:54:49.648Z</time></trkpt><trkpt lat="44.18776" lon="12.1284817"><ele>32.0</ele><time>2026-03-28T15:54:51.648Z</time></trkpt><trkpt lat="44.18766" lon="12.1284517"><ele>32.0</ele><time>2026-03-28T15:54:53.648Z</time></trkpt><trkpt lat="44.187565" lon="12.12841"><ele>32.0</ele><time>2026-03-28T15:54:55.648Z</time></trkpt><trkpt lat="44.187485" lon="12.1283683"><ele>32.0</ele><time>2026-03-28T15:54:57.648Z</time></trkpt><trkpt lat="44.1873933" lon="12.1283283"><ele>32.0</ele><time>2026-03-28T15:54:59.648Z</time></trkpt><trkpt lat="44.1873083" lon="12.1282767"><ele>32.0</ele><time>2026-03-28T15:55:01.649Z</time></trkpt><trkpt lat="44.18721" lon="12.128235"><ele>32.0</ele><time>2026-03-28T15:55:03.648Z</time></trkpt><trkpt lat="44.187095" lon="12.1281867"><ele>32.0</ele><time>2026-03-28T15:55:05.648Z</time></trkpt><trkpt lat="44.1869717" lon="12.1281233"><ele>32.0</ele><time>2026-03-28T15:55:07.648Z</time></trkpt><trkpt lat="44.1868933" lon="12.1280983"><ele>32.0</ele><time>2026-03-28T15:55:08.648Z</time></trkpt><trkpt lat="44.18678" lon="12.1280517"><ele>31.999999999999996</ele><time>2026-03-28T15:55:10.648Z</time></trkpt><trkpt lat="44.1866883" lon="12.1280033"><ele>32.0</ele><time>2026-03-28T15:55:12.649Z</time></trkpt><trkpt lat="44.18659" lon="12.1279333"><ele>32.0</ele><time>2026-03-28T15:55:14.649Z</time></trkpt><trkpt lat="44.1865667" lon="12.1278283"><ele>32.0</ele><time>2026-03-28T15:55:17.649Z</time></trkpt><trkpt lat="44.1865867" lon="12.1277233"><ele>31.999999999999996</ele><time>2026-03-28T15:55:19.649Z</time></trkpt><trkpt lat="44.186595" lon="12.127635"><ele>32.0</ele><time>2026-03-28T15:55:20.648Z</time></trkpt><trkpt lat="44.1866267" lon="12.12749"><ele>32.0</ele><time>2026-03-28T15:55:22.648Z</time></trkpt><trkpt lat="44.186675" lon="12.1273433"><ele>32.0</ele><time>2026-03-28T15:55:24.648Z</time></trkpt><trkpt lat="44.1867117" lon="12.1272167"><ele>32.0</ele><time>2026-03-28T15:55:26.648Z</time></trkpt><trkpt lat="44.1867367" lon="12.1270833"><ele>32.0</ele><time>2026-03-28T15:55:28.649Z</time></trkpt><trkpt lat="44.1867617" lon="12.12696"><ele>32.0</ele><time>2026-03-28T15:55:30.648Z</time></trkpt><trkpt lat="44.1867917" lon="12.1268633"><ele>31.999999999999996</ele><time>2026-03-28T15:55:32.648Z</time></trkpt><trkpt lat="44.1868167" lon="12.1267633"><ele>32.0</ele><time>2026-03-28T15:55:34.649Z</time></trkpt><trkpt lat="44.1868467" lon="12.1266583"><ele>32.0</ele><time>2026-03-28T15:55:36.649Z</time></trkpt><trkpt lat="44.186875" lon="12.1265533"><ele>32.0</ele><time>2026-03-28T15:55:38.648Z</time></trkpt><trkpt lat="44.1869017" lon="12.1264367"><ele>31.999999999999996</ele><time>2026-03-28T15:55:40.648Z</time></trkpt><trkpt lat="44.1869083" lon="12.1263083"><ele>32.0</ele><time>2026-03-28T15:55:42.648Z</time></trkpt><trkpt lat="44.1868983" lon="12.1262167"><ele>31.857142857142854</ele><time>2026-03-28T15:55:44.648Z</time></trkpt><trkpt lat="44.186915" lon="12.1260967"><ele>31.71428571428571</ele><time>2026-03-28T15:55:46.648Z</time></trkpt><trkpt lat="44.1869017" lon="12.126"><ele>31.57142857142857</ele><time>2026-03-28T15:55:48.649Z</time></trkpt><trkpt lat="44.1868583" lon="12.1259283"><ele>31.42857142857143</ele><time>2026-03-28T15:55:50.649Z</time></trkpt><trkpt lat="44.1868" lon="12.1258767"><ele>31.28571428571429</ele><time>2026-03-28T15:55:52.648Z</time></trkpt><trkpt lat="44.1867367" lon="12.1258133"><ele>31.142857142857146</ele><time>2026-03-28T15:55:54.648Z</time></trkpt><trkpt lat="44.1866767" lon="12.12575"><ele>31.0</ele><time>2026-03-28T15:55:56.648Z</time></trkpt><trkpt lat="44.1866383" lon="12.1256767"><ele>31.000000000000004</ele><time>2026-03-28T15:55:58.648Z</time></trkpt><trkpt lat="44.1866167" lon="12.125575"><ele>31.0</ele><time>2026-03-28T15:56:00.648Z</time></trkpt><trkpt lat="44.186575" lon="12.125475"><ele>31.0</ele><time>2026-03-28T15:56:02.648Z</time></trkpt><trkpt lat="44.1865117" lon="12.125435"><ele>31.0</ele><time>2026-03-28T15:56:04.649Z</time></trkpt><trkpt lat="44.18643" lon="12.125395"><ele>31.000000000000004</ele><time>2026-03-28T15:56:06.648Z</time></trkpt><trkpt lat="44.1863317" lon="12.12533"><ele>31.0</ele><time>2026-03-28T15:56:08.649Z</time></trkpt><trkpt lat="44.18624" lon="12.12524"><ele>31.200000000000003</ele><time>2026-03-28T15:56:10.648Z</time></trkpt><trkpt lat="44.1861483" lon="12.1251433"><ele>31.400000000000002</ele><time>2026-03-28T15:56:12.648Z</time></trkpt><trkpt lat="44.1860417" lon="12.1250583"><ele>31.6</ele><time>2026-03-28T15:56:14.648Z</time></trkpt><trkpt lat="44.1859367" lon="12.1249617"><ele>31.8</ele><time>2026-03-28T15:56:16.648Z</time></trkpt><trkpt lat="44.1858817" lon="12.1249117"><ele>32.0</ele><time>2026-03-28T15:56:17.648Z</time></trkpt><trkpt lat="44.1857767" lon="12.12482"><ele>32.0</ele><time>2026-03-28T15:56:19.648Z</time></trkpt><trkpt lat="44.185685" lon="12.1247267"><ele>32.0</ele><time>2026-03-28T15:56:21.649Z</time></trkpt><trkpt lat="44.1855867" lon="12.124635"><ele>32.0</ele><time>2026-03-28T15:56:23.649Z</time></trkpt><trkpt lat="44.1855017" lon="12.12456"><ele>32.0</ele><time>2026-03-28T15:56:25.648Z</time></trkpt><trkpt lat="44.1854117" lon="12.12449"><ele>32.0</ele><time>2026-03-28T15:56:27.648Z</time></trkpt><trkpt lat="44.18529" lon="12.124375"><ele>32.2</ele><time>2026-03-28T15:56:30.648Z</time></trkpt><trkpt lat="44.1852733" lon="12.1242383"><ele>32.400000000000006</ele><time>2026-03-28T15:56:33.648Z</time></trkpt><trkpt lat="44.1853083" lon="12.1241083"><ele>32.599999999999994</ele><time>2026-03-28T15:56:35.648Z</time></trkpt><trkpt lat="44.1853533" lon="12.12397"><ele>32.8</ele><time>2026-03-28T15:56:37.648Z</time></trkpt><trkpt lat="44.18541" lon="12.1238167"><ele>33.0</ele><time>2026-03-28T15:56:39.649Z</time></trkpt><trkpt lat="44.1854667" lon="12.12367"><ele>33.0</ele><time>2026-03-28T15:56:41.648Z</time></trkpt><trkpt lat="44.18554" lon="12.1235483"><ele>33.0</ele><time>2026-03-28T15:56:43.648Z</time></trkpt><trkpt lat="44.18561" lon="12.1234367"><ele>33.0</ele><time>2026-03-28T15:56:45.649Z</time></trkpt><trkpt lat="44.1856817" lon="12.123335"><ele>33.0</ele><time>2026-03-28T15:56:47.648Z</time></trkpt><trkpt lat="44.185765" lon="12.1232433"><ele>33.0</ele><time>2026-03-28T15:56:49.649Z</time></trkpt><trkpt lat="44.18586" lon="12.1231683"><ele>32.0</ele><time>2026-03-28T15:56:51.648Z</time></trkpt><trkpt lat="44.18596" lon="12.1230783"><ele>31.0</ele><time>2026-03-28T15:56:53.649Z</time></trkpt><trkpt lat="44.1860517" lon="12.1229867"><ele>30.0</ele><time>2026-03-28T15:56:55.648Z</time></trkpt><trkpt lat="44.186145" lon="12.122885"><ele>29.0</ele><time>2026-03-28T15:56:57.648Z</time></trkpt><trkpt lat="44.1862367" lon="12.1227683"><ele>29.0</ele><time>2026-03-28T15:56:59.649Z</time></trkpt><trkpt lat="44.1863217" lon="12.1226467"><ele>29.0</ele><time>2026-03-28T15:57:01.648Z</time></trkpt><trkpt lat="44.1864017" lon="12.1225367"><ele>29.0</ele><time>2026-03-28T15:57:03.648Z</time></trkpt><trkpt lat="44.1864783" lon="12.1224217"><ele>29.0</ele><time>2026-03-28T15:57:05.648Z</time></trkpt><trkpt lat="44.1865517" lon="12.122295"><ele>29.0</ele><time>2026-03-28T15:57:07.648Z</time></trkpt><trkpt lat="44.1866167" lon="12.1221683"><ele>29.0</ele><time>2026-03-28T15:57:09.648Z</time></trkpt><trkpt lat="44.1866833" lon="12.12204"><ele>29.0</ele><time>2026-03-28T15:57:11.649Z</time></trkpt><trkpt lat="44.1867433" lon="12.12192"><ele>29.0</ele><time>2026-03-28T15:57:13.649Z</time></trkpt><trkpt lat="44.1867933" lon="12.1217967"><ele>29.0</ele><time>2026-03-28T15:57:15.648Z</time></trkpt><trkpt lat="44.18684" lon="12.121665"><ele>29.2</ele><time>2026-03-28T15:57:17.648Z</time></trkpt><trkpt lat="44.1868983" lon="12.1215267"><ele>29.4</ele><time>2026-03-28T15:57:19.648Z</time></trkpt><trkpt lat="44.1869417" lon="12.121405"><ele>29.6</ele><time>2026-03-28T15:57:21.648Z</time></trkpt><trkpt lat="44.18698" lon="12.1212817"><ele>29.8</ele><time>2026-03-28T15:57:23.648Z</time></trkpt><trkpt lat="44.187005" lon="12.121175"><ele>30.0</ele><time>2026-03-28T15:57:25.648Z</time></trkpt><trkpt lat="44.1870283" lon="12.1210533"><ele>30.0</ele><time>2026-03-28T15:57:27.648Z</time></trkpt><trkpt lat="44.18706" lon="12.1209283"><ele>30.0</ele><time>2026-03-28T15:57:29.648Z</time></trkpt><trkpt lat="44.1870883" lon="12.1207733"><ele>30.0</ele><time>2026-03-28T15:57:31.649Z</time></trkpt><trkpt lat="44.187085" lon="12.120595"><ele>30.0</ele><time>2026-03-28T15:57:33.648Z</time></trkpt><trkpt lat="44.18707" lon="12.1204983"><ele>30.0</ele><time>2026-03-28T15:57:34.648Z</time></trkpt><trkpt lat="44.18705" lon="12.12041"><ele>29.833333333333332</ele><time>2026-03-28T15:57:35.648Z</time></trkpt><trkpt lat="44.1870283" lon="12.120325"><ele>29.666666666666664</ele><time>2026-03-28T15:57:36.648Z</time></trkpt><trkpt lat="44.1870083" lon="12.1202417"><ele>29.5</ele><time>2026-03-28T15:57:37.648Z</time></trkpt><trkpt lat="44.1869883" lon="12.1201483"><ele>29.333333333333332</ele><time>2026-03-28T15:57:38.648Z</time></trkpt><trkpt lat="44.1869483" lon="12.1199617"><ele>29.166666666666664</ele><time>2026-03-28T15:57:40.648Z</time></trkpt><trkpt lat="44.186925" lon="12.1198617"><ele>29.0</ele><time>2026-03-28T15:57:41.648Z</time></trkpt><trkpt lat="44.1868983" lon="12.1197667"><ele>28.999999999999996</ele><time>2026-03-28T15:57:42.648Z</time></trkpt><trkpt lat="44.1868717" lon="12.1196633"><ele>29.0</ele><time>2026-03-28T15:57:43.648Z</time></trkpt><trkpt lat="44.18684" lon="12.1195767"><ele>29.0</ele><time>2026-03-28T15:57:44.648Z</time></trkpt><trkpt lat="44.1868067" lon="12.1194833"><ele>29.0</ele><time>2026-03-28T15:57:45.648Z</time></trkpt><trkpt lat="44.1867667" lon="12.1194117"><ele>28.999999999999996</ele><time>2026-03-28T15:57:46.649Z</time></trkpt><trkpt lat="44.186675" lon="12.119275"><ele>29.0</ele><time>2026-03-28T15:57:48.648Z</time></trkpt><trkpt lat="44.1866267" lon="12.1192033"><ele>29.0</ele><time>2026-03-28T15:57:49.649Z</time></trkpt><trkpt lat="44.1865733" lon="12.1191233"><ele>29.0</ele><time>2026-03-28T15:57:50.648Z</time></trkpt><trkpt lat="44.1865233" lon="12.1190567"><ele>29.0</ele><time>2026-03-28T15:57:51.648Z</time></trkpt><trkpt lat="44.18648" lon="12.1189833"><ele>29.0</ele><time>2026-03-28T15:57:52.648Z</time></trkpt><trkpt lat="44.1864117" lon="12.1188417"><ele>29.0</ele><time>2026-03-28T15:57:54.648Z</time></trkpt><trkpt lat="44.1863883" lon="12.1186817"><ele>29.0</ele><time>2026-03-28T15:57:56.648Z</time></trkpt><trkpt lat="44.186395" lon="12.11859"><ele>29.0</ele><time>2026-03-28T15:57:57.648Z</time></trkpt><trkpt lat="44.186415" lon="12.11842"><ele>29.0</ele><time>2026-03-28T15:57:59.648Z</time></trkpt><trkpt lat="44.1864383" lon="12.1182517"><ele>29.0</ele><time>2026-03-28T15:58:01.649Z</time></trkpt><trkpt lat="44.1864533" lon="12.1181583"><ele>29.0</ele><time>2026-03-28T15:58:02.648Z</time></trkpt><trkpt lat="44.18646" lon="12.11806"><ele>29.000000000000004</ele><time>2026-03-28T15:58:03.648Z</time></trkpt><trkpt lat="44.1864717" lon="12.1179683"><ele>29.0</ele><time>2026-03-28T15:58:04.648Z</time></trkpt><trkpt lat="44.18649" lon="12.1178633"><ele>29.000000000000004</ele><time>2026-03-28T15:58:05.648Z</time></trkpt><trkpt lat="44.1865" lon="12.117765"><ele>29.000000000000004</ele><time>2026-03-28T15:58:06.648Z</time></trkpt><trkpt lat="44.186515" lon="12.1176733"><ele>29.0</ele><time>2026-03-28T15:58:07.649Z</time></trkpt><trkpt lat="44.1865283" lon="12.117575"><ele>29.000000000000004</ele><time>2026-03-28T15:58:08.649Z</time></trkpt><trkpt lat="44.1865417" lon="12.1174667"><ele>29.000000000000004</ele><time>2026-03-28T15:58:09.648Z</time></trkpt><trkpt lat="44.18656" lon="12.1173617"><ele>28.666666666666664</ele><time>2026-03-28T15:58:10.649Z</time></trkpt><trkpt lat="44.1865783" lon="12.117265"><ele>28.333333333333332</ele><time>2026-03-28T15:58:11.649Z</time></trkpt><trkpt lat="44.1866017" lon="12.1171683"><ele>28.0</ele><time>2026-03-28T15:58:12.648Z</time></trkpt><trkpt lat="44.1866283" lon="12.1170733"><ele>27.666666666666664</ele><time>2026-03-28T15:58:13.649Z</time></trkpt><trkpt lat="44.1866567" lon="12.1169817"><ele>27.333333333333332</ele><time>2026-03-28T15:58:14.648Z</time></trkpt><trkpt lat="44.1866817" lon="12.1168967"><ele>27.0</ele><time>2026-03-28T15:58:15.648Z</time></trkpt><trkpt lat="44.1867367" lon="12.1167333"><ele>27.0</ele><time>2026-03-28T15:58:17.649Z</time></trkpt><trkpt lat="44.186765" lon="12.1166483"><ele>27.0</ele><time>2026-03-28T15:58:18.648Z</time></trkpt><trkpt lat="44.1867967" lon="12.1165567"><ele>27.0</ele><time>2026-03-28T15:58:19.649Z</time></trkpt><trkpt lat="44.186825" lon="12.1164667"><ele>27.0</ele><time>2026-03-28T15:58:20.648Z</time></trkpt><trkpt lat="44.186855" lon="12.1163783"><ele>27.0</ele><time>2026-03-28T15:58:21.649Z</time></trkpt><trkpt lat="44.1868883" lon="12.1162783"><ele>27.0</ele><time>2026-03-28T15:58:22.648Z</time></trkpt><trkpt lat="44.1869217" lon="12.1161933"><ele>27.0</ele><time>2026-03-28T15:58:23.649Z</time></trkpt><trkpt lat="44.1869517" lon="12.1161117"><ele>27.200000000000003</ele><time>2026-03-28T15:58:24.648Z</time></trkpt><trkpt lat="44.187" lon="12.1159783"><ele>27.400000000000002</ele><time>2026-03-28T15:58:26.648Z</time></trkpt><trkpt lat="44.1870467" lon="12.115845"><ele>27.599999999999998</ele><time>2026-03-28T15:58:28.648Z</time></trkpt><trkpt lat="44.1870767" lon="12.1157"><ele>27.799999999999997</ele><time>2026-03-28T15:58:30.649Z</time></trkpt><trkpt lat="44.1870717" lon="12.1155317"><ele>28.0</ele><time>2026-03-28T15:58:32.648Z</time></trkpt><trkpt lat="44.1870417" lon="12.1154467"><ele>28.000000000000004</ele><time>2026-03-28T15:58:33.648Z</time></trkpt><trkpt lat="44.1869983" lon="12.11537"><ele>28.0</ele><time>2026-03-28T15:58:34.648Z</time></trkpt><trkpt lat="44.18695" lon="12.1153033"><ele>28.0</ele><time>2026-03-28T15:58:35.649Z</time></trkpt><trkpt lat="44.1868967" lon="12.1152433"><ele>28.0</ele><time>2026-03-28T15:58:36.648Z</time></trkpt><trkpt lat="44.186845" lon="12.115185"><ele>28.000000000000004</ele><time>2026-03-28T15:58:37.648Z</time></trkpt><trkpt lat="44.1867483" lon="12.1150767"><ele>28.0</ele><time>2026-03-28T15:58:39.649Z</time></trkpt><trkpt lat="44.186695" lon="12.1150233"><ele>28.0</ele><time>2026-03-28T15:58:40.648Z</time></trkpt><trkpt lat="44.1866367" lon="12.1149683"><ele>27.999999999999996</ele><time>2026-03-28T15:58:41.649Z</time></trkpt><trkpt lat="44.186535" lon="12.11488"><ele>27.999999999999996</ele><time>2026-03-28T15:58:43.648Z</time></trkpt><trkpt lat="44.186475" lon="12.11484"><ele>28.0</ele><time>2026-03-28T15:58:44.648Z</time></trkpt><trkpt lat="44.18637" lon="12.1147583"><ele>28.0</ele><time>2026-03-28T15:58:46.648Z</time></trkpt><trkpt lat="44.1862583" lon="12.11468"><ele>28.000000000000004</ele><time>2026-03-28T15:58:48.648Z</time></trkpt><trkpt lat="44.1862017" lon="12.114635"><ele>28.0</ele><time>2026-03-28T15:58:49.648Z</time></trkpt><trkpt lat="44.1861067" lon="12.1145333"><ele>28.0</ele><time>2026-03-28T15:58:51.648Z</time></trkpt><trkpt lat="44.1859983" lon="12.114445"><ele>28.0</ele><time>2026-03-28T15:58:53.648Z</time></trkpt><trkpt lat="44.1859333" lon="12.1144083"><ele>28.000000000000004</ele><time>2026-03-28T15:58:54.648Z</time></trkpt><trkpt lat="44.185875" lon="12.1143683"><ele>28.0</ele><time>2026-03-28T15:58:55.648Z</time></trkpt><trkpt lat="44.18582" lon="12.1143233"><ele>28.0</ele><time>2026-03-28T15:58:56.649Z</time></trkpt><trkpt lat="44.1857617" lon="12.114285"><ele>27.999999999999996</ele><time>2026-03-28T15:58:57.648Z</time></trkpt><trkpt lat="44.1856633" lon="12.114195"><ele>27.999999999999996</ele><time>2026-03-28T15:58:59.648Z</time></trkpt><trkpt lat="44.18557" lon="12.114115"><ele>28.0</ele><time>2026-03-28T15:59:01.649Z</time></trkpt><trkpt lat="44.1854833" lon="12.1140383"><ele>28.0</ele><time>2026-03-28T15:59:03.648Z</time></trkpt><trkpt lat="44.1854217" lon="12.113975"><ele>27.799999999999997</ele><time>2026-03-28T15:59:05.648Z</time></trkpt><trkpt lat="44.18534" lon="12.11393"><ele>27.599999999999998</ele><time>2026-03-28T15:59:07.648Z</time></trkpt><trkpt lat="44.185275" lon="12.1138917"><ele>27.400000000000002</ele><time>2026-03-28T15:59:09.648Z</time></trkpt><trkpt lat="44.1851767" lon="12.1138783"><ele>27.200000000000003</ele><time>2026-03-28T15:59:11.648Z</time></trkpt><trkpt lat="44.1850817" lon="12.1139317"><ele>27.0</ele><time>2026-03-28T15:59:13.648Z</time></trkpt><trkpt lat="44.18501" lon="12.11404"><ele>27.166666666666668</ele><time>2026-03-28T15:59:15.648Z</time></trkpt><trkpt lat="44.1849567" lon="12.1141583"><ele>27.333333333333336</ele><time>2026-03-28T15:59:17.648Z</time></trkpt><trkpt lat="44.1849217" lon="12.11426"><ele>27.5</ele><time>2026-03-28T15:59:19.648Z</time></trkpt><trkpt lat="44.184955" lon="12.11434"><ele>27.666666666666668</ele><time>2026-03-28T15:59:23.65Z</time></trkpt><trkpt lat="44.185015" lon="12.1144317"><ele>27.833333333333336</ele><time>2026-03-28T15:59:26.65Z</time></trkpt><trkpt lat="44.1850333" lon="12.11453"><ele>28.0</ele><time>2026-03-28T15:59:29.649Z</time></trkpt><trkpt lat="44.1849783" lon="12.114605"><ele>28.0</ele><time>2026-03-28T15:59:34.649Z</time></trkpt><trkpt lat="44.18494" lon="12.1147617"><ele>28.0</ele><time>2026-03-28T15:59:48.649Z</time></trkpt><trkpt lat="44.18517" lon="12.1147983"><ele>28.0</ele><time>2026-03-28T15:59:55.041Z</time></trkpt><trkpt lat="44.1852683" lon="12.1147567"><ele>28.0</ele><time>2026-03-28T15:59:56.145Z</time></trkpt><trkpt lat="44.1852317" lon="12.114835"><ele>28.0</ele><time>2026-03-28T15:59:57.145Z</time></trkpt><trkpt lat="44.1851383" lon="12.114915"><ele>29.0</ele><time>2026-03-28T16:00:00.644Z</time></trkpt><trkpt lat="44.1850683" lon="12.114955"><ele>29.0</ele><time>2026-03-28T16:00:02.644Z</time></trkpt><trkpt lat="44.1851189" lon="12.1150153"><ele>29.0</ele><time>2026-03-28T16:01:02.671Z</time></trkpt></trkseg></trk></gpx>